<?xml version='1.0' encoding='UTF-8'?><gpx version="1.1" creator="JPX - https://github.com/jenetics/jpx" xmlns="http://www.topografix.com/GPX/1/1"><trk><trkseg><trkpt lat="43.8021683" lon="11.338815"><ele>226.79999999999998</ele><time>2026-04-18T09:56:05.932Z</time></trkpt><trkpt lat="43.8021267" lon="11.338885"><ele>229.59999999999997</ele><time>2026-04-18T09:56:06.932Z</time></trkpt><trkpt lat="43.80207" lon="11.33898"><ele>232.4</ele><time>2026-04-18T09:56:07.931Z</time></trkpt><trkpt lat="43.8020117" lon="11.3390917"><ele>235.2</ele><time>2026-04-18T09:56:08.931Z</time></trkpt><trkpt lat="43.8019517" lon="11.3392117"><ele>238.0</ele><time>2026-04-18T09:56:09.932Z</time></trkpt><trkpt lat="43.801895" lon="11.3393233"><ele>238.0</ele><time>2026-04-18T09:56:10.932Z</time></trkpt><trkpt lat="43.8018417" lon="11.3394517"><ele>238.0</ele><time>2026-04-18T09:56:11.932Z</time></trkpt><trkpt lat="43.8017883" lon="11.3395767"><ele>238.0</ele><time>2026-04-18T09:56:12.931Z</time></trkpt><trkpt lat="43.8017467" lon="11.339685"><ele>238.0</ele><time>2026-04-18T09:56:13.931Z</time></trkpt><trkpt lat="43.80172" lon="11.3397767"><ele>238.0</ele><time>2026-04-18T09:56:14.932Z</time></trkpt><trkpt lat="43.8016517" lon="11.339935"><ele>237.83333333333331</ele><time>2026-04-18T09:56:16.932Z</time></trkpt><trkpt lat="43.80161" lon="11.34001"><ele>237.66666666666666</ele><time>2026-04-18T09:56:17.931Z</time></trkpt><trkpt lat="43.8015717" lon="11.3400817"><ele>237.5</ele><time>2026-04-18T09:56:18.932Z</time></trkpt><trkpt lat="43.80148" lon="11.34021"><ele>237.33333333333331</ele><time>2026-04-18T09:56:20.932Z</time></trkpt><trkpt lat="43.8014283" lon="11.340275"><ele>237.16666666666666</ele><time>2026-04-18T09:56:21.931Z</time></trkpt><trkpt lat="43.8013683" lon="11.3403333"><ele>237.0</ele><time>2026-04-18T09:56:22.931Z</time></trkpt><trkpt lat="43.801305" lon="11.3403967"><ele>237.0</ele><time>2026-04-18T09:56:23.931Z</time></trkpt><trkpt lat="43.801235" lon="11.340465"><ele>237.0</ele><time>2026-04-18T09:56:24.932Z</time></trkpt><trkpt lat="43.8011617" lon="11.3405317"><ele>237.0</ele><time>2026-04-18T09:56:25.931Z</time></trkpt><trkpt lat="43.8011017" lon="11.3406"><ele>237.0</ele><time>2026-04-18T09:56:26.932Z</time></trkpt><trkpt lat="43.8010483" lon="11.34067"><ele>237.0</ele><time>2026-04-18T09:56:27.931Z</time></trkpt><trkpt lat="43.8009967" lon="11.34074"><ele>237.0</ele><time>2026-04-18T09:56:28.932Z</time></trkpt><trkpt lat="43.8009467" lon="11.3408217"><ele>238.0</ele><time>2026-04-18T09:56:29.931Z</time></trkpt><trkpt lat="43.8008983" lon="11.34091"><ele>239.0</ele><time>2026-04-18T09:56:30.932Z</time></trkpt><trkpt lat="43.8008617" lon="11.3410133"><ele>240.0</ele><time>2026-04-18T09:56:31.932Z</time></trkpt><trkpt lat="43.8008283" lon="11.34113"><ele>241.0</ele><time>2026-04-18T09:56:32.931Z</time></trkpt><trkpt lat="43.8008" lon="11.3412383"><ele>242.0</ele><time>2026-04-18T09:56:33.931Z</time></trkpt><trkpt lat="43.8007883" lon="11.3413383"><ele>243.0</ele><time>2026-04-18T09:56:34.931Z</time></trkpt><trkpt lat="43.8007733" lon="11.3414233"><ele>243.0</ele><time>2026-04-18T09:56:35.931Z</time></trkpt><trkpt lat="43.8007033" lon="11.341555"><ele>243.0</ele><time>2026-04-18T09:56:37.931Z</time></trkpt><trkpt lat="43.80066" lon="11.3416267"><ele>243.0</ele><time>2026-04-18T09:56:38.931Z</time></trkpt><trkpt lat="43.800625" lon="11.3417083"><ele>243.0</ele><time>2026-04-18T09:56:39.931Z</time></trkpt><trkpt lat="43.8005933" lon="11.34179"><ele>243.0</ele><time>2026-04-18T09:56:40.932Z</time></trkpt><trkpt lat="43.8005533" lon="11.34195"><ele>243.0</ele><time>2026-04-18T09:56:42.931Z</time></trkpt><trkpt lat="43.8004833" lon="11.3420467"><ele>243.0</ele><time>2026-04-18T09:56:44.931Z</time></trkpt><trkpt lat="43.8003733" lon="11.3421283"><ele>243.0</ele><time>2026-04-18T09:56:46.931Z</time></trkpt><trkpt lat="43.80033" lon="11.3421983"><ele>243.0</ele><time>2026-04-18T09:56:47.931Z</time></trkpt><trkpt lat="43.8002783" lon="11.3422733"><ele>243.0</ele><time>2026-04-18T09:56:48.932Z</time></trkpt><trkpt lat="43.8002267" lon="11.3423567"><ele>243.0</ele><time>2026-04-18T09:56:49.931Z</time></trkpt><trkpt lat="43.800155" lon="11.3424517"><ele>243.0</ele><time>2026-04-18T09:56:50.931Z</time></trkpt><trkpt lat="43.80009" lon="11.3425467"><ele>243.66666666666666</ele><time>2026-04-18T09:56:51.931Z</time></trkpt><trkpt lat="43.8000217" lon="11.3426333"><ele>244.33333333333331</ele><time>2026-04-18T09:56:52.932Z</time></trkpt><trkpt lat="43.7999567" lon="11.3427183"><ele>245.0</ele><time>2026-04-18T09:56:53.931Z</time></trkpt><trkpt lat="43.7998917" lon="11.342795"><ele>245.66666666666666</ele><time>2026-04-18T09:56:54.931Z</time></trkpt><trkpt lat="43.799825" lon="11.34287"><ele>246.33333333333331</ele><time>2026-04-18T09:56:55.931Z</time></trkpt><trkpt lat="43.7997633" lon="11.3429383"><ele>247.0</ele><time>2026-04-18T09:56:56.931Z</time></trkpt><trkpt lat="43.7996983" lon="11.34301"><ele>249.99999999999997</ele><time>2026-04-18T09:56:57.931Z</time></trkpt><trkpt lat="43.79964" lon="11.3430833"><ele>253.0</ele><time>2026-04-18T09:56:58.932Z</time></trkpt><trkpt lat="43.7995733" lon="11.34316"><ele>256.0</ele><time>2026-04-18T09:56:59.931Z</time></trkpt><trkpt lat="43.7995117" lon="11.343245"><ele>259.0</ele><time>2026-04-18T09:57:00.932Z</time></trkpt><trkpt lat="43.7994567" lon="11.343335"><ele>262.0</ele><time>2026-04-18T09:57:01.932Z</time></trkpt><trkpt lat="43.7994017" lon="11.343425"><ele>265.0</ele><time>2026-04-18T09:57:02.931Z</time></trkpt><trkpt lat="43.79935" lon="11.3435183"><ele>264.5</ele><time>2026-04-18T09:57:03.931Z</time></trkpt><trkpt lat="43.7993017" lon="11.3436033"><ele>264.0</ele><time>2026-04-18T09:57:04.931Z</time></trkpt><trkpt lat="43.799245" lon="11.3436867"><ele>263.5</ele><time>2026-04-18T09:57:05.931Z</time></trkpt><trkpt lat="43.7991883" lon="11.34376"><ele>263.0</ele><time>2026-04-18T09:57:06.932Z</time></trkpt><trkpt lat="43.7991367" lon="11.3438383"><ele>262.5</ele><time>2026-04-18T09:57:07.931Z</time></trkpt><trkpt lat="43.7990883" lon="11.3438983"><ele>262.0</ele><time>2026-04-18T09:57:08.931Z</time></trkpt><trkpt lat="43.7990167" lon="11.344025"><ele>262.0</ele><time>2026-04-18T09:57:10.931Z</time></trkpt><trkpt lat="43.798945" lon="11.3440967"><ele>262.0</ele><time>2026-04-18T09:57:12.931Z</time></trkpt><trkpt lat="43.79888" lon="11.3441517"><ele>262.0</ele><time>2026-04-18T09:57:14.931Z</time></trkpt><trkpt lat="43.7988283" lon="11.34421"><ele>262.0</ele><time>2026-04-18T09:57:16.931Z</time></trkpt><trkpt lat="43.798765" lon="11.34431"><ele>262.0</ele><time>2026-04-18T09:57:21.931Z</time></trkpt><trkpt lat="43.79875" lon="11.3444283"><ele>262.0</ele><time>2026-04-18T09:57:23.931Z</time></trkpt><trkpt lat="43.7987483" lon="11.3445517"><ele>262.0</ele><time>2026-04-18T09:57:25.931Z</time></trkpt><trkpt lat="43.7987167" lon="11.34469"><ele>262.0</ele><time>2026-04-18T09:57:27.931Z</time></trkpt><trkpt lat="43.7986367" lon="11.3448233"><ele>262.0</ele><time>2026-04-18T09:57:29.931Z</time></trkpt><trkpt lat="43.798585" lon="11.3448867"><ele>262.0</ele><time>2026-04-18T09:57:30.931Z</time></trkpt><trkpt lat="43.7985317" lon="11.34495"><ele>262.0</ele><time>2026-04-18T09:57:31.931Z</time></trkpt><trkpt lat="43.7984333" lon="11.3450483"><ele>262.0</ele><time>2026-04-18T09:57:33.931Z</time></trkpt><trkpt lat="43.79838" lon="11.345105"><ele>262.0</ele><time>2026-04-18T09:57:34.931Z</time></trkpt><trkpt lat="43.7983267" lon="11.3451717"><ele>262.0</ele><time>2026-04-18T09:57:35.932Z</time></trkpt><trkpt lat="43.7982783" lon="11.3452317"><ele>262.0</ele><time>2026-04-18T09:57:36.931Z</time></trkpt><trkpt lat="43.79823" lon="11.3452917"><ele>262.0</ele><time>2026-04-18T09:57:37.931Z</time></trkpt><trkpt lat="43.7981817" lon="11.3453533"><ele>262.0</ele><time>2026-04-18T09:57:38.931Z</time></trkpt><trkpt lat="43.7981267" lon="11.3454083"><ele>262.0</ele><time>2026-04-18T09:57:39.932Z</time></trkpt><trkpt lat="43.7980767" lon="11.3454733"><ele>262.0</ele><time>2026-04-18T09:57:40.932Z</time></trkpt><trkpt lat="43.7980233" lon="11.345545"><ele>262.0</ele><time>2026-04-18T09:57:41.931Z</time></trkpt><trkpt lat="43.7979733" lon="11.3456133"><ele>262.0</ele><time>2026-04-18T09:57:42.931Z</time></trkpt><trkpt lat="43.7979067" lon="11.3457317"><ele>262.0</ele><time>2026-04-18T09:57:44.931Z</time></trkpt><trkpt lat="43.7978698" lon="11.3458731"><ele>262.0</ele><time>2026-04-18T09:57:46.931Z</time></trkpt><trkpt lat="43.7978577" lon="11.3460197"><ele>264.4</ele><time>2026-04-18T09:57:48.931Z</time></trkpt><trkpt lat="43.7978503" lon="11.3461679"><ele>266.79999999999995</ele><time>2026-04-18T09:57:50.932Z</time></trkpt><trkpt lat="43.7978962" lon="11.3463021"><ele>269.2</ele><time>2026-04-18T09:57:52.931Z</time></trkpt><trkpt lat="43.7979484" lon="11.3464279"><ele>271.59999999999997</ele><time>2026-04-18T09:57:54.931Z</time></trkpt><trkpt lat="43.7979334" lon="11.3465456"><ele>274.0</ele><time>2026-04-18T09:57:56.931Z</time></trkpt><trkpt lat="43.797868" lon="11.3466858"><ele>273.66666666666663</ele><time>2026-04-18T09:57:58.931Z</time></trkpt><trkpt lat="43.7978219" lon="11.3467779"><ele>273.3333333333333</ele><time>2026-04-18T09:57:59.931Z</time></trkpt><trkpt lat="43.7977757" lon="11.34687"><ele>273.0</ele><time>2026-04-18T09:58:00.931Z</time></trkpt><trkpt lat="43.7977338" lon="11.3469584"><ele>272.6666666666667</ele><time>2026-04-18T09:58:01.931Z</time></trkpt><trkpt lat="43.7976934" lon="11.3470438"><ele>272.33333333333337</ele><time>2026-04-18T09:58:02.931Z</time></trkpt><trkpt lat="43.7976584" lon="11.3471165"><ele>272.0</ele><time>2026-04-18T09:58:03.932Z</time></trkpt><trkpt lat="43.7975986" lon="11.3472082"><ele>277.6</ele><time>2026-04-18T09:58:05.931Z</time></trkpt><trkpt lat="43.7975369" lon="11.3472534"><ele>283.2</ele><time>2026-04-18T09:58:07.931Z</time></trkpt><trkpt lat="43.797452" lon="11.3473236"><ele>288.8</ele><time>2026-04-18T09:58:09.931Z</time></trkpt><trkpt lat="43.7973598" lon="11.3473904"><ele>294.4</ele><time>2026-04-18T09:58:11.931Z</time></trkpt><trkpt lat="43.7972468" lon="11.3474701"><ele>300.0</ele><time>2026-04-18T09:58:13.931Z</time></trkpt><trkpt lat="43.797151" lon="11.3475288"><ele>300.0</ele><time>2026-04-18T09:58:15.932Z</time></trkpt><trkpt lat="43.7970447" lon="11.3475599"><ele>300.0</ele><time>2026-04-18T09:58:17.931Z</time></trkpt><trkpt lat="43.7969317" lon="11.3475967"><ele>300.0</ele><time>2026-04-18T09:58:19.931Z</time></trkpt><trkpt lat="43.79687" lon="11.34763"><ele>300.0</ele><time>2026-04-18T09:58:20.931Z</time></trkpt><trkpt lat="43.79681" lon="11.3476733"><ele>300.0</ele><time>2026-04-18T09:58:21.931Z</time></trkpt><trkpt lat="43.79675" lon="11.347715"><ele>300.0</ele><time>2026-04-18T09:58:22.931Z</time></trkpt><trkpt lat="43.79668" lon="11.3477617"><ele>301.3333333333333</ele><time>2026-04-18T09:58:23.931Z</time></trkpt><trkpt lat="43.7966183" lon="11.3478033"><ele>302.6666666666667</ele><time>2026-04-18T09:58:24.931Z</time></trkpt><trkpt lat="43.7965267" lon="11.3478683"><ele>304.0</ele><time>2026-04-18T09:58:26.932Z</time></trkpt><trkpt lat="43.7964595" lon="11.3479192"><ele>305.33333333333337</ele><time>2026-04-18T09:58:28.931Z</time></trkpt><trkpt lat="43.7963823" lon="11.3479964"><ele>306.6666666666667</ele><time>2026-04-18T09:58:30.931Z</time></trkpt><trkpt lat="43.7963174" lon="11.3481104"><ele>308.0</ele><time>2026-04-18T09:58:32.931Z</time></trkpt><trkpt lat="43.79627" lon="11.3482217"><ele>308.0</ele><time>2026-04-18T09:58:34.932Z</time></trkpt><trkpt lat="43.79624" lon="11.3483183"><ele>308.0</ele><time>2026-04-18T09:58:36.931Z</time></trkpt><trkpt lat="43.79623" lon="11.3484383"><ele>308.0</ele><time>2026-04-18T09:58:39.931Z</time></trkpt><trkpt lat="43.796265" lon="11.34855"><ele>308.0</ele><time>2026-04-18T09:58:42.931Z</time></trkpt><trkpt lat="43.796305" lon="11.3486667"><ele>308.0</ele><time>2026-04-18T09:58:45.931Z</time></trkpt><trkpt lat="43.7963367" lon="11.348795"><ele>308.0</ele><time>2026-04-18T09:58:47.931Z</time></trkpt><trkpt lat="43.7963733" lon="11.3489283"><ele>308.2</ele><time>2026-04-18T09:58:49.932Z</time></trkpt><trkpt lat="43.7964067" lon="11.3490833"><ele>308.4</ele><time>2026-04-18T09:58:51.931Z</time></trkpt><trkpt lat="43.796445" lon="11.3492533"><ele>308.59999999999997</ele><time>2026-04-18T09:58:53.932Z</time></trkpt><trkpt lat="43.7964938" lon="11.3494118"><ele>308.8</ele><time>2026-04-18T09:58:55.932Z</time></trkpt><trkpt lat="43.7965232" lon="11.3494954"><ele>309.0</ele><time>2026-04-18T09:58:56.932Z</time></trkpt><trkpt lat="43.7965511" lon="11.3495739"><ele>309.0</ele><time>2026-04-18T09:58:57.931Z</time></trkpt><trkpt lat="43.796597" lon="11.3497004"><ele>309.0</ele><time>2026-04-18T09:58:59.931Z</time></trkpt><trkpt lat="43.7966486" lon="11.3498002"><ele>309.0</ele><time>2026-04-18T09:59:01.931Z</time></trkpt><trkpt lat="43.7967039" lon="11.3498915"><ele>309.0</ele><time>2026-04-18T09:59:03.932Z</time></trkpt><trkpt lat="43.7967557" lon="11.3500047"><ele>309.0</ele><time>2026-04-18T09:59:05.932Z</time></trkpt><trkpt lat="43.796815" lon="11.350115"><ele>306.59999999999997</ele><time>2026-04-18T09:59:07.932Z</time></trkpt><trkpt lat="43.796865" lon="11.3502233"><ele>304.2</ele><time>2026-04-18T09:59:09.932Z</time></trkpt><trkpt lat="43.7969333" lon="11.3503167"><ele>301.79999999999995</ele><time>2026-04-18T09:59:11.931Z</time></trkpt><trkpt lat="43.7969867" lon="11.3504017"><ele>299.4</ele><time>2026-04-18T09:59:13.932Z</time></trkpt><trkpt lat="43.7970617" lon="11.3504833"><ele>297.0</ele><time>2026-04-18T09:59:15.931Z</time></trkpt><trkpt lat="43.7971533" lon="11.3505467"><ele>297.0</ele><time>2026-04-18T09:59:17.931Z</time></trkpt><trkpt lat="43.7972333" lon="11.3505883"><ele>297.0</ele><time>2026-04-18T09:59:19.931Z</time></trkpt><trkpt lat="43.7973017" lon="11.350615"><ele>297.0</ele><time>2026-04-18T09:59:21.931Z</time></trkpt><trkpt lat="43.797385" lon="11.35062"><ele>297.0</ele><time>2026-04-18T09:59:23.931Z</time></trkpt><trkpt lat="43.7974683" lon="11.350595"><ele>297.0</ele><time>2026-04-18T09:59:25.931Z</time></trkpt><trkpt lat="43.797535" lon="11.3505617"><ele>297.0</ele><time>2026-04-18T09:59:27.932Z</time></trkpt><trkpt lat="43.7976167" lon="11.3505117"><ele>302.0</ele><time>2026-04-18T09:59:30.931Z</time></trkpt><trkpt lat="43.7976967" lon="11.3504483"><ele>307.0</ele><time>2026-04-18T09:59:32.932Z</time></trkpt><trkpt lat="43.79778" lon="11.3503783"><ele>312.0</ele><time>2026-04-18T09:59:34.931Z</time></trkpt><trkpt lat="43.797855" lon="11.3503183"><ele>317.0</ele><time>2026-04-18T09:59:36.931Z</time></trkpt><trkpt lat="43.797935" lon="11.3502567"><ele>322.0</ele><time>2026-04-18T09:59:38.931Z</time></trkpt><trkpt lat="43.79801" lon="11.3502183"><ele>327.0</ele><time>2026-04-18T09:59:40.931Z</time></trkpt><trkpt lat="43.79809" lon="11.3501967"><ele>327.0</ele><time>2026-04-18T09:59:42.931Z</time></trkpt><trkpt lat="43.79816" lon="11.350165"><ele>327.0</ele><time>2026-04-18T09:59:44.932Z</time></trkpt><trkpt lat="43.7982333" lon="11.3501217"><ele>327.0</ele><time>2026-04-18T09:59:46.932Z</time></trkpt><trkpt lat="43.7982967" lon="11.350055"><ele>327.0</ele><time>2026-04-18T09:59:48.931Z</time></trkpt><trkpt lat="43.7983667" lon="11.35"><ele>327.0</ele><time>2026-04-18T09:59:50.932Z</time></trkpt><trkpt lat="43.7984333" lon="11.34998"><ele>327.0</ele><time>2026-04-18T09:59:52.932Z</time></trkpt><trkpt lat="43.7985283" lon="11.3499783"><ele>329.0</ele><time>2026-04-18T09:59:54.931Z</time></trkpt><trkpt lat="43.7986133" lon="11.3499867"><ele>331.0</ele><time>2026-04-18T09:59:56.931Z</time></trkpt><trkpt lat="43.7986883" lon="11.3499783"><ele>333.0</ele><time>2026-04-18T09:59:58.932Z</time></trkpt><trkpt lat="43.798765" lon="11.3499983"><ele>335.0</ele><time>2026-04-18T10:00:01.932Z</time></trkpt><trkpt lat="43.79882" lon="11.3500533"><ele>337.0</ele><time>2026-04-18T10:00:03.931Z</time></trkpt><trkpt lat="43.7988833" lon="11.3501117"><ele>339.0</ele><time>2026-04-18T10:00:05.932Z</time></trkpt><trkpt lat="43.79896" lon="11.3501983"><ele>339.0</ele><time>2026-04-18T10:00:07.931Z</time></trkpt><trkpt lat="43.799055" lon="11.3502483"><ele>339.0</ele><time>2026-04-18T10:00:09.931Z</time></trkpt><trkpt lat="43.7991283" lon="11.350255"><ele>339.0</ele><time>2026-04-18T10:00:11.931Z</time></trkpt><trkpt lat="43.799195" lon="11.3502367"><ele>339.0</ele><time>2026-04-18T10:02:39.931Z</time></trkpt><trkpt lat="43.7992317" lon="11.350355"><ele>339.0</ele><time>2026-04-18T10:02:56.931Z</time></trkpt><trkpt lat="43.7991283" lon="11.3503517"><ele>339.0</ele><time>2026-04-18T10:03:18.931Z</time></trkpt><trkpt lat="43.7990583" lon="11.350305"><ele>339.0</ele><time>2026-04-18T10:03:23.932Z</time></trkpt><trkpt lat="43.7989583" lon="11.35025"><ele>339.0</ele><time>2026-04-18T10:03:49.931Z</time></trkpt><trkpt lat="43.79886" lon="11.35028"><ele>339.0</ele><time>2026-04-18T10:04:46.931Z</time></trkpt><trkpt lat="43.7987733" lon="11.3504683"><ele>339.0</ele><time>2026-04-18T10:07:05.932Z</time></trkpt><trkpt lat="43.798745" lon="11.35038"><ele>339.0</ele><time>2026-04-18T10:07:42.932Z</time></trkpt><trkpt lat="43.7986717" lon="11.350295"><ele>339.0</ele><time>2026-04-18T10:08:24.931Z</time></trkpt><trkpt lat="43.7986183" lon="11.35041"><ele>339.0</ele><time>2026-04-18T10:10:33.932Z</time></trkpt><trkpt lat="43.798665" lon="11.3504833"><ele>339.0</ele><time>2026-04-18T10:10:43.93Z</time></trkpt><trkpt lat="43.7986733" lon="11.3506067"><ele>339.0</ele><time>2026-04-18T10:10:46.93Z</time></trkpt><trkpt lat="43.7986933" lon="11.35069"><ele>339.0</ele><time>2026-04-18T10:10:49.931Z</time></trkpt><trkpt lat="43.7986967" lon="11.3507917"><ele>339.0</ele><time>2026-04-18T10:10:52.93Z</time></trkpt><trkpt lat="43.798715" lon="11.3508817"><ele>334.1666666666667</ele><time>2026-04-18T10:10:55.93Z</time></trkpt><trkpt lat="43.7987417" lon="11.3509933"><ele>329.3333333333333</ele><time>2026-04-18T10:10:58.93Z</time></trkpt><trkpt lat="43.79872" lon="11.3510917"><ele>324.5</ele><time>2026-04-18T10:11:01.931Z</time></trkpt><trkpt lat="43.7986917" lon="11.3511883"><ele>319.66666666666663</ele><time>2026-04-18T10:11:06.93Z</time></trkpt><trkpt lat="43.798655" lon="11.35129"><ele>314.8333333333333</ele><time>2026-04-18T10:11:09.931Z</time></trkpt><trkpt lat="43.7986183" lon="11.3514217"><ele>310.0</ele><time>2026-04-18T10:13:03.931Z</time></trkpt><trkpt lat="43.7985767" lon="11.351505"><ele>306.4</ele><time>2026-04-18T10:13:10.93Z</time></trkpt><trkpt lat="43.7985317" lon="11.35157"><ele>302.8</ele><time>2026-04-18T10:13:14.93Z</time></trkpt><trkpt lat="43.7984717" lon="11.351725"><ele>299.2</ele><time>2026-04-18T10:13:43.93Z</time></trkpt><trkpt lat="43.7984433" lon="11.3518033"><ele>295.6</ele><time>2026-04-18T10:13:47.93Z</time></trkpt><trkpt lat="43.7984083" lon="11.351905"><ele>292.0</ele><time>2026-04-18T10:13:52.93Z</time></trkpt><trkpt lat="43.7983633" lon="11.3520583"><ele>290.66666666666663</ele><time>2026-04-18T10:14:12.93Z</time></trkpt><trkpt lat="43.79831" lon="11.35214"><ele>289.3333333333333</ele><time>2026-04-18T10:14:18.93Z</time></trkpt><trkpt lat="43.79824" lon="11.3522"><ele>288.0</ele><time>2026-04-18T10:14:25.93Z</time></trkpt><trkpt lat="43.7981967" lon="11.3522817"><ele>286.6666666666667</ele><time>2026-04-18T10:14:30.931Z</time></trkpt><trkpt lat="43.7981483" lon="11.3523867"><ele>285.33333333333337</ele><time>2026-04-18T10:14:38.93Z</time></trkpt><trkpt lat="43.79805" lon="11.352445"><ele>284.0</ele><time>2026-04-18T10:15:13.93Z</time></trkpt><trkpt lat="43.798005" lon="11.3525167"><ele>282.0</ele><time>2026-04-18T10:15:20.93Z</time></trkpt><trkpt lat="43.798" lon="11.35261"><ele>280.0</ele><time>2026-04-18T10:15:56.93Z</time></trkpt><trkpt lat="43.7979833" lon="11.3527367"><ele>278.0</ele><time>2026-04-18T10:15:57.93Z</time></trkpt><trkpt lat="43.79791" lon="11.3528583"><ele>276.0</ele><time>2026-04-18T10:16:17.931Z</time></trkpt><trkpt lat="43.797855" lon="11.352975"><ele>274.0</ele><time>2026-04-18T10:16:46.93Z</time></trkpt><trkpt lat="43.7978167" lon="11.3530533"><ele>272.0</ele><time>2026-04-18T10:16:55.931Z</time></trkpt><trkpt lat="43.7977567" lon="11.3531917"><ele>269.2857142857143</ele><time>2026-04-18T10:17:11.931Z</time></trkpt><trkpt lat="43.7977217" lon="11.353265"><ele>266.57142857142856</ele><time>2026-04-18T10:17:16.93Z</time></trkpt><trkpt lat="43.7976833" lon="11.3533367"><ele>263.8571428571429</ele><time>2026-04-18T10:17:20.93Z</time></trkpt><trkpt lat="43.7976433" lon="11.3534067"><ele>261.1428571428571</ele><time>2026-04-18T10:17:24.93Z</time></trkpt><trkpt lat="43.79761" lon="11.3534867"><ele>258.42857142857144</ele><time>2026-04-18T10:17:30.93Z</time></trkpt><trkpt lat="43.7975733" lon="11.3535767"><ele>255.71428571428575</ele><time>2026-04-18T10:17:36.93Z</time></trkpt><trkpt lat="43.7975333" lon="11.35367"><ele>253.00000000000003</ele><time>2026-04-18T10:17:40.93Z</time></trkpt><trkpt lat="43.79749" lon="11.353745"><ele>252.60000000000002</ele><time>2026-04-18T10:17:47.93Z</time></trkpt><trkpt lat="43.7974233" lon="11.353855"><ele>252.20000000000002</ele><time>2026-04-18T10:18:12.93Z</time></trkpt><trkpt lat="43.79741" lon="11.353985"><ele>251.8</ele><time>2026-04-18T10:18:53.93Z</time></trkpt><trkpt lat="43.7974317" lon="11.35413"><ele>251.4</ele><time>2026-04-18T10:19:08.931Z</time></trkpt><trkpt lat="43.79743" lon="11.3542967"><ele>251.0</ele><time>2026-04-18T10:19:53.93Z</time></trkpt><trkpt lat="43.79746" lon="11.3543833"><ele>248.33333333333334</ele><time>2026-04-18T10:20:19.929Z</time></trkpt><trkpt lat="43.7974817" lon="11.3544933"><ele>245.66666666666669</ele><time>2026-04-18T10:20:26.929Z</time></trkpt><trkpt lat="43.7975017" lon="11.3545833"><ele>243.0</ele><time>2026-04-18T10:20:31.929Z</time></trkpt><trkpt lat="43.7975183" lon="11.3547483"><ele>240.33333333333331</ele><time>2026-04-18T10:20:49.929Z</time></trkpt><trkpt lat="43.7975517" lon="11.35485"><ele>237.66666666666666</ele><time>2026-04-18T10:20:52.929Z</time></trkpt><trkpt lat="43.7975483" lon="11.354945"><ele>235.0</ele><time>2026-04-18T10:20:55.929Z</time></trkpt><trkpt lat="43.7975033" lon="11.3550383"><ele>233.16666666666666</ele><time>2026-04-18T10:20:58.929Z</time></trkpt><trkpt lat="43.7974417" lon="11.3551183"><ele>231.33333333333331</ele><time>2026-04-18T10:21:01.929Z</time></trkpt><trkpt lat="43.7973817" lon="11.3552117"><ele>229.5</ele><time>2026-04-18T10:21:04.93Z</time></trkpt><trkpt lat="43.79733" lon="11.3552733"><ele>227.66666666666669</ele><time>2026-04-18T10:21:06.929Z</time></trkpt><trkpt lat="43.7972717" lon="11.3553433"><ele>225.83333333333334</ele><time>2026-04-18T10:21:09.93Z</time></trkpt><trkpt lat="43.797335" lon="11.3553767"><ele>224.0</ele><time>2026-04-18T10:21:19.93Z</time></trkpt><trkpt lat="43.7974067" lon="11.3553283"><ele>224.00000000000003</ele><time>2026-04-18T10:21:23.93Z</time></trkpt><trkpt lat="43.7974867" lon="11.3552733"><ele>224.0</ele><time>2026-04-18T10:21:26.929Z</time></trkpt><trkpt lat="43.79757" lon="11.35523"><ele>224.0</ele><time>2026-04-18T10:21:29.929Z</time></trkpt><trkpt lat="43.797635" lon="11.355215"><ele>224.0</ele><time>2026-04-18T10:21:31.929Z</time></trkpt><trkpt lat="43.797715" lon="11.3551783"><ele>224.00000000000003</ele><time>2026-04-18T10:21:34.929Z</time></trkpt><trkpt lat="43.797755" lon="11.3552633"><ele>224.0</ele><time>2026-04-18T10:21:39.929Z</time></trkpt><trkpt lat="43.7977333" lon="11.3553733"><ele>223.16666666666669</ele><time>2026-04-18T10:21:42.93Z</time></trkpt><trkpt lat="43.7977017" lon="11.35546"><ele>222.33333333333334</ele><time>2026-04-18T10:21:44.929Z</time></trkpt><trkpt lat="43.7976533" lon="11.3555717"><ele>221.5</ele><time>2026-04-18T10:21:46.93Z</time></trkpt><trkpt lat="43.797615" lon="11.3556683"><ele>220.66666666666669</ele><time>2026-04-18T10:21:48.929Z</time></trkpt><trkpt lat="43.7975767" lon="11.35578"><ele>219.83333333333334</ele><time>2026-04-18T10:21:50.929Z</time></trkpt><trkpt lat="43.7975167" lon="11.3559067"><ele>219.0</ele><time>2026-04-18T10:21:52.929Z</time></trkpt><trkpt lat="43.79746" lon="11.3560383"><ele>219.0</ele><time>2026-04-18T10:21:54.929Z</time></trkpt><trkpt lat="43.7974033" lon="11.3561783"><ele>218.99999999999997</ele><time>2026-04-18T10:21:56.929Z</time></trkpt><trkpt lat="43.7973617" lon="11.3562933"><ele>218.99999999999997</ele><time>2026-04-18T10:21:58.929Z</time></trkpt><trkpt lat="43.79727" lon="11.356375"><ele>219.0</ele><time>2026-04-18T10:22:00.929Z</time></trkpt><trkpt lat="43.7971717" lon="11.356465"><ele>219.0</ele><time>2026-04-18T10:22:02.93Z</time></trkpt><trkpt lat="43.7971117" lon="11.3565"><ele>219.0</ele><time>2026-04-18T10:22:03.929Z</time></trkpt><trkpt lat="43.797045" lon="11.3565283"><ele>219.0</ele><time>2026-04-18T10:22:04.929Z</time></trkpt><trkpt lat="43.796925" lon="11.3565783"><ele>219.0</ele><time>2026-04-18T10:22:06.929Z</time></trkpt><trkpt lat="43.796855" lon="11.3566033"><ele>219.0</ele><time>2026-04-18T10:22:07.93Z</time></trkpt><trkpt lat="43.7967883" lon="11.35663"><ele>219.0</ele><time>2026-04-18T10:22:08.929Z</time></trkpt><trkpt lat="43.796715" lon="11.3566633"><ele>219.0</ele><time>2026-04-18T10:22:09.929Z</time></trkpt><trkpt lat="43.7966433" lon="11.3566983"><ele>219.0</ele><time>2026-04-18T10:22:10.93Z</time></trkpt><trkpt lat="43.7965633" lon="11.3567283"><ele>219.0</ele><time>2026-04-18T10:22:11.929Z</time></trkpt><trkpt lat="43.7964883" lon="11.356755"><ele>219.0</ele><time>2026-04-18T10:22:12.93Z</time></trkpt><trkpt lat="43.796415" lon="11.3567733"><ele>219.0</ele><time>2026-04-18T10:22:13.93Z</time></trkpt><trkpt lat="43.7963383" lon="11.35679"><ele>219.0</ele><time>2026-04-18T10:22:14.929Z</time></trkpt><trkpt lat="43.7962683" lon="11.35681"><ele>219.0</ele><time>2026-04-18T10:22:15.929Z</time></trkpt><trkpt lat="43.7961967" lon="11.3568267"><ele>219.0</ele><time>2026-04-18T10:22:16.93Z</time></trkpt><trkpt lat="43.7961283" lon="11.3568283"><ele>219.0</ele><time>2026-04-18T10:22:17.93Z</time></trkpt><trkpt lat="43.7960617" lon="11.3568333"><ele>219.0</ele><time>2026-04-18T10:22:18.929Z</time></trkpt><trkpt lat="43.795995" lon="11.3568417"><ele>219.0</ele><time>2026-04-18T10:22:19.929Z</time></trkpt><trkpt lat="43.7959267" lon="11.3568633"><ele>219.0</ele><time>2026-04-18T10:22:20.929Z</time></trkpt><trkpt lat="43.7958117" lon="11.3569083"><ele>219.0</ele><time>2026-04-18T10:22:22.929Z</time></trkpt><trkpt lat="43.79571" lon="11.3569517"><ele>217.33333333333334</ele><time>2026-04-18T10:22:24.929Z</time></trkpt><trkpt lat="43.795615" lon="11.3569883"><ele>215.66666666666669</ele><time>2026-04-18T10:22:26.929Z</time></trkpt><trkpt lat="43.7955317" lon="11.3570517"><ele>214.0</ele><time>2026-04-18T10:22:28.93Z</time></trkpt><trkpt lat="43.7954767" lon="11.3571333"><ele>212.33333333333334</ele><time>2026-04-18T10:22:30.929Z</time></trkpt><trkpt lat="43.79544" lon="11.357235"><ele>210.66666666666669</ele><time>2026-04-18T10:22:32.929Z</time></trkpt><trkpt lat="43.79541" lon="11.3573117"><ele>209.0</ele><time>2026-04-18T10:22:35.93Z</time></trkpt><trkpt lat="43.795355" lon="11.3573667"><ele>208.39999999999998</ele><time>2026-04-18T10:22:38.929Z</time></trkpt><trkpt lat="43.7952783" lon="11.3574467"><ele>207.8</ele><time>2026-04-18T10:22:41.929Z</time></trkpt><trkpt lat="43.79521" lon="11.35752"><ele>207.2</ele><time>2026-04-18T10:22:43.929Z</time></trkpt><trkpt lat="43.7951267" lon="11.3576117"><ele>206.60000000000002</ele><time>2026-04-18T10:22:45.929Z</time></trkpt><trkpt lat="43.7950417" lon="11.35772"><ele>206.0</ele><time>2026-04-18T10:22:47.93Z</time></trkpt><trkpt lat="43.79496" lon="11.3578167"><ele>206.0</ele><time>2026-04-18T10:22:49.929Z</time></trkpt><trkpt lat="43.7948733" lon="11.3579067"><ele>206.0</ele><time>2026-04-18T10:22:51.929Z</time></trkpt><trkpt lat="43.7947896" lon="11.3579968"><ele>206.0</ele><time>2026-04-18T10:22:53.929Z</time></trkpt><trkpt lat="43.7947014" lon="11.3580971"><ele>206.0</ele><time>2026-04-18T10:22:55.929Z</time></trkpt><trkpt lat="43.79461" lon="11.3582039"><ele>206.0</ele><time>2026-04-18T10:22:57.929Z</time></trkpt><trkpt lat="43.7945315" lon="11.3582961"><ele>204.4</ele><time>2026-04-18T10:22:59.929Z</time></trkpt><trkpt lat="43.7944595" lon="11.3583824"><ele>202.8</ele><time>2026-04-18T10:23:01.93Z</time></trkpt><trkpt lat="43.7943792" lon="11.3584733"><ele>201.20000000000002</ele><time>2026-04-18T10:23:03.929Z</time></trkpt><trkpt lat="43.7943033" lon="11.3585627"><ele>199.60000000000002</ele><time>2026-04-18T10:23:05.929Z</time></trkpt><trkpt lat="43.7942339" lon="11.3586522"><ele>198.0</ele><time>2026-04-18T10:23:07.93Z</time></trkpt><trkpt lat="43.7941588" lon="11.3587437"><ele>198.0</ele><time>2026-04-18T10:23:09.929Z</time></trkpt><trkpt lat="43.7940954" lon="11.3588143"><ele>198.0</ele><time>2026-04-18T10:23:11.929Z</time></trkpt><trkpt lat="43.7940434" lon="11.3588638"><ele>198.0</ele><time>2026-04-18T10:23:14.929Z</time></trkpt><trkpt lat="43.7939548" lon="11.3589236"><ele>198.0</ele><time>2026-04-18T10:23:17.929Z</time></trkpt><trkpt lat="43.7938691" lon="11.3589626"><ele>198.0</ele><time>2026-04-18T10:23:19.929Z</time></trkpt><trkpt lat="43.7937783" lon="11.3589963"><ele>198.0</ele><time>2026-04-18T10:23:21.929Z</time></trkpt><trkpt lat="43.7936907" lon="11.359028"><ele>196.8</ele><time>2026-04-18T10:23:23.929Z</time></trkpt><trkpt lat="43.793595" lon="11.3590633"><ele>195.60000000000002</ele><time>2026-04-18T10:23:25.93Z</time></trkpt><trkpt lat="43.7934917" lon="11.35909"><ele>194.39999999999998</ele><time>2026-04-18T10:23:27.929Z</time></trkpt><trkpt lat="43.7933933" lon="11.3591167"><ele>193.2</ele><time>2026-04-18T10:23:29.929Z</time></trkpt><trkpt lat="43.7932817" lon="11.35911"><ele>192.0</ele><time>2026-04-18T10:23:31.93Z</time></trkpt><trkpt lat="43.7932067" lon="11.359095"><ele>192.0</ele><time>2026-04-18T10:23:32.929Z</time></trkpt><trkpt lat="43.7931233" lon="11.3590817"><ele>192.0</ele><time>2026-04-18T10:23:33.929Z</time></trkpt><trkpt lat="43.793045" lon="11.3590633"><ele>192.0</ele><time>2026-04-18T10:23:34.929Z</time></trkpt><trkpt lat="43.792965" lon="11.35904"><ele>192.0</ele><time>2026-04-18T10:23:35.929Z</time></trkpt><trkpt lat="43.7928817" lon="11.3590333"><ele>192.0</ele><time>2026-04-18T10:23:36.929Z</time></trkpt><trkpt lat="43.7928033" lon="11.3590317"><ele>192.0</ele><time>2026-04-18T10:23:37.93Z</time></trkpt><trkpt lat="43.79273" lon="11.3590317"><ele>191.83333333333334</ele><time>2026-04-18T10:23:38.93Z</time></trkpt><trkpt lat="43.7926633" lon="11.3590417"><ele>191.66666666666666</ele><time>2026-04-18T10:23:39.929Z</time></trkpt><trkpt lat="43.7926" lon="11.3590517"><ele>191.5</ele><time>2026-04-18T10:23:40.929Z</time></trkpt><trkpt lat="43.7924883" lon="11.3590733"><ele>191.33333333333331</ele><time>2026-04-18T10:23:42.93Z</time></trkpt><trkpt lat="43.7924067" lon="11.3591083"><ele>191.16666666666666</ele><time>2026-04-18T10:23:44.93Z</time></trkpt><trkpt lat="43.7923467" lon="11.359235"><ele>191.0</ele><time>2026-04-18T10:23:46.929Z</time></trkpt><trkpt lat="43.7923117" lon="11.3593317"><ele>191.0</ele><time>2026-04-18T10:23:47.93Z</time></trkpt><trkpt lat="43.79227" lon="11.35943"><ele>191.0</ele><time>2026-04-18T10:23:48.929Z</time></trkpt><trkpt lat="43.7922167" lon="11.3595267"><ele>191.0</ele><time>2026-04-18T10:23:49.929Z</time></trkpt><trkpt lat="43.79216" lon="11.35963"><ele>191.0</ele><time>2026-04-18T10:23:50.929Z</time></trkpt><trkpt lat="43.7921033" lon="11.359725"><ele>191.0</ele><time>2026-04-18T10:23:51.929Z</time></trkpt><trkpt lat="43.7920367" lon="11.3598283"><ele>191.0</ele><time>2026-04-18T10:23:52.929Z</time></trkpt><trkpt lat="43.7919517" lon="11.3599167"><ele>191.0</ele><time>2026-04-18T10:23:53.929Z</time></trkpt><trkpt lat="43.7918667" lon="11.3600033"><ele>191.0</ele><time>2026-04-18T10:23:54.93Z</time></trkpt><trkpt lat="43.79178" lon="11.3600783"><ele>191.0</ele><time>2026-04-18T10:23:55.929Z</time></trkpt><trkpt lat="43.79169" lon="11.3601583"><ele>191.0</ele><time>2026-04-18T10:23:56.929Z</time></trkpt><trkpt lat="43.7915967" lon="11.360225"><ele>191.0</ele><time>2026-04-18T10:23:57.93Z</time></trkpt><trkpt lat="43.791505" lon="11.360285"><ele>191.0</ele><time>2026-04-18T10:23:58.929Z</time></trkpt><trkpt lat="43.7914183" lon="11.3603283"><ele>191.0</ele><time>2026-04-18T10:23:59.929Z</time></trkpt><trkpt lat="43.79134" lon="11.3603667"><ele>191.0</ele><time>2026-04-18T10:24:00.929Z</time></trkpt><trkpt lat="43.7912783" lon="11.3604033"><ele>191.0</ele><time>2026-04-18T10:24:01.929Z</time></trkpt><trkpt lat="43.791175" lon="11.3604433"><ele>191.0</ele><time>2026-04-18T10:24:03.929Z</time></trkpt><trkpt lat="43.79109" lon="11.3604883"><ele>191.0</ele><time>2026-04-18T10:24:05.929Z</time></trkpt><trkpt lat="43.7909833" lon="11.3605233"><ele>191.0</ele><time>2026-04-18T10:24:07.929Z</time></trkpt><trkpt lat="43.7908667" lon="11.36057"><ele>191.0</ele><time>2026-04-18T10:24:09.929Z</time></trkpt><trkpt lat="43.7907983" lon="11.3605983"><ele>191.0</ele><time>2026-04-18T10:24:10.93Z</time></trkpt><trkpt lat="43.7907283" lon="11.3606317"><ele>191.83333333333331</ele><time>2026-04-18T10:24:11.929Z</time></trkpt><trkpt lat="43.79065" lon="11.3606583"><ele>192.66666666666666</ele><time>2026-04-18T10:24:12.929Z</time></trkpt><trkpt lat="43.79057" lon="11.360685"><ele>193.5</ele><time>2026-04-18T10:24:13.929Z</time></trkpt><trkpt lat="43.7905" lon="11.3607167"><ele>194.33333333333331</ele><time>2026-04-18T10:24:14.93Z</time></trkpt><trkpt lat="43.7903883" lon="11.3607867"><ele>195.16666666666666</ele><time>2026-04-18T10:24:16.929Z</time></trkpt><trkpt lat="43.790335" lon="11.3608333"><ele>196.0</ele><time>2026-04-18T10:24:17.929Z</time></trkpt><trkpt lat="43.7902867" lon="11.3608933"><ele>196.0</ele><time>2026-04-18T10:24:18.929Z</time></trkpt><trkpt lat="43.79024" lon="11.3609683"><ele>196.0</ele><time>2026-04-18T10:24:19.929Z</time></trkpt><trkpt lat="43.790195" lon="11.36105"><ele>196.0</ele><time>2026-04-18T10:24:20.929Z</time></trkpt><trkpt lat="43.7901533" lon="11.3611317"><ele>196.0</ele><time>2026-04-18T10:24:21.929Z</time></trkpt><trkpt lat="43.790125" lon="11.3612183"><ele>196.0</ele><time>2026-04-18T10:24:22.929Z</time></trkpt><trkpt lat="43.7900867" lon="11.3613317"><ele>196.0</ele><time>2026-04-18T10:24:24.929Z</time></trkpt><trkpt lat="43.7900267" lon="11.36137"><ele>196.0</ele><time>2026-04-18T10:24:27.929Z</time></trkpt><trkpt lat="43.7900317" lon="11.361245"><ele>192.60000000000002</ele><time>2026-04-18T10:24:30.929Z</time></trkpt><trkpt lat="43.7900467" lon="11.361075"><ele>189.2</ele><time>2026-04-18T10:24:32.929Z</time></trkpt><trkpt lat="43.7900533" lon="11.3609817"><ele>185.8</ele><time>2026-04-18T10:24:33.929Z</time></trkpt><trkpt lat="43.7900633" lon="11.36089"><ele>182.39999999999998</ele><time>2026-04-18T10:24:34.93Z</time></trkpt><trkpt lat="43.7900793" lon="11.3607362"><ele>179.0</ele><time>2026-04-18T10:24:36.929Z</time></trkpt><trkpt lat="43.7900886" lon="11.3605884"><ele>176.66666666666666</ele><time>2026-04-18T10:24:38.929Z</time></trkpt><trkpt lat="43.7901034" lon="11.3604622"><ele>174.33333333333331</ele><time>2026-04-18T10:24:40.93Z</time></trkpt><trkpt lat="43.7901206" lon="11.3603685"><ele>172.0</ele><time>2026-04-18T10:24:42.929Z</time></trkpt><trkpt lat="43.7901246" lon="11.3602579"><ele>169.66666666666666</ele><time>2026-04-18T10:24:43.93Z</time></trkpt><trkpt lat="43.7900722" lon="11.3602055"><ele>167.33333333333334</ele><time>2026-04-18T10:24:47.99Z</time></trkpt><trkpt lat="43.7900133" lon="11.360246"><ele>165.0</ele><time>2026-04-18T10:24:50.938Z</time></trkpt><trkpt lat="43.7899867" lon="11.3603635"><ele>165.0</ele><time>2026-04-18T10:24:52.929Z</time></trkpt><trkpt lat="43.7899609" lon="11.3604513"><ele>165.0</ele><time>2026-04-18T10:24:53.929Z</time></trkpt><trkpt lat="43.7899324" lon="11.3605398"><ele>165.0</ele><time>2026-04-18T10:24:54.929Z</time></trkpt><trkpt lat="43.7899018" lon="11.3606273"><ele>165.0</ele><time>2026-04-18T10:24:55.929Z</time></trkpt><trkpt lat="43.7898708" lon="11.3607033"><ele>165.0</ele><time>2026-04-18T10:24:56.929Z</time></trkpt><trkpt lat="43.789804" lon="11.3608164"><ele>165.0</ele><time>2026-04-18T10:24:58.929Z</time></trkpt><trkpt lat="43.7897074" lon="11.3609268"><ele>167.00000000000003</ele><time>2026-04-18T10:25:00.929Z</time></trkpt><trkpt lat="43.7896543" lon="11.3609843"><ele>169.0</ele><time>2026-04-18T10:25:01.93Z</time></trkpt><trkpt lat="43.7896048" lon="11.3610446"><ele>171.0</ele><time>2026-04-18T10:25:02.929Z</time></trkpt><trkpt lat="43.789562" lon="11.3611126"><ele>173.0</ele><time>2026-04-18T10:25:03.93Z</time></trkpt><trkpt lat="43.7895247" lon="11.3611897"><ele>175.0</ele><time>2026-04-18T10:25:04.929Z</time></trkpt><trkpt lat="43.7894936" lon="11.3612927"><ele>177.00000000000003</ele><time>2026-04-18T10:25:05.929Z</time></trkpt><trkpt lat="43.7894642" lon="11.3614138"><ele>179.0</ele><time>2026-04-18T10:25:06.929Z</time></trkpt><trkpt lat="43.7894352" lon="11.361543"><ele>179.2</ele><time>2026-04-18T10:25:07.929Z</time></trkpt><trkpt lat="43.7894084" lon="11.3616716"><ele>179.39999999999998</ele><time>2026-04-18T10:25:08.929Z</time></trkpt><trkpt lat="43.7893863" lon="11.3618247"><ele>179.6</ele><time>2026-04-18T10:25:09.93Z</time></trkpt><trkpt lat="43.7893669" lon="11.3619749"><ele>179.8</ele><time>2026-04-18T10:25:10.929Z</time></trkpt><trkpt lat="43.7893554" lon="11.3621197"><ele>180.0</ele><time>2026-04-18T10:25:11.93Z</time></trkpt><trkpt lat="43.7893479" lon="11.3622644"><ele>174.2</ele><time>2026-04-18T10:25:12.929Z</time></trkpt><trkpt lat="43.7893419" lon="11.362405"><ele>168.4</ele><time>2026-04-18T10:25:13.929Z</time></trkpt><trkpt lat="43.7893272" lon="11.3625339"><ele>162.6</ele><time>2026-04-18T10:25:14.929Z</time></trkpt><trkpt lat="43.7892994" lon="11.3626487"><ele>156.8</ele><time>2026-04-18T10:25:15.93Z</time></trkpt><trkpt lat="43.7892658" lon="11.3627646"><ele>151.0</ele><time>2026-04-18T10:25:16.93Z</time></trkpt><trkpt lat="43.7892315" lon="11.3628761"><ele>151.0</ele><time>2026-04-18T10:25:17.929Z</time></trkpt><trkpt lat="43.7892024" lon="11.3629844"><ele>151.0</ele><time>2026-04-18T10:25:18.929Z</time></trkpt><trkpt lat="43.7891676" lon="11.3630947"><ele>151.0</ele><time>2026-04-18T10:25:19.929Z</time></trkpt><trkpt lat="43.7891228" lon="11.3632019"><ele>151.0</ele><time>2026-04-18T10:25:20.929Z</time></trkpt><trkpt lat="43.7890604" lon="11.3632998"><ele>151.0</ele><time>2026-04-18T10:25:21.929Z</time></trkpt><trkpt lat="43.7889717" lon="11.3633633"><ele>150.4</ele><time>2026-04-18T10:25:22.929Z</time></trkpt><trkpt lat="43.7888817" lon="11.363425"><ele>149.8</ele><time>2026-04-18T10:25:23.929Z</time></trkpt><trkpt lat="43.7887883" lon="11.3634983"><ele>149.20000000000002</ele><time>2026-04-18T10:25:24.929Z</time></trkpt><trkpt lat="43.7886933" lon="11.3635717"><ele>148.6</ele><time>2026-04-18T10:25:25.929Z</time></trkpt><trkpt lat="43.7886083" lon="11.3636483"><ele>148.0</ele><time>2026-04-18T10:25:26.929Z</time></trkpt><trkpt lat="43.7885233" lon="11.3637283"><ele>145.0</ele><time>2026-04-18T10:25:27.929Z</time></trkpt><trkpt lat="43.7884317" lon="11.3637983"><ele>142.0</ele><time>2026-04-18T10:25:28.929Z</time></trkpt><trkpt lat="43.7883383" lon="11.363875"><ele>139.0</ele><time>2026-04-18T10:25:29.929Z</time></trkpt><trkpt lat="43.788255" lon="11.3639433"><ele>136.0</ele><time>2026-04-18T10:25:30.93Z</time></trkpt><trkpt lat="43.78818" lon="11.3640117"><ele>133.0</ele><time>2026-04-18T10:25:31.929Z</time></trkpt><trkpt lat="43.7881117" lon="11.3640683"><ele>131.8</ele><time>2026-04-18T10:25:32.929Z</time></trkpt><trkpt lat="43.78804" lon="11.364125"><ele>130.60000000000002</ele><time>2026-04-18T10:25:33.93Z</time></trkpt><trkpt lat="43.7879817" lon="11.3641783"><ele>129.39999999999998</ele><time>2026-04-18T10:25:34.93Z</time></trkpt><trkpt lat="43.787895" lon="11.3642517"><ele>128.2</ele><time>2026-04-18T10:25:36.929Z</time></trkpt><trkpt lat="43.78792" lon="11.3643533"><ele>127.0</ele><time>2026-04-18T10:25:39.929Z</time></trkpt><trkpt lat="43.788015" lon="11.3644967"><ele>127.0</ele><time>2026-04-18T10:25:41.93Z</time></trkpt><trkpt lat="43.7880483" lon="11.3646183"><ele>126.99999999999999</ele><time>2026-04-18T10:25:42.929Z</time></trkpt><trkpt lat="43.7880867" lon="11.3647567"><ele>126.99999999999999</ele><time>2026-04-18T10:25:43.929Z</time></trkpt><trkpt lat="43.78812" lon="11.3648883"><ele>127.0</ele><time>2026-04-18T10:25:44.929Z</time></trkpt><trkpt lat="43.7881467" lon="11.365005"><ele>127.0</ele><time>2026-04-18T10:25:45.929Z</time></trkpt><trkpt lat="43.78817" lon="11.365115"><ele>126.00000000000001</ele><time>2026-04-18T10:25:46.93Z</time></trkpt><trkpt lat="43.7881833" lon="11.365205"><ele>125.0</ele><time>2026-04-18T10:25:47.93Z</time></trkpt><trkpt lat="43.78818" lon="11.3652933"><ele>124.0</ele><time>2026-04-18T10:25:48.929Z</time></trkpt><trkpt lat="43.7881633" lon="11.3654"><ele>123.0</ele><time>2026-04-18T10:25:49.93Z</time></trkpt><trkpt lat="43.7881467" lon="11.36551"><ele>122.00000000000001</ele><time>2026-04-18T10:25:50.929Z</time></trkpt><trkpt lat="43.7881467" lon="11.3656467"><ele>121.0</ele><time>2026-04-18T10:25:51.929Z</time></trkpt><trkpt lat="43.78815" lon="11.3658067"><ele>121.0</ele><time>2026-04-18T10:25:52.929Z</time></trkpt><trkpt lat="43.7881433" lon="11.3659733"><ele>121.0</ele><time>2026-04-18T10:25:53.929Z</time></trkpt><trkpt lat="43.78813" lon="11.366125"><ele>121.0</ele><time>2026-04-18T10:25:54.929Z</time></trkpt><trkpt lat="43.7881167" lon="11.366265"><ele>121.0</ele><time>2026-04-18T10:25:55.93Z</time></trkpt><trkpt lat="43.7880883" lon="11.3663917"><ele>121.0</ele><time>2026-04-18T10:25:56.929Z</time></trkpt><trkpt lat="43.7880517" lon="11.3665017"><ele>121.19999999999999</ele><time>2026-04-18T10:25:57.93Z</time></trkpt><trkpt lat="43.7880033" lon="11.3666"><ele>121.39999999999999</ele><time>2026-04-18T10:25:58.929Z</time></trkpt><trkpt lat="43.78795" lon="11.366695"><ele>121.6</ele><time>2026-04-18T10:25:59.929Z</time></trkpt><trkpt lat="43.7879083" lon="11.3668133"><ele>121.8</ele><time>2026-04-18T10:26:00.93Z</time></trkpt><trkpt lat="43.7878733" lon="11.3669583"><ele>122.0</ele><time>2026-04-18T10:26:01.929Z</time></trkpt><trkpt lat="43.78784" lon="11.3670933"><ele>121.39999999999999</ele><time>2026-04-18T10:26:02.929Z</time></trkpt><trkpt lat="43.7878033" lon="11.3672167"><ele>120.79999999999998</ele><time>2026-04-18T10:26:03.93Z</time></trkpt><trkpt lat="43.7877767" lon="11.36734"><ele>120.2</ele><time>2026-04-18T10:26:04.93Z</time></trkpt><trkpt lat="43.7877533" lon="11.3674483"><ele>119.6</ele><time>2026-04-18T10:26:05.929Z</time></trkpt><trkpt lat="43.7877283" lon="11.367555"><ele>119.0</ele><time>2026-04-18T10:26:06.929Z</time></trkpt><trkpt lat="43.7877083" lon="11.3677"><ele>119.0</ele><time>2026-04-18T10:26:08.929Z</time></trkpt><trkpt lat="43.787705" lon="11.367845"><ele>119.0</ele><time>2026-04-18T10:26:10.929Z</time></trkpt><trkpt lat="43.7877417" lon="11.367955"><ele>119.0</ele><time>2026-04-18T10:26:11.929Z</time></trkpt><trkpt lat="43.7877867" lon="11.368075"><ele>119.0</ele><time>2026-04-18T10:26:12.93Z</time></trkpt><trkpt lat="43.7878417" lon="11.3681983"><ele>119.0</ele><time>2026-04-18T10:26:13.93Z</time></trkpt><trkpt lat="43.787885" lon="11.3683183"><ele>119.16666666666666</ele><time>2026-04-18T10:26:14.929Z</time></trkpt><trkpt lat="43.7879267" lon="11.3684267"><ele>119.33333333333333</ele><time>2026-04-18T10:26:15.929Z</time></trkpt><trkpt lat="43.7879633" lon="11.3685083"><ele>119.5</ele><time>2026-04-18T10:26:16.929Z</time></trkpt><trkpt lat="43.788045" lon="11.3686483"><ele>119.66666666666666</ele><time>2026-04-18T10:26:18.929Z</time></trkpt><trkpt lat="43.7880967" lon="11.3687217"><ele>119.83333333333333</ele><time>2026-04-18T10:26:19.93Z</time></trkpt><trkpt lat="43.78815" lon="11.3687933"><ele>120.0</ele><time>2026-04-18T10:26:20.929Z</time></trkpt><trkpt lat="43.7882083" lon="11.3688683"><ele>120.0</ele><time>2026-04-18T10:26:21.929Z</time></trkpt><trkpt lat="43.7882783" lon="11.3689483"><ele>120.0</ele><time>2026-04-18T10:26:22.929Z</time></trkpt><trkpt lat="43.7883417" lon="11.3690083"><ele>120.0</ele><time>2026-04-18T10:26:23.929Z</time></trkpt><trkpt lat="43.788425" lon="11.3690817"><ele>120.0</ele><time>2026-04-18T10:26:25.929Z</time></trkpt><trkpt lat="43.788515" lon="11.3691967"><ele>120.0</ele><time>2026-04-18T10:26:27.929Z</time></trkpt><trkpt lat="43.788585" lon="11.3692817"><ele>120.0</ele><time>2026-04-18T10:26:28.929Z</time></trkpt><trkpt lat="43.7886617" lon="11.369385"><ele>120.0</ele><time>2026-04-18T10:26:29.929Z</time></trkpt><trkpt lat="43.7887383" lon="11.3694917"><ele>120.0</ele><time>2026-04-18T10:26:30.929Z</time></trkpt><trkpt lat="43.7888017" lon="11.369605"><ele>120.0</ele><time>2026-04-18T10:26:31.93Z</time></trkpt><trkpt lat="43.7888533" lon="11.3697167"><ele>120.0</ele><time>2026-04-18T10:26:32.929Z</time></trkpt><trkpt lat="43.7889033" lon="11.3698317"><ele>120.0</ele><time>2026-04-18T10:26:33.929Z</time></trkpt><trkpt lat="43.7889483" lon="11.3699317"><ele>120.0</ele><time>2026-04-18T10:26:34.929Z</time></trkpt><trkpt lat="43.7890083" lon="11.370035"><ele>120.0</ele><time>2026-04-18T10:26:36.929Z</time></trkpt><trkpt lat="43.78899" lon="11.3701267"><ele>120.0</ele><time>2026-04-18T10:26:38.929Z</time></trkpt><trkpt lat="43.7888983" lon="11.3702483"><ele>120.0</ele><time>2026-04-18T10:26:40.929Z</time></trkpt><trkpt lat="43.7888317" lon="11.37032"><ele>120.0</ele><time>2026-04-18T10:26:41.93Z</time></trkpt><trkpt lat="43.7887667" lon="11.3703933"><ele>120.0</ele><time>2026-04-18T10:26:42.929Z</time></trkpt><trkpt lat="43.788705" lon="11.370465"><ele>120.0</ele><time>2026-04-18T10:26:43.93Z</time></trkpt><trkpt lat="43.7886333" lon="11.3705367"><ele>120.0</ele><time>2026-04-18T10:26:44.93Z</time></trkpt><trkpt lat="43.7885633" lon="11.370605"><ele>120.0</ele><time>2026-04-18T10:26:45.93Z</time></trkpt><trkpt lat="43.788495" lon="11.3706717"><ele>120.0</ele><time>2026-04-18T10:26:46.929Z</time></trkpt><trkpt lat="43.7884333" lon="11.370735"><ele>117.8</ele><time>2026-04-18T10:26:47.929Z</time></trkpt><trkpt lat="43.7883817" lon="11.370795"><ele>115.6</ele><time>2026-04-18T10:26:48.93Z</time></trkpt><trkpt lat="43.7882883" lon="11.3709033"><ele>113.4</ele><time>2026-04-18T10:26:50.929Z</time></trkpt><trkpt lat="43.7882" lon="11.370995"><ele>111.2</ele><time>2026-04-18T10:26:52.93Z</time></trkpt><trkpt lat="43.7881333" lon="11.3710467"><ele>109.0</ele><time>2026-04-18T10:26:54.929Z</time></trkpt><trkpt lat="43.7880517" lon="11.3710833"><ele>109.0</ele><time>2026-04-18T10:26:56.929Z</time></trkpt><trkpt lat="43.7879233" lon="11.3711367"><ele>109.0</ele><time>2026-04-18T10:26:58.93Z</time></trkpt><trkpt lat="43.7878633" lon="11.3711633"><ele>109.0</ele><time>2026-04-18T10:26:59.929Z</time></trkpt><trkpt lat="43.7877933" lon="11.3711917"><ele>109.0</ele><time>2026-04-18T10:27:00.929Z</time></trkpt><trkpt lat="43.787705" lon="11.3712233"><ele>109.0</ele><time>2026-04-18T10:27:01.93Z</time></trkpt><trkpt lat="43.7876067" lon="11.3712567"><ele>107.33333333333334</ele><time>2026-04-18T10:27:02.929Z</time></trkpt><trkpt lat="43.787515" lon="11.37129"><ele>105.66666666666667</ele><time>2026-04-18T10:27:03.929Z</time></trkpt><trkpt lat="43.7874233" lon="11.3713283"><ele>104.0</ele><time>2026-04-18T10:27:04.93Z</time></trkpt><trkpt lat="43.7873417" lon="11.3713683"><ele>102.33333333333334</ele><time>2026-04-18T10:27:05.93Z</time></trkpt><trkpt lat="43.7872683" lon="11.3714133"><ele>100.66666666666667</ele><time>2026-04-18T10:27:06.929Z</time></trkpt><trkpt lat="43.7872117" lon="11.3714767"><ele>99.0</ele><time>2026-04-18T10:27:07.93Z</time></trkpt><trkpt lat="43.7871717" lon="11.3715567"><ele>97.6</ele><time>2026-04-18T10:27:08.93Z</time></trkpt><trkpt lat="43.787125" lon="11.3717367"><ele>96.2</ele><time>2026-04-18T10:27:10.929Z</time></trkpt><trkpt lat="43.7871017" lon="11.371855"><ele>94.8</ele><time>2026-04-18T10:27:11.93Z</time></trkpt><trkpt lat="43.7870833" lon="11.371975"><ele>93.39999999999999</ele><time>2026-04-18T10:27:12.93Z</time></trkpt><trkpt lat="43.7870717" lon="11.3720683"><ele>92.0</ele><time>2026-04-18T10:27:13.93Z</time></trkpt><trkpt lat="43.7870367" lon="11.3722017"><ele>91.5</ele><time>2026-04-18T10:27:15.93Z</time></trkpt><trkpt lat="43.7869667" lon="11.37227"><ele>91.0</ele><time>2026-04-18T10:27:17.93Z</time></trkpt><trkpt lat="43.7868383" lon="11.372295"><ele>90.5</ele><time>2026-04-18T10:27:19.929Z</time></trkpt><trkpt lat="43.7867617" lon="11.3723017"><ele>90.0</ele><time>2026-04-18T10:27:20.93Z</time></trkpt><trkpt lat="43.7866917" lon="11.3723117"><ele>89.5</ele><time>2026-04-18T10:27:21.929Z</time></trkpt><trkpt lat="43.7866233" lon="11.3723233"><ele>89.0</ele><time>2026-04-18T10:27:22.93Z</time></trkpt><trkpt lat="43.78655" lon="11.3723333"><ele>87.6</ele><time>2026-04-18T10:27:23.93Z</time></trkpt><trkpt lat="43.7864683" lon="11.372345"><ele>86.2</ele><time>2026-04-18T10:27:24.929Z</time></trkpt><trkpt lat="43.78638" lon="11.3723567"><ele>84.8</ele><time>2026-04-18T10:27:25.929Z</time></trkpt><trkpt lat="43.7862967" lon="11.3723667"><ele>83.39999999999999</ele><time>2026-04-18T10:27:26.93Z</time></trkpt><trkpt lat="43.7862167" lon="11.3723767"><ele>82.0</ele><time>2026-04-18T10:27:27.929Z</time></trkpt><trkpt lat="43.7861017" lon="11.3723833"><ele>82.0</ele><time>2026-04-18T10:27:29.93Z</time></trkpt><trkpt lat="43.7860317" lon="11.372345"><ele>82.0</ele><time>2026-04-18T10:27:31.929Z</time></trkpt><trkpt lat="43.786005" lon="11.3722267"><ele>82.0</ele><time>2026-04-18T10:27:33.93Z</time></trkpt><trkpt lat="43.7859967" lon="11.3720983"><ele>82.0</ele><time>2026-04-18T10:27:35.93Z</time></trkpt><trkpt lat="43.7859483" lon="11.3720133"><ele>82.0</ele><time>2026-04-18T10:27:37.929Z</time></trkpt><trkpt lat="43.78588" lon="11.3719917"><ele>82.0</ele><time>2026-04-18T10:27:40.93Z</time></trkpt><trkpt lat="43.7858083" lon="11.37199"><ele>81.66666666666666</ele><time>2026-04-18T10:27:42.929Z</time></trkpt><trkpt lat="43.7857067" lon="11.3720083"><ele>81.33333333333333</ele><time>2026-04-18T10:27:50.929Z</time></trkpt><trkpt lat="43.7856617" lon="11.3718917"><ele>81.0</ele><time>2026-04-18T10:27:52.93Z</time></trkpt><trkpt lat="43.7856333" lon="11.3718017"><ele>80.66666666666667</ele><time>2026-04-18T10:27:53.929Z</time></trkpt><trkpt lat="43.7856033" lon="11.3717083"><ele>80.33333333333334</ele><time>2026-04-18T10:27:54.929Z</time></trkpt><trkpt lat="43.7855767" lon="11.3716233"><ele>80.0</ele><time>2026-04-18T10:27:55.929Z</time></trkpt><trkpt lat="43.7855383" lon="11.3714983"><ele>80.0</ele><time>2026-04-18T10:27:57.93Z</time></trkpt><trkpt lat="43.7854917" lon="11.3715883"><ele>80.0</ele><time>2026-04-18T10:28:17.929Z</time></trkpt><trkpt lat="43.785515" lon="11.3716833"><ele>80.0</ele><time>2026-04-18T10:28:18.929Z</time></trkpt><trkpt lat="43.7855567" lon="11.3718133"><ele>80.0</ele><time>2026-04-18T10:28:19.93Z</time></trkpt><trkpt lat="43.7856083" lon="11.3719583"><ele>80.0</ele><time>2026-04-18T10:28:20.929Z</time></trkpt><trkpt lat="43.7856683" lon="11.3721183"><ele>79.75</ele><time>2026-04-18T10:28:21.929Z</time></trkpt><trkpt lat="43.78571" lon="11.372295"><ele>79.5</ele><time>2026-04-18T10:28:22.929Z</time></trkpt><trkpt lat="43.78575" lon="11.3724883"><ele>79.25</ele><time>2026-04-18T10:28:23.929Z</time></trkpt><trkpt lat="43.7857917" lon="11.3726867"><ele>79.0</ele><time>2026-04-18T10:28:24.929Z</time></trkpt><trkpt lat="43.7858317" lon="11.37289"><ele>79.0</ele><time>2026-04-18T10:28:25.93Z</time></trkpt><trkpt lat="43.7858717" lon="11.373095"><ele>79.0</ele><time>2026-04-18T10:28:26.929Z</time></trkpt><trkpt lat="43.785915" lon="11.3732967"><ele>79.0</ele><time>2026-04-18T10:28:27.929Z</time></trkpt><trkpt lat="43.78596" lon="11.3735017"><ele>79.0</ele><time>2026-04-18T10:28:28.929Z</time></trkpt><trkpt lat="43.786" lon="11.373705"><ele>79.0</ele><time>2026-04-18T10:28:29.929Z</time></trkpt><trkpt lat="43.786045" lon="11.37391"><ele>79.0</ele><time>2026-04-18T10:28:30.929Z</time></trkpt><trkpt lat="43.7860883" lon="11.3741167"><ele>80.5</ele><time>2026-04-18T10:28:31.929Z</time></trkpt><trkpt lat="43.7861267" lon="11.3743167"><ele>82.0</ele><time>2026-04-18T10:28:32.93Z</time></trkpt><trkpt lat="43.78617" lon="11.3745183"><ele>83.5</ele><time>2026-04-18T10:28:33.93Z</time></trkpt><trkpt lat="43.7862117" lon="11.374715"><ele>85.0</ele><time>2026-04-18T10:28:34.929Z</time></trkpt><trkpt lat="43.7862483" lon="11.37489"><ele>85.4</ele><time>2026-04-18T10:28:35.929Z</time></trkpt><trkpt lat="43.7862833" lon="11.3750483"><ele>85.8</ele><time>2026-04-18T10:28:36.93Z</time></trkpt><trkpt lat="43.7863117" lon="11.375185"><ele>86.19999999999999</ele><time>2026-04-18T10:28:37.929Z</time></trkpt><trkpt lat="43.7863283" lon="11.3753067"><ele>86.6</ele><time>2026-04-18T10:28:38.93Z</time></trkpt><trkpt lat="43.786315" lon="11.3754217"><ele>87.0</ele><time>2026-04-18T10:28:39.929Z</time></trkpt><trkpt lat="43.7862783" lon="11.3755267"><ele>86.33333333333333</ele><time>2026-04-18T10:28:40.929Z</time></trkpt><trkpt lat="43.78623" lon="11.3756217"><ele>85.66666666666667</ele><time>2026-04-18T10:28:41.929Z</time></trkpt><trkpt lat="43.7862067" lon="11.3757217"><ele>85.0</ele><time>2026-04-18T10:28:42.929Z</time></trkpt><trkpt lat="43.78621" lon="11.3758367"><ele>84.33333333333334</ele><time>2026-04-18T10:28:43.929Z</time></trkpt><trkpt lat="43.7862417" lon="11.3759467"><ele>83.66666666666667</ele><time>2026-04-18T10:28:44.93Z</time></trkpt><trkpt lat="43.78627" lon="11.376055"><ele>83.0</ele><time>2026-04-18T10:28:45.929Z</time></trkpt><trkpt lat="43.7863" lon="11.3761583"><ele>83.0</ele><time>2026-04-18T10:28:46.929Z</time></trkpt><trkpt lat="43.786325" lon="11.376255"><ele>83.0</ele><time>2026-04-18T10:28:47.93Z</time></trkpt><trkpt lat="43.7863683" lon="11.376365"><ele>83.0</ele><time>2026-04-18T10:28:48.929Z</time></trkpt><trkpt lat="43.7864183" lon="11.37649"><ele>83.0</ele><time>2026-04-18T10:28:49.929Z</time></trkpt><trkpt lat="43.786465" lon="11.3766133"><ele>83.0</ele><time>2026-04-18T10:28:50.93Z</time></trkpt><trkpt lat="43.7864983" lon="11.37672"><ele>82.4</ele><time>2026-04-18T10:28:51.93Z</time></trkpt><trkpt lat="43.7865233" lon="11.376805"><ele>81.80000000000001</ele><time>2026-04-18T10:28:52.929Z</time></trkpt><trkpt lat="43.7865467" lon="11.376895"><ele>81.2</ele><time>2026-04-18T10:28:54.929Z</time></trkpt><trkpt lat="43.7865633" lon="11.3770283"><ele>80.6</ele><time>2026-04-18T10:29:14.93Z</time></trkpt><trkpt lat="43.786615" lon="11.3771683"><ele>80.0</ele><time>2026-04-18T10:29:15.93Z</time></trkpt><trkpt lat="43.7866767" lon="11.37734"><ele>79.66666666666667</ele><time>2026-04-18T10:29:16.929Z</time></trkpt><trkpt lat="43.786745" lon="11.37754"><ele>79.33333333333333</ele><time>2026-04-18T10:29:17.929Z</time></trkpt><trkpt lat="43.78682" lon="11.3777517"><ele>79.0</ele><time>2026-04-18T10:29:18.929Z</time></trkpt><trkpt lat="43.7868933" lon="11.3779717"><ele>82.0</ele><time>2026-04-18T10:29:19.93Z</time></trkpt><trkpt lat="43.7869617" lon="11.3781733"><ele>85.0</ele><time>2026-04-18T10:29:20.929Z</time></trkpt><trkpt lat="43.787035" lon="11.3783483"><ele>88.0</ele><time>2026-04-18T10:29:21.93Z</time></trkpt><trkpt lat="43.78711" lon="11.3785017"><ele>91.0</ele><time>2026-04-18T10:29:22.929Z</time></trkpt><trkpt lat="43.7872133" lon="11.3786467"><ele>91.0</ele><time>2026-04-18T10:29:23.929Z</time></trkpt><trkpt lat="43.7873283" lon="11.37878"><ele>91.0</ele><time>2026-04-18T10:29:24.93Z</time></trkpt><trkpt lat="43.7874667" lon="11.3789183"><ele>91.0</ele><time>2026-04-18T10:29:25.93Z</time></trkpt><trkpt lat="43.7875933" lon="11.3790767"><ele>94.0</ele><time>2026-04-18T10:29:26.929Z</time></trkpt><trkpt lat="43.78771" lon="11.37925"><ele>97.0</ele><time>2026-04-18T10:29:27.929Z</time></trkpt><trkpt lat="43.7878233" lon="11.3794333"><ele>100.0</ele><time>2026-04-18T10:29:28.929Z</time></trkpt><trkpt lat="43.7879483" lon="11.3796217"><ele>94.0</ele><time>2026-04-18T10:29:29.929Z</time></trkpt><trkpt lat="43.7880783" lon="11.3798067"><ele>88.0</ele><time>2026-04-18T10:29:30.929Z</time></trkpt><trkpt lat="43.7882167" lon="11.3799933"><ele>82.0</ele><time>2026-04-18T10:29:31.93Z</time></trkpt><trkpt lat="43.788365" lon="11.380165"><ele>81.33333333333333</ele><time>2026-04-18T10:29:32.929Z</time></trkpt><trkpt lat="43.7885183" lon="11.3803517"><ele>80.66666666666667</ele><time>2026-04-18T10:29:33.93Z</time></trkpt><trkpt lat="43.78867" lon="11.380535"><ele>80.0</ele><time>2026-04-18T10:29:34.929Z</time></trkpt><trkpt lat="43.7888267" lon="11.38072"><ele>80.0</ele><time>2026-04-18T10:29:35.929Z</time></trkpt><trkpt lat="43.7889867" lon="11.3808917"><ele>80.0</ele><time>2026-04-18T10:29:36.929Z</time></trkpt><trkpt lat="43.7891433" lon="11.3810583"><ele>80.0</ele><time>2026-04-18T10:29:37.929Z</time></trkpt><trkpt lat="43.7892917" lon="11.3812217"><ele>80.0</ele><time>2026-04-18T10:29:38.929Z</time></trkpt><trkpt lat="43.7894383" lon="11.3813733"><ele>80.0</ele><time>2026-04-18T10:29:39.929Z</time></trkpt><trkpt lat="43.789565" lon="11.38151"><ele>80.0</ele><time>2026-04-18T10:29:40.929Z</time></trkpt><trkpt lat="43.78969" lon="11.3816433"><ele>80.0</ele><time>2026-04-18T10:29:41.93Z</time></trkpt><trkpt lat="43.789805" lon="11.38175"><ele>80.0</ele><time>2026-04-18T10:29:42.93Z</time></trkpt><trkpt lat="43.789915" lon="11.3818683"><ele>80.0</ele><time>2026-04-18T10:29:43.93Z</time></trkpt><trkpt lat="43.7900083" lon="11.382"><ele>80.0</ele><time>2026-04-18T10:29:44.93Z</time></trkpt><trkpt lat="43.7900633" lon="11.382155"><ele>79.5</ele><time>2026-04-18T10:29:45.929Z</time></trkpt><trkpt lat="43.79009" lon="11.3823383"><ele>79.0</ele><time>2026-04-18T10:29:46.929Z</time></trkpt><trkpt lat="43.790095" lon="11.3825333"><ele>78.5</ele><time>2026-04-18T10:29:47.93Z</time></trkpt><trkpt lat="43.7900867" lon="11.3827283"><ele>78.0</ele><time>2026-04-18T10:29:48.93Z</time></trkpt><trkpt lat="43.79008" lon="11.382925"><ele>77.5</ele><time>2026-04-18T10:29:49.93Z</time></trkpt><trkpt lat="43.790075" lon="11.3831067"><ele>77.0</ele><time>2026-04-18T10:29:50.929Z</time></trkpt><trkpt lat="43.7900867" lon="11.3832683"><ele>76.5</ele><time>2026-04-18T10:29:51.929Z</time></trkpt><trkpt lat="43.79013" lon="11.383435"><ele>76.0</ele><time>2026-04-18T10:29:52.929Z</time></trkpt><trkpt lat="43.7902117" lon="11.3835717"><ele>75.25</ele><time>2026-04-18T10:29:53.929Z</time></trkpt><trkpt lat="43.7903233" lon="11.383675"><ele>74.5</ele><time>2026-04-18T10:29:54.929Z</time></trkpt><trkpt lat="43.7904467" lon="11.3837683"><ele>73.75</ele><time>2026-04-18T10:29:55.929Z</time></trkpt><trkpt lat="43.790575" lon="11.3838467"><ele>73.0</ele><time>2026-04-18T10:29:56.93Z</time></trkpt><trkpt lat="43.790715" lon="11.38391"><ele>73.0</ele><time>2026-04-18T10:29:57.929Z</time></trkpt><trkpt lat="43.7908617" lon="11.3839583"><ele>73.0</ele><time>2026-04-18T10:29:58.929Z</time></trkpt><trkpt lat="43.7910217" lon="11.3839917"><ele>73.0</ele><time>2026-04-18T10:29:59.93Z</time></trkpt><trkpt lat="43.7911883" lon="11.384025"><ele>73.33333333333333</ele><time>2026-04-18T10:30:00.929Z</time></trkpt><trkpt lat="43.7913667" lon="11.384075"><ele>73.66666666666667</ele><time>2026-04-18T10:30:01.929Z</time></trkpt><trkpt lat="43.7915267" lon="11.3841117"><ele>74.0</ele><time>2026-04-18T10:30:02.93Z</time></trkpt><trkpt lat="43.7916783" lon="11.38415"><ele>74.0</ele><time>2026-04-18T10:30:03.929Z</time></trkpt><trkpt lat="43.7918217" lon="11.3842067"><ele>74.0</ele><time>2026-04-18T10:30:04.929Z</time></trkpt><trkpt lat="43.791955" lon="11.3843033"><ele>74.0</ele><time>2026-04-18T10:30:05.929Z</time></trkpt><trkpt lat="43.7920733" lon="11.3844433"><ele>74.25</ele><time>2026-04-18T10:30:06.93Z</time></trkpt><trkpt lat="43.7921833" lon="11.3845967"><ele>74.5</ele><time>2026-04-18T10:30:07.929Z</time></trkpt><trkpt lat="43.792275" lon="11.38476"><ele>74.75</ele><time>2026-04-18T10:30:08.929Z</time></trkpt><trkpt lat="43.7923433" lon="11.3849333"><ele>75.0</ele><time>2026-04-18T10:30:09.93Z</time></trkpt><trkpt lat="43.7924" lon="11.3851167"><ele>75.0</ele><time>2026-04-18T10:30:10.929Z</time></trkpt><trkpt lat="43.7924383" lon="11.3853117"><ele>75.0</ele><time>2026-04-18T10:30:11.929Z</time></trkpt><trkpt lat="43.7924817" lon="11.3855183"><ele>75.0</ele><time>2026-04-18T10:30:12.93Z</time></trkpt><trkpt lat="43.7925233" lon="11.3857367"><ele>73.33333333333333</ele><time>2026-04-18T10:30:13.929Z</time></trkpt><trkpt lat="43.7925717" lon="11.3859617"><ele>71.66666666666666</ele><time>2026-04-18T10:30:14.929Z</time></trkpt><trkpt lat="43.792625" lon="11.3861817"><ele>70.0</ele><time>2026-04-18T10:30:15.929Z</time></trkpt><trkpt lat="43.7926717" lon="11.3863967"><ele>73.66666666666666</ele><time>2026-04-18T10:30:16.929Z</time></trkpt><trkpt lat="43.7927167" lon="11.386605"><ele>77.33333333333333</ele><time>2026-04-18T10:30:17.929Z</time></trkpt><trkpt lat="43.79276" lon="11.3868167"><ele>81.0</ele><time>2026-04-18T10:30:18.929Z</time></trkpt><trkpt lat="43.79282" lon="11.3870283"><ele>80.25</ele><time>2026-04-18T10:30:19.93Z</time></trkpt><trkpt lat="43.792865" lon="11.38722"><ele>79.5</ele><time>2026-04-18T10:30:20.929Z</time></trkpt><trkpt lat="43.7929033" lon="11.3874117"><ele>78.75</ele><time>2026-04-18T10:30:21.929Z</time></trkpt><trkpt lat="43.7929383" lon="11.3875967"><ele>78.0</ele><time>2026-04-18T10:30:22.929Z</time></trkpt><trkpt lat="43.7929783" lon="11.3877717"><ele>78.0</ele><time>2026-04-18T10:30:23.929Z</time></trkpt><trkpt lat="43.792995" lon="11.3879583"><ele>78.0</ele><time>2026-04-18T10:30:24.929Z</time></trkpt><trkpt lat="43.7930083" lon="11.3881517"><ele>78.0</ele><time>2026-04-18T10:30:25.929Z</time></trkpt><trkpt lat="43.793015" lon="11.3883483"><ele>78.0</ele><time>2026-04-18T10:30:26.93Z</time></trkpt><trkpt lat="43.7930033" lon="11.3885383"><ele>77.25</ele><time>2026-04-18T10:30:27.929Z</time></trkpt><trkpt lat="43.7929817" lon="11.388725"><ele>76.5</ele><time>2026-04-18T10:30:28.93Z</time></trkpt><trkpt lat="43.792945" lon="11.3889117"><ele>75.75</ele><time>2026-04-18T10:30:29.929Z</time></trkpt><trkpt lat="43.7928667" lon="11.3890917"><ele>75.0</ele><time>2026-04-18T10:30:30.93Z</time></trkpt><trkpt lat="43.7928017" lon="11.3892633"><ele>74.75</ele><time>2026-04-18T10:30:31.929Z</time></trkpt><trkpt lat="43.7927433" lon="11.38942"><ele>74.5</ele><time>2026-04-18T10:30:32.93Z</time></trkpt><trkpt lat="43.7926667" lon="11.389565"><ele>74.25</ele><time>2026-04-18T10:30:33.93Z</time></trkpt><trkpt lat="43.7925833" lon="11.389695"><ele>74.0</ele><time>2026-04-18T10:30:34.929Z</time></trkpt><trkpt lat="43.7924883" lon="11.3898283"><ele>74.5</ele><time>2026-04-18T10:30:35.929Z</time></trkpt><trkpt lat="43.79239" lon="11.38996"><ele>75.0</ele><time>2026-04-18T10:30:36.93Z</time></trkpt><trkpt lat="43.7923" lon="11.3900983"><ele>75.5</ele><time>2026-04-18T10:30:37.929Z</time></trkpt><trkpt lat="43.7922" lon="11.3902383"><ele>76.0</ele><time>2026-04-18T10:30:38.93Z</time></trkpt><trkpt lat="43.7920917" lon="11.390385"><ele>75.75</ele><time>2026-04-18T10:30:39.929Z</time></trkpt><trkpt lat="43.7919767" lon="11.390525"><ele>75.5</ele><time>2026-04-18T10:30:40.93Z</time></trkpt><trkpt lat="43.7918633" lon="11.3906467"><ele>75.25</ele><time>2026-04-18T10:30:41.929Z</time></trkpt><trkpt lat="43.7917533" lon="11.39076"><ele>75.0</ele><time>2026-04-18T10:30:42.93Z</time></trkpt><trkpt lat="43.7916367" lon="11.39088"><ele>75.0</ele><time>2026-04-18T10:30:43.929Z</time></trkpt><trkpt lat="43.7915383" lon="11.39101"><ele>75.0</ele><time>2026-04-18T10:30:44.93Z</time></trkpt><trkpt lat="43.791445" lon="11.39114"><ele>75.0</ele><time>2026-04-18T10:30:45.929Z</time></trkpt><trkpt lat="43.7913617" lon="11.3912883"><ele>75.0</ele><time>2026-04-18T10:30:46.929Z</time></trkpt><trkpt lat="43.7913033" lon="11.3914483"><ele>75.5</ele><time>2026-04-18T10:30:47.93Z</time></trkpt><trkpt lat="43.7912767" lon="11.3916233"><ele>76.0</ele><time>2026-04-18T10:30:48.929Z</time></trkpt><trkpt lat="43.7912733" lon="11.391805"><ele>76.5</ele><time>2026-04-18T10:30:49.929Z</time></trkpt><trkpt lat="43.7912783" lon="11.3919867"><ele>77.0</ele><time>2026-04-18T10:30:50.93Z</time></trkpt><trkpt lat="43.7912733" lon="11.392165"><ele>76.75</ele><time>2026-04-18T10:30:51.929Z</time></trkpt><trkpt lat="43.791235" lon="11.392325"><ele>76.5</ele><time>2026-04-18T10:30:52.929Z</time></trkpt><trkpt lat="43.79117" lon="11.3924617"><ele>76.25</ele><time>2026-04-18T10:30:53.929Z</time></trkpt><trkpt lat="43.7910817" lon="11.3925633"><ele>76.0</ele><time>2026-04-18T10:30:54.929Z</time></trkpt><trkpt lat="43.7909833" lon="11.3926317"><ele>76.0</ele><time>2026-04-18T10:30:55.929Z</time></trkpt><trkpt lat="43.790865" lon="11.3926833"><ele>76.0</ele><time>2026-04-18T10:30:56.929Z</time></trkpt><trkpt lat="43.7907517" lon="11.392715"><ele>76.0</ele><time>2026-04-18T10:30:57.929Z</time></trkpt><trkpt lat="43.7906467" lon="11.39275"><ele>76.0</ele><time>2026-04-18T10:30:58.929Z</time></trkpt><trkpt lat="43.7905483" lon="11.3927783"><ele>76.0</ele><time>2026-04-18T10:30:59.929Z</time></trkpt><trkpt lat="43.79047" lon="11.392805"><ele>76.0</ele><time>2026-04-18T10:31:00.929Z</time></trkpt><trkpt lat="43.7903833" lon="11.3928383"><ele>76.0</ele><time>2026-04-18T10:31:01.93Z</time></trkpt><trkpt lat="43.79032" lon="11.3928567"><ele>76.0</ele><time>2026-04-18T10:31:02.93Z</time></trkpt><trkpt lat="43.7902333" lon="11.392915"><ele>76.0</ele><time>2026-04-18T10:31:04.929Z</time></trkpt><trkpt lat="43.7901367" lon="11.3930067"><ele>76.0</ele><time>2026-04-18T10:31:06.93Z</time></trkpt><trkpt lat="43.7900767" lon="11.393095"><ele>76.6</ele><time>2026-04-18T10:31:08.93Z</time></trkpt><trkpt lat="43.7900533" lon="11.3931833"><ele>77.19999999999999</ele><time>2026-04-18T10:31:10.929Z</time></trkpt><trkpt lat="43.7900783" lon="11.3933167"><ele>77.80000000000001</ele><time>2026-04-18T10:31:12.929Z</time></trkpt><trkpt lat="43.79012" lon="11.3934533"><ele>78.4</ele><time>2026-04-18T10:31:14.929Z</time></trkpt><trkpt lat="43.7901283" lon="11.393595"><ele>79.0</ele><time>2026-04-18T10:31:16.93Z</time></trkpt><trkpt lat="43.79012" lon="11.3937267"><ele>78.8</ele><time>2026-04-18T10:31:18.929Z</time></trkpt><trkpt lat="43.790145" lon="11.393875"><ele>78.60000000000001</ele><time>2026-04-18T10:31:20.93Z</time></trkpt><trkpt lat="43.7901567" lon="11.3940333"><ele>78.4</ele><time>2026-04-18T10:31:22.929Z</time></trkpt><trkpt lat="43.790155" lon="11.394125"><ele>78.2</ele><time>2026-04-18T10:31:23.93Z</time></trkpt><trkpt lat="43.7901367" lon="11.39424"><ele>78.0</ele><time>2026-04-18T10:31:24.929Z</time></trkpt><trkpt lat="43.7901117" lon="11.3943767"><ele>78.0</ele><time>2026-04-18T10:31:25.929Z</time></trkpt><trkpt lat="43.7900967" lon="11.39452"><ele>78.0</ele><time>2026-04-18T10:31:26.929Z</time></trkpt><trkpt lat="43.790075" lon="11.3946717"><ele>78.0</ele><time>2026-04-18T10:31:27.93Z</time></trkpt><trkpt lat="43.7900567" lon="11.3948217"><ele>78.0</ele><time>2026-04-18T10:31:28.929Z</time></trkpt><trkpt lat="43.7900567" lon="11.3949467"><ele>78.0</ele><time>2026-04-18T10:31:29.929Z</time></trkpt><trkpt lat="43.79002" lon="11.3950983"><ele>78.0</ele><time>2026-04-18T10:31:30.93Z</time></trkpt><trkpt lat="43.79" lon="11.3952467"><ele>78.0</ele><time>2026-04-18T10:31:31.93Z</time></trkpt><trkpt lat="43.7899883" lon="11.3953667"><ele>78.0</ele><time>2026-04-18T10:31:32.929Z</time></trkpt><trkpt lat="43.7899967" lon="11.39547"><ele>78.0</ele><time>2026-04-18T10:31:33.93Z</time></trkpt><trkpt lat="43.790025" lon="11.3955633"><ele>78.0</ele><time>2026-04-18T10:31:34.929Z</time></trkpt><trkpt lat="43.7900667" lon="11.3956533"><ele>78.0</ele><time>2026-04-18T10:31:35.929Z</time></trkpt><trkpt lat="43.790115" lon="11.3957367"><ele>78.0</ele><time>2026-04-18T10:31:36.929Z</time></trkpt><trkpt lat="43.7901683" lon="11.3958167"><ele>78.0</ele><time>2026-04-18T10:31:37.929Z</time></trkpt><trkpt lat="43.7902267" lon="11.3958967"><ele>78.0</ele><time>2026-04-18T10:31:38.929Z</time></trkpt><trkpt lat="43.790285" lon="11.395975"><ele>78.0</ele><time>2026-04-18T10:31:39.93Z</time></trkpt><trkpt lat="43.7903383" lon="11.3960517"><ele>78.0</ele><time>2026-04-18T10:31:40.929Z</time></trkpt><trkpt lat="43.7903767" lon="11.396145"><ele>78.0</ele><time>2026-04-18T10:31:41.929Z</time></trkpt><trkpt lat="43.790405" lon="11.3962683"><ele>78.25</ele><time>2026-04-18T10:31:42.929Z</time></trkpt><trkpt lat="43.790405" lon="11.3964283"><ele>78.5</ele><time>2026-04-18T10:31:43.929Z</time></trkpt><trkpt lat="43.79038" lon="11.396615"><ele>78.75</ele><time>2026-04-18T10:31:44.93Z</time></trkpt><trkpt lat="43.79035" lon="11.3968183"><ele>79.0</ele><time>2026-04-18T10:31:45.929Z</time></trkpt><trkpt lat="43.79032" lon="11.3970267"><ele>80.0</ele><time>2026-04-18T10:31:46.929Z</time></trkpt><trkpt lat="43.7902967" lon="11.3972183"><ele>81.0</ele><time>2026-04-18T10:31:47.929Z</time></trkpt><trkpt lat="43.79028" lon="11.3973917"><ele>82.0</ele><time>2026-04-18T10:31:48.929Z</time></trkpt><trkpt lat="43.79026" lon="11.3975683"><ele>83.0</ele><time>2026-04-18T10:31:49.929Z</time></trkpt><trkpt lat="43.7902217" lon="11.3977417"><ele>83.0</ele><time>2026-04-18T10:31:50.93Z</time></trkpt><trkpt lat="43.79018" lon="11.3979167"><ele>83.0</ele><time>2026-04-18T10:31:51.929Z</time></trkpt><trkpt lat="43.7901333" lon="11.3980983"><ele>83.0</ele><time>2026-04-18T10:31:52.93Z</time></trkpt><trkpt lat="43.7900867" lon="11.3982883"><ele>83.0</ele><time>2026-04-18T10:31:53.929Z</time></trkpt><trkpt lat="43.7900367" lon="11.3984717"><ele>82.0</ele><time>2026-04-18T10:31:54.93Z</time></trkpt><trkpt lat="43.7899867" lon="11.398645"><ele>81.0</ele><time>2026-04-18T10:31:55.929Z</time></trkpt><trkpt lat="43.789935" lon="11.3988233"><ele>80.0</ele><time>2026-04-18T10:31:56.929Z</time></trkpt><trkpt lat="43.789885" lon="11.3990067"><ele>79.0</ele><time>2026-04-18T10:31:57.929Z</time></trkpt><trkpt lat="43.789835" lon="11.3991817"><ele>79.0</ele><time>2026-04-18T10:31:58.929Z</time></trkpt><trkpt lat="43.7897917" lon="11.3993583"><ele>79.0</ele><time>2026-04-18T10:31:59.929Z</time></trkpt><trkpt lat="43.7897483" lon="11.3995183"><ele>79.0</ele><time>2026-04-18T10:32:00.93Z</time></trkpt><trkpt lat="43.7896967" lon="11.39967"><ele>79.0</ele><time>2026-04-18T10:32:01.929Z</time></trkpt><trkpt lat="43.7896433" lon="11.399805"><ele>79.75</ele><time>2026-04-18T10:32:02.929Z</time></trkpt><trkpt lat="43.789585" lon="11.39992"><ele>80.5</ele><time>2026-04-18T10:32:03.929Z</time></trkpt><trkpt lat="43.78951" lon="11.40002"><ele>81.25</ele><time>2026-04-18T10:32:04.929Z</time></trkpt><trkpt lat="43.7894083" lon="11.4001217"><ele>82.0</ele><time>2026-04-18T10:32:05.929Z</time></trkpt><trkpt lat="43.7893067" lon="11.4002267"><ele>82.0</ele><time>2026-04-18T10:32:06.929Z</time></trkpt><trkpt lat="43.7892183" lon="11.4003267"><ele>82.0</ele><time>2026-04-18T10:32:07.929Z</time></trkpt><trkpt lat="43.7891417" lon="11.4004133"><ele>82.0</ele><time>2026-04-18T10:32:08.929Z</time></trkpt><trkpt lat="43.7890867" lon="11.4004883"><ele>82.0</ele><time>2026-04-18T10:32:09.929Z</time></trkpt><trkpt lat="43.7890283" lon="11.4005483"><ele>82.0</ele><time>2026-04-18T10:32:10.929Z</time></trkpt><trkpt lat="43.788955" lon="11.4006233"><ele>82.5</ele><time>2026-04-18T10:32:12.929Z</time></trkpt><trkpt lat="43.7889483" lon="11.4007383"><ele>83.0</ele><time>2026-04-18T10:32:15.929Z</time></trkpt><trkpt lat="43.78899" lon="11.40082"><ele>83.5</ele><time>2026-04-18T10:32:18.929Z</time></trkpt><trkpt lat="43.7890433" lon="11.4009167"><ele>84.0</ele><time>2026-04-18T10:32:22.929Z</time></trkpt><trkpt lat="43.7890867" lon="11.4009933"><ele>84.5</ele><time>2026-04-18T10:32:23.929Z</time></trkpt><trkpt lat="43.78914" lon="11.4010967"><ele>85.0</ele><time>2026-04-18T10:32:24.93Z</time></trkpt><trkpt lat="43.789205" lon="11.4012217"><ele>85.25</ele><time>2026-04-18T10:32:25.93Z</time></trkpt><trkpt lat="43.7892783" lon="11.4013667"><ele>85.5</ele><time>2026-04-18T10:32:26.93Z</time></trkpt><trkpt lat="43.7893567" lon="11.4015233"><ele>85.75</ele><time>2026-04-18T10:32:27.929Z</time></trkpt><trkpt lat="43.7894417" lon="11.40169"><ele>86.0</ele><time>2026-04-18T10:32:28.93Z</time></trkpt><trkpt lat="43.7895367" lon="11.4018533"><ele>88.66666666666667</ele><time>2026-04-18T10:32:29.929Z</time></trkpt><trkpt lat="43.7896333" lon="11.4020283"><ele>91.33333333333333</ele><time>2026-04-18T10:32:30.929Z</time></trkpt><trkpt lat="43.7897317" lon="11.4022117"><ele>94.0</ele><time>2026-04-18T10:32:31.929Z</time></trkpt><trkpt lat="43.7898317" lon="11.4023783"><ele>94.0</ele><time>2026-04-18T10:32:32.93Z</time></trkpt><trkpt lat="43.7899333" lon="11.4025367"><ele>94.0</ele><time>2026-04-18T10:32:33.93Z</time></trkpt><trkpt lat="43.7900283" lon="11.402685"><ele>94.0</ele><time>2026-04-18T10:32:34.929Z</time></trkpt><trkpt lat="43.7901083" lon="11.4028167"><ele>94.0</ele><time>2026-04-18T10:32:35.93Z</time></trkpt><trkpt lat="43.7901767" lon="11.4029417"><ele>95.4</ele><time>2026-04-18T10:32:36.93Z</time></trkpt><trkpt lat="43.7902367" lon="11.40305"><ele>96.80000000000001</ele><time>2026-04-18T10:32:37.929Z</time></trkpt><trkpt lat="43.7902917" lon="11.403145"><ele>98.19999999999999</ele><time>2026-04-18T10:32:38.929Z</time></trkpt><trkpt lat="43.79034" lon="11.4032433"><ele>99.6</ele><time>2026-04-18T10:32:39.93Z</time></trkpt><trkpt lat="43.7903933" lon="11.4033417"><ele>101.0</ele><time>2026-04-18T10:32:40.93Z</time></trkpt><trkpt lat="43.790455" lon="11.40343"><ele>100.99999999999999</ele><time>2026-04-18T10:32:41.929Z</time></trkpt><trkpt lat="43.7905183" lon="11.403515"><ele>101.0</ele><time>2026-04-18T10:32:42.929Z</time></trkpt><trkpt lat="43.7905783" lon="11.40359"><ele>101.0</ele><time>2026-04-18T10:32:43.929Z</time></trkpt><trkpt lat="43.7906483" lon="11.4036767"><ele>101.0</ele><time>2026-04-18T10:32:44.93Z</time></trkpt><trkpt lat="43.7907117" lon="11.4037483"><ele>100.99999999999999</ele><time>2026-04-18T10:32:45.929Z</time></trkpt><trkpt lat="43.79078" lon="11.4038217"><ele>101.0</ele><time>2026-04-18T10:32:46.928Z</time></trkpt><trkpt lat="43.790855" lon="11.4038883"><ele>102.0</ele><time>2026-04-18T10:32:47.928Z</time></trkpt><trkpt lat="43.7909333" lon="11.4039667"><ele>103.0</ele><time>2026-04-18T10:32:48.928Z</time></trkpt><trkpt lat="43.791015" lon="11.4040467"><ele>104.0</ele><time>2026-04-18T10:32:49.929Z</time></trkpt><trkpt lat="43.791095" lon="11.404125"><ele>105.0</ele><time>2026-04-18T10:32:50.929Z</time></trkpt><trkpt lat="43.791175" lon="11.4042067"><ele>106.0</ele><time>2026-04-18T10:32:51.929Z</time></trkpt><trkpt lat="43.7912517" lon="11.4042883"><ele>106.8</ele><time>2026-04-18T10:32:52.929Z</time></trkpt><trkpt lat="43.7913333" lon="11.404365"><ele>107.6</ele><time>2026-04-18T10:32:53.928Z</time></trkpt><trkpt lat="43.79142" lon="11.404445"><ele>108.4</ele><time>2026-04-18T10:32:54.928Z</time></trkpt><trkpt lat="43.7914933" lon="11.4045167"><ele>109.2</ele><time>2026-04-18T10:32:55.928Z</time></trkpt><trkpt lat="43.7915633" lon="11.4045833"><ele>110.0</ele><time>2026-04-18T10:32:56.929Z</time></trkpt><trkpt lat="43.7916383" lon="11.4046467"><ele>111.99999999999999</ele><time>2026-04-18T10:32:57.929Z</time></trkpt><trkpt lat="43.791705" lon="11.4047183"><ele>114.0</ele><time>2026-04-18T10:32:58.928Z</time></trkpt><trkpt lat="43.7917683" lon="11.40479"><ele>116.0</ele><time>2026-04-18T10:32:59.928Z</time></trkpt><trkpt lat="43.791835" lon="11.4048583"><ele>118.0</ele><time>2026-04-18T10:33:00.928Z</time></trkpt><trkpt lat="43.7919033" lon="11.4049217"><ele>119.99999999999999</ele><time>2026-04-18T10:33:01.928Z</time></trkpt><trkpt lat="43.791965" lon="11.4049883"><ele>122.0</ele><time>2026-04-18T10:33:02.929Z</time></trkpt><trkpt lat="43.7920267" lon="11.4050383"><ele>121.99999999999999</ele><time>2026-04-18T10:33:03.929Z</time></trkpt><trkpt lat="43.792105" lon="11.4050917"><ele>122.0</ele><time>2026-04-18T10:33:05.928Z</time></trkpt><trkpt lat="43.7920317" lon="11.4050533"><ele>122.0</ele><time>2026-04-18T10:33:34.928Z</time></trkpt><trkpt lat="43.7919717" lon="11.40497"><ele>122.0</ele><time>2026-04-18T10:33:36.928Z</time></trkpt><trkpt lat="43.7919033" lon="11.4049217"><ele>121.99999999999999</ele><time>2026-04-18T10:33:39.928Z</time></trkpt><trkpt lat="43.7918467" lon="11.4049633"><ele>122.0</ele><time>2026-04-18T10:33:41.929Z</time></trkpt><trkpt lat="43.7917733" lon="11.4050567"><ele>122.0</ele><time>2026-04-18T10:33:43.928Z</time></trkpt><trkpt lat="43.7917183" lon="11.405115"><ele>121.99999999999999</ele><time>2026-04-18T10:33:44.929Z</time></trkpt><trkpt lat="43.7916383" lon="11.4052333"><ele>121.99999999999999</ele><time>2026-04-18T10:33:46.928Z</time></trkpt><trkpt lat="43.79159" lon="11.4053233"><ele>122.0</ele><time>2026-04-18T10:33:48.929Z</time></trkpt><trkpt lat="43.7916533" lon="11.405455"><ele>122.0</ele><time>2026-04-18T10:34:10.928Z</time></trkpt><trkpt lat="43.7917017" lon="11.4055267"><ele>123.7142857142857</ele><time>2026-04-18T10:34:11.929Z</time></trkpt><trkpt lat="43.7917533" lon="11.4055933"><ele>125.42857142857142</ele><time>2026-04-18T10:34:12.928Z</time></trkpt><trkpt lat="43.7918117" lon="11.4056633"><ele>127.14285714285714</ele><time>2026-04-18T10:34:13.929Z</time></trkpt><trkpt lat="43.791865" lon="11.4057317"><ele>128.85714285714283</ele><time>2026-04-18T10:34:14.929Z</time></trkpt><trkpt lat="43.7919267" lon="11.4057967"><ele>130.57142857142856</ele><time>2026-04-18T10:34:15.928Z</time></trkpt><trkpt lat="43.79199" lon="11.4058533"><ele>132.28571428571428</ele><time>2026-04-18T10:34:16.929Z</time></trkpt><trkpt lat="43.79205" lon="11.4059083"><ele>134.0</ele><time>2026-04-18T10:34:17.929Z</time></trkpt><trkpt lat="43.792135" lon="11.4059817"><ele>134.6</ele><time>2026-04-18T10:34:19.928Z</time></trkpt><trkpt lat="43.79219" lon="11.4060717"><ele>135.2</ele><time>2026-04-18T10:34:21.928Z</time></trkpt><trkpt lat="43.7922567" lon="11.4061733"><ele>135.79999999999998</ele><time>2026-04-18T10:34:23.928Z</time></trkpt><trkpt lat="43.792335" lon="11.4062483"><ele>136.4</ele><time>2026-04-18T10:34:25.928Z</time></trkpt><trkpt lat="43.79241" lon="11.40627"><ele>137.0</ele><time>2026-04-18T10:34:27.928Z</time></trkpt><trkpt lat="43.7925083" lon="11.40624"><ele>137.0</ele><time>2026-04-18T10:34:30.928Z</time></trkpt><trkpt lat="43.7926217" lon="11.4061867"><ele>137.0</ele><time>2026-04-18T10:34:32.929Z</time></trkpt><trkpt lat="43.7926933" lon="11.406155"><ele>137.0</ele><time>2026-04-18T10:34:33.928Z</time></trkpt><trkpt lat="43.79276" lon="11.4061167"><ele>137.0</ele><time>2026-04-18T10:34:34.929Z</time></trkpt><trkpt lat="43.79287" lon="11.40608"><ele>137.0</ele><time>2026-04-18T10:34:36.929Z</time></trkpt><trkpt lat="43.792965" lon="11.4060483"><ele>137.79999999999998</ele><time>2026-04-18T10:34:38.929Z</time></trkpt><trkpt lat="43.7930367" lon="11.4060517"><ele>138.6</ele><time>2026-04-18T10:34:40.928Z</time></trkpt><trkpt lat="43.7929533" lon="11.4060783"><ele>139.39999999999998</ele><time>2026-04-18T10:35:06.928Z</time></trkpt><trkpt lat="43.7930683" lon="11.4060283"><ele>140.2</ele><time>2026-04-18T10:36:06.929Z</time></trkpt><trkpt lat="43.7929633" lon="11.4060283"><ele>141.0</ele><time>2026-04-18T10:36:41.928Z</time></trkpt><trkpt lat="43.7928633" lon="11.4060783"><ele>141.0</ele><time>2026-04-18T10:36:43.928Z</time></trkpt><trkpt lat="43.7928" lon="11.4061083"><ele>141.0</ele><time>2026-04-18T10:36:44.928Z</time></trkpt><trkpt lat="43.7927317" lon="11.4061517"><ele>141.0</ele><time>2026-04-18T10:36:45.929Z</time></trkpt><trkpt lat="43.792655" lon="11.4061833"><ele>141.0</ele><time>2026-04-18T10:36:46.929Z</time></trkpt><trkpt lat="43.7925817" lon="11.4062183"><ele>141.0</ele><time>2026-04-18T10:36:47.928Z</time></trkpt><trkpt lat="43.792455" lon="11.40626"><ele>141.0</ele><time>2026-04-18T10:36:49.929Z</time></trkpt><trkpt lat="43.7923483" lon="11.40626"><ele>140.0</ele><time>2026-04-18T10:36:51.928Z</time></trkpt><trkpt lat="43.7922483" lon="11.4062017"><ele>139.0</ele><time>2026-04-18T10:36:53.928Z</time></trkpt><trkpt lat="43.7921767" lon="11.4060783"><ele>138.0</ele><time>2026-04-18T10:36:55.929Z</time></trkpt><trkpt lat="43.7920967" lon="11.4059733"><ele>137.0</ele><time>2026-04-18T10:36:57.928Z</time></trkpt><trkpt lat="43.7919933" lon="11.4058567"><ele>137.0</ele><time>2026-04-18T10:36:59.928Z</time></trkpt><trkpt lat="43.7918917" lon="11.40577"><ele>137.0</ele><time>2026-04-18T10:37:01.929Z</time></trkpt><trkpt lat="43.79181" lon="11.405675"><ele>137.0</ele><time>2026-04-18T10:37:03.929Z</time></trkpt><trkpt lat="43.7917367" lon="11.4055783"><ele>137.0</ele><time>2026-04-18T10:37:05.929Z</time></trkpt><trkpt lat="43.7916683" lon="11.4054967"><ele>137.0</ele><time>2026-04-18T10:37:07.928Z</time></trkpt><trkpt lat="43.79162" lon="11.4054233"><ele>136.4</ele><time>2026-04-18T10:37:09.929Z</time></trkpt><trkpt lat="43.7915517" lon="11.4054117"><ele>135.79999999999998</ele><time>2026-04-18T10:37:27.929Z</time></trkpt><trkpt lat="43.7914967" lon="11.4054867"><ele>135.2</ele><time>2026-04-18T10:37:29.928Z</time></trkpt><trkpt lat="43.7914067" lon="11.4056167"><ele>134.6</ele><time>2026-04-18T10:37:31.928Z</time></trkpt><trkpt lat="43.79136" lon="11.4056933"><ele>134.0</ele><time>2026-04-18T10:37:32.928Z</time></trkpt><trkpt lat="43.7912883" lon="11.4058033"><ele>134.0</ele><time>2026-04-18T10:37:34.928Z</time></trkpt><trkpt lat="43.7912417" lon="11.405895"><ele>134.0</ele><time>2026-04-18T10:37:36.928Z</time></trkpt><trkpt lat="43.791225" lon="11.4059917"><ele>134.0</ele><time>2026-04-18T10:37:38.928Z</time></trkpt><trkpt lat="43.7912317" lon="11.4060967"><ele>134.0</ele><time>2026-04-18T10:37:40.928Z</time></trkpt><trkpt lat="43.7912332" lon="11.4062222"><ele>134.0</ele><time>2026-04-18T10:37:42.928Z</time></trkpt><trkpt lat="43.7912394" lon="11.4063386"><ele>134.0</ele><time>2026-04-18T10:37:44.928Z</time></trkpt><trkpt lat="43.7912243" lon="11.4064533"><ele>137.0</ele><time>2026-04-18T10:37:47.929Z</time></trkpt><trkpt lat="43.7911899" lon="11.4065801"><ele>140.0</ele><time>2026-04-18T10:37:49.928Z</time></trkpt><trkpt lat="43.7911484" lon="11.4067073"><ele>143.0</ele><time>2026-04-18T10:37:51.928Z</time></trkpt><trkpt lat="43.7911014" lon="11.406832"><ele>146.0</ele><time>2026-04-18T10:37:53.928Z</time></trkpt><trkpt lat="43.7910767" lon="11.40692"><ele>149.0</ele><time>2026-04-18T10:37:55.929Z</time></trkpt><trkpt lat="43.7911433" lon="11.4069867"><ele>149.0</ele><time>2026-04-18T10:38:04.928Z</time></trkpt><trkpt lat="43.7912233" lon="11.4069967"><ele>149.0</ele><time>2026-04-18T10:38:07.928Z</time></trkpt><trkpt lat="43.79131" lon="11.4070617"><ele>149.0</ele><time>2026-04-18T10:38:10.928Z</time></trkpt><trkpt lat="43.7913983" lon="11.4071517"><ele>149.0</ele><time>2026-04-18T10:38:12.928Z</time></trkpt><trkpt lat="43.7914533" lon="11.4072067"><ele>149.0</ele><time>2026-04-18T10:38:13.929Z</time></trkpt><trkpt lat="43.7915117" lon="11.4072633"><ele>149.0</ele><time>2026-04-18T10:38:14.929Z</time></trkpt><trkpt lat="43.7915683" lon="11.4073183"><ele>150.66666666666666</ele><time>2026-04-18T10:38:15.928Z</time></trkpt><trkpt lat="43.7916333" lon="11.4073767"><ele>152.33333333333331</ele><time>2026-04-18T10:38:16.928Z</time></trkpt><trkpt lat="43.7917033" lon="11.4074233"><ele>154.0</ele><time>2026-04-18T10:38:17.928Z</time></trkpt><trkpt lat="43.791775" lon="11.4074767"><ele>155.66666666666666</ele><time>2026-04-18T10:38:18.929Z</time></trkpt><trkpt lat="43.791855" lon="11.40754"><ele>157.33333333333334</ele><time>2026-04-18T10:38:19.929Z</time></trkpt><trkpt lat="43.7919267" lon="11.407595"><ele>159.0</ele><time>2026-04-18T10:38:20.929Z</time></trkpt><trkpt lat="43.791995" lon="11.4076417"><ele>161.5</ele><time>2026-04-18T10:38:21.928Z</time></trkpt><trkpt lat="43.79206" lon="11.4076933"><ele>164.0</ele><time>2026-04-18T10:38:22.928Z</time></trkpt><trkpt lat="43.7921317" lon="11.4077233"><ele>166.5</ele><time>2026-04-18T10:38:23.928Z</time></trkpt><trkpt lat="43.7922017" lon="11.4077483"><ele>169.0</ele><time>2026-04-18T10:38:24.928Z</time></trkpt><trkpt lat="43.7922683" lon="11.4077633"><ele>171.5</ele><time>2026-04-18T10:38:25.929Z</time></trkpt><trkpt lat="43.7923833" lon="11.4077833"><ele>174.0</ele><time>2026-04-18T10:38:27.928Z</time></trkpt><trkpt lat="43.7924867" lon="11.40782"><ele>174.0</ele><time>2026-04-18T10:38:29.929Z</time></trkpt><trkpt lat="43.7925733" lon="11.40788"><ele>174.0</ele><time>2026-04-18T10:38:31.928Z</time></trkpt><trkpt lat="43.792635" lon="11.4079167"><ele>174.0</ele><time>2026-04-18T10:38:32.928Z</time></trkpt><trkpt lat="43.7927033" lon="11.407945"><ele>174.0</ele><time>2026-04-18T10:38:33.928Z</time></trkpt><trkpt lat="43.7927817" lon="11.4079683"><ele>174.0</ele><time>2026-04-18T10:38:34.929Z</time></trkpt><trkpt lat="43.79287" lon="11.4079917"><ele>174.0</ele><time>2026-04-18T10:38:35.928Z</time></trkpt><trkpt lat="43.79296" lon="11.4080183"><ele>176.6</ele><time>2026-04-18T10:38:36.929Z</time></trkpt><trkpt lat="43.7930517" lon="11.40806"><ele>179.2</ele><time>2026-04-18T10:38:37.928Z</time></trkpt><trkpt lat="43.79314" lon="11.408125"><ele>181.79999999999998</ele><time>2026-04-18T10:38:38.928Z</time></trkpt><trkpt lat="43.7932233" lon="11.4082"><ele>184.39999999999998</ele><time>2026-04-18T10:38:39.929Z</time></trkpt><trkpt lat="43.793295" lon="11.4082867"><ele>187.0</ele><time>2026-04-18T10:38:40.928Z</time></trkpt><trkpt lat="43.7933667" lon="11.40838"><ele>187.0</ele><time>2026-04-18T10:38:41.928Z</time></trkpt><trkpt lat="43.793435" lon="11.4084767"><ele>187.0</ele><time>2026-04-18T10:38:42.928Z</time></trkpt><trkpt lat="43.7934933" lon="11.4085717"><ele>187.0</ele><time>2026-04-18T10:38:43.928Z</time></trkpt><trkpt lat="43.793545" lon="11.40866"><ele>187.0</ele><time>2026-04-18T10:38:44.929Z</time></trkpt><trkpt lat="43.79359" lon="11.4087433"><ele>187.0</ele><time>2026-04-18T10:38:45.928Z</time></trkpt><trkpt lat="43.79365" lon="11.408855"><ele>187.0</ele><time>2026-04-18T10:38:47.928Z</time></trkpt><trkpt lat="43.7936933" lon="11.4090017"><ele>187.6</ele><time>2026-04-18T10:38:49.928Z</time></trkpt><trkpt lat="43.7937767" lon="11.4091517"><ele>188.2</ele><time>2026-04-18T10:38:50.929Z</time></trkpt><trkpt lat="43.7937483" lon="11.4092767"><ele>188.8</ele><time>2026-04-18T10:38:51.928Z</time></trkpt><trkpt lat="43.79372" lon="11.4094083"><ele>189.4</ele><time>2026-04-18T10:38:52.928Z</time></trkpt><trkpt lat="43.7937083" lon="11.409545"><ele>190.0</ele><time>2026-04-18T10:38:53.929Z</time></trkpt><trkpt lat="43.7937033" lon="11.40968"><ele>190.0</ele><time>2026-04-18T10:38:54.928Z</time></trkpt><trkpt lat="43.7937" lon="11.4098117"><ele>190.0</ele><time>2026-04-18T10:38:55.929Z</time></trkpt><trkpt lat="43.7937267" lon="11.409945"><ele>190.0</ele><time>2026-04-18T10:38:56.929Z</time></trkpt><trkpt lat="43.7937633" lon="11.4100717"><ele>190.0</ele><time>2026-04-18T10:38:57.929Z</time></trkpt><trkpt lat="43.7938117" lon="11.4102"><ele>190.0</ele><time>2026-04-18T10:38:58.928Z</time></trkpt><trkpt lat="43.7938717" lon="11.4103183"><ele>190.0</ele><time>2026-04-18T10:38:59.928Z</time></trkpt><trkpt lat="43.7939417" lon="11.4104217"><ele>190.0</ele><time>2026-04-18T10:39:00.929Z</time></trkpt><trkpt lat="43.7940283" lon="11.4105133"><ele>190.0</ele><time>2026-04-18T10:39:01.928Z</time></trkpt><trkpt lat="43.7941217" lon="11.4105967"><ele>190.0</ele><time>2026-04-18T10:39:02.928Z</time></trkpt><trkpt lat="43.7942317" lon="11.4106733"><ele>190.0</ele><time>2026-04-18T10:39:03.929Z</time></trkpt><trkpt lat="43.79434" lon="11.4107533"><ele>191.8</ele><time>2026-04-18T10:39:04.928Z</time></trkpt><trkpt lat="43.7944517" lon="11.4108333"><ele>193.6</ele><time>2026-04-18T10:39:05.928Z</time></trkpt><trkpt lat="43.794555" lon="11.4109033"><ele>195.39999999999998</ele><time>2026-04-18T10:39:06.929Z</time></trkpt><trkpt lat="43.7946533" lon="11.4109567"><ele>197.2</ele><time>2026-04-18T10:39:07.928Z</time></trkpt><trkpt lat="43.7947467" lon="11.4110033"><ele>199.0</ele><time>2026-04-18T10:39:08.928Z</time></trkpt><trkpt lat="43.7948383" lon="11.411045"><ele>198.99999999999997</ele><time>2026-04-18T10:39:09.928Z</time></trkpt><trkpt lat="43.7949067" lon="11.41109"><ele>199.0</ele><time>2026-04-18T10:39:10.929Z</time></trkpt><trkpt lat="43.7950017" lon="11.4111033"><ele>199.0</ele><time>2026-04-18T10:39:44.928Z</time></trkpt><trkpt lat="43.7950767" lon="11.411135"><ele>199.0</ele><time>2026-04-18T10:39:45.928Z</time></trkpt><trkpt lat="43.79516" lon="11.4111767"><ele>198.99999999999997</ele><time>2026-04-18T10:39:46.928Z</time></trkpt><trkpt lat="43.7952583" lon="11.4112183"><ele>199.0</ele><time>2026-04-18T10:39:47.928Z</time></trkpt><trkpt lat="43.7953567" lon="11.411245"><ele>200.25</ele><time>2026-04-18T10:39:48.928Z</time></trkpt><trkpt lat="43.79547" lon="11.4112967"><ele>201.5</ele><time>2026-04-18T10:39:49.929Z</time></trkpt><trkpt lat="43.7955867" lon="11.411355"><ele>202.75</ele><time>2026-04-18T10:39:50.928Z</time></trkpt><trkpt lat="43.7956983" lon="11.4114233"><ele>204.0</ele><time>2026-04-18T10:39:51.928Z</time></trkpt><trkpt lat="43.795815" lon="11.4114983"><ele>207.5</ele><time>2026-04-18T10:39:52.928Z</time></trkpt><trkpt lat="43.7959417" lon="11.4115783"><ele>211.0</ele><time>2026-04-18T10:39:53.928Z</time></trkpt><trkpt lat="43.7960583" lon="11.4116417"><ele>214.5</ele><time>2026-04-18T10:39:54.928Z</time></trkpt><trkpt lat="43.7961633" lon="11.411685"><ele>218.0</ele><time>2026-04-18T10:39:55.928Z</time></trkpt><trkpt lat="43.796225" lon="11.4117867"><ele>218.0</ele><time>2026-04-18T10:39:57.928Z</time></trkpt><trkpt lat="43.7961633" lon="11.411885"><ele>218.0</ele><time>2026-04-18T10:39:59.929Z</time></trkpt><trkpt lat="43.7960267" lon="11.4118867"><ele>218.0</ele><time>2026-04-18T10:40:01.928Z</time></trkpt><trkpt lat="43.795935" lon="11.4118567"><ele>218.0</ele><time>2026-04-18T10:40:02.929Z</time></trkpt><trkpt lat="43.79585" lon="11.4118383"><ele>218.0</ele><time>2026-04-18T10:40:03.929Z</time></trkpt><trkpt lat="43.7957817" lon="11.4118367"><ele>218.0</ele><time>2026-04-18T10:40:04.928Z</time></trkpt><trkpt lat="43.7957233" lon="11.41193"><ele>218.0</ele><time>2026-04-18T10:40:06.928Z</time></trkpt><trkpt lat="43.795775" lon="11.41207"><ele>218.0</ele><time>2026-04-18T10:40:08.928Z</time></trkpt><trkpt lat="43.7958317" lon="11.4121417"><ele>218.0</ele><time>2026-04-18T10:40:09.929Z</time></trkpt><trkpt lat="43.7959017" lon="11.412225"><ele>218.0</ele><time>2026-04-18T10:40:10.928Z</time></trkpt><trkpt lat="43.7959867" lon="11.4123183"><ele>220.60000000000002</ele><time>2026-04-18T10:40:11.928Z</time></trkpt><trkpt lat="43.7960833" lon="11.4124183"><ele>223.20000000000002</ele><time>2026-04-18T10:40:12.929Z</time></trkpt><trkpt lat="43.7961883" lon="11.412505"><ele>225.8</ele><time>2026-04-18T10:40:13.929Z</time></trkpt><trkpt lat="43.7962867" lon="11.4125583"><ele>228.4</ele><time>2026-04-18T10:40:14.929Z</time></trkpt><trkpt lat="43.7963567" lon="11.4125867"><ele>231.0</ele><time>2026-04-18T10:40:15.929Z</time></trkpt><trkpt lat="43.79642" lon="11.4126567"><ele>231.0</ele><time>2026-04-18T10:40:17.928Z</time></trkpt><trkpt lat="43.7964117" lon="11.41278"><ele>231.0</ele><time>2026-04-18T10:40:19.929Z</time></trkpt><trkpt lat="43.7963933" lon="11.4128833"><ele>231.0</ele><time>2026-04-18T10:40:20.929Z</time></trkpt><trkpt lat="43.796355" lon="11.4129917"><ele>231.0</ele><time>2026-04-18T10:40:21.928Z</time></trkpt><trkpt lat="43.7963233" lon="11.4131033"><ele>231.0</ele><time>2026-04-18T10:40:22.929Z</time></trkpt><trkpt lat="43.7962917" lon="11.4131917"><ele>231.0</ele><time>2026-04-18T10:40:23.928Z</time></trkpt><trkpt lat="43.7962817" lon="11.4133133"><ele>232.4</ele><time>2026-04-18T10:40:25.928Z</time></trkpt><trkpt lat="43.7963" lon="11.41343"><ele>233.8</ele><time>2026-04-18T10:40:27.929Z</time></trkpt><trkpt lat="43.7963417" lon="11.4135533"><ele>235.20000000000002</ele><time>2026-04-18T10:40:29.929Z</time></trkpt><trkpt lat="43.796375" lon="11.4136867"><ele>236.60000000000002</ele><time>2026-04-18T10:40:31.928Z</time></trkpt><trkpt lat="43.7964133" lon="11.4138133"><ele>238.0</ele><time>2026-04-18T10:40:33.928Z</time></trkpt><trkpt lat="43.796445" lon="11.4139783"><ele>239.60000000000002</ele><time>2026-04-18T10:40:35.928Z</time></trkpt><trkpt lat="43.7964533" lon="11.4141383"><ele>241.20000000000002</ele><time>2026-04-18T10:40:37.928Z</time></trkpt><trkpt lat="43.7964317" lon="11.414305"><ele>242.8</ele><time>2026-04-18T10:40:39.928Z</time></trkpt><trkpt lat="43.7964133" lon="11.414405"><ele>244.4</ele><time>2026-04-18T10:40:40.929Z</time></trkpt><trkpt lat="43.7963967" lon="11.4145067"><ele>246.0</ele><time>2026-04-18T10:40:41.928Z</time></trkpt><trkpt lat="43.7963817" lon="11.4145983"><ele>248.4</ele><time>2026-04-18T10:40:42.929Z</time></trkpt><trkpt lat="43.7963717" lon="11.4146917"><ele>250.8</ele><time>2026-04-18T10:40:43.928Z</time></trkpt><trkpt lat="43.796355" lon="11.4147917"><ele>253.20000000000002</ele><time>2026-04-18T10:40:44.928Z</time></trkpt><trkpt lat="43.7963167" lon="11.4149683"><ele>255.60000000000002</ele><time>2026-04-18T10:40:46.928Z</time></trkpt><trkpt lat="43.7962983" lon="11.4151483"><ele>258.0</ele><time>2026-04-18T10:40:48.929Z</time></trkpt><trkpt lat="43.7962783" lon="11.415235"><ele>258.0</ele><time>2026-04-18T10:40:49.928Z</time></trkpt><trkpt lat="43.7962533" lon="11.4153217"><ele>258.0</ele><time>2026-04-18T10:40:50.928Z</time></trkpt><trkpt lat="43.7962283" lon="11.4154267"><ele>258.0</ele><time>2026-04-18T10:40:51.928Z</time></trkpt><trkpt lat="43.7962017" lon="11.4155733"><ele>258.0</ele><time>2026-04-18T10:40:53.928Z</time></trkpt><trkpt lat="43.796175" lon="11.4156683"><ele>258.0</ele><time>2026-04-18T10:40:55.928Z</time></trkpt><trkpt lat="43.7961167" lon="11.4157417"><ele>258.0</ele><time>2026-04-18T10:41:02.928Z</time></trkpt><trkpt lat="43.796175" lon="11.4156883"><ele>258.57142857142856</ele><time>2026-04-18T10:41:13.929Z</time></trkpt><trkpt lat="43.7962183" lon="11.4156183"><ele>259.1428571428571</ele><time>2026-04-18T10:41:15.928Z</time></trkpt><trkpt lat="43.7962833" lon="11.4156217"><ele>259.7142857142857</ele><time>2026-04-18T10:41:18.929Z</time></trkpt><trkpt lat="43.79638" lon="11.415655"><ele>260.2857142857143</ele><time>2026-04-18T10:41:20.929Z</time></trkpt><trkpt lat="43.796445" lon="11.4156767"><ele>260.8571428571429</ele><time>2026-04-18T10:41:21.928Z</time></trkpt><trkpt lat="43.7965083" lon="11.415705"><ele>261.42857142857144</ele><time>2026-04-18T10:41:22.928Z</time></trkpt><trkpt lat="43.7965733" lon="11.4157383"><ele>262.0</ele><time>2026-04-18T10:41:23.928Z</time></trkpt><trkpt lat="43.79664" lon="11.415765"><ele>262.0</ele><time>2026-04-18T10:41:24.928Z</time></trkpt><trkpt lat="43.7967083" lon="11.4158"><ele>262.0</ele><time>2026-04-18T10:41:25.928Z</time></trkpt><trkpt lat="43.7967833" lon="11.4158283"><ele>262.0</ele><time>2026-04-18T10:41:26.928Z</time></trkpt><trkpt lat="43.796855" lon="11.4158633"><ele>262.0</ele><time>2026-04-18T10:41:27.928Z</time></trkpt><trkpt lat="43.7969283" lon="11.4158917"><ele>262.0</ele><time>2026-04-18T10:41:28.928Z</time></trkpt><trkpt lat="43.7970467" lon="11.415945"><ele>262.0</ele><time>2026-04-18T10:41:30.929Z</time></trkpt><trkpt lat="43.79715" lon="11.4160067"><ele>261.66666666666663</ele><time>2026-04-18T10:41:32.929Z</time></trkpt><trkpt lat="43.79724" lon="11.4160717"><ele>261.3333333333333</ele><time>2026-04-18T10:41:34.928Z</time></trkpt><trkpt lat="43.79731" lon="11.4161417"><ele>261.0</ele><time>2026-04-18T10:41:36.928Z</time></trkpt><trkpt lat="43.7973717" lon="11.4162033"><ele>260.6666666666667</ele><time>2026-04-18T10:41:38.928Z</time></trkpt><trkpt lat="43.7974467" lon="11.4162733"><ele>260.33333333333337</ele><time>2026-04-18T10:41:40.928Z</time></trkpt><trkpt lat="43.797525" lon="11.416345"><ele>260.0</ele><time>2026-04-18T10:41:42.928Z</time></trkpt><trkpt lat="43.7976" lon="11.4164067"><ele>258.6666666666667</ele><time>2026-04-18T10:41:44.928Z</time></trkpt><trkpt lat="43.7976767" lon="11.4164783"><ele>257.33333333333337</ele><time>2026-04-18T10:41:46.928Z</time></trkpt><trkpt lat="43.7977467" lon="11.416535"><ele>256.0</ele><time>2026-04-18T10:41:48.929Z</time></trkpt><trkpt lat="43.797825" lon="11.4165967"><ele>254.66666666666669</ele><time>2026-04-18T10:41:50.928Z</time></trkpt><trkpt lat="43.7978817" lon="11.41666"><ele>253.33333333333334</ele><time>2026-04-18T10:41:52.929Z</time></trkpt><trkpt lat="43.7979567" lon="11.41673"><ele>252.0</ele><time>2026-04-18T10:41:55.928Z</time></trkpt><trkpt lat="43.79803" lon="11.416815"><ele>252.0</ele><time>2026-04-18T10:41:58.929Z</time></trkpt><trkpt lat="43.7980933" lon="11.41688"><ele>252.0</ele><time>2026-04-18T10:42:01.928Z</time></trkpt><trkpt lat="43.7981367" lon="11.4169533"><ele>252.0</ele><time>2026-04-18T10:42:04.928Z</time></trkpt><trkpt lat="43.798165" lon="11.417105"><ele>252.0</ele><time>2026-04-18T10:42:07.929Z</time></trkpt><trkpt lat="43.798175" lon="11.4171983"><ele>252.0</ele><time>2026-04-18T10:42:08.929Z</time></trkpt><trkpt lat="43.798185" lon="11.417335"><ele>252.0</ele><time>2026-04-18T10:42:09.928Z</time></trkpt><trkpt lat="43.798205" lon="11.417495"><ele>252.39999999999998</ele><time>2026-04-18T10:42:10.928Z</time></trkpt><trkpt lat="43.7982433" lon="11.4176433"><ele>252.79999999999998</ele><time>2026-04-18T10:42:11.928Z</time></trkpt><trkpt lat="43.7982933" lon="11.4177683"><ele>253.2</ele><time>2026-04-18T10:42:12.929Z</time></trkpt><trkpt lat="43.7983567" lon="11.417875"><ele>253.6</ele><time>2026-04-18T10:42:13.928Z</time></trkpt><trkpt lat="43.7984333" lon="11.417975"><ele>254.0</ele><time>2026-04-18T10:42:14.929Z</time></trkpt><trkpt lat="43.798515" lon="11.4180717"><ele>254.6</ele><time>2026-04-18T10:42:15.928Z</time></trkpt><trkpt lat="43.7985967" lon="11.41817"><ele>255.2</ele><time>2026-04-18T10:42:16.929Z</time></trkpt><trkpt lat="43.79868" lon="11.4182667"><ele>255.79999999999998</ele><time>2026-04-18T10:42:17.928Z</time></trkpt><trkpt lat="43.79876" lon="11.41836"><ele>256.4</ele><time>2026-04-18T10:42:18.929Z</time></trkpt><trkpt lat="43.798845" lon="11.4184633"><ele>257.0</ele><time>2026-04-18T10:42:19.928Z</time></trkpt><trkpt lat="43.7989217" lon="11.4185783"><ele>257.0</ele><time>2026-04-18T10:42:20.928Z</time></trkpt><trkpt lat="43.798995" lon="11.418695"><ele>257.0</ele><time>2026-04-18T10:42:21.928Z</time></trkpt><trkpt lat="43.7990467" lon="11.4188167"><ele>257.0</ele><time>2026-04-18T10:42:22.928Z</time></trkpt><trkpt lat="43.79909" lon="11.4189467"><ele>257.0</ele><time>2026-04-18T10:42:23.928Z</time></trkpt><trkpt lat="43.799115" lon="11.4190633"><ele>257.0</ele><time>2026-04-18T10:42:24.929Z</time></trkpt><trkpt lat="43.799145" lon="11.4191633"><ele>257.83333333333337</ele><time>2026-04-18T10:42:25.928Z</time></trkpt><trkpt lat="43.7991733" lon="11.41925"><ele>258.6666666666667</ele><time>2026-04-18T10:42:26.928Z</time></trkpt><trkpt lat="43.7992" lon="11.419335"><ele>259.5</ele><time>2026-04-18T10:42:27.928Z</time></trkpt><trkpt lat="43.79923" lon="11.4194267"><ele>260.3333333333333</ele><time>2026-04-18T10:42:28.928Z</time></trkpt><trkpt lat="43.7992583" lon="11.4195333"><ele>261.16666666666663</ele><time>2026-04-18T10:42:29.928Z</time></trkpt><trkpt lat="43.7992817" lon="11.4196483"><ele>262.0</ele><time>2026-04-18T10:42:30.928Z</time></trkpt><trkpt lat="43.7993133" lon="11.4197633"><ele>261.2</ele><time>2026-04-18T10:42:31.928Z</time></trkpt><trkpt lat="43.7993483" lon="11.4198817"><ele>260.4</ele><time>2026-04-18T10:42:32.928Z</time></trkpt><trkpt lat="43.7993867" lon="11.4199983"><ele>259.6</ele><time>2026-04-18T10:42:33.929Z</time></trkpt><trkpt lat="43.799435" lon="11.420125"><ele>258.8</ele><time>2026-04-18T10:42:34.928Z</time></trkpt><trkpt lat="43.7994933" lon="11.4202433"><ele>258.0</ele><time>2026-04-18T10:42:35.929Z</time></trkpt><trkpt lat="43.7995533" lon="11.42036"><ele>258.0</ele><time>2026-04-18T10:42:36.929Z</time></trkpt><trkpt lat="43.79962" lon="11.4204783"><ele>258.0</ele><time>2026-04-18T10:42:37.928Z</time></trkpt><trkpt lat="43.799675" lon="11.4205933"><ele>258.0</ele><time>2026-04-18T10:42:38.928Z</time></trkpt><trkpt lat="43.799725" lon="11.4207117"><ele>258.0</ele><time>2026-04-18T10:42:39.928Z</time></trkpt><trkpt lat="43.7997967" lon="11.42082"><ele>258.0</ele><time>2026-04-18T10:42:40.928Z</time></trkpt><trkpt lat="43.7998767" lon="11.4208983"><ele>262.25</ele><time>2026-04-18T10:42:41.928Z</time></trkpt><trkpt lat="43.7999767" lon="11.4209383"><ele>266.5</ele><time>2026-04-18T10:42:42.928Z</time></trkpt><trkpt lat="43.8000883" lon="11.4209567"><ele>270.75</ele><time>2026-04-18T10:42:43.929Z</time></trkpt><trkpt lat="43.80021" lon="11.4209683"><ele>275.0</ele><time>2026-04-18T10:42:44.928Z</time></trkpt><trkpt lat="43.8003383" lon="11.42097"><ele>276.5</ele><time>2026-04-18T10:42:45.929Z</time></trkpt><trkpt lat="43.8004617" lon="11.4209533"><ele>278.0</ele><time>2026-04-18T10:42:46.929Z</time></trkpt><trkpt lat="43.8005983" lon="11.42095"><ele>279.5</ele><time>2026-04-18T10:42:47.928Z</time></trkpt><trkpt lat="43.800725" lon="11.4209517"><ele>281.0</ele><time>2026-04-18T10:42:48.928Z</time></trkpt><trkpt lat="43.80083" lon="11.420945"><ele>281.0</ele><time>2026-04-18T10:42:49.929Z</time></trkpt><trkpt lat="43.8009183" lon="11.42093"><ele>281.0</ele><time>2026-04-18T10:42:50.929Z</time></trkpt><trkpt lat="43.8010183" lon="11.4208633"><ele>281.0</ele><time>2026-04-18T10:42:51.928Z</time></trkpt><trkpt lat="43.801125" lon="11.4207817"><ele>281.0</ele><time>2026-04-18T10:42:52.928Z</time></trkpt><trkpt lat="43.80123" lon="11.4207117"><ele>281.0</ele><time>2026-04-18T10:42:53.928Z</time></trkpt><trkpt lat="43.80133" lon="11.4206583"><ele>283.40000000000003</ele><time>2026-04-18T10:42:54.928Z</time></trkpt><trkpt lat="43.8014333" lon="11.420615"><ele>285.8</ele><time>2026-04-18T10:42:55.928Z</time></trkpt><trkpt lat="43.801535" lon="11.4205817"><ele>288.20000000000005</ele><time>2026-04-18T10:42:56.928Z</time></trkpt><trkpt lat="43.80162" lon="11.4205383"><ele>290.6</ele><time>2026-04-18T10:42:57.928Z</time></trkpt><trkpt lat="43.8017067" lon="11.420485"><ele>293.0</ele><time>2026-04-18T10:42:58.928Z</time></trkpt><trkpt lat="43.8017833" lon="11.4204333"><ele>289.0</ele><time>2026-04-18T10:42:59.928Z</time></trkpt><trkpt lat="43.8018517" lon="11.420355"><ele>285.0</ele><time>2026-04-18T10:43:00.928Z</time></trkpt><trkpt lat="43.8019167" lon="11.4202617"><ele>281.0</ele><time>2026-04-18T10:43:01.929Z</time></trkpt><trkpt lat="43.8019917" lon="11.4201767"><ele>277.0</ele><time>2026-04-18T10:43:02.928Z</time></trkpt><trkpt lat="43.8020683" lon="11.4201033"><ele>273.0</ele><time>2026-04-18T10:43:03.928Z</time></trkpt><trkpt lat="43.8021483" lon="11.4200633"><ele>273.0</ele><time>2026-04-18T10:43:04.928Z</time></trkpt><trkpt lat="43.80223" lon="11.42003"><ele>273.0</ele><time>2026-04-18T10:43:05.928Z</time></trkpt><trkpt lat="43.80232" lon="11.42002"><ele>273.0</ele><time>2026-04-18T10:43:06.929Z</time></trkpt><trkpt lat="43.802415" lon="11.420045"><ele>273.0</ele><time>2026-04-18T10:43:07.928Z</time></trkpt><trkpt lat="43.8025217" lon="11.4200883"><ele>273.0</ele><time>2026-04-18T10:43:08.929Z</time></trkpt><trkpt lat="43.8026183" lon="11.42017"><ele>273.5</ele><time>2026-04-18T10:43:09.928Z</time></trkpt><trkpt lat="43.8027067" lon="11.42025"><ele>274.0</ele><time>2026-04-18T10:43:10.928Z</time></trkpt><trkpt lat="43.8028017" lon="11.42035"><ele>274.5</ele><time>2026-04-18T10:43:11.928Z</time></trkpt><trkpt lat="43.8028933" lon="11.4204533"><ele>275.0</ele><time>2026-04-18T10:43:12.928Z</time></trkpt><trkpt lat="43.8029817" lon="11.4205533"><ele>275.0</ele><time>2026-04-18T10:43:13.928Z</time></trkpt><trkpt lat="43.80306" lon="11.4206583"><ele>275.0</ele><time>2026-04-18T10:43:14.928Z</time></trkpt><trkpt lat="43.8031333" lon="11.42076"><ele>275.0</ele><time>2026-04-18T10:43:15.929Z</time></trkpt><trkpt lat="43.8032" lon="11.4208533"><ele>275.0</ele><time>2026-04-18T10:43:16.928Z</time></trkpt><trkpt lat="43.8032533" lon="11.4209433"><ele>275.0</ele><time>2026-04-18T10:43:17.928Z</time></trkpt><trkpt lat="43.8033" lon="11.42103"><ele>275.0</ele><time>2026-04-18T10:43:18.928Z</time></trkpt><trkpt lat="43.8033367" lon="11.42111"><ele>275.0</ele><time>2026-04-18T10:43:19.928Z</time></trkpt><trkpt lat="43.8033533" lon="11.42121"><ele>275.0</ele><time>2026-04-18T10:43:20.928Z</time></trkpt><trkpt lat="43.80336" lon="11.4213267"><ele>275.0</ele><time>2026-04-18T10:43:21.929Z</time></trkpt><trkpt lat="43.8033483" lon="11.42143"><ele>275.0</ele><time>2026-04-18T10:43:22.928Z</time></trkpt><trkpt lat="43.8033417" lon="11.4215317"><ele>275.0</ele><time>2026-04-18T10:43:23.928Z</time></trkpt><trkpt lat="43.8033383" lon="11.421625"><ele>275.0</ele><time>2026-04-18T10:43:24.928Z</time></trkpt><trkpt lat="43.803385" lon="11.42171"><ele>274.1666666666667</ele><time>2026-04-18T10:43:26.928Z</time></trkpt><trkpt lat="43.80345" lon="11.42172"><ele>273.33333333333337</ele><time>2026-04-18T10:43:33.929Z</time></trkpt><trkpt lat="43.8035117" lon="11.42174"><ele>272.5</ele><time>2026-04-18T10:43:34.929Z</time></trkpt><trkpt lat="43.8036017" lon="11.42178"><ele>271.6666666666667</ele><time>2026-04-18T10:43:35.928Z</time></trkpt><trkpt lat="43.8036833" lon="11.421835"><ele>270.8333333333333</ele><time>2026-04-18T10:43:36.929Z</time></trkpt><trkpt lat="43.8037533" lon="11.4218733"><ele>270.0</ele><time>2026-04-18T10:43:37.928Z</time></trkpt><trkpt lat="43.8038233" lon="11.4218933"><ele>270.0</ele><time>2026-04-18T10:43:38.928Z</time></trkpt><trkpt lat="43.8039317" lon="11.4218933"><ele>270.0</ele><time>2026-04-18T10:43:40.928Z</time></trkpt><trkpt lat="43.8040417" lon="11.4218717"><ele>270.0</ele><time>2026-04-18T10:43:42.928Z</time></trkpt><trkpt lat="43.804095" lon="11.4218217"><ele>270.0</ele><time>2026-04-18T10:43:43.928Z</time></trkpt><trkpt lat="43.8041367" lon="11.4217183"><ele>270.0</ele><time>2026-04-18T10:43:44.929Z</time></trkpt><trkpt lat="43.80417" lon="11.4215833"><ele>270.0</ele><time>2026-04-18T10:43:45.928Z</time></trkpt><trkpt lat="43.8041917" lon="11.421455"><ele>270.0</ele><time>2026-04-18T10:43:46.928Z</time></trkpt><trkpt lat="43.8042067" lon="11.42133"><ele>270.0</ele><time>2026-04-18T10:43:47.928Z</time></trkpt><trkpt lat="43.8042283" lon="11.4211933"><ele>270.0</ele><time>2026-04-18T10:43:48.928Z</time></trkpt><trkpt lat="43.8042567" lon="11.4210683"><ele>270.0</ele><time>2026-04-18T10:43:49.929Z</time></trkpt><trkpt lat="43.804295" lon="11.4209417"><ele>270.0</ele><time>2026-04-18T10:43:50.929Z</time></trkpt><trkpt lat="43.8043633" lon="11.4208217"><ele>270.0</ele><time>2026-04-18T10:43:51.928Z</time></trkpt><trkpt lat="43.8044433" lon="11.4207017"><ele>270.0</ele><time>2026-04-18T10:43:52.929Z</time></trkpt><trkpt lat="43.8045317" lon="11.4205883"><ele>270.0</ele><time>2026-04-18T10:43:53.928Z</time></trkpt><trkpt lat="43.8046133" lon="11.4204783"><ele>267.8333333333333</ele><time>2026-04-18T10:43:54.929Z</time></trkpt><trkpt lat="43.8046833" lon="11.42038"><ele>265.6666666666667</ele><time>2026-04-18T10:43:55.928Z</time></trkpt><trkpt lat="43.8047483" lon="11.420295"><ele>263.5</ele><time>2026-04-18T10:43:56.928Z</time></trkpt><trkpt lat="43.804815" lon="11.4202317"><ele>261.33333333333337</ele><time>2026-04-18T10:43:57.928Z</time></trkpt><trkpt lat="43.8048867" lon="11.4201883"><ele>259.1666666666667</ele><time>2026-04-18T10:43:58.928Z</time></trkpt><trkpt lat="43.8049567" lon="11.42018"><ele>257.0</ele><time>2026-04-18T10:43:59.929Z</time></trkpt><trkpt lat="43.8050683" lon="11.4202417"><ele>257.0</ele><time>2026-04-18T10:44:01.928Z</time></trkpt><trkpt lat="43.8051267" lon="11.420325"><ele>257.0</ele><time>2026-04-18T10:44:02.928Z</time></trkpt><trkpt lat="43.805185" lon="11.42044"><ele>257.0</ele><time>2026-04-18T10:44:03.928Z</time></trkpt><trkpt lat="43.8052467" lon="11.4205567"><ele>257.0</ele><time>2026-04-18T10:44:04.928Z</time></trkpt><trkpt lat="43.8053083" lon="11.4206733"><ele>257.0</ele><time>2026-04-18T10:44:05.928Z</time></trkpt><trkpt lat="43.8053583" lon="11.4207617"><ele>256.4</ele><time>2026-04-18T10:44:06.929Z</time></trkpt><trkpt lat="43.8054017" lon="11.420865"><ele>255.79999999999998</ele><time>2026-04-18T10:44:07.928Z</time></trkpt><trkpt lat="43.8054433" lon="11.42098"><ele>255.2</ele><time>2026-04-18T10:44:08.929Z</time></trkpt><trkpt lat="43.8054733" lon="11.4210983"><ele>254.6</ele><time>2026-04-18T10:44:09.928Z</time></trkpt><trkpt lat="43.8054933" lon="11.4212417"><ele>254.0</ele><time>2026-04-18T10:44:10.929Z</time></trkpt><trkpt lat="43.8055" lon="11.4214083"><ele>254.0</ele><time>2026-04-18T10:44:11.928Z</time></trkpt><trkpt lat="43.8054933" lon="11.42158"><ele>254.0</ele><time>2026-04-18T10:44:12.928Z</time></trkpt><trkpt lat="43.8054833" lon="11.42176"><ele>254.0</ele><time>2026-04-18T10:44:13.928Z</time></trkpt><trkpt lat="43.80549" lon="11.4219333"><ele>254.0</ele><time>2026-04-18T10:44:14.929Z</time></trkpt><trkpt lat="43.80549" lon="11.422105"><ele>254.25</ele><time>2026-04-18T10:44:15.928Z</time></trkpt><trkpt lat="43.8054867" lon="11.42227"><ele>254.5</ele><time>2026-04-18T10:44:16.928Z</time></trkpt><trkpt lat="43.8054783" lon="11.4224467"><ele>254.75</ele><time>2026-04-18T10:44:17.928Z</time></trkpt><trkpt lat="43.80547" lon="11.422615"><ele>255.0</ele><time>2026-04-18T10:44:18.928Z</time></trkpt><trkpt lat="43.805455" lon="11.422785"><ele>254.75</ele><time>2026-04-18T10:44:19.928Z</time></trkpt><trkpt lat="43.805455" lon="11.422985"><ele>254.5</ele><time>2026-04-18T10:44:20.929Z</time></trkpt><trkpt lat="43.8054633" lon="11.423175"><ele>254.25</ele><time>2026-04-18T10:44:21.928Z</time></trkpt><trkpt lat="43.80546" lon="11.4233683"><ele>254.0</ele><time>2026-04-18T10:44:22.929Z</time></trkpt><trkpt lat="43.8054517" lon="11.423535"><ele>254.0</ele><time>2026-04-18T10:44:23.928Z</time></trkpt><trkpt lat="43.8054517" lon="11.4236833"><ele>253.99999999999997</ele><time>2026-04-18T10:44:24.928Z</time></trkpt><trkpt lat="43.80545" lon="11.423825"><ele>253.99999999999997</ele><time>2026-04-18T10:44:25.929Z</time></trkpt><trkpt lat="43.8054367" lon="11.4239833"><ele>254.0</ele><time>2026-04-18T10:44:26.929Z</time></trkpt><trkpt lat="43.80541" lon="11.4241367"><ele>254.0</ele><time>2026-04-18T10:44:27.929Z</time></trkpt><trkpt lat="43.8053717" lon="11.4242783"><ele>253.75</ele><time>2026-04-18T10:44:28.928Z</time></trkpt><trkpt lat="43.805345" lon="11.42443"><ele>253.5</ele><time>2026-04-18T10:44:29.928Z</time></trkpt><trkpt lat="43.8053283" lon="11.4245833"><ele>253.25</ele><time>2026-04-18T10:44:30.928Z</time></trkpt><trkpt lat="43.8053333" lon="11.424755"><ele>253.0</ele><time>2026-04-18T10:44:31.928Z</time></trkpt><trkpt lat="43.8053383" lon="11.4249283"><ele>253.5</ele><time>2026-04-18T10:44:32.929Z</time></trkpt><trkpt lat="43.8053717" lon="11.4251067"><ele>254.0</ele><time>2026-04-18T10:44:33.928Z</time></trkpt><trkpt lat="43.8053967" lon="11.4252833"><ele>254.5</ele><time>2026-04-18T10:44:34.928Z</time></trkpt><trkpt lat="43.8054233" lon="11.4254517"><ele>255.0</ele><time>2026-04-18T10:44:35.928Z</time></trkpt><trkpt lat="43.805445" lon="11.4256083"><ele>257.0</ele><time>2026-04-18T10:44:36.928Z</time></trkpt><trkpt lat="43.8054633" lon="11.425785"><ele>259.0</ele><time>2026-04-18T10:44:37.928Z</time></trkpt><trkpt lat="43.8054683" lon="11.4259733"><ele>261.0</ele><time>2026-04-18T10:44:38.928Z</time></trkpt><trkpt lat="43.80547" lon="11.42617"><ele>263.0</ele><time>2026-04-18T10:44:39.928Z</time></trkpt><trkpt lat="43.8054833" lon="11.4263633"><ele>264.5</ele><time>2026-04-18T10:44:40.928Z</time></trkpt><trkpt lat="43.805485" lon="11.4265467"><ele>266.0</ele><time>2026-04-18T10:44:41.929Z</time></trkpt><trkpt lat="43.8054833" lon="11.4267117"><ele>267.5</ele><time>2026-04-18T10:44:42.928Z</time></trkpt><trkpt lat="43.805495" lon="11.4268683"><ele>269.0</ele><time>2026-04-18T10:44:43.928Z</time></trkpt><trkpt lat="43.8055183" lon="11.4270283"><ele>272.25</ele><time>2026-04-18T10:44:44.928Z</time></trkpt><trkpt lat="43.80558" lon="11.4271567"><ele>275.5</ele><time>2026-04-18T10:44:45.928Z</time></trkpt><trkpt lat="43.8056617" lon="11.4272717"><ele>278.75</ele><time>2026-04-18T10:44:46.928Z</time></trkpt><trkpt lat="43.8057567" lon="11.4274017"><ele>282.0</ele><time>2026-04-18T10:44:47.928Z</time></trkpt><trkpt lat="43.8058583" lon="11.42754"><ele>282.0</ele><time>2026-04-18T10:44:48.928Z</time></trkpt><trkpt lat="43.8059583" lon="11.4276817"><ele>282.0</ele><time>2026-04-18T10:44:49.928Z</time></trkpt><trkpt lat="43.8060433" lon="11.42782"><ele>282.0</ele><time>2026-04-18T10:44:50.928Z</time></trkpt><trkpt lat="43.806125" lon="11.4279517"><ele>282.0</ele><time>2026-04-18T10:44:51.928Z</time></trkpt><trkpt lat="43.8062" lon="11.428065"><ele>279.0</ele><time>2026-04-18T10:44:52.928Z</time></trkpt><trkpt lat="43.8062717" lon="11.428185"><ele>276.0</ele><time>2026-04-18T10:44:53.928Z</time></trkpt><trkpt lat="43.8063317" lon="11.428295"><ele>273.0</ele><time>2026-04-18T10:44:54.928Z</time></trkpt><trkpt lat="43.8063783" lon="11.4283967"><ele>270.0</ele><time>2026-04-18T10:44:55.929Z</time></trkpt><trkpt lat="43.8064133" lon="11.428525"><ele>267.0</ele><time>2026-04-18T10:44:56.928Z</time></trkpt><trkpt lat="43.8064333" lon="11.4286767"><ele>267.75</ele><time>2026-04-18T10:44:57.929Z</time></trkpt><trkpt lat="43.8064433" lon="11.4288217"><ele>268.5</ele><time>2026-04-18T10:44:58.928Z</time></trkpt><trkpt lat="43.8064367" lon="11.4289917"><ele>269.25</ele><time>2026-04-18T10:44:59.928Z</time></trkpt><trkpt lat="43.8064183" lon="11.42915"><ele>270.0</ele><time>2026-04-18T10:45:00.928Z</time></trkpt><trkpt lat="43.8064" lon="11.429315"><ele>270.0</ele><time>2026-04-18T10:45:01.929Z</time></trkpt><trkpt lat="43.8063867" lon="11.4294867"><ele>270.0</ele><time>2026-04-18T10:45:02.929Z</time></trkpt><trkpt lat="43.8063883" lon="11.429675"><ele>270.0</ele><time>2026-04-18T10:45:03.928Z</time></trkpt><trkpt lat="43.8063933" lon="11.4298833"><ele>270.0</ele><time>2026-04-18T10:45:04.928Z</time></trkpt><trkpt lat="43.8064167" lon="11.4300917"><ele>271.0</ele><time>2026-04-18T10:45:05.928Z</time></trkpt><trkpt lat="43.80641" lon="11.4302917"><ele>272.0</ele><time>2026-04-18T10:45:06.928Z</time></trkpt><trkpt lat="43.806425" lon="11.4305017"><ele>273.0</ele><time>2026-04-18T10:45:07.928Z</time></trkpt><trkpt lat="43.8064333" lon="11.4307233"><ele>274.3333333333333</ele><time>2026-04-18T10:45:08.928Z</time></trkpt><trkpt lat="43.806435" lon="11.4309533"><ele>275.66666666666663</ele><time>2026-04-18T10:45:09.928Z</time></trkpt><trkpt lat="43.8064317" lon="11.4311983"><ele>277.0</ele><time>2026-04-18T10:45:10.929Z</time></trkpt><trkpt lat="43.80643" lon="11.4314467"><ele>278.0</ele><time>2026-04-18T10:45:11.928Z</time></trkpt><trkpt lat="43.8064283" lon="11.4316783"><ele>279.0</ele><time>2026-04-18T10:45:12.929Z</time></trkpt><trkpt lat="43.8064183" lon="11.4319033"><ele>280.0</ele><time>2026-04-18T10:45:13.928Z</time></trkpt><trkpt lat="43.8064117" lon="11.4321133"><ele>281.0</ele><time>2026-04-18T10:45:14.929Z</time></trkpt><trkpt lat="43.806415" lon="11.4323317"><ele>282.0</ele><time>2026-04-18T10:45:15.928Z</time></trkpt><trkpt lat="43.80642" lon="11.4325483"><ele>283.0</ele><time>2026-04-18T10:45:16.928Z</time></trkpt><trkpt lat="43.8064167" lon="11.4327417"><ele>283.0</ele><time>2026-04-18T10:45:17.928Z</time></trkpt><trkpt lat="43.8064233" lon="11.43292"><ele>283.0</ele><time>2026-04-18T10:45:18.928Z</time></trkpt><trkpt lat="43.8064367" lon="11.4330617"><ele>283.0</ele><time>2026-04-18T10:45:19.928Z</time></trkpt><trkpt lat="43.8064833" lon="11.4331783"><ele>283.0</ele><time>2026-04-18T10:45:20.928Z</time></trkpt><trkpt lat="43.8065567" lon="11.4332867"><ele>283.0</ele><time>2026-04-18T10:45:21.928Z</time></trkpt><trkpt lat="43.806655" lon="11.433395"><ele>283.5</ele><time>2026-04-18T10:45:22.928Z</time></trkpt><trkpt lat="43.8067617" lon="11.433505"><ele>284.0</ele><time>2026-04-18T10:45:23.929Z</time></trkpt><trkpt lat="43.8068733" lon="11.4336"><ele>284.5</ele><time>2026-04-18T10:45:24.928Z</time></trkpt><trkpt lat="43.806995" lon="11.4337083"><ele>285.0</ele><time>2026-04-18T10:45:25.929Z</time></trkpt><trkpt lat="43.8071183" lon="11.4338017"><ele>287.0</ele><time>2026-04-18T10:45:26.928Z</time></trkpt><trkpt lat="43.8072333" lon="11.433895"><ele>289.0</ele><time>2026-04-18T10:45:27.928Z</time></trkpt><trkpt lat="43.80735" lon="11.4339817"><ele>291.0</ele><time>2026-04-18T10:45:28.928Z</time></trkpt><trkpt lat="43.80746" lon="11.43407"><ele>293.0</ele><time>2026-04-18T10:45:29.928Z</time></trkpt><trkpt lat="43.8075583" lon="11.4341433"><ele>293.0</ele><time>2026-04-18T10:45:30.928Z</time></trkpt><trkpt lat="43.807655" lon="11.4342"><ele>293.0</ele><time>2026-04-18T10:45:31.928Z</time></trkpt><trkpt lat="43.8077433" lon="11.4342283"><ele>293.0</ele><time>2026-04-18T10:45:32.928Z</time></trkpt><trkpt lat="43.8078433" lon="11.4342417"><ele>293.0</ele><time>2026-04-18T10:45:33.928Z</time></trkpt><trkpt lat="43.807945" lon="11.4342533"><ele>293.0</ele><time>2026-04-18T10:45:34.928Z</time></trkpt><trkpt lat="43.8080583" lon="11.4342667"><ele>293.8</ele><time>2026-04-18T10:45:35.928Z</time></trkpt><trkpt lat="43.8081683" lon="11.4342767"><ele>294.6</ele><time>2026-04-18T10:45:36.928Z</time></trkpt><trkpt lat="43.808265" lon="11.4342883"><ele>295.4</ele><time>2026-04-18T10:45:37.928Z</time></trkpt><trkpt lat="43.8083417" lon="11.43432"><ele>296.2</ele><time>2026-04-18T10:45:38.928Z</time></trkpt><trkpt lat="43.80841" lon="11.4343833"><ele>297.0</ele><time>2026-04-18T10:45:39.929Z</time></trkpt><trkpt lat="43.8084733" lon="11.4344783"><ele>296.75</ele><time>2026-04-18T10:45:40.928Z</time></trkpt><trkpt lat="43.8085333" lon="11.434605"><ele>296.5</ele><time>2026-04-18T10:45:41.928Z</time></trkpt><trkpt lat="43.8086067" lon="11.4347567"><ele>296.25</ele><time>2026-04-18T10:45:42.929Z</time></trkpt><trkpt lat="43.80869" lon="11.4349233"><ele>296.0</ele><time>2026-04-18T10:45:43.929Z</time></trkpt><trkpt lat="43.8087783" lon="11.4350983"><ele>296.8</ele><time>2026-04-18T10:45:44.928Z</time></trkpt><trkpt lat="43.8088617" lon="11.435245"><ele>297.6</ele><time>2026-04-18T10:45:45.928Z</time></trkpt><trkpt lat="43.8089367" lon="11.43537"><ele>298.4</ele><time>2026-04-18T10:45:46.928Z</time></trkpt><trkpt lat="43.809" lon="11.4354783"><ele>299.2</ele><time>2026-04-18T10:45:47.928Z</time></trkpt><trkpt lat="43.80906" lon="11.4355667"><ele>300.0</ele><time>2026-04-18T10:45:48.929Z</time></trkpt><trkpt lat="43.8091117" lon="11.4356433"><ele>301.0</ele><time>2026-04-18T10:45:49.929Z</time></trkpt><trkpt lat="43.80916" lon="11.4357617"><ele>302.0</ele><time>2026-04-18T10:45:51.928Z</time></trkpt><trkpt lat="43.8091333" lon="11.4358733"><ele>303.0</ele><time>2026-04-18T10:45:53.928Z</time></trkpt><trkpt lat="43.8090967" lon="11.435955"><ele>304.0</ele><time>2026-04-18T10:45:54.929Z</time></trkpt><trkpt lat="43.8090467" lon="11.4360667"><ele>305.0</ele><time>2026-04-18T10:45:55.928Z</time></trkpt><trkpt lat="43.808985" lon="11.43619"><ele>306.25</ele><time>2026-04-18T10:45:56.929Z</time></trkpt><trkpt lat="43.80892" lon="11.4363317"><ele>307.5</ele><time>2026-04-18T10:45:57.929Z</time></trkpt><trkpt lat="43.80885" lon="11.4364883"><ele>308.75</ele><time>2026-04-18T10:45:58.929Z</time></trkpt><trkpt lat="43.8087817" lon="11.436635"><ele>310.0</ele><time>2026-04-18T10:45:59.929Z</time></trkpt><trkpt lat="43.8087167" lon="11.43677"><ele>310.0</ele><time>2026-04-18T10:46:00.928Z</time></trkpt><trkpt lat="43.8086567" lon="11.436905"><ele>310.0</ele><time>2026-04-18T10:46:01.929Z</time></trkpt><trkpt lat="43.808595" lon="11.43704"><ele>310.0</ele><time>2026-04-18T10:46:02.928Z</time></trkpt><trkpt lat="43.8085367" lon="11.4371717"><ele>310.0</ele><time>2026-04-18T10:46:03.928Z</time></trkpt><trkpt lat="43.8084933" lon="11.4372933"><ele>310.0</ele><time>2026-04-18T10:46:04.928Z</time></trkpt><trkpt lat="43.8084567" lon="11.4374033"><ele>312.8</ele><time>2026-04-18T10:46:05.929Z</time></trkpt><trkpt lat="43.8084283" lon="11.4375267"><ele>315.6</ele><time>2026-04-18T10:46:06.929Z</time></trkpt><trkpt lat="43.8084033" lon="11.4376583"><ele>318.4</ele><time>2026-04-18T10:46:07.928Z</time></trkpt><trkpt lat="43.808375" lon="11.43779"><ele>321.2</ele><time>2026-04-18T10:46:08.929Z</time></trkpt><trkpt lat="43.80835" lon="11.437925"><ele>324.0</ele><time>2026-04-18T10:46:09.929Z</time></trkpt><trkpt lat="43.8083183" lon="11.43807"><ele>325.79999999999995</ele><time>2026-04-18T10:46:10.928Z</time></trkpt><trkpt lat="43.8082917" lon="11.4382367"><ele>327.59999999999997</ele><time>2026-04-18T10:46:11.928Z</time></trkpt><trkpt lat="43.8082633" lon="11.438395"><ele>329.4</ele><time>2026-04-18T10:46:12.928Z</time></trkpt><trkpt lat="43.8082383" lon="11.438535"><ele>331.2</ele><time>2026-04-18T10:46:13.929Z</time></trkpt><trkpt lat="43.808215" lon="11.438645"><ele>333.0</ele><time>2026-04-18T10:46:14.929Z</time></trkpt><trkpt lat="43.8081883" lon="11.4387517"><ele>335.0</ele><time>2026-04-18T10:46:15.928Z</time></trkpt><trkpt lat="43.80815" lon="11.4388733"><ele>337.0</ele><time>2026-04-18T10:46:17.928Z</time></trkpt><trkpt lat="43.8081333" lon="11.4390017"><ele>339.0</ele><time>2026-04-18T10:46:20.929Z</time></trkpt><trkpt lat="43.80809" lon="11.4391333"><ele>341.0</ele><time>2026-04-18T10:46:22.928Z</time></trkpt><trkpt lat="43.8080333" lon="11.4392717"><ele>343.0</ele><time>2026-04-18T10:46:24.929Z</time></trkpt><trkpt lat="43.807985" lon="11.4394267"><ele>343.0</ele><time>2026-04-18T10:46:26.929Z</time></trkpt><trkpt lat="43.8079533" lon="11.4395117"><ele>343.0</ele><time>2026-04-18T10:46:27.928Z</time></trkpt><trkpt lat="43.8078983" lon="11.4396667"><ele>343.0</ele><time>2026-04-18T10:46:29.928Z</time></trkpt><trkpt lat="43.8078715" lon="11.4397526"><ele>343.0</ele><time>2026-04-18T10:46:30.929Z</time></trkpt><trkpt lat="43.8078191" lon="11.4399062"><ele>343.0</ele><time>2026-04-18T10:46:32.928Z</time></trkpt><trkpt lat="43.8077823" lon="11.4400552"><ele>345.0</ele><time>2026-04-18T10:46:34.928Z</time></trkpt><trkpt lat="43.8077569" lon="11.4401532"><ele>347.0</ele><time>2026-04-18T10:46:36.928Z</time></trkpt><trkpt lat="43.8077135" lon="11.4402667"><ele>349.0</ele><time>2026-04-18T10:46:38.928Z</time></trkpt><trkpt lat="43.8076689" lon="11.440389"><ele>351.0</ele><time>2026-04-18T10:46:40.928Z</time></trkpt><trkpt lat="43.8076198" lon="11.4405308"><ele>353.0</ele><time>2026-04-18T10:46:42.929Z</time></trkpt><trkpt lat="43.8075785" lon="11.4406863"><ele>355.4</ele><time>2026-04-18T10:46:44.928Z</time></trkpt><trkpt lat="43.8075552" lon="11.4407775"><ele>357.79999999999995</ele><time>2026-04-18T10:46:45.929Z</time></trkpt><trkpt lat="43.8075319" lon="11.4408615"><ele>360.2</ele><time>2026-04-18T10:46:46.928Z</time></trkpt><trkpt lat="43.8074839" lon="11.4410068"><ele>362.6</ele><time>2026-04-18T10:46:48.929Z</time></trkpt><trkpt lat="43.8074437" lon="11.4411629"><ele>365.0</ele><time>2026-04-18T10:46:50.929Z</time></trkpt><trkpt lat="43.8073999" lon="11.44131"><ele>366.6666666666667</ele><time>2026-04-18T10:46:52.928Z</time></trkpt><trkpt lat="43.8073494" lon="11.4414538"><ele>368.33333333333337</ele><time>2026-04-18T10:46:54.928Z</time></trkpt><trkpt lat="43.8073232" lon="11.4415392"><ele>370.0</ele><time>2026-04-18T10:46:55.928Z</time></trkpt><trkpt lat="43.8072999" lon="11.4416292"><ele>371.6666666666667</ele><time>2026-04-18T10:46:56.928Z</time></trkpt><trkpt lat="43.8072745" lon="11.4417124"><ele>373.3333333333333</ele><time>2026-04-18T10:46:57.928Z</time></trkpt><trkpt lat="43.8072255" lon="11.4418551"><ele>375.0</ele><time>2026-04-18T10:46:59.928Z</time></trkpt><trkpt lat="43.807175" lon="11.4419983"><ele>375.0</ele><time>2026-04-18T10:47:01.928Z</time></trkpt><trkpt lat="43.807145" lon="11.442095"><ele>375.0</ele><time>2026-04-18T10:47:03.929Z</time></trkpt><trkpt lat="43.8072183" lon="11.44216"><ele>375.0</ele><time>2026-04-18T10:47:07.928Z</time></trkpt><trkpt lat="43.8073" lon="11.4421917"><ele>375.0</ele><time>2026-04-18T10:47:09.929Z</time></trkpt><trkpt lat="43.8073641" lon="11.4422219"><ele>375.0</ele><time>2026-04-18T10:47:11.929Z</time></trkpt><trkpt lat="43.8074334" lon="11.4422466"><ele>375.0</ele><time>2026-04-18T10:47:12.929Z</time></trkpt><trkpt lat="43.8075361" lon="11.4422887"><ele>375.8333333333333</ele><time>2026-04-18T10:47:14.929Z</time></trkpt><trkpt lat="43.8076047" lon="11.4423168"><ele>376.6666666666667</ele><time>2026-04-18T10:47:16.928Z</time></trkpt><trkpt lat="43.8076504" lon="11.4423928"><ele>377.5</ele><time>2026-04-18T10:47:20.928Z</time></trkpt><trkpt lat="43.8076374" lon="11.4424826"><ele>378.33333333333337</ele><time>2026-04-18T10:47:23.929Z</time></trkpt><trkpt lat="43.8076115" lon="11.442592"><ele>379.1666666666667</ele><time>2026-04-18T10:47:25.928Z</time></trkpt><trkpt lat="43.807582" lon="11.442708"><ele>380.0</ele><time>2026-04-18T10:47:27.929Z</time></trkpt><trkpt lat="43.8075626" lon="11.442807"><ele>380.0</ele><time>2026-04-18T10:47:29.928Z</time></trkpt><trkpt lat="43.8075402" lon="11.4428979"><ele>380.0</ele><time>2026-04-18T10:47:31.929Z</time></trkpt><trkpt lat="43.8075183" lon="11.4429833"><ele>380.0</ele><time>2026-04-18T10:47:46.929Z</time></trkpt><trkpt lat="43.807495" lon="11.4431017"><ele>380.0</ele><time>2026-04-18T10:47:49.928Z</time></trkpt><trkpt lat="43.8074733" lon="11.443215"><ele>380.0</ele><time>2026-04-18T10:47:51.928Z</time></trkpt><trkpt lat="43.8074417" lon="11.443335"><ele>380.0</ele><time>2026-04-18T10:47:53.928Z</time></trkpt><trkpt lat="43.807415" lon="11.443455"><ele>382.5</ele><time>2026-04-18T10:47:55.929Z</time></trkpt><trkpt lat="43.8073865" lon="11.4435447"><ele>385.0</ele><time>2026-04-18T10:48:00.033Z</time></trkpt><trkpt lat="43.807364" lon="11.4436843"><ele>387.5</ele><time>2026-04-18T10:48:00.934Z</time></trkpt><trkpt lat="43.807305" lon="11.4439267"><ele>390.0</ele><time>2026-04-18T10:48:03.929Z</time></trkpt><trkpt lat="43.8072767" lon="11.4440567"><ele>391.8333333333333</ele><time>2026-04-18T10:48:05.928Z</time></trkpt><trkpt lat="43.8072367" lon="11.4441883"><ele>393.66666666666663</ele><time>2026-04-18T10:48:07.929Z</time></trkpt><trkpt lat="43.8072033" lon="11.444295"><ele>395.5</ele><time>2026-04-18T10:48:09.929Z</time></trkpt><trkpt lat="43.807185" lon="11.4443867"><ele>397.3333333333333</ele><time>2026-04-18T10:48:12.928Z</time></trkpt><trkpt lat="43.807165" lon="11.4445067"><ele>399.16666666666663</ele><time>2026-04-18T10:48:57.928Z</time></trkpt><trkpt lat="43.8071467" lon="11.4446017"><ele>401.0</ele><time>2026-04-18T10:49:03.928Z</time></trkpt><trkpt lat="43.8071067" lon="11.444765"><ele>402.4</ele><time>2026-04-18T10:50:10.928Z</time></trkpt><trkpt lat="43.8070867" lon="11.444865"><ele>403.8</ele><time>2026-04-18T10:50:36.928Z</time></trkpt><trkpt lat="43.8070483" lon="11.4449733"><ele>405.2</ele><time>2026-04-18T10:50:55.929Z</time></trkpt><trkpt lat="43.8069833" lon="11.4451467"><ele>406.59999999999997</ele><time>2026-04-18T10:52:08.928Z</time></trkpt><trkpt lat="43.806965" lon="11.4452767"><ele>408.0</ele><time>2026-04-18T10:52:10.928Z</time></trkpt><trkpt lat="43.8069667" lon="11.4454133"><ele>410.1666666666667</ele><time>2026-04-18T10:52:12.929Z</time></trkpt><trkpt lat="43.8070233" lon="11.4455"><ele>412.33333333333337</ele><time>2026-04-18T10:55:00.928Z</time></trkpt><trkpt lat="43.8070833" lon="11.44556"><ele>414.5</ele><time>2026-04-18T10:55:02.928Z</time></trkpt><trkpt lat="43.8071733" lon="11.4456333"><ele>416.6666666666667</ele><time>2026-04-18T10:55:04.928Z</time></trkpt><trkpt lat="43.8072467" lon="11.44569"><ele>418.83333333333337</ele><time>2026-04-18T10:55:06.928Z</time></trkpt><trkpt lat="43.8073333" lon="11.4457583"><ele>421.0</ele><time>2026-04-18T10:55:12.929Z</time></trkpt><trkpt lat="43.8074067" lon="11.4458033"><ele>421.00000000000006</ele><time>2026-04-18T10:55:13.928Z</time></trkpt><trkpt lat="43.8074933" lon="11.4458383"><ele>421.0</ele><time>2026-04-18T10:55:14.928Z</time></trkpt><trkpt lat="43.8075867" lon="11.44585"><ele>421.0</ele><time>2026-04-18T10:55:15.928Z</time></trkpt><trkpt lat="43.8076717" lon="11.44587"><ele>421.0</ele><time>2026-04-18T10:55:16.928Z</time></trkpt><trkpt lat="43.8077583" lon="11.4458783"><ele>421.00000000000006</ele><time>2026-04-18T10:55:17.928Z</time></trkpt><trkpt lat="43.8078433" lon="11.4458833"><ele>421.0</ele><time>2026-04-18T10:55:18.928Z</time></trkpt><trkpt lat="43.8079383" lon="11.4458883"><ele>420.0</ele><time>2026-04-18T10:55:19.928Z</time></trkpt><trkpt lat="43.8080433" lon="11.4458783"><ele>419.0</ele><time>2026-04-18T10:55:20.928Z</time></trkpt><trkpt lat="43.808145" lon="11.4458567"><ele>418.0</ele><time>2026-04-18T10:55:21.928Z</time></trkpt><trkpt lat="43.80824" lon="11.4458283"><ele>417.0</ele><time>2026-04-18T10:55:22.929Z</time></trkpt><trkpt lat="43.8083317" lon="11.4457983"><ele>416.0</ele><time>2026-04-18T10:55:23.928Z</time></trkpt><trkpt lat="43.8084117" lon="11.4457833"><ele>414.49999999999994</ele><time>2026-04-18T10:55:24.928Z</time></trkpt><trkpt lat="43.8084983" lon="11.4457867"><ele>413.0</ele><time>2026-04-18T10:55:25.928Z</time></trkpt><trkpt lat="43.80859" lon="11.4457983"><ele>411.5</ele><time>2026-04-18T10:55:26.928Z</time></trkpt><trkpt lat="43.8086717" lon="11.4458283"><ele>410.0</ele><time>2026-04-18T10:55:27.928Z</time></trkpt><trkpt lat="43.80874" lon="11.4458783"><ele>408.49999999999994</ele><time>2026-04-18T10:55:28.928Z</time></trkpt><trkpt lat="43.8088083" lon="11.44594"><ele>407.0</ele><time>2026-04-18T10:55:29.929Z</time></trkpt><trkpt lat="43.8088767" lon="11.4460133"><ele>407.0</ele><time>2026-04-18T10:55:30.928Z</time></trkpt><trkpt lat="43.8089517" lon="11.446075"><ele>407.0</ele><time>2026-04-18T10:55:31.929Z</time></trkpt><trkpt lat="43.8090283" lon="11.4461283"><ele>407.0</ele><time>2026-04-18T10:55:32.928Z</time></trkpt><trkpt lat="43.8091217" lon="11.4461717"><ele>407.0</ele><time>2026-04-18T10:55:33.928Z</time></trkpt><trkpt lat="43.8092283" lon="11.4462017"><ele>407.0</ele><time>2026-04-18T10:55:34.928Z</time></trkpt><trkpt lat="43.8093433" lon="11.4462317"><ele>406.5</ele><time>2026-04-18T10:55:35.928Z</time></trkpt><trkpt lat="43.8094567" lon="11.4462667"><ele>406.0</ele><time>2026-04-18T10:55:36.929Z</time></trkpt><trkpt lat="43.8095717" lon="11.4462933"><ele>405.5</ele><time>2026-04-18T10:55:37.928Z</time></trkpt><trkpt lat="43.80969" lon="11.4463183"><ele>405.0</ele><time>2026-04-18T10:55:38.929Z</time></trkpt><trkpt lat="43.8097967" lon="11.4463417"><ele>403.4</ele><time>2026-04-18T10:55:39.928Z</time></trkpt><trkpt lat="43.8098883" lon="11.446365"><ele>401.8</ele><time>2026-04-18T10:55:40.928Z</time></trkpt><trkpt lat="43.809975" lon="11.446405"><ele>400.20000000000005</ele><time>2026-04-18T10:55:41.928Z</time></trkpt><trkpt lat="43.81006" lon="11.446455"><ele>398.6</ele><time>2026-04-18T10:55:42.928Z</time></trkpt><trkpt lat="43.81014" lon="11.4465033"><ele>397.0</ele><time>2026-04-18T10:55:43.928Z</time></trkpt><trkpt lat="43.81023" lon="11.44655"><ele>397.0</ele><time>2026-04-18T10:55:44.928Z</time></trkpt><trkpt lat="43.8103417" lon="11.4465967"><ele>397.0</ele><time>2026-04-18T10:55:45.929Z</time></trkpt><trkpt lat="43.8104517" lon="11.44664"><ele>397.0</ele><time>2026-04-18T10:55:46.928Z</time></trkpt><trkpt lat="43.8105617" lon="11.4466867"><ele>397.0</ele><time>2026-04-18T10:55:47.928Z</time></trkpt><trkpt lat="43.8106667" lon="11.44673"><ele>397.0</ele><time>2026-04-18T10:55:48.928Z</time></trkpt><trkpt lat="43.81077" lon="11.4467817"><ele>397.0</ele><time>2026-04-18T10:55:49.929Z</time></trkpt><trkpt lat="43.8108783" lon="11.4468317"><ele>397.0</ele><time>2026-04-18T10:55:50.928Z</time></trkpt><trkpt lat="43.8109883" lon="11.446875"><ele>397.0</ele><time>2026-04-18T10:55:51.928Z</time></trkpt><trkpt lat="43.8111017" lon="11.4469167"><ele>394.6</ele><time>2026-04-18T10:55:52.928Z</time></trkpt><trkpt lat="43.8112067" lon="11.4469617"><ele>392.20000000000005</ele><time>2026-04-18T10:55:53.929Z</time></trkpt><trkpt lat="43.811315" lon="11.447"><ele>389.8</ele><time>2026-04-18T10:55:54.928Z</time></trkpt><trkpt lat="43.8114033" lon="11.4470417"><ele>387.4</ele><time>2026-04-18T10:55:55.928Z</time></trkpt><trkpt lat="43.8115" lon="11.447095"><ele>385.0</ele><time>2026-04-18T10:55:56.928Z</time></trkpt><trkpt lat="43.811595" lon="11.4471467"><ele>385.0</ele><time>2026-04-18T10:55:57.926Z</time></trkpt><trkpt lat="43.81168" lon="11.4472433"><ele>385.0</ele><time>2026-04-18T10:55:58.928Z</time></trkpt><trkpt lat="43.8117633" lon="11.4473533"><ele>385.0</ele><time>2026-04-18T10:55:59.929Z</time></trkpt><trkpt lat="43.811855" lon="11.4474783"><ele>385.0</ele><time>2026-04-18T10:56:00.929Z</time></trkpt><trkpt lat="43.8119467" lon="11.4476133"><ele>384.0</ele><time>2026-04-18T10:56:01.928Z</time></trkpt><trkpt lat="43.81204" lon="11.447745"><ele>383.0</ele><time>2026-04-18T10:56:02.929Z</time></trkpt><trkpt lat="43.81213" lon="11.4478633"><ele>382.0</ele><time>2026-04-18T10:56:03.929Z</time></trkpt><trkpt lat="43.8122117" lon="11.4479733"><ele>381.0</ele><time>2026-04-18T10:56:04.929Z</time></trkpt><trkpt lat="43.8122867" lon="11.4480783"><ele>381.0</ele><time>2026-04-18T10:56:05.928Z</time></trkpt><trkpt lat="43.812355" lon="11.44817"><ele>381.0</ele><time>2026-04-18T10:56:06.929Z</time></trkpt><trkpt lat="43.8124117" lon="11.44825"><ele>381.0</ele><time>2026-04-18T10:56:07.929Z</time></trkpt><trkpt lat="43.8124917" lon="11.448355"><ele>381.0</ele><time>2026-04-18T10:56:09.928Z</time></trkpt><trkpt lat="43.81252" lon="11.4484617"><ele>381.0</ele><time>2026-04-18T10:56:12.929Z</time></trkpt><trkpt lat="43.81245" lon="11.4485383"><ele>381.0</ele><time>2026-04-18T10:56:15.928Z</time></trkpt><trkpt lat="43.812345" lon="11.4485733"><ele>381.0</ele><time>2026-04-18T10:56:17.929Z</time></trkpt><trkpt lat="43.8122733" lon="11.4485733"><ele>381.0</ele><time>2026-04-18T10:56:18.929Z</time></trkpt><trkpt lat="43.8121833" lon="11.44858"><ele>381.0</ele><time>2026-04-18T10:56:19.929Z</time></trkpt><trkpt lat="43.8120833" lon="11.4486017"><ele>381.0</ele><time>2026-04-18T10:56:20.928Z</time></trkpt><trkpt lat="43.8119817" lon="11.4486217"><ele>381.0</ele><time>2026-04-18T10:56:21.928Z</time></trkpt><trkpt lat="43.81188" lon="11.44864"><ele>381.0</ele><time>2026-04-18T10:56:22.929Z</time></trkpt><trkpt lat="43.8117733" lon="11.448655"><ele>381.0</ele><time>2026-04-18T10:56:23.929Z</time></trkpt><trkpt lat="43.811665" lon="11.4486633"><ele>381.0</ele><time>2026-04-18T10:56:24.928Z</time></trkpt><trkpt lat="43.8115567" lon="11.4486633"><ele>381.0</ele><time>2026-04-18T10:56:25.928Z</time></trkpt><trkpt lat="43.81146" lon="11.448665"><ele>382.5</ele><time>2026-04-18T10:56:26.928Z</time></trkpt><trkpt lat="43.8113717" lon="11.4486583"><ele>384.0</ele><time>2026-04-18T10:56:27.928Z</time></trkpt><trkpt lat="43.81129" lon="11.4486583"><ele>385.5</ele><time>2026-04-18T10:56:28.928Z</time></trkpt><trkpt lat="43.81121" lon="11.44866"><ele>387.0</ele><time>2026-04-18T10:56:29.929Z</time></trkpt><trkpt lat="43.8111417" lon="11.448665"><ele>388.5</ele><time>2026-04-18T10:56:30.928Z</time></trkpt><trkpt lat="43.811035" lon="11.4487217"><ele>390.0</ele><time>2026-04-18T10:56:32.929Z</time></trkpt><trkpt lat="43.8109917" lon="11.4487917"><ele>392.85714285714283</ele><time>2026-04-18T10:56:33.929Z</time></trkpt><trkpt lat="43.81096" lon="11.4488733"><ele>395.71428571428567</ele><time>2026-04-18T10:56:34.929Z</time></trkpt><trkpt lat="43.8109367" lon="11.44897"><ele>398.57142857142856</ele><time>2026-04-18T10:56:35.929Z</time></trkpt><trkpt lat="43.810925" lon="11.4490783"><ele>401.42857142857144</ele><time>2026-04-18T10:56:36.928Z</time></trkpt><trkpt lat="43.810905" lon="11.4491883"><ele>404.2857142857143</ele><time>2026-04-18T10:56:37.929Z</time></trkpt><trkpt lat="43.8108867" lon="11.4492917"><ele>407.14285714285717</ele><time>2026-04-18T10:56:38.929Z</time></trkpt><trkpt lat="43.8108667" lon="11.449385"><ele>410.0</ele><time>2026-04-18T10:56:39.929Z</time></trkpt><trkpt lat="43.8108533" lon="11.4494983"><ele>409.99999999999994</ele><time>2026-04-18T10:56:40.928Z</time></trkpt><trkpt lat="43.81083" lon="11.449615"><ele>410.0</ele><time>2026-04-18T10:56:41.928Z</time></trkpt><trkpt lat="43.8108183" lon="11.449735"><ele>410.0</ele><time>2026-04-18T10:56:42.928Z</time></trkpt><trkpt lat="43.8108083" lon="11.449855"><ele>410.0</ele><time>2026-04-18T10:56:43.928Z</time></trkpt><trkpt lat="43.8107967" lon="11.4499783"><ele>409.99999999999994</ele><time>2026-04-18T10:56:44.929Z</time></trkpt><trkpt lat="43.8107767" lon="11.4500967"><ele>410.0</ele><time>2026-04-18T10:56:45.928Z</time></trkpt><trkpt lat="43.8107483" lon="11.450215"><ele>409.8</ele><time>2026-04-18T10:56:46.928Z</time></trkpt><trkpt lat="43.8107117" lon="11.450325"><ele>409.6</ele><time>2026-04-18T10:56:47.928Z</time></trkpt><trkpt lat="43.8106717" lon="11.450435"><ele>409.4</ele><time>2026-04-18T10:56:48.929Z</time></trkpt><trkpt lat="43.8106133" lon="11.45055"><ele>409.2</ele><time>2026-04-18T10:56:49.929Z</time></trkpt><trkpt lat="43.8105517" lon="11.450675"><ele>409.0</ele><time>2026-04-18T10:56:50.928Z</time></trkpt><trkpt lat="43.8104933" lon="11.4507933"><ele>407.4</ele><time>2026-04-18T10:56:51.928Z</time></trkpt><trkpt lat="43.8104417" lon="11.4509083"><ele>405.79999999999995</ele><time>2026-04-18T10:56:52.929Z</time></trkpt><trkpt lat="43.810395" lon="11.451005"><ele>404.20000000000005</ele><time>2026-04-18T10:56:53.928Z</time></trkpt><trkpt lat="43.8103517" lon="11.4511017"><ele>402.6</ele><time>2026-04-18T10:56:54.928Z</time></trkpt><trkpt lat="43.8103083" lon="11.45122"><ele>401.0</ele><time>2026-04-18T10:56:55.928Z</time></trkpt><trkpt lat="43.8102667" lon="11.451345"><ele>399.20000000000005</ele><time>2026-04-18T10:56:56.929Z</time></trkpt><trkpt lat="43.8102217" lon="11.4514783"><ele>397.40000000000003</ele><time>2026-04-18T10:56:57.928Z</time></trkpt><trkpt lat="43.8101733" lon="11.451615"><ele>395.6</ele><time>2026-04-18T10:56:58.929Z</time></trkpt><trkpt lat="43.8101283" lon="11.45175"><ele>393.8</ele><time>2026-04-18T10:56:59.929Z</time></trkpt><trkpt lat="43.8100833" lon="11.4518667"><ele>392.0</ele><time>2026-04-18T10:57:00.929Z</time></trkpt><trkpt lat="43.8100517" lon="11.4519867"><ele>393.66666666666663</ele><time>2026-04-18T10:57:01.928Z</time></trkpt><trkpt lat="43.8100383" lon="11.452105"><ele>395.3333333333333</ele><time>2026-04-18T10:57:02.929Z</time></trkpt><trkpt lat="43.8100283" lon="11.4522217"><ele>397.0</ele><time>2026-04-18T10:57:03.928Z</time></trkpt><trkpt lat="43.81004" lon="11.45234"><ele>398.66666666666663</ele><time>2026-04-18T10:57:04.928Z</time></trkpt><trkpt lat="43.8100567" lon="11.4524483"><ele>400.3333333333333</ele><time>2026-04-18T10:57:05.928Z</time></trkpt><trkpt lat="43.8100633" lon="11.4525583"><ele>402.0</ele><time>2026-04-18T10:57:06.929Z</time></trkpt><trkpt lat="43.810045" lon="11.4527033"><ele>402.0</ele><time>2026-04-18T10:57:08.929Z</time></trkpt><trkpt lat="43.8100017" lon="11.45281"><ele>402.0</ele><time>2026-04-18T10:57:10.928Z</time></trkpt><trkpt lat="43.8100267" lon="11.45291"><ele>402.0</ele><time>2026-04-18T10:57:13.929Z</time></trkpt><trkpt lat="43.8100833" lon="11.4529483"><ele>402.0</ele><time>2026-04-18T10:57:15.928Z</time></trkpt><trkpt lat="43.810185" lon="11.4529883"><ele>402.0</ele><time>2026-04-18T10:57:17.928Z</time></trkpt><trkpt lat="43.8102517" lon="11.45301"><ele>402.0</ele><time>2026-04-18T10:57:18.928Z</time></trkpt><trkpt lat="43.8103167" lon="11.4530333"><ele>399.8333333333333</ele><time>2026-04-18T10:57:19.929Z</time></trkpt><trkpt lat="43.810385" lon="11.4530583"><ele>397.66666666666663</ele><time>2026-04-18T10:57:20.928Z</time></trkpt><trkpt lat="43.81045" lon="11.4530967"><ele>395.5</ele><time>2026-04-18T10:57:21.928Z</time></trkpt><trkpt lat="43.8105167" lon="11.4531167"><ele>393.3333333333333</ele><time>2026-04-18T10:57:22.929Z</time></trkpt><trkpt lat="43.81058" lon="11.4531383"><ele>391.16666666666663</ele><time>2026-04-18T10:57:23.928Z</time></trkpt><trkpt lat="43.8107" lon="11.4531383"><ele>389.0</ele><time>2026-04-18T10:57:25.928Z</time></trkpt><trkpt lat="43.8107683" lon="11.453125"><ele>389.0</ele><time>2026-04-18T10:57:26.928Z</time></trkpt><trkpt lat="43.8108967" lon="11.45311"><ele>389.0</ele><time>2026-04-18T10:57:28.928Z</time></trkpt><trkpt lat="43.811" lon="11.4531167"><ele>389.0</ele><time>2026-04-18T10:57:30.928Z</time></trkpt><trkpt lat="43.8110733" lon="11.4531433"><ele>389.0</ele><time>2026-04-18T10:57:32.928Z</time></trkpt><trkpt lat="43.8111383" lon="11.453195"><ele>389.0</ele><time>2026-04-18T10:57:34.928Z</time></trkpt><trkpt lat="43.8111883" lon="11.4532583"><ele>386.75</ele><time>2026-04-18T10:57:36.928Z</time></trkpt><trkpt lat="43.8112333" lon="11.45332"><ele>384.5</ele><time>2026-04-18T10:57:38.928Z</time></trkpt><trkpt lat="43.811365" lon="11.453565"><ele>382.25</ele><time>2026-04-18T10:57:49.928Z</time></trkpt><trkpt lat="43.8114567" lon="11.4535767"><ele>380.0</ele><time>2026-04-18T10:57:52.929Z</time></trkpt><trkpt lat="43.81153" lon="11.4535983"><ele>380.0</ele><time>2026-04-18T10:57:54.929Z</time></trkpt><trkpt lat="43.8115817" lon="11.4536833"><ele>380.0</ele><time>2026-04-18T10:57:56.928Z</time></trkpt><trkpt lat="43.8116117" lon="11.453815"><ele>380.0</ele><time>2026-04-18T10:57:58.928Z</time></trkpt><trkpt lat="43.81164" lon="11.4539417"><ele>380.0</ele><time>2026-04-18T10:58:00.929Z</time></trkpt><trkpt lat="43.8116833" lon="11.454025"><ele>380.0</ele><time>2026-04-18T10:58:02.928Z</time></trkpt><trkpt lat="43.8117317" lon="11.4541233"><ele>380.0</ele><time>2026-04-18T10:58:37.928Z</time></trkpt><trkpt lat="43.8117767" lon="11.454225"><ele>379.6666666666667</ele><time>2026-04-18T10:58:40.929Z</time></trkpt><trkpt lat="43.811795" lon="11.45432"><ele>379.33333333333337</ele><time>2026-04-18T10:58:42.928Z</time></trkpt><trkpt lat="43.8117983" lon="11.454435"><ele>379.0</ele><time>2026-04-18T10:58:44.928Z</time></trkpt><trkpt lat="43.8117917" lon="11.454565"><ele>378.6666666666667</ele><time>2026-04-18T10:58:46.928Z</time></trkpt><trkpt lat="43.811775" lon="11.4546767"><ele>378.3333333333333</ele><time>2026-04-18T10:58:48.929Z</time></trkpt><trkpt lat="43.8117383" lon="11.454775"><ele>378.0</ele><time>2026-04-18T10:58:50.928Z</time></trkpt><trkpt lat="43.81168" lon="11.454865"><ele>376.1666666666667</ele><time>2026-04-18T10:58:52.928Z</time></trkpt><trkpt lat="43.8116333" lon="11.45495"><ele>374.3333333333333</ele><time>2026-04-18T10:58:54.929Z</time></trkpt><trkpt lat="43.81165" lon="11.4550517"><ele>372.5</ele><time>2026-04-18T10:58:56.928Z</time></trkpt><trkpt lat="43.811705" lon="11.455115"><ele>370.66666666666663</ele><time>2026-04-18T10:59:00.928Z</time></trkpt><trkpt lat="43.8117717" lon="11.4551033"><ele>368.8333333333333</ele><time>2026-04-18T10:59:02.928Z</time></trkpt><trkpt lat="43.8118583" lon="11.4550767"><ele>367.0</ele><time>2026-04-18T10:59:04.928Z</time></trkpt><trkpt lat="43.8119317" lon="11.4550667"><ele>365.3333333333333</ele><time>2026-04-18T10:59:08.928Z</time></trkpt><trkpt lat="43.8120067" lon="11.4551467"><ele>363.66666666666663</ele><time>2026-04-18T10:59:35.928Z</time></trkpt><trkpt lat="43.8120083" lon="11.4552567"><ele>362.0</ele><time>2026-04-18T10:59:44.929Z</time></trkpt><trkpt lat="43.8120517" lon="11.45532"><ele>360.3333333333333</ele><time>2026-04-18T10:59:49.929Z</time></trkpt><trkpt lat="43.8121117" lon="11.4552883"><ele>358.6666666666667</ele><time>2026-04-18T10:59:53.929Z</time></trkpt><trkpt lat="43.8121817" lon="11.4552633"><ele>357.0</ele><time>2026-04-18T10:59:57.929Z</time></trkpt><trkpt lat="43.8122967" lon="11.4553017"><ele>357.0</ele><time>2026-04-18T11:00:03.928Z</time></trkpt><trkpt lat="43.8123517" lon="11.455215"><ele>357.0</ele><time>2026-04-18T11:00:10.928Z</time></trkpt><trkpt lat="43.8123417" lon="11.4550967"><ele>357.0</ele><time>2026-04-18T11:00:13.929Z</time></trkpt><trkpt lat="43.8123617" lon="11.454955"><ele>357.0</ele><time>2026-04-18T11:00:15.928Z</time></trkpt><trkpt lat="43.8123783" lon="11.4548683"><ele>357.0</ele><time>2026-04-18T11:00:16.928Z</time></trkpt><trkpt lat="43.812395" lon="11.4547833"><ele>357.0</ele><time>2026-04-18T11:00:17.928Z</time></trkpt><trkpt lat="43.812425" lon="11.4546617"><ele>358.0</ele><time>2026-04-18T11:00:19.929Z</time></trkpt><trkpt lat="43.81245" lon="11.454565"><ele>359.0</ele><time>2026-04-18T11:00:21.929Z</time></trkpt><trkpt lat="43.8124667" lon="11.4544683"><ele>360.0</ele><time>2026-04-18T11:00:23.928Z</time></trkpt><trkpt lat="43.812495" lon="11.4543733"><ele>361.0</ele><time>2026-04-18T11:00:26.928Z</time></trkpt><trkpt lat="43.8125533" lon="11.4542867"><ele>362.0</ele><time>2026-04-18T11:00:42.928Z</time></trkpt><trkpt lat="43.8125533" lon="11.4543817"><ele>363.0</ele><time>2026-04-18T11:00:44.929Z</time></trkpt><trkpt lat="43.8125433" lon="11.45447"><ele>364.0</ele><time>2026-04-18T11:00:45.928Z</time></trkpt><trkpt lat="43.8125267" lon="11.4545683"><ele>362.8333333333333</ele><time>2026-04-18T11:00:46.928Z</time></trkpt><trkpt lat="43.8125133" lon="11.4546633"><ele>361.66666666666663</ele><time>2026-04-18T11:00:47.928Z</time></trkpt><trkpt lat="43.8124917" lon="11.4547717"><ele>360.5</ele><time>2026-04-18T11:00:48.929Z</time></trkpt><trkpt lat="43.8124633" lon="11.4548917"><ele>359.3333333333333</ele><time>2026-04-18T11:00:49.928Z</time></trkpt><trkpt lat="43.81245" lon="11.45502"><ele>358.1666666666667</ele><time>2026-04-18T11:00:50.928Z</time></trkpt><trkpt lat="43.8124417" lon="11.4551433"><ele>357.0</ele><time>2026-04-18T11:00:51.928Z</time></trkpt><trkpt lat="43.8124483" lon="11.4552633"><ele>357.0</ele><time>2026-04-18T11:00:52.928Z</time></trkpt><trkpt lat="43.8124617" lon="11.45538"><ele>357.0</ele><time>2026-04-18T11:00:53.929Z</time></trkpt><trkpt lat="43.8124717" lon="11.4554967"><ele>357.0</ele><time>2026-04-18T11:00:54.928Z</time></trkpt><trkpt lat="43.812475" lon="11.455605"><ele>357.0</ele><time>2026-04-18T11:00:55.928Z</time></trkpt><trkpt lat="43.8124683" lon="11.4557133"><ele>357.0</ele><time>2026-04-18T11:00:56.929Z</time></trkpt><trkpt lat="43.81245" lon="11.4558217"><ele>357.0</ele><time>2026-04-18T11:00:57.928Z</time></trkpt><trkpt lat="43.8124317" lon="11.455925"><ele>355.40000000000003</ele><time>2026-04-18T11:00:58.928Z</time></trkpt><trkpt lat="43.8123967" lon="11.4560283"><ele>353.8</ele><time>2026-04-18T11:00:59.928Z</time></trkpt><trkpt lat="43.8123583" lon="11.4561317"><ele>352.2</ele><time>2026-04-18T11:01:00.928Z</time></trkpt><trkpt lat="43.81229" lon="11.4562333"><ele>350.6</ele><time>2026-04-18T11:01:01.929Z</time></trkpt><trkpt lat="43.8122133" lon="11.4563383"><ele>349.0</ele><time>2026-04-18T11:01:02.929Z</time></trkpt><trkpt lat="43.8121233" lon="11.4564483"><ele>348.75</ele><time>2026-04-18T11:01:03.929Z</time></trkpt><trkpt lat="43.812025" lon="11.4565617"><ele>348.5</ele><time>2026-04-18T11:01:04.929Z</time></trkpt><trkpt lat="43.8119333" lon="11.456695"><ele>348.25</ele><time>2026-04-18T11:01:05.928Z</time></trkpt><trkpt lat="43.8118417" lon="11.4568433"><ele>348.0</ele><time>2026-04-18T11:01:06.928Z</time></trkpt><trkpt lat="43.811765" lon="11.456995"><ele>346.75</ele><time>2026-04-18T11:01:07.928Z</time></trkpt><trkpt lat="43.8116983" lon="11.457135"><ele>345.5</ele><time>2026-04-18T11:01:08.928Z</time></trkpt><trkpt lat="43.811645" lon="11.4572683"><ele>344.25</ele><time>2026-04-18T11:01:09.928Z</time></trkpt><trkpt lat="43.811585" lon="11.45741"><ele>343.0</ele><time>2026-04-18T11:01:10.928Z</time></trkpt><trkpt lat="43.8115333" lon="11.4575467"><ele>343.0</ele><time>2026-04-18T11:01:11.929Z</time></trkpt><trkpt lat="43.8114717" lon="11.4576967"><ele>343.0</ele><time>2026-04-18T11:01:12.929Z</time></trkpt><trkpt lat="43.8114167" lon="11.4578517"><ele>343.0</ele><time>2026-04-18T11:01:13.928Z</time></trkpt><trkpt lat="43.811365" lon="11.45801"><ele>343.0</ele><time>2026-04-18T11:01:14.928Z</time></trkpt><trkpt lat="43.81132" lon="11.4581583"><ele>342.0</ele><time>2026-04-18T11:01:15.928Z</time></trkpt><trkpt lat="43.8112833" lon="11.458305"><ele>341.0</ele><time>2026-04-18T11:01:16.928Z</time></trkpt><trkpt lat="43.811255" lon="11.4584367"><ele>340.0</ele><time>2026-04-18T11:01:17.929Z</time></trkpt><trkpt lat="43.8112283" lon="11.4585633"><ele>339.0</ele><time>2026-04-18T11:01:18.928Z</time></trkpt><trkpt lat="43.8112067" lon="11.4586667"><ele>338.0</ele><time>2026-04-18T11:01:19.929Z</time></trkpt><trkpt lat="43.8111717" lon="11.4587983"><ele>338.0</ele><time>2026-04-18T11:01:21.928Z</time></trkpt><trkpt lat="43.8112017" lon="11.4588833"><ele>338.0</ele><time>2026-04-18T11:01:28.928Z</time></trkpt><trkpt lat="43.8112717" lon="11.458885"><ele>338.0</ele><time>2026-04-18T11:01:31.928Z</time></trkpt><trkpt lat="43.81134" lon="11.4588717"><ele>338.0</ele><time>2026-04-18T11:01:33.928Z</time></trkpt><trkpt lat="43.811425" lon="11.4588617"><ele>338.0</ele><time>2026-04-18T11:01:36.928Z</time></trkpt><trkpt lat="43.8115" lon="11.458875"><ele>338.0</ele><time>2026-04-18T11:01:40.929Z</time></trkpt><trkpt lat="43.8115733" lon="11.4588917"><ele>338.0</ele><time>2026-04-18T11:01:43.928Z</time></trkpt><trkpt lat="43.81164" lon="11.458935"><ele>338.0</ele><time>2026-04-18T11:01:53.928Z</time></trkpt><trkpt lat="43.81173" lon="11.4588967"><ele>338.0</ele><time>2026-04-18T11:01:56.928Z</time></trkpt><trkpt lat="43.8118" lon="11.4588683"><ele>338.0</ele><time>2026-04-18T11:01:58.928Z</time></trkpt><trkpt lat="43.8118617" lon="11.4588417"><ele>338.0</ele><time>2026-04-18T11:02:00.929Z</time></trkpt><trkpt lat="43.8119417" lon="11.458815"><ele>338.0</ele><time>2026-04-18T11:02:04.929Z</time></trkpt><trkpt lat="43.8120033" lon="11.45878"><ele>338.0</ele><time>2026-04-18T11:02:06.928Z</time></trkpt><trkpt lat="43.8120817" lon="11.4587467"><ele>335.5</ele><time>2026-04-18T11:02:08.929Z</time></trkpt><trkpt lat="43.812185" lon="11.4587117"><ele>333.0</ele><time>2026-04-18T11:02:10.928Z</time></trkpt><trkpt lat="43.8122683" lon="11.4586667"><ele>330.5</ele><time>2026-04-18T11:02:12.928Z</time></trkpt><trkpt lat="43.8123383" lon="11.4586367"><ele>328.0</ele><time>2026-04-18T11:02:14.929Z</time></trkpt><trkpt lat="43.812415" lon="11.458625"><ele>325.5</ele><time>2026-04-18T11:02:17.928Z</time></trkpt><trkpt lat="43.8124783" lon="11.45865"><ele>323.0</ele><time>2026-04-18T11:02:20.929Z</time></trkpt><trkpt lat="43.8125433" lon="11.4587133"><ele>323.00000000000006</ele><time>2026-04-18T11:02:23.928Z</time></trkpt><trkpt lat="43.81261" lon="11.4587467"><ele>323.0</ele><time>2026-04-18T11:02:25.929Z</time></trkpt><trkpt lat="43.81269" lon="11.45879"><ele>323.0</ele><time>2026-04-18T11:02:27.928Z</time></trkpt><trkpt lat="43.812765" lon="11.458825"><ele>323.0</ele><time>2026-04-18T11:02:29.929Z</time></trkpt><trkpt lat="43.812835" lon="11.4588533"><ele>323.0</ele><time>2026-04-18T11:02:31.929Z</time></trkpt><trkpt lat="43.8129017" lon="11.4588883"><ele>323.00000000000006</ele><time>2026-04-18T11:02:33.928Z</time></trkpt><trkpt lat="43.8129583" lon="11.4589317"><ele>323.0</ele><time>2026-04-18T11:02:35.928Z</time></trkpt><trkpt lat="43.81304" lon="11.4589933"><ele>320.28571428571433</ele><time>2026-04-18T11:02:38.928Z</time></trkpt><trkpt lat="43.8130983" lon="11.4590467"><ele>317.57142857142856</ele><time>2026-04-18T11:02:40.929Z</time></trkpt><trkpt lat="43.813165" lon="11.4590917"><ele>314.8571428571429</ele><time>2026-04-18T11:02:42.928Z</time></trkpt><trkpt lat="43.813235" lon="11.4591267"><ele>312.14285714285717</ele><time>2026-04-18T11:02:44.928Z</time></trkpt><trkpt lat="43.8133067" lon="11.4591583"><ele>309.42857142857144</ele><time>2026-04-18T11:02:46.929Z</time></trkpt><trkpt lat="43.8133817" lon="11.4591933"><ele>306.7142857142857</ele><time>2026-04-18T11:02:48.928Z</time></trkpt><trkpt lat="43.8134467" lon="11.4592417"><ele>304.0</ele><time>2026-04-18T11:02:50.929Z</time></trkpt><trkpt lat="43.8135033" lon="11.4592933"><ele>302.57142857142856</ele><time>2026-04-18T11:02:52.929Z</time></trkpt><trkpt lat="43.8135567" lon="11.4593417"><ele>301.14285714285717</ele><time>2026-04-18T11:02:54.929Z</time></trkpt><trkpt lat="43.81361" lon="11.45939"><ele>299.7142857142857</ele><time>2026-04-18T11:02:57.929Z</time></trkpt><trkpt lat="43.8136733" lon="11.4593767"><ele>298.2857142857143</ele><time>2026-04-18T11:03:05.928Z</time></trkpt><trkpt lat="43.8137133" lon="11.4593083"><ele>296.8571428571429</ele><time>2026-04-18T11:03:11.928Z</time></trkpt><trkpt lat="43.813685" lon="11.4593883"><ele>295.42857142857144</ele><time>2026-04-18T11:03:25.929Z</time></trkpt><trkpt lat="43.81359" lon="11.4593833"><ele>294.0</ele><time>2026-04-18T11:03:28.928Z</time></trkpt><trkpt lat="43.8134967" lon="11.4592983"><ele>296.5</ele><time>2026-04-18T11:03:30.928Z</time></trkpt><trkpt lat="43.8133883" lon="11.4592167"><ele>299.0</ele><time>2026-04-18T11:03:32.928Z</time></trkpt><trkpt lat="43.8132717" lon="11.4591667"><ele>301.5</ele><time>2026-04-18T11:03:34.929Z</time></trkpt><trkpt lat="43.8131567" lon="11.4591067"><ele>304.0</ele><time>2026-04-18T11:03:36.928Z</time></trkpt><trkpt lat="43.81306" lon="11.4590133"><ele>304.0</ele><time>2026-04-18T11:03:38.929Z</time></trkpt><trkpt lat="43.8130017" lon="11.4589783"><ele>304.0</ele><time>2026-04-18T11:03:39.928Z</time></trkpt><trkpt lat="43.8128967" lon="11.458915"><ele>304.0</ele><time>2026-04-18T11:03:41.929Z</time></trkpt><trkpt lat="43.812785" lon="11.4588767"><ele>304.0</ele><time>2026-04-18T11:03:43.929Z</time></trkpt><trkpt lat="43.8127217" lon="11.458855"><ele>304.0</ele><time>2026-04-18T11:03:44.928Z</time></trkpt><trkpt lat="43.81266" lon="11.4588083"><ele>304.0</ele><time>2026-04-18T11:03:45.928Z</time></trkpt><trkpt lat="43.8125583" lon="11.4587317"><ele>307.2</ele><time>2026-04-18T11:03:47.928Z</time></trkpt><trkpt lat="43.8124683" lon="11.458675"><ele>310.4</ele><time>2026-04-18T11:03:49.928Z</time></trkpt><trkpt lat="43.812375" lon="11.4586683"><ele>313.6</ele><time>2026-04-18T11:03:51.929Z</time></trkpt><trkpt lat="43.8122867" lon="11.458705"><ele>316.8</ele><time>2026-04-18T11:03:53.928Z</time></trkpt><trkpt lat="43.8121817" lon="11.4587633"><ele>320.0</ele><time>2026-04-18T11:03:55.928Z</time></trkpt><trkpt lat="43.8120833" lon="11.4588117"><ele>320.0</ele><time>2026-04-18T11:03:57.928Z</time></trkpt><trkpt lat="43.8119783" lon="11.4588383"><ele>320.0</ele><time>2026-04-18T11:03:59.928Z</time></trkpt><trkpt lat="43.811865" lon="11.4588767"><ele>320.0</ele><time>2026-04-18T11:04:01.928Z</time></trkpt><trkpt lat="43.811745" lon="11.4589183"><ele>320.0</ele><time>2026-04-18T11:04:03.928Z</time></trkpt><trkpt lat="43.8116433" lon="11.4589467"><ele>323.6</ele><time>2026-04-18T11:04:05.928Z</time></trkpt><trkpt lat="43.811555" lon="11.4589467"><ele>327.2</ele><time>2026-04-18T11:04:07.928Z</time></trkpt><trkpt lat="43.8114683" lon="11.4589433"><ele>330.79999999999995</ele><time>2026-04-18T11:04:09.929Z</time></trkpt><trkpt lat="43.8114038" lon="11.458938"><ele>334.4</ele><time>2026-04-18T11:04:12.961Z</time></trkpt><trkpt lat="43.8112463" lon="11.4589506"><ele>338.0</ele><time>2026-04-18T11:04:14.929Z</time></trkpt><trkpt lat="43.8111833" lon="11.4589533"><ele>338.0</ele><time>2026-04-18T11:04:15.929Z</time></trkpt><trkpt lat="43.8111033" lon="11.4590017"><ele>338.0</ele><time>2026-04-18T11:04:18.929Z</time></trkpt><trkpt lat="43.81109" lon="11.4591"><ele>338.0</ele><time>2026-04-18T11:04:21.929Z</time></trkpt><trkpt lat="43.811125" lon="11.4591817"><ele>338.0</ele><time>2026-04-18T11:04:23.928Z</time></trkpt><trkpt lat="43.8111767" lon="11.4592833"><ele>338.0</ele><time>2026-04-18T11:04:25.929Z</time></trkpt><trkpt lat="43.8112333" lon="11.4593867"><ele>338.0</ele><time>2026-04-18T11:04:27.929Z</time></trkpt><trkpt lat="43.8112933" lon="11.4594883"><ele>338.0</ele><time>2026-04-18T11:04:29.929Z</time></trkpt><trkpt lat="43.8113796" lon="11.4595976"><ele>338.0</ele><time>2026-04-18T11:04:31.928Z</time></trkpt><trkpt lat="43.8114702" lon="11.4596905"><ele>338.0</ele><time>2026-04-18T11:04:33.928Z</time></trkpt><trkpt lat="43.8115217" lon="11.4597767"><ele>338.0</ele><time>2026-04-18T11:04:35.928Z</time></trkpt><trkpt lat="43.811555" lon="11.459885"><ele>338.0</ele><time>2026-04-18T11:04:37.928Z</time></trkpt><trkpt lat="43.8115683" lon="11.4599983"><ele>337.5</ele><time>2026-04-18T11:04:39.928Z</time></trkpt><trkpt lat="43.8115717" lon="11.4601"><ele>337.0</ele><time>2026-04-18T11:04:41.929Z</time></trkpt><trkpt lat="43.811565" lon="11.460195"><ele>336.5</ele><time>2026-04-18T11:04:43.928Z</time></trkpt><trkpt lat="43.8115517" lon="11.4603017"><ele>336.0</ele><time>2026-04-18T11:04:45.928Z</time></trkpt><trkpt lat="43.81154" lon="11.460415"><ele>335.5</ele><time>2026-04-18T11:04:47.928Z</time></trkpt><trkpt lat="43.8115283" lon="11.4605267"><ele>335.0</ele><time>2026-04-18T11:04:49.929Z</time></trkpt><trkpt lat="43.8115183" lon="11.4606433"><ele>333.8</ele><time>2026-04-18T11:04:51.929Z</time></trkpt><trkpt lat="43.8115117" lon="11.46078"><ele>332.6</ele><time>2026-04-18T11:04:53.929Z</time></trkpt><trkpt lat="43.8115117" lon="11.4609217"><ele>331.4</ele><time>2026-04-18T11:04:55.929Z</time></trkpt><trkpt lat="43.81151" lon="11.4610617"><ele>330.2</ele><time>2026-04-18T11:04:57.928Z</time></trkpt><trkpt lat="43.81152" lon="11.4611867"><ele>329.0</ele><time>2026-04-18T11:04:59.928Z</time></trkpt><trkpt lat="43.81153" lon="11.461295"><ele>327.5</ele><time>2026-04-18T11:05:01.929Z</time></trkpt><trkpt lat="43.81151" lon="11.4614067"><ele>326.0</ele><time>2026-04-18T11:05:03.928Z</time></trkpt><trkpt lat="43.8114917" lon="11.46152"><ele>324.5</ele><time>2026-04-18T11:05:05.928Z</time></trkpt><trkpt lat="43.811465" lon="11.4616317"><ele>323.0</ele><time>2026-04-18T11:05:07.928Z</time></trkpt><trkpt lat="43.8114433" lon="11.4617383"><ele>321.5</ele><time>2026-04-18T11:05:09.928Z</time></trkpt><trkpt lat="43.8114" lon="11.461825"><ele>320.0</ele><time>2026-04-18T11:05:11.928Z</time></trkpt><trkpt lat="43.811355" lon="11.4619"><ele>320.0</ele><time>2026-04-18T11:05:13.928Z</time></trkpt><trkpt lat="43.8112917" lon="11.461985"><ele>320.0</ele><time>2026-04-18T11:05:15.928Z</time></trkpt><trkpt lat="43.81121" lon="11.4620717"><ele>320.0</ele><time>2026-04-18T11:05:17.928Z</time></trkpt><trkpt lat="43.81112" lon="11.4621683"><ele>320.0</ele><time>2026-04-18T11:05:19.928Z</time></trkpt><trkpt lat="43.8110417" lon="11.46225"><ele>320.0</ele><time>2026-04-18T11:05:21.929Z</time></trkpt><trkpt lat="43.81096" lon="11.462315"><ele>317.6666666666667</ele><time>2026-04-18T11:05:23.929Z</time></trkpt><trkpt lat="43.81086" lon="11.4623833"><ele>315.33333333333337</ele><time>2026-04-18T11:05:25.928Z</time></trkpt><trkpt lat="43.81076" lon="11.4624433"><ele>313.0</ele><time>2026-04-18T11:05:27.929Z</time></trkpt><trkpt lat="43.8106883" lon="11.4624833"><ele>310.6666666666667</ele><time>2026-04-18T11:05:29.928Z</time></trkpt><trkpt lat="43.8106283" lon="11.4625333"><ele>308.3333333333333</ele><time>2026-04-18T11:05:31.929Z</time></trkpt><trkpt lat="43.8105817" lon="11.4626233"><ele>306.0</ele><time>2026-04-18T11:05:33.928Z</time></trkpt><trkpt lat="43.8105633" lon="11.462725"><ele>306.0</ele><time>2026-04-18T11:05:35.929Z</time></trkpt><trkpt lat="43.8105633" lon="11.462825"><ele>306.0</ele><time>2026-04-18T11:05:37.928Z</time></trkpt><trkpt lat="43.8105583" lon="11.4629283"><ele>306.0</ele><time>2026-04-18T11:05:39.928Z</time></trkpt><trkpt lat="43.810545" lon="11.463035"><ele>306.0</ele><time>2026-04-18T11:05:41.929Z</time></trkpt><trkpt lat="43.8105367" lon="11.4631267"><ele>306.0</ele><time>2026-04-18T11:05:43.928Z</time></trkpt><trkpt lat="43.8105383" lon="11.46324"><ele>306.0</ele><time>2026-04-18T11:05:45.929Z</time></trkpt><trkpt lat="43.8105617" lon="11.4633633"><ele>303.6</ele><time>2026-04-18T11:05:47.929Z</time></trkpt><trkpt lat="43.8105583" lon="11.4634917"><ele>301.20000000000005</ele><time>2026-04-18T11:05:49.928Z</time></trkpt><trkpt lat="43.8105667" lon="11.4636083"><ele>298.79999999999995</ele><time>2026-04-18T11:05:51.928Z</time></trkpt><trkpt lat="43.810595" lon="11.46377"><ele>296.4</ele><time>2026-04-18T11:05:53.929Z</time></trkpt><trkpt lat="43.810615" lon="11.4639217"><ele>294.0</ele><time>2026-04-18T11:05:55.928Z</time></trkpt><trkpt lat="43.81065" lon="11.4640517"><ele>293.8333333333333</ele><time>2026-04-18T11:05:57.928Z</time></trkpt><trkpt lat="43.8106783" lon="11.4641583"><ele>293.6666666666667</ele><time>2026-04-18T11:05:59.929Z</time></trkpt><trkpt lat="43.81071" lon="11.464285"><ele>293.5</ele><time>2026-04-18T11:06:01.928Z</time></trkpt><trkpt lat="43.810745" lon="11.46442"><ele>293.33333333333337</ele><time>2026-04-18T11:06:03.929Z</time></trkpt><trkpt lat="43.8107917" lon="11.4645183"><ele>293.1666666666667</ele><time>2026-04-18T11:06:05.929Z</time></trkpt><trkpt lat="43.81084" lon="11.4646067"><ele>293.0</ele><time>2026-04-18T11:06:07.928Z</time></trkpt><trkpt lat="43.8108717" lon="11.4647133"><ele>293.6666666666667</ele><time>2026-04-18T11:06:09.929Z</time></trkpt><trkpt lat="43.8109" lon="11.4648217"><ele>294.33333333333337</ele><time>2026-04-18T11:06:11.929Z</time></trkpt><trkpt lat="43.8109167" lon="11.4649283"><ele>295.0</ele><time>2026-04-18T11:06:13.928Z</time></trkpt><trkpt lat="43.810915" lon="11.4650383"><ele>295.6666666666667</ele><time>2026-04-18T11:06:15.929Z</time></trkpt><trkpt lat="43.810915" lon="11.4651517"><ele>296.3333333333333</ele><time>2026-04-18T11:06:17.928Z</time></trkpt><trkpt lat="43.81094" lon="11.46527"><ele>297.0</ele><time>2026-04-18T11:06:19.928Z</time></trkpt><trkpt lat="43.810965" lon="11.465395"><ele>296.14285714285717</ele><time>2026-04-18T11:06:21.929Z</time></trkpt><trkpt lat="43.8109817" lon="11.4654933"><ele>295.28571428571433</ele><time>2026-04-18T11:06:23.928Z</time></trkpt><trkpt lat="43.8110067" lon="11.46558"><ele>294.42857142857144</ele><time>2026-04-18T11:06:25.928Z</time></trkpt><trkpt lat="43.81104" lon="11.4656667"><ele>293.57142857142856</ele><time>2026-04-18T11:06:28.928Z</time></trkpt><trkpt lat="43.8110833" lon="11.4657317"><ele>292.71428571428567</ele><time>2026-04-18T11:06:32.928Z</time></trkpt><trkpt lat="43.8111433" lon="11.4657733"><ele>291.85714285714283</ele><time>2026-04-18T11:06:36.928Z</time></trkpt><trkpt lat="43.811225" lon="11.465805"><ele>291.0</ele><time>2026-04-18T11:06:40.929Z</time></trkpt><trkpt lat="43.8113083" lon="11.4658533"><ele>287.0</ele><time>2026-04-18T11:06:43.928Z</time></trkpt><trkpt lat="43.8113733" lon="11.4658867"><ele>283.0</ele><time>2026-04-18T11:06:46.928Z</time></trkpt><trkpt lat="43.8114367" lon="11.4659733"><ele>279.0</ele><time>2026-04-18T11:06:49.929Z</time></trkpt><trkpt lat="43.8114917" lon="11.4660717"><ele>275.0</ele><time>2026-04-18T11:06:51.928Z</time></trkpt><trkpt lat="43.81154" lon="11.466165"><ele>271.0</ele><time>2026-04-18T11:06:53.929Z</time></trkpt><trkpt lat="43.811595" lon="11.466255"><ele>267.0</ele><time>2026-04-18T11:06:56.928Z</time></trkpt><trkpt lat="43.8116283" lon="11.4663333"><ele>267.0</ele><time>2026-04-18T11:06:58.929Z</time></trkpt><trkpt lat="43.8116667" lon="11.46641"><ele>267.0</ele><time>2026-04-18T11:07:00.928Z</time></trkpt><trkpt lat="43.8117383" lon="11.4664733"><ele>267.0</ele><time>2026-04-18T11:07:03.929Z</time></trkpt><trkpt lat="43.81183" lon="11.466485"><ele>267.0</ele><time>2026-04-18T11:07:06.929Z</time></trkpt><trkpt lat="43.811895" lon="11.4664733"><ele>267.0</ele><time>2026-04-18T11:07:08.928Z</time></trkpt><trkpt lat="43.811975" lon="11.4664783"><ele>267.0</ele><time>2026-04-18T11:07:11.928Z</time></trkpt><trkpt lat="43.8120417" lon="11.4664783"><ele>264.6666666666667</ele><time>2026-04-18T11:07:14.929Z</time></trkpt><trkpt lat="43.812105" lon="11.4664767"><ele>262.3333333333333</ele><time>2026-04-18T11:07:17.928Z</time></trkpt><trkpt lat="43.8121883" lon="11.4664483"><ele>260.0</ele><time>2026-04-18T11:07:20.928Z</time></trkpt><trkpt lat="43.8122783" lon="11.466415"><ele>257.66666666666663</ele><time>2026-04-18T11:07:23.928Z</time></trkpt><trkpt lat="43.8123433" lon="11.466415"><ele>255.33333333333331</ele><time>2026-04-18T11:07:25.928Z</time></trkpt><trkpt lat="43.8124033" lon="11.4664583"><ele>253.0</ele><time>2026-04-18T11:07:27.929Z</time></trkpt><trkpt lat="43.8124617" lon="11.4665383"><ele>252.99999999999997</ele><time>2026-04-18T11:07:30.929Z</time></trkpt><trkpt lat="43.8125017" lon="11.4666217"><ele>253.0</ele><time>2026-04-18T11:07:35.929Z</time></trkpt><trkpt lat="43.8125433" lon="11.4667067"><ele>253.0</ele><time>2026-04-18T11:07:40.928Z</time></trkpt><trkpt lat="43.8125917" lon="11.466785"><ele>253.0</ele><time>2026-04-18T11:07:45.929Z</time></trkpt><trkpt lat="43.8127" lon="11.466775"><ele>252.99999999999997</ele><time>2026-04-18T11:07:53.929Z</time></trkpt><trkpt lat="43.8127633" lon="11.4667283"><ele>253.0</ele><time>2026-04-18T11:07:56.928Z</time></trkpt><trkpt lat="43.8128233" lon="11.4666933"><ele>250.42857142857144</ele><time>2026-04-18T11:07:59.928Z</time></trkpt><trkpt lat="43.812905" lon="11.46668"><ele>247.85714285714286</ele><time>2026-04-18T11:08:03.928Z</time></trkpt><trkpt lat="43.8129767" lon="11.4666483"><ele>245.28571428571428</ele><time>2026-04-18T11:08:06.928Z</time></trkpt><trkpt lat="43.8130583" lon="11.466615"><ele>242.71428571428572</ele><time>2026-04-18T11:08:09.929Z</time></trkpt><trkpt lat="43.8131267" lon="11.4665783"><ele>240.1428571428571</ele><time>2026-04-18T11:08:11.928Z</time></trkpt><trkpt lat="43.81319" lon="11.4665383"><ele>237.57142857142856</ele><time>2026-04-18T11:08:13.928Z</time></trkpt><trkpt lat="43.81325" lon="11.4665083"><ele>235.0</ele><time>2026-04-18T11:08:15.929Z</time></trkpt><trkpt lat="43.8133133" lon="11.466485"><ele>234.99999999999997</ele><time>2026-04-18T11:08:18.928Z</time></trkpt><trkpt lat="43.81337" lon="11.466425"><ele>235.0</ele><time>2026-04-18T11:08:21.929Z</time></trkpt><trkpt lat="43.8134" lon="11.4663117"><ele>235.0</ele><time>2026-04-18T11:08:24.928Z</time></trkpt><trkpt lat="43.8134233" lon="11.4662067"><ele>235.0</ele><time>2026-04-18T11:08:27.929Z</time></trkpt><trkpt lat="43.8134267" lon="11.4661133"><ele>234.99999999999997</ele><time>2026-04-18T11:08:29.929Z</time></trkpt><trkpt lat="43.81344" lon="11.4660167"><ele>235.0</ele><time>2026-04-18T11:08:31.929Z</time></trkpt><trkpt lat="43.8135017" lon="11.4659217"><ele>233.66666666666666</ele><time>2026-04-18T11:08:34.928Z</time></trkpt><trkpt lat="43.8135667" lon="11.4658517"><ele>232.33333333333331</ele><time>2026-04-18T11:08:37.929Z</time></trkpt><trkpt lat="43.8136317" lon="11.465795"><ele>231.0</ele><time>2026-04-18T11:08:40.928Z</time></trkpt><trkpt lat="43.81369" lon="11.4657583"><ele>229.66666666666669</ele><time>2026-04-18T11:08:43.928Z</time></trkpt><trkpt lat="43.8137733" lon="11.4657467"><ele>228.33333333333334</ele><time>2026-04-18T11:08:47.927Z</time></trkpt><trkpt lat="43.81384" lon="11.4657867"><ele>227.0</ele><time>2026-04-18T11:08:50.928Z</time></trkpt><trkpt lat="43.8139683" lon="11.4658983"><ele>227.00000000000003</ele><time>2026-04-18T11:11:53.928Z</time></trkpt><trkpt lat="43.8139117" lon="11.4658333"><ele>227.0</ele><time>2026-04-18T11:12:13.928Z</time></trkpt><trkpt lat="43.81385" lon="11.4658083"><ele>227.0</ele><time>2026-04-18T11:12:16.927Z</time></trkpt><trkpt lat="43.8137917" lon="11.4657733"><ele>227.0</ele><time>2026-04-18T11:12:18.927Z</time></trkpt><trkpt lat="43.8137" lon="11.465775"><ele>227.00000000000003</ele><time>2026-04-18T11:12:21.927Z</time></trkpt><trkpt lat="43.8136167" lon="11.4657967"><ele>227.0</ele><time>2026-04-18T11:12:23.927Z</time></trkpt><trkpt lat="43.813535" lon="11.46587"><ele>228.33333333333334</ele><time>2026-04-18T11:12:25.928Z</time></trkpt><trkpt lat="43.81348" lon="11.465925"><ele>229.66666666666669</ele><time>2026-04-18T11:12:28.927Z</time></trkpt><trkpt lat="43.81344" lon="11.4659983"><ele>231.0</ele><time>2026-04-18T11:12:32.927Z</time></trkpt><trkpt lat="43.8134217" lon="11.4660933"><ele>232.33333333333331</ele><time>2026-04-18T11:12:34.927Z</time></trkpt><trkpt lat="43.8134117" lon="11.466215"><ele>233.66666666666666</ele><time>2026-04-18T11:12:37.927Z</time></trkpt><trkpt lat="43.813415" lon="11.4663217"><ele>235.0</ele><time>2026-04-18T11:12:40.928Z</time></trkpt><trkpt lat="43.81335" lon="11.4664467"><ele>235.0</ele><time>2026-04-18T11:13:07.928Z</time></trkpt><trkpt lat="43.8132567" lon="11.4665133"><ele>235.0</ele><time>2026-04-18T11:13:10.927Z</time></trkpt><trkpt lat="43.8131467" lon="11.4665767"><ele>235.0</ele><time>2026-04-18T11:13:12.928Z</time></trkpt><trkpt lat="43.813085" lon="11.4666117"><ele>235.0</ele><time>2026-04-18T11:13:13.928Z</time></trkpt><trkpt lat="43.8129917" lon="11.466655"><ele>235.0</ele><time>2026-04-18T11:13:15.927Z</time></trkpt><trkpt lat="43.8129" lon="11.4666667"><ele>234.99999999999997</ele><time>2026-04-18T11:13:17.927Z</time></trkpt><trkpt lat="43.8128183" lon="11.466695"><ele>235.0</ele><time>2026-04-18T11:13:19.928Z</time></trkpt><trkpt lat="43.812745" lon="11.4667533"><ele>235.0</ele><time>2026-04-18T11:13:21.928Z</time></trkpt><trkpt lat="43.812685" lon="11.4667917"><ele>235.0</ele><time>2026-04-18T11:13:23.928Z</time></trkpt><trkpt lat="43.8126167" lon="11.46677"><ele>234.99999999999997</ele><time>2026-04-18T11:13:33.927Z</time></trkpt><trkpt lat="43.8125633" lon="11.466705"><ele>235.0</ele><time>2026-04-18T11:13:35.927Z</time></trkpt><trkpt lat="43.81248" lon="11.4665742"><ele>238.6</ele><time>2026-04-18T11:13:41.959Z</time></trkpt><trkpt lat="43.8124387" lon="11.4665029"><ele>242.2</ele><time>2026-04-18T11:13:44.001Z</time></trkpt><trkpt lat="43.8123388" lon="11.4664653"><ele>245.8</ele><time>2026-04-18T11:13:46.969Z</time></trkpt><trkpt lat="43.8122123" lon="11.46648"><ele>249.4</ele><time>2026-04-18T11:13:49.974Z</time></trkpt><trkpt lat="43.812142" lon="11.4664986"><ele>253.0</ele><time>2026-04-18T11:13:51.977Z</time></trkpt><trkpt lat="43.8120507" lon="11.4664982"><ele>253.0</ele><time>2026-04-18T11:13:54Z</time></trkpt><trkpt lat="43.8119736" lon="11.4664984"><ele>253.0</ele><time>2026-04-18T11:13:55.985Z</time></trkpt><trkpt lat="43.8118527" lon="11.4665225"><ele>253.0</ele><time>2026-04-18T11:13:59.038Z</time></trkpt><trkpt lat="43.8117413" lon="11.4664832"><ele>253.0</ele><time>2026-04-18T11:14:00.994Z</time></trkpt><trkpt lat="43.811655" lon="11.4663733"><ele>253.0</ele><time>2026-04-18T11:14:02.927Z</time></trkpt><trkpt lat="43.811595" lon="11.4662483"><ele>255.8</ele><time>2026-04-18T11:14:04.928Z</time></trkpt><trkpt lat="43.8115433" lon="11.4661217"><ele>258.6</ele><time>2026-04-18T11:14:06.927Z</time></trkpt><trkpt lat="43.811485" lon="11.4660233"><ele>261.4</ele><time>2026-04-18T11:14:08.927Z</time></trkpt><trkpt lat="43.8114117" lon="11.4659433"><ele>264.2</ele><time>2026-04-18T11:14:10.927Z</time></trkpt><trkpt lat="43.8113117" lon="11.4658917"><ele>267.0</ele><time>2026-04-18T11:14:12.928Z</time></trkpt><trkpt lat="43.811205" lon="11.4658617"><ele>267.0</ele><time>2026-04-18T11:14:14.927Z</time></trkpt><trkpt lat="43.8111217" lon="11.465815"><ele>267.0</ele><time>2026-04-18T11:14:16.928Z</time></trkpt><trkpt lat="43.81106" lon="11.46574"><ele>267.0</ele><time>2026-04-18T11:14:18.928Z</time></trkpt><trkpt lat="43.8110183" lon="11.4656267"><ele>267.0</ele><time>2026-04-18T11:14:20.928Z</time></trkpt><trkpt lat="43.8109833" lon="11.4654883"><ele>267.0</ele><time>2026-04-18T11:14:22.927Z</time></trkpt><trkpt lat="43.8109583" lon="11.4653833"><ele>267.0</ele><time>2026-04-18T11:14:24.927Z</time></trkpt><trkpt lat="43.8109283" lon="11.46529"><ele>271.3333333333333</ele><time>2026-04-18T11:14:26.928Z</time></trkpt><trkpt lat="43.8109067" lon="11.4651633"><ele>275.6666666666667</ele><time>2026-04-18T11:14:28.927Z</time></trkpt><trkpt lat="43.8108868" lon="11.4650481"><ele>280.0</ele><time>2026-04-18T11:14:30.913Z</time></trkpt><trkpt lat="43.8108943" lon="11.4649424"><ele>284.33333333333337</ele><time>2026-04-18T11:14:31.927Z</time></trkpt><trkpt lat="43.8108966" lon="11.4648497"><ele>288.6666666666667</ele><time>2026-04-18T11:14:32.928Z</time></trkpt><trkpt lat="43.8108669" lon="11.4647001"><ele>293.0</ele><time>2026-04-18T11:14:34.928Z</time></trkpt><trkpt lat="43.8108168" lon="11.4645888"><ele>293.0</ele><time>2026-04-18T11:14:36.927Z</time></trkpt><trkpt lat="43.8107648" lon="11.4644935"><ele>293.0</ele><time>2026-04-18T11:14:38.927Z</time></trkpt><trkpt lat="43.8107354" lon="11.4644039"><ele>293.0</ele><time>2026-04-18T11:14:40.927Z</time></trkpt><trkpt lat="43.8106868" lon="11.464215"><ele>293.0</ele><time>2026-04-18T11:14:44.957Z</time></trkpt><trkpt lat="43.8106579" lon="11.4640905"><ele>293.0</ele><time>2026-04-18T11:14:46.961Z</time></trkpt><trkpt lat="43.810635" lon="11.4639933"><ele>293.0</ele><time>2026-04-18T11:14:48.928Z</time></trkpt><trkpt lat="43.8106117" lon="11.4638817"><ele>293.0</ele><time>2026-04-18T11:14:50.927Z</time></trkpt><trkpt lat="43.81058" lon="11.4637167"><ele>293.0</ele><time>2026-04-18T11:14:52.927Z</time></trkpt><trkpt lat="43.810565" lon="11.4635883"><ele>293.0</ele><time>2026-04-18T11:14:54.927Z</time></trkpt><trkpt lat="43.8105583" lon="11.4634817"><ele>293.0</ele><time>2026-04-18T11:14:57.928Z</time></trkpt><trkpt lat="43.810555" lon="11.4633533"><ele>293.2</ele><time>2026-04-18T11:14:59.927Z</time></trkpt><trkpt lat="43.8105383" lon="11.4632633"><ele>293.4</ele><time>2026-04-18T11:15:01.928Z</time></trkpt><trkpt lat="43.810525" lon="11.4631467"><ele>293.59999999999997</ele><time>2026-04-18T11:15:03.927Z</time></trkpt><trkpt lat="43.8105383" lon="11.4629917"><ele>293.8</ele><time>2026-04-18T11:15:05.927Z</time></trkpt><trkpt lat="43.81055" lon="11.462835"><ele>294.0</ele><time>2026-04-18T11:15:07.927Z</time></trkpt><trkpt lat="43.8105583" lon="11.462705"><ele>294.8333333333333</ele><time>2026-04-18T11:15:09.928Z</time></trkpt><trkpt lat="43.8105867" lon="11.4626167"><ele>295.6666666666667</ele><time>2026-04-18T11:15:11.927Z</time></trkpt><trkpt lat="43.8106417" lon="11.4625317"><ele>296.5</ele><time>2026-04-18T11:15:13.927Z</time></trkpt><trkpt lat="43.81072" lon="11.4624767"><ele>297.33333333333337</ele><time>2026-04-18T11:15:15.927Z</time></trkpt><trkpt lat="43.8108067" lon="11.4624267"><ele>298.1666666666667</ele><time>2026-04-18T11:15:17.928Z</time></trkpt><trkpt lat="43.8109033" lon="11.4623633"><ele>299.0</ele><time>2026-04-18T11:15:19.927Z</time></trkpt><trkpt lat="43.8110017" lon="11.4622883"><ele>299.0</ele><time>2026-04-18T11:15:21.927Z</time></trkpt><trkpt lat="43.8110917" lon="11.46219"><ele>299.0</ele><time>2026-04-18T11:15:23.928Z</time></trkpt><trkpt lat="43.8111933" lon="11.4620867"><ele>299.0</ele><time>2026-04-18T11:15:25.927Z</time></trkpt><trkpt lat="43.81129" lon="11.4619783"><ele>299.0</ele><time>2026-04-18T11:15:27.928Z</time></trkpt><trkpt lat="43.8113783" lon="11.4618817"><ele>303.2</ele><time>2026-04-18T11:15:29.928Z</time></trkpt><trkpt lat="43.8114417" lon="11.4617517"><ele>307.4</ele><time>2026-04-18T11:15:31.927Z</time></trkpt><trkpt lat="43.811465" lon="11.46167"><ele>311.6</ele><time>2026-04-18T11:15:32.928Z</time></trkpt><trkpt lat="43.8114883" lon="11.4615833"><ele>315.8</ele><time>2026-04-18T11:15:33.927Z</time></trkpt><trkpt lat="43.8115233" lon="11.4614267"><ele>320.0</ele><time>2026-04-18T11:15:35.927Z</time></trkpt><trkpt lat="43.8115283" lon="11.461285"><ele>321.5</ele><time>2026-04-18T11:15:37.927Z</time></trkpt><trkpt lat="43.811525" lon="11.46119"><ele>323.0</ele><time>2026-04-18T11:15:38.927Z</time></trkpt><trkpt lat="43.8115233" lon="11.4610933"><ele>324.5</ele><time>2026-04-18T11:15:39.928Z</time></trkpt><trkpt lat="43.8115233" lon="11.4609717"><ele>326.0</ele><time>2026-04-18T11:15:40.927Z</time></trkpt><trkpt lat="43.8115233" lon="11.4608483"><ele>327.5</ele><time>2026-04-18T11:15:41.927Z</time></trkpt><trkpt lat="43.811525" lon="11.4607383"><ele>329.0</ele><time>2026-04-18T11:15:42.927Z</time></trkpt><trkpt lat="43.8115233" lon="11.46064"><ele>329.0</ele><time>2026-04-18T11:15:43.928Z</time></trkpt><trkpt lat="43.81153" lon="11.4605417"><ele>329.0</ele><time>2026-04-18T11:15:44.928Z</time></trkpt><trkpt lat="43.8115367" lon="11.4603683"><ele>329.0</ele><time>2026-04-18T11:15:46.928Z</time></trkpt><trkpt lat="43.8115467" lon="11.460235"><ele>329.0</ele><time>2026-04-18T11:15:48.927Z</time></trkpt><trkpt lat="43.811565" lon="11.4600917"><ele>329.0</ele><time>2026-04-18T11:15:50.927Z</time></trkpt><trkpt lat="43.8115567" lon="11.459945"><ele>330.2</ele><time>2026-04-18T11:15:52.927Z</time></trkpt><trkpt lat="43.8115217" lon="11.4597983"><ele>331.4</ele><time>2026-04-18T11:15:54.927Z</time></trkpt><trkpt lat="43.8114667" lon="11.45968"><ele>332.6</ele><time>2026-04-18T11:15:56.928Z</time></trkpt><trkpt lat="43.8113917" lon="11.45961"><ele>333.8</ele><time>2026-04-18T11:15:58.927Z</time></trkpt><trkpt lat="43.8112783" lon="11.459515"><ele>335.0</ele><time>2026-04-18T11:16:00.928Z</time></trkpt><trkpt lat="43.8112233" lon="11.4594533"><ele>335.5</ele><time>2026-04-18T11:16:01.928Z</time></trkpt><trkpt lat="43.81115" lon="11.45934"><ele>336.0</ele><time>2026-04-18T11:16:03.928Z</time></trkpt><trkpt lat="43.81111" lon="11.4592483"><ele>336.5</ele><time>2026-04-18T11:16:05.927Z</time></trkpt><trkpt lat="43.8110717" lon="11.4591633"><ele>337.0</ele><time>2026-04-18T11:16:07.927Z</time></trkpt><trkpt lat="43.8110267" lon="11.4591"><ele>337.5</ele><time>2026-04-18T11:16:09.927Z</time></trkpt><trkpt lat="43.8109583" lon="11.4590633"><ele>338.0</ele><time>2026-04-18T11:16:11.928Z</time></trkpt><trkpt lat="43.8108283" lon="11.4590417"><ele>338.4</ele><time>2026-04-18T11:16:13.928Z</time></trkpt><trkpt lat="43.810745" lon="11.45903"><ele>338.79999999999995</ele><time>2026-04-18T11:16:14.927Z</time></trkpt><trkpt lat="43.81066" lon="11.4590133"><ele>339.2</ele><time>2026-04-18T11:16:15.928Z</time></trkpt><trkpt lat="43.810565" lon="11.4589983"><ele>339.6</ele><time>2026-04-18T11:16:16.927Z</time></trkpt><trkpt lat="43.8104617" lon="11.45899"><ele>340.0</ele><time>2026-04-18T11:16:17.927Z</time></trkpt><trkpt lat="43.8103483" lon="11.4589983"><ele>340.0</ele><time>2026-04-18T11:16:18.927Z</time></trkpt><trkpt lat="43.8102233" lon="11.4590233"><ele>340.0</ele><time>2026-04-18T11:16:19.927Z</time></trkpt><trkpt lat="43.8101" lon="11.459055"><ele>340.0</ele><time>2026-04-18T11:16:20.928Z</time></trkpt><trkpt lat="43.8099767" lon="11.4590817"><ele>340.0</ele><time>2026-04-18T11:16:21.927Z</time></trkpt><trkpt lat="43.8098517" lon="11.4590967"><ele>337.75</ele><time>2026-04-18T11:16:22.928Z</time></trkpt><trkpt lat="43.80973" lon="11.45911"><ele>335.5</ele><time>2026-04-18T11:16:23.928Z</time></trkpt><trkpt lat="43.8096183" lon="11.4591167"><ele>333.25</ele><time>2026-04-18T11:16:24.927Z</time></trkpt><trkpt lat="43.8095" lon="11.45914"><ele>331.0</ele><time>2026-04-18T11:16:25.927Z</time></trkpt><trkpt lat="43.8093983" lon="11.4591667"><ele>328.8333333333333</ele><time>2026-04-18T11:16:26.928Z</time></trkpt><trkpt lat="43.8093083" lon="11.4591967"><ele>326.66666666666663</ele><time>2026-04-18T11:16:27.927Z</time></trkpt><trkpt lat="43.8092267" lon="11.45924"><ele>324.5</ele><time>2026-04-18T11:16:28.927Z</time></trkpt><trkpt lat="43.8091567" lon="11.4592817"><ele>322.3333333333333</ele><time>2026-04-18T11:16:29.927Z</time></trkpt><trkpt lat="43.8090967" lon="11.4593133"><ele>320.1666666666667</ele><time>2026-04-18T11:16:30.927Z</time></trkpt><trkpt lat="43.8090333" lon="11.4592633"><ele>318.0</ele><time>2026-04-18T11:16:32.928Z</time></trkpt><trkpt lat="43.8090383" lon="11.4591183"><ele>318.0</ele><time>2026-04-18T11:16:34.928Z</time></trkpt><trkpt lat="43.809055" lon="11.4590083"><ele>318.0</ele><time>2026-04-18T11:16:35.928Z</time></trkpt><trkpt lat="43.8090617" lon="11.45888"><ele>318.0</ele><time>2026-04-18T11:16:36.928Z</time></trkpt><trkpt lat="43.8090517" lon="11.4587583"><ele>318.0</ele><time>2026-04-18T11:16:37.927Z</time></trkpt><trkpt lat="43.8090283" lon="11.45864"><ele>318.0</ele><time>2026-04-18T11:16:38.927Z</time></trkpt><trkpt lat="43.809" lon="11.4585217"><ele>318.0</ele><time>2026-04-18T11:16:39.928Z</time></trkpt><trkpt lat="43.80893" lon="11.45842"><ele>318.25</ele><time>2026-04-18T11:16:40.927Z</time></trkpt><trkpt lat="43.8088467" lon="11.4583383"><ele>318.5</ele><time>2026-04-18T11:16:41.927Z</time></trkpt><trkpt lat="43.8087533" lon="11.4582533"><ele>318.75</ele><time>2026-04-18T11:16:42.928Z</time></trkpt><trkpt lat="43.8086517" lon="11.4581583"><ele>319.0</ele><time>2026-04-18T11:16:43.927Z</time></trkpt><trkpt lat="43.8085533" lon="11.4580733"><ele>316.8</ele><time>2026-04-18T11:16:44.927Z</time></trkpt><trkpt lat="43.8084483" lon="11.45798"><ele>314.59999999999997</ele><time>2026-04-18T11:16:45.927Z</time></trkpt><trkpt lat="43.8083467" lon="11.457905"><ele>312.4</ele><time>2026-04-18T11:16:46.927Z</time></trkpt><trkpt lat="43.8082667" lon="11.4578267"><ele>310.2</ele><time>2026-04-18T11:16:47.928Z</time></trkpt><trkpt lat="43.808185" lon="11.457745"><ele>308.0</ele><time>2026-04-18T11:16:48.928Z</time></trkpt><trkpt lat="43.80811" lon="11.4576567"><ele>308.0</ele><time>2026-04-18T11:16:49.927Z</time></trkpt><trkpt lat="43.8080267" lon="11.457565"><ele>308.0</ele><time>2026-04-18T11:16:50.927Z</time></trkpt><trkpt lat="43.8079517" lon="11.45747"><ele>308.0</ele><time>2026-04-18T11:16:51.928Z</time></trkpt><trkpt lat="43.8078867" lon="11.457385"><ele>308.0</ele><time>2026-04-18T11:16:52.927Z</time></trkpt><trkpt lat="43.8078167" lon="11.4573283"><ele>308.0</ele><time>2026-04-18T11:16:53.927Z</time></trkpt><trkpt lat="43.8077217" lon="11.4573133"><ele>307.2</ele><time>2026-04-18T11:16:54.927Z</time></trkpt><trkpt lat="43.80763" lon="11.4573317"><ele>306.4</ele><time>2026-04-18T11:16:55.927Z</time></trkpt><trkpt lat="43.8075333" lon="11.4573883"><ele>305.59999999999997</ele><time>2026-04-18T11:16:56.927Z</time></trkpt><trkpt lat="43.8074417" lon="11.4574733"><ele>304.8</ele><time>2026-04-18T11:16:57.927Z</time></trkpt><trkpt lat="43.8073483" lon="11.4575933"><ele>304.0</ele><time>2026-04-18T11:16:58.927Z</time></trkpt><trkpt lat="43.8072533" lon="11.4577317"><ele>304.0</ele><time>2026-04-18T11:16:59.927Z</time></trkpt><trkpt lat="43.80716" lon="11.4578833"><ele>304.0</ele><time>2026-04-18T11:17:00.927Z</time></trkpt><trkpt lat="43.8070717" lon="11.4580333"><ele>304.0</ele><time>2026-04-18T11:17:01.927Z</time></trkpt><trkpt lat="43.8069867" lon="11.4581617"><ele>304.0</ele><time>2026-04-18T11:17:02.927Z</time></trkpt><trkpt lat="43.80691" lon="11.4582767"><ele>303.2</ele><time>2026-04-18T11:17:03.927Z</time></trkpt><trkpt lat="43.8068367" lon="11.45838"><ele>302.4</ele><time>2026-04-18T11:17:04.927Z</time></trkpt><trkpt lat="43.8067733" lon="11.4584833"><ele>301.6</ele><time>2026-04-18T11:17:05.927Z</time></trkpt><trkpt lat="43.80671" lon="11.4585783"><ele>300.8</ele><time>2026-04-18T11:17:06.928Z</time></trkpt><trkpt lat="43.8066533" lon="11.4586717"><ele>300.0</ele><time>2026-04-18T11:17:07.927Z</time></trkpt><trkpt lat="43.8065933" lon="11.45876"><ele>299.0</ele><time>2026-04-18T11:17:08.928Z</time></trkpt><trkpt lat="43.806535" lon="11.458835"><ele>298.0</ele><time>2026-04-18T11:17:09.927Z</time></trkpt><trkpt lat="43.8064683" lon="11.4589033"><ele>297.0</ele><time>2026-04-18T11:17:10.928Z</time></trkpt><trkpt lat="43.8064033" lon="11.458965"><ele>296.0</ele><time>2026-04-18T11:17:11.927Z</time></trkpt><trkpt lat="43.80633" lon="11.459015"><ele>295.0</ele><time>2026-04-18T11:17:12.927Z</time></trkpt><trkpt lat="43.8062567" lon="11.4590383"><ele>294.0</ele><time>2026-04-18T11:17:13.927Z</time></trkpt><trkpt lat="43.8061683" lon="11.45904"><ele>294.0</ele><time>2026-04-18T11:17:14.927Z</time></trkpt><trkpt lat="43.8060783" lon="11.4590367"><ele>294.0</ele><time>2026-04-18T11:17:15.928Z</time></trkpt><trkpt lat="43.8059967" lon="11.4590167"><ele>294.0</ele><time>2026-04-18T11:17:16.927Z</time></trkpt><trkpt lat="43.80591" lon="11.458975"><ele>294.0</ele><time>2026-04-18T11:17:17.927Z</time></trkpt><trkpt lat="43.805835" lon="11.4589117"><ele>294.0</ele><time>2026-04-18T11:17:18.927Z</time></trkpt><trkpt lat="43.80576" lon="11.4588433"><ele>294.0</ele><time>2026-04-18T11:17:19.927Z</time></trkpt><trkpt lat="43.8056817" lon="11.458785"><ele>295.2</ele><time>2026-04-18T11:17:20.927Z</time></trkpt><trkpt lat="43.805605" lon="11.4587333"><ele>296.4</ele><time>2026-04-18T11:17:21.927Z</time></trkpt><trkpt lat="43.8055133" lon="11.4586867"><ele>297.6</ele><time>2026-04-18T11:17:22.927Z</time></trkpt><trkpt lat="43.8054233" lon="11.45866"><ele>298.8</ele><time>2026-04-18T11:17:23.927Z</time></trkpt><trkpt lat="43.805325" lon="11.4586567"><ele>300.0</ele><time>2026-04-18T11:17:24.928Z</time></trkpt><trkpt lat="43.8052267" lon="11.4586617"><ele>297.2</ele><time>2026-04-18T11:17:25.927Z</time></trkpt><trkpt lat="43.80514" lon="11.4586683"><ele>294.4</ele><time>2026-04-18T11:17:26.928Z</time></trkpt><trkpt lat="43.8050633" lon="11.45865"><ele>291.6</ele><time>2026-04-18T11:17:27.927Z</time></trkpt><trkpt lat="43.80498" lon="11.458595"><ele>288.8</ele><time>2026-04-18T11:17:29.927Z</time></trkpt><trkpt lat="43.8049383" lon="11.4585217"><ele>286.0</ele><time>2026-04-18T11:17:31.928Z</time></trkpt><trkpt lat="43.804815" lon="11.4584583"><ele>286.0</ele><time>2026-04-18T11:17:51.927Z</time></trkpt><trkpt lat="43.80478" lon="11.4583567"><ele>286.0</ele><time>2026-04-18T11:17:52.927Z</time></trkpt><trkpt lat="43.8047283" lon="11.4582233"><ele>286.0</ele><time>2026-04-18T11:17:53.927Z</time></trkpt><trkpt lat="43.8046717" lon="11.45809"><ele>286.0</ele><time>2026-04-18T11:17:54.927Z</time></trkpt><trkpt lat="43.8046117" lon="11.4579717"><ele>286.0</ele><time>2026-04-18T11:17:55.928Z</time></trkpt><trkpt lat="43.8045433" lon="11.4578333"><ele>286.5</ele><time>2026-04-18T11:17:56.928Z</time></trkpt><trkpt lat="43.8044683" lon="11.4577"><ele>287.0</ele><time>2026-04-18T11:17:57.927Z</time></trkpt><trkpt lat="43.8043967" lon="11.45756"><ele>287.5</ele><time>2026-04-18T11:17:58.927Z</time></trkpt><trkpt lat="43.804325" lon="11.4574233"><ele>288.0</ele><time>2026-04-18T11:17:59.927Z</time></trkpt><trkpt lat="43.8042517" lon="11.4572767"><ele>287.5</ele><time>2026-04-18T11:18:00.927Z</time></trkpt><trkpt lat="43.8041617" lon="11.45715"><ele>287.0</ele><time>2026-04-18T11:18:01.928Z</time></trkpt><trkpt lat="43.80408" lon="11.4570233"><ele>286.5</ele><time>2026-04-18T11:18:02.927Z</time></trkpt><trkpt lat="43.80398" lon="11.4569033"><ele>286.0</ele><time>2026-04-18T11:18:03.928Z</time></trkpt><trkpt lat="43.8038783" lon="11.4567867"><ele>286.0</ele><time>2026-04-18T11:18:04.928Z</time></trkpt><trkpt lat="43.8037783" lon="11.456665"><ele>286.0</ele><time>2026-04-18T11:18:05.928Z</time></trkpt><trkpt lat="43.80368" lon="11.4565417"><ele>286.0</ele><time>2026-04-18T11:18:06.927Z</time></trkpt><trkpt lat="43.80358" lon="11.4564233"><ele>286.0</ele><time>2026-04-18T11:18:07.928Z</time></trkpt><trkpt lat="43.8034817" lon="11.4562933"><ele>286.25</ele><time>2026-04-18T11:18:08.927Z</time></trkpt><trkpt lat="43.8033883" lon="11.4561683"><ele>286.5</ele><time>2026-04-18T11:18:09.928Z</time></trkpt><trkpt lat="43.80329" lon="11.4560533"><ele>286.75</ele><time>2026-04-18T11:18:10.927Z</time></trkpt><trkpt lat="43.8031833" lon="11.4559517"><ele>287.0</ele><time>2026-04-18T11:18:11.928Z</time></trkpt><trkpt lat="43.8030783" lon="11.4558617"><ele>287.0</ele><time>2026-04-18T11:18:12.927Z</time></trkpt><trkpt lat="43.8029667" lon="11.4557983"><ele>287.0</ele><time>2026-04-18T11:18:13.927Z</time></trkpt><trkpt lat="43.8028583" lon="11.45574"><ele>287.0</ele><time>2026-04-18T11:18:14.927Z</time></trkpt><trkpt lat="43.80275" lon="11.45568"><ele>287.0</ele><time>2026-04-18T11:18:15.927Z</time></trkpt><trkpt lat="43.80265" lon="11.455605"><ele>284.75</ele><time>2026-04-18T11:18:16.927Z</time></trkpt><trkpt lat="43.8025483" lon="11.4555333"><ele>282.5</ele><time>2026-04-18T11:18:17.927Z</time></trkpt><trkpt lat="43.8024533" lon="11.4554533"><ele>280.25</ele><time>2026-04-18T11:18:18.927Z</time></trkpt><trkpt lat="43.8023633" lon="11.45537"><ele>278.0</ele><time>2026-04-18T11:18:19.927Z</time></trkpt><trkpt lat="43.802265" lon="11.4552833"><ele>286.0</ele><time>2026-04-18T11:18:20.928Z</time></trkpt><trkpt lat="43.8021717" lon="11.455185"><ele>294.0</ele><time>2026-04-18T11:18:21.927Z</time></trkpt><trkpt lat="43.8020667" lon="11.4550867"><ele>302.0</ele><time>2026-04-18T11:18:22.927Z</time></trkpt><trkpt lat="43.8019733" lon="11.4549867"><ele>310.0</ele><time>2026-04-18T11:18:23.927Z</time></trkpt><trkpt lat="43.8018833" lon="11.454865"><ele>310.75</ele><time>2026-04-18T11:18:24.927Z</time></trkpt><trkpt lat="43.8017933" lon="11.4547317"><ele>311.5</ele><time>2026-04-18T11:18:25.928Z</time></trkpt><trkpt lat="43.8016983" lon="11.4545983"><ele>312.25</ele><time>2026-04-18T11:18:26.927Z</time></trkpt><trkpt lat="43.8015967" lon="11.4544833"><ele>313.0</ele><time>2026-04-18T11:18:27.928Z</time></trkpt><trkpt lat="43.801505" lon="11.4543633"><ele>313.0</ele><time>2026-04-18T11:18:28.928Z</time></trkpt><trkpt lat="43.801415" lon="11.4542367"><ele>313.0</ele><time>2026-04-18T11:18:29.927Z</time></trkpt><trkpt lat="43.801325" lon="11.4541133"><ele>313.0</ele><time>2026-04-18T11:18:30.927Z</time></trkpt><trkpt lat="43.80124" lon="11.4539817"><ele>313.0</ele><time>2026-04-18T11:18:31.928Z</time></trkpt><trkpt lat="43.80116" lon="11.4538417"><ele>315.0</ele><time>2026-04-18T11:18:32.928Z</time></trkpt><trkpt lat="43.80106" lon="11.4537183"><ele>317.0</ele><time>2026-04-18T11:18:33.928Z</time></trkpt><trkpt lat="43.8009933" lon="11.4536"><ele>319.0</ele><time>2026-04-18T11:18:34.927Z</time></trkpt><trkpt lat="43.800915" lon="11.4534833"><ele>321.0</ele><time>2026-04-18T11:18:35.927Z</time></trkpt><trkpt lat="43.80083" lon="11.45338"><ele>313.5</ele><time>2026-04-18T11:18:36.927Z</time></trkpt><trkpt lat="43.8007433" lon="11.4532933"><ele>306.0</ele><time>2026-04-18T11:18:37.927Z</time></trkpt><trkpt lat="43.80063" lon="11.453245"><ele>298.5</ele><time>2026-04-18T11:18:38.927Z</time></trkpt><trkpt lat="43.8005117" lon="11.453225"><ele>291.0</ele><time>2026-04-18T11:18:39.927Z</time></trkpt><trkpt lat="43.8003883" lon="11.45322"><ele>291.0</ele><time>2026-04-18T11:18:40.927Z</time></trkpt><trkpt lat="43.8002683" lon="11.4532167"><ele>291.0</ele><time>2026-04-18T11:18:41.927Z</time></trkpt><trkpt lat="43.8001417" lon="11.453215"><ele>291.0</ele><time>2026-04-18T11:18:42.927Z</time></trkpt><trkpt lat="43.80003" lon="11.4532083"><ele>291.0</ele><time>2026-04-18T11:18:43.927Z</time></trkpt><trkpt lat="43.7999333" lon="11.4531967"><ele>291.2</ele><time>2026-04-18T11:18:44.928Z</time></trkpt><trkpt lat="43.7998417" lon="11.453175"><ele>291.40000000000003</ele><time>2026-04-18T11:18:45.927Z</time></trkpt><trkpt lat="43.79975" lon="11.4531283"><ele>291.6</ele><time>2026-04-18T11:18:46.927Z</time></trkpt><trkpt lat="43.7996717" lon="11.45307"><ele>291.8</ele><time>2026-04-18T11:18:47.927Z</time></trkpt><trkpt lat="43.7995867" lon="11.4529917"><ele>292.0</ele><time>2026-04-18T11:18:48.927Z</time></trkpt><trkpt lat="43.799515" lon="11.4529217"><ele>292.0</ele><time>2026-04-18T11:18:49.927Z</time></trkpt><trkpt lat="43.7994317" lon="11.452845"><ele>292.0</ele><time>2026-04-18T11:18:50.928Z</time></trkpt><trkpt lat="43.7993383" lon="11.4527533"><ele>292.0</ele><time>2026-04-18T11:18:51.928Z</time></trkpt><trkpt lat="43.799235" lon="11.4526633"><ele>292.0</ele><time>2026-04-18T11:18:52.928Z</time></trkpt><trkpt lat="43.799115" lon="11.4525583"><ele>290.5</ele><time>2026-04-18T11:18:53.927Z</time></trkpt><trkpt lat="43.7989967" lon="11.4524517"><ele>289.0</ele><time>2026-04-18T11:18:54.927Z</time></trkpt><trkpt lat="43.7988783" lon="11.4523533"><ele>287.5</ele><time>2026-04-18T11:18:55.927Z</time></trkpt><trkpt lat="43.798765" lon="11.4522517"><ele>286.0</ele><time>2026-04-18T11:18:56.928Z</time></trkpt><trkpt lat="43.798655" lon="11.45215"><ele>287.75</ele><time>2026-04-18T11:18:57.927Z</time></trkpt><trkpt lat="43.7985433" lon="11.452045"><ele>289.5</ele><time>2026-04-18T11:18:58.928Z</time></trkpt><trkpt lat="43.7984317" lon="11.45195"><ele>291.25</ele><time>2026-04-18T11:18:59.927Z</time></trkpt><trkpt lat="43.7983233" lon="11.45185"><ele>293.0</ele><time>2026-04-18T11:19:00.927Z</time></trkpt><trkpt lat="43.7982267" lon="11.45175"><ele>287.75</ele><time>2026-04-18T11:19:01.928Z</time></trkpt><trkpt lat="43.7981317" lon="11.45166"><ele>282.5</ele><time>2026-04-18T11:19:02.927Z</time></trkpt><trkpt lat="43.7980367" lon="11.4515583"><ele>277.25</ele><time>2026-04-18T11:19:03.927Z</time></trkpt><trkpt lat="43.7979367" lon="11.4514667"><ele>272.0</ele><time>2026-04-18T11:19:04.928Z</time></trkpt><trkpt lat="43.7978467" lon="11.4513733"><ele>272.6</ele><time>2026-04-18T11:19:05.928Z</time></trkpt><trkpt lat="43.7977633" lon="11.4512717"><ele>273.2</ele><time>2026-04-18T11:19:06.928Z</time></trkpt><trkpt lat="43.79768" lon="11.4511683"><ele>273.8</ele><time>2026-04-18T11:19:07.928Z</time></trkpt><trkpt lat="43.7976133" lon="11.45105"><ele>274.4</ele><time>2026-04-18T11:19:08.927Z</time></trkpt><trkpt lat="43.7975717" lon="11.450925"><ele>275.0</ele><time>2026-04-18T11:19:09.927Z</time></trkpt><trkpt lat="43.79755" lon="11.4507817"><ele>271.0</ele><time>2026-04-18T11:19:10.927Z</time></trkpt><trkpt lat="43.7975267" lon="11.45062"><ele>267.0</ele><time>2026-04-18T11:19:11.927Z</time></trkpt><trkpt lat="43.797495" lon="11.4504483"><ele>263.0</ele><time>2026-04-18T11:19:12.928Z</time></trkpt><trkpt lat="43.7974517" lon="11.4502683"><ele>259.0</ele><time>2026-04-18T11:19:13.928Z</time></trkpt><trkpt lat="43.797395" lon="11.450085"><ele>259.0</ele><time>2026-04-18T11:19:14.927Z</time></trkpt><trkpt lat="43.797335" lon="11.4499133"><ele>259.0</ele><time>2026-04-18T11:19:15.927Z</time></trkpt><trkpt lat="43.79728" lon="11.4497633"><ele>259.0</ele><time>2026-04-18T11:19:16.927Z</time></trkpt><trkpt lat="43.79723" lon="11.4496267"><ele>259.0</ele><time>2026-04-18T11:19:17.927Z</time></trkpt><trkpt lat="43.7971783" lon="11.4495033"><ele>258.0</ele><time>2026-04-18T11:19:18.927Z</time></trkpt><trkpt lat="43.7971133" lon="11.4494"><ele>257.0</ele><time>2026-04-18T11:19:19.927Z</time></trkpt><trkpt lat="43.7970383" lon="11.4493417"><ele>256.0</ele><time>2026-04-18T11:19:20.927Z</time></trkpt><trkpt lat="43.796955" lon="11.4493017"><ele>255.0</ele><time>2026-04-18T11:19:21.927Z</time></trkpt><trkpt lat="43.796865" lon="11.4492967"><ele>253.99999999999997</ele><time>2026-04-18T11:19:22.927Z</time></trkpt><trkpt lat="43.7967883" lon="11.4493417"><ele>253.0</ele><time>2026-04-18T11:19:23.927Z</time></trkpt><trkpt lat="43.79673" lon="11.449415"><ele>253.0</ele><time>2026-04-18T11:19:24.927Z</time></trkpt><trkpt lat="43.796715" lon="11.4495117"><ele>253.0</ele><time>2026-04-18T11:19:25.927Z</time></trkpt><trkpt lat="43.79673" lon="11.449655"><ele>253.0</ele><time>2026-04-18T11:19:26.927Z</time></trkpt><trkpt lat="43.7967517" lon="11.4498333"><ele>253.0</ele><time>2026-04-18T11:19:27.927Z</time></trkpt><trkpt lat="43.7967783" lon="11.4500217"><ele>253.0</ele><time>2026-04-18T11:19:28.927Z</time></trkpt><trkpt lat="43.7968017" lon="11.4501883"><ele>251.60000000000002</ele><time>2026-04-18T11:19:29.927Z</time></trkpt><trkpt lat="43.7968267" lon="11.4503617"><ele>250.20000000000002</ele><time>2026-04-18T11:19:30.927Z</time></trkpt><trkpt lat="43.7968183" lon="11.45051"><ele>248.8</ele><time>2026-04-18T11:19:31.928Z</time></trkpt><trkpt lat="43.796785" lon="11.45064"><ele>247.4</ele><time>2026-04-18T11:19:32.927Z</time></trkpt><trkpt lat="43.7967183" lon="11.4507617"><ele>246.0</ele><time>2026-04-18T11:19:33.927Z</time></trkpt><trkpt lat="43.7966267" lon="11.4508667"><ele>245.5</ele><time>2026-04-18T11:19:34.927Z</time></trkpt><trkpt lat="43.7965317" lon="11.450975"><ele>245.0</ele><time>2026-04-18T11:19:35.927Z</time></trkpt><trkpt lat="43.7964383" lon="11.4510783"><ele>244.5</ele><time>2026-04-18T11:19:36.927Z</time></trkpt><trkpt lat="43.7963517" lon="11.45118"><ele>244.0</ele><time>2026-04-18T11:19:37.927Z</time></trkpt><trkpt lat="43.79627" lon="11.4512717"><ele>242.99999999999997</ele><time>2026-04-18T11:19:38.927Z</time></trkpt><trkpt lat="43.7961933" lon="11.4513517"><ele>242.0</ele><time>2026-04-18T11:19:39.928Z</time></trkpt><trkpt lat="43.7961267" lon="11.4514267"><ele>241.0</ele><time>2026-04-18T11:19:40.928Z</time></trkpt><trkpt lat="43.79608" lon="11.4515183"><ele>240.0</ele><time>2026-04-18T11:19:41.928Z</time></trkpt><trkpt lat="43.7960533" lon="11.4516133"><ele>238.99999999999997</ele><time>2026-04-18T11:19:42.927Z</time></trkpt><trkpt lat="43.7960717" lon="11.4517367"><ele>238.0</ele><time>2026-04-18T11:19:43.927Z</time></trkpt><trkpt lat="43.7961317" lon="11.4518617"><ele>238.0</ele><time>2026-04-18T11:19:44.928Z</time></trkpt><trkpt lat="43.7962067" lon="11.4519867"><ele>238.0</ele><time>2026-04-18T11:19:45.928Z</time></trkpt><trkpt lat="43.7962883" lon="11.4521033"><ele>238.0</ele><time>2026-04-18T11:19:46.928Z</time></trkpt><trkpt lat="43.7963567" lon="11.4522167"><ele>238.0</ele><time>2026-04-18T11:19:47.927Z</time></trkpt><trkpt lat="43.7964167" lon="11.4523167"><ele>238.0</ele><time>2026-04-18T11:19:48.927Z</time></trkpt><trkpt lat="43.7964633" lon="11.4524067"><ele>236.83333333333331</ele><time>2026-04-18T11:19:49.927Z</time></trkpt><trkpt lat="43.7964917" lon="11.452485"><ele>235.66666666666666</ele><time>2026-04-18T11:19:50.927Z</time></trkpt><trkpt lat="43.7964733" lon="11.4526217"><ele>234.5</ele><time>2026-04-18T11:19:52.928Z</time></trkpt><trkpt lat="43.7964133" lon="11.4526717"><ele>233.33333333333331</ele><time>2026-04-18T11:19:53.927Z</time></trkpt><trkpt lat="43.7963267" lon="11.4527017"><ele>232.16666666666666</ele><time>2026-04-18T11:19:54.927Z</time></trkpt><trkpt lat="43.7962333" lon="11.45272"><ele>231.0</ele><time>2026-04-18T11:19:55.927Z</time></trkpt><trkpt lat="43.7961333" lon="11.45273"><ele>231.0</ele><time>2026-04-18T11:19:56.928Z</time></trkpt><trkpt lat="43.79604" lon="11.45272"><ele>231.0</ele><time>2026-04-18T11:19:57.928Z</time></trkpt><trkpt lat="43.7959533" lon="11.452715"><ele>231.0</ele><time>2026-04-18T11:19:58.928Z</time></trkpt><trkpt lat="43.79587" lon="11.4526983"><ele>231.0</ele><time>2026-04-18T11:19:59.928Z</time></trkpt><trkpt lat="43.795785" lon="11.45268"><ele>231.0</ele><time>2026-04-18T11:20:00.927Z</time></trkpt><trkpt lat="43.7956983" lon="11.4526517"><ele>231.0</ele><time>2026-04-18T11:20:01.927Z</time></trkpt><trkpt lat="43.7956167" lon="11.4526083"><ele>230.83333333333334</ele><time>2026-04-18T11:20:02.927Z</time></trkpt><trkpt lat="43.795535" lon="11.4525517"><ele>230.66666666666669</ele><time>2026-04-18T11:20:03.927Z</time></trkpt><trkpt lat="43.795465" lon="11.4524817"><ele>230.5</ele><time>2026-04-18T11:20:04.928Z</time></trkpt><trkpt lat="43.7954067" lon="11.4523983"><ele>230.33333333333334</ele><time>2026-04-18T11:20:05.927Z</time></trkpt><trkpt lat="43.795355" lon="11.4523017"><ele>230.16666666666669</ele><time>2026-04-18T11:20:06.927Z</time></trkpt><trkpt lat="43.7953083" lon="11.4521967"><ele>230.0</ele><time>2026-04-18T11:20:07.927Z</time></trkpt><trkpt lat="43.79525" lon="11.4520917"><ele>230.00000000000003</ele><time>2026-04-18T11:20:08.928Z</time></trkpt><trkpt lat="43.7951933" lon="11.4519867"><ele>230.0</ele><time>2026-04-18T11:20:09.928Z</time></trkpt><trkpt lat="43.795145" lon="11.4518817"><ele>230.0</ele><time>2026-04-18T11:20:10.927Z</time></trkpt><trkpt lat="43.7951067" lon="11.4517717"><ele>230.0</ele><time>2026-04-18T11:20:11.927Z</time></trkpt><trkpt lat="43.7950767" lon="11.451665"><ele>230.00000000000003</ele><time>2026-04-18T11:20:12.927Z</time></trkpt><trkpt lat="43.79506" lon="11.4515633"><ele>230.0</ele><time>2026-04-18T11:20:13.928Z</time></trkpt><trkpt lat="43.79504" lon="11.4514733"><ele>227.33333333333334</ele><time>2026-04-18T11:20:14.927Z</time></trkpt><trkpt lat="43.7950083" lon="11.4513967"><ele>224.66666666666669</ele><time>2026-04-18T11:20:15.927Z</time></trkpt><trkpt lat="43.7949067" lon="11.4513133"><ele>222.0</ele><time>2026-04-18T11:20:17.927Z</time></trkpt><trkpt lat="43.7948033" lon="11.451365"><ele>219.33333333333331</ele><time>2026-04-18T11:20:19.928Z</time></trkpt><trkpt lat="43.7947467" lon="11.4514333"><ele>216.66666666666666</ele><time>2026-04-18T11:20:20.927Z</time></trkpt><trkpt lat="43.7946967" lon="11.4515217"><ele>214.0</ele><time>2026-04-18T11:20:21.927Z</time></trkpt><trkpt lat="43.7946467" lon="11.4516"><ele>213.99999999999997</ele><time>2026-04-18T11:20:22.928Z</time></trkpt><trkpt lat="43.7945917" lon="11.4516667"><ele>214.0</ele><time>2026-04-18T11:20:23.927Z</time></trkpt><trkpt lat="43.7944783" lon="11.4517317"><ele>214.0</ele><time>2026-04-18T11:20:25.927Z</time></trkpt><trkpt lat="43.7944083" lon="11.45175"><ele>214.0</ele><time>2026-04-18T11:20:26.927Z</time></trkpt><trkpt lat="43.7943283" lon="11.451755"><ele>213.99999999999997</ele><time>2026-04-18T11:20:27.927Z</time></trkpt><trkpt lat="43.7942333" lon="11.451745"><ele>214.0</ele><time>2026-04-18T11:20:28.927Z</time></trkpt><trkpt lat="43.7941167" lon="11.451725"><ele>211.5</ele><time>2026-04-18T11:20:29.927Z</time></trkpt><trkpt lat="43.7939817" lon="11.4517083"><ele>209.0</ele><time>2026-04-18T11:20:30.928Z</time></trkpt><trkpt lat="43.7938333" lon="11.451685"><ele>206.5</ele><time>2026-04-18T11:20:31.927Z</time></trkpt><trkpt lat="43.7936783" lon="11.451665"><ele>204.0</ele><time>2026-04-18T11:20:32.928Z</time></trkpt><trkpt lat="43.793525" lon="11.4516383"><ele>201.75</ele><time>2026-04-18T11:20:33.927Z</time></trkpt><trkpt lat="43.7933717" lon="11.4516167"><ele>199.5</ele><time>2026-04-18T11:20:34.927Z</time></trkpt><trkpt lat="43.7932233" lon="11.4515983"><ele>197.25</ele><time>2026-04-18T11:20:35.927Z</time></trkpt><trkpt lat="43.79308" lon="11.451585"><ele>195.0</ele><time>2026-04-18T11:20:36.927Z</time></trkpt><trkpt lat="43.79294" lon="11.4515783"><ele>195.0</ele><time>2026-04-18T11:20:37.927Z</time></trkpt><trkpt lat="43.7928033" lon="11.45158"><ele>195.0</ele><time>2026-04-18T11:20:38.928Z</time></trkpt><trkpt lat="43.7926767" lon="11.4515833"><ele>195.0</ele><time>2026-04-18T11:20:39.927Z</time></trkpt><trkpt lat="43.792545" lon="11.4515917"><ele>195.0</ele><time>2026-04-18T11:20:40.927Z</time></trkpt><trkpt lat="43.792425" lon="11.451605"><ele>193.6</ele><time>2026-04-18T11:20:41.927Z</time></trkpt><trkpt lat="43.792305" lon="11.4516033"><ele>192.2</ele><time>2026-04-18T11:20:42.927Z</time></trkpt><trkpt lat="43.7921933" lon="11.4516083"><ele>190.8</ele><time>2026-04-18T11:20:43.927Z</time></trkpt><trkpt lat="43.7920867" lon="11.451615"><ele>189.4</ele><time>2026-04-18T11:20:44.927Z</time></trkpt><trkpt lat="43.791985" lon="11.4516167"><ele>188.0</ele><time>2026-04-18T11:20:45.928Z</time></trkpt><trkpt lat="43.7918833" lon="11.4516183"><ele>186.8</ele><time>2026-04-18T11:20:46.927Z</time></trkpt><trkpt lat="43.7917867" lon="11.4516267"><ele>185.60000000000002</ele><time>2026-04-18T11:20:47.928Z</time></trkpt><trkpt lat="43.7916867" lon="11.4516317"><ele>184.39999999999998</ele><time>2026-04-18T11:20:48.927Z</time></trkpt><trkpt lat="43.79159" lon="11.451625"><ele>183.2</ele><time>2026-04-18T11:20:49.927Z</time></trkpt><trkpt lat="43.7914967" lon="11.45161"><ele>182.0</ele><time>2026-04-18T11:20:50.927Z</time></trkpt><trkpt lat="43.791405" lon="11.451585"><ele>182.0</ele><time>2026-04-18T11:20:51.927Z</time></trkpt><trkpt lat="43.791325" lon="11.4515633"><ele>182.0</ele><time>2026-04-18T11:20:52.928Z</time></trkpt><trkpt lat="43.7912567" lon="11.451555"><ele>182.0</ele><time>2026-04-18T11:20:53.928Z</time></trkpt><trkpt lat="43.7911417" lon="11.45163"><ele>182.0</ele><time>2026-04-18T11:20:55.928Z</time></trkpt><trkpt lat="43.791125" lon="11.4517917"><ele>182.0</ele><time>2026-04-18T11:20:57.927Z</time></trkpt><trkpt lat="43.7911617" lon="11.451905"><ele>182.0</ele><time>2026-04-18T11:20:58.927Z</time></trkpt><trkpt lat="43.7912317" lon="11.4520367"><ele>182.0</ele><time>2026-04-18T11:20:59.927Z</time></trkpt><trkpt lat="43.79133" lon="11.45217"><ele>182.0</ele><time>2026-04-18T11:21:00.927Z</time></trkpt><trkpt lat="43.7914333" lon="11.4523067"><ele>182.0</ele><time>2026-04-18T11:21:01.927Z</time></trkpt><trkpt lat="43.7915317" lon="11.4524317"><ele>179.0</ele><time>2026-04-18T11:21:02.928Z</time></trkpt><trkpt lat="43.7916183" lon="11.4525517"><ele>176.0</ele><time>2026-04-18T11:21:03.927Z</time></trkpt><trkpt lat="43.7916933" lon="11.452665"><ele>173.0</ele><time>2026-04-18T11:21:04.927Z</time></trkpt><trkpt lat="43.7917467" lon="11.4528033"><ele>170.0</ele><time>2026-04-18T11:21:05.927Z</time></trkpt><trkpt lat="43.7917767" lon="11.4529617"><ele>167.75</ele><time>2026-04-18T11:21:06.927Z</time></trkpt><trkpt lat="43.791785" lon="11.45314"><ele>165.5</ele><time>2026-04-18T11:21:07.927Z</time></trkpt><trkpt lat="43.7917767" lon="11.453305"><ele>163.25</ele><time>2026-04-18T11:21:08.927Z</time></trkpt><trkpt lat="43.7917533" lon="11.4534683"><ele>161.0</ele><time>2026-04-18T11:21:09.928Z</time></trkpt><trkpt lat="43.7917117" lon="11.453605"><ele>161.0</ele><time>2026-04-18T11:21:10.927Z</time></trkpt><trkpt lat="43.7916567" lon="11.4537167"><ele>161.0</ele><time>2026-04-18T11:21:11.927Z</time></trkpt><trkpt lat="43.7915767" lon="11.4538"><ele>161.0</ele><time>2026-04-18T11:21:12.927Z</time></trkpt><trkpt lat="43.79146" lon="11.4538583"><ele>161.0</ele><time>2026-04-18T11:21:13.928Z</time></trkpt><trkpt lat="43.7913233" lon="11.4539"><ele>159.25</ele><time>2026-04-18T11:21:14.927Z</time></trkpt><trkpt lat="43.79118" lon="11.4539267"><ele>157.5</ele><time>2026-04-18T11:21:15.928Z</time></trkpt><trkpt lat="43.7910383" lon="11.4539567"><ele>155.75</ele><time>2026-04-18T11:21:16.928Z</time></trkpt><trkpt lat="43.7909" lon="11.4539833"><ele>154.0</ele><time>2026-04-18T11:21:17.927Z</time></trkpt><trkpt lat="43.7907667" lon="11.4539967"><ele>152.75</ele><time>2026-04-18T11:21:18.927Z</time></trkpt><trkpt lat="43.7906317" lon="11.4540033"><ele>151.5</ele><time>2026-04-18T11:21:19.927Z</time></trkpt><trkpt lat="43.7904883" lon="11.45399"><ele>150.25</ele><time>2026-04-18T11:21:20.927Z</time></trkpt><trkpt lat="43.7903467" lon="11.4539667"><ele>149.0</ele><time>2026-04-18T11:21:21.927Z</time></trkpt><trkpt lat="43.7902033" lon="11.4539383"><ele>146.25</ele><time>2026-04-18T11:21:22.927Z</time></trkpt><trkpt lat="43.7900683" lon="11.45391"><ele>143.5</ele><time>2026-04-18T11:21:23.928Z</time></trkpt><trkpt lat="43.78994" lon="11.453885"><ele>140.75</ele><time>2026-04-18T11:21:24.928Z</time></trkpt><trkpt lat="43.78982" lon="11.4538517"><ele>138.0</ele><time>2026-04-18T11:21:25.927Z</time></trkpt><trkpt lat="43.7897117" lon="11.4538183"><ele>139.75</ele><time>2026-04-18T11:21:26.927Z</time></trkpt><trkpt lat="43.7896133" lon="11.4537683"><ele>141.5</ele><time>2026-04-18T11:21:27.927Z</time></trkpt><trkpt lat="43.7895267" lon="11.453685"><ele>143.25</ele><time>2026-04-18T11:21:28.928Z</time></trkpt><trkpt lat="43.789445" lon="11.4535717"><ele>145.0</ele><time>2026-04-18T11:21:29.927Z</time></trkpt><trkpt lat="43.7893617" lon="11.45343"><ele>143.75</ele><time>2026-04-18T11:21:30.928Z</time></trkpt><trkpt lat="43.78927" lon="11.453285"><ele>142.5</ele><time>2026-04-18T11:21:31.927Z</time></trkpt><trkpt lat="43.7891767" lon="11.4531367"><ele>141.25</ele><time>2026-04-18T11:21:32.927Z</time></trkpt><trkpt lat="43.7890817" lon="11.45298"><ele>140.0</ele><time>2026-04-18T11:21:33.928Z</time></trkpt><trkpt lat="43.78899" lon="11.452825"><ele>140.0</ele><time>2026-04-18T11:21:34.928Z</time></trkpt><trkpt lat="43.7888933" lon="11.4526683"><ele>140.0</ele><time>2026-04-18T11:21:35.928Z</time></trkpt><trkpt lat="43.7888033" lon="11.4525317"><ele>140.0</ele><time>2026-04-18T11:21:36.927Z</time></trkpt><trkpt lat="43.7887117" lon="11.452405"><ele>140.0</ele><time>2026-04-18T11:21:37.928Z</time></trkpt><trkpt lat="43.7886317" lon="11.4522833"><ele>140.0</ele><time>2026-04-18T11:21:38.928Z</time></trkpt><trkpt lat="43.7885417" lon="11.4521833"><ele>140.0</ele><time>2026-04-18T11:21:39.927Z</time></trkpt><trkpt lat="43.788455" lon="11.4520867"><ele>140.0</ele><time>2026-04-18T11:21:40.927Z</time></trkpt><trkpt lat="43.788365" lon="11.451985"><ele>140.0</ele><time>2026-04-18T11:21:41.927Z</time></trkpt><trkpt lat="43.788275" lon="11.4518717"><ele>137.25</ele><time>2026-04-18T11:21:42.927Z</time></trkpt><trkpt lat="43.788185" lon="11.4517467"><ele>134.5</ele><time>2026-04-18T11:21:43.928Z</time></trkpt><trkpt lat="43.7881" lon="11.451615"><ele>131.75</ele><time>2026-04-18T11:21:44.927Z</time></trkpt><trkpt lat="43.7880183" lon="11.451485"><ele>129.0</ele><time>2026-04-18T11:21:45.928Z</time></trkpt><trkpt lat="43.7879433" lon="11.451355"><ele>129.8</ele><time>2026-04-18T11:21:46.927Z</time></trkpt><trkpt lat="43.7878767" lon="11.4512317"><ele>130.60000000000002</ele><time>2026-04-18T11:21:47.928Z</time></trkpt><trkpt lat="43.7878133" lon="11.451115"><ele>131.4</ele><time>2026-04-18T11:21:48.927Z</time></trkpt><trkpt lat="43.7877567" lon="11.450995"><ele>132.20000000000002</ele><time>2026-04-18T11:21:49.927Z</time></trkpt><trkpt lat="43.7877" lon="11.450875"><ele>133.0</ele><time>2026-04-18T11:21:50.928Z</time></trkpt><trkpt lat="43.7876483" lon="11.450765"><ele>130.33333333333334</ele><time>2026-04-18T11:21:51.928Z</time></trkpt><trkpt lat="43.7876033" lon="11.450645"><ele>127.66666666666667</ele><time>2026-04-18T11:21:52.927Z</time></trkpt><trkpt lat="43.7875617" lon="11.4505333"><ele>125.0</ele><time>2026-04-18T11:21:53.928Z</time></trkpt><trkpt lat="43.787525" lon="11.4504183"><ele>122.33333333333334</ele><time>2026-04-18T11:21:54.927Z</time></trkpt><trkpt lat="43.7874933" lon="11.4503083"><ele>119.66666666666667</ele><time>2026-04-18T11:21:55.927Z</time></trkpt><trkpt lat="43.7874633" lon="11.450215"><ele>117.0</ele><time>2026-04-18T11:21:56.928Z</time></trkpt><trkpt lat="43.7874017" lon="11.4501217"><ele>117.0</ele><time>2026-04-18T11:21:57.927Z</time></trkpt><trkpt lat="43.7873233" lon="11.45005"><ele>116.99999999999999</ele><time>2026-04-18T11:21:58.927Z</time></trkpt><trkpt lat="43.787225" lon="11.44999"><ele>116.99999999999999</ele><time>2026-04-18T11:21:59.927Z</time></trkpt><trkpt lat="43.7871183" lon="11.4499317"><ele>117.0</ele><time>2026-04-18T11:22:00.927Z</time></trkpt><trkpt lat="43.7870083" lon="11.4498783"><ele>117.0</ele><time>2026-04-18T11:22:01.928Z</time></trkpt><trkpt lat="43.786905" lon="11.44982"><ele>113.8</ele><time>2026-04-18T11:22:02.928Z</time></trkpt><trkpt lat="43.7868083" lon="11.4497683"><ele>110.6</ele><time>2026-04-18T11:22:03.927Z</time></trkpt><trkpt lat="43.7867167" lon="11.449735"><ele>107.39999999999999</ele><time>2026-04-18T11:22:04.927Z</time></trkpt><trkpt lat="43.7866283" lon="11.4497083"><ele>104.19999999999999</ele><time>2026-04-18T11:22:05.927Z</time></trkpt><trkpt lat="43.78653" lon="11.4496867"><ele>101.0</ele><time>2026-04-18T11:22:06.928Z</time></trkpt><trkpt lat="43.78643" lon="11.4496717"><ele>101.0</ele><time>2026-04-18T11:22:07.927Z</time></trkpt><trkpt lat="43.78633" lon="11.4496667"><ele>101.0</ele><time>2026-04-18T11:22:08.927Z</time></trkpt><trkpt lat="43.7862367" lon="11.4496867"><ele>101.0</ele><time>2026-04-18T11:22:09.928Z</time></trkpt><trkpt lat="43.786145" lon="11.449735"><ele>101.0</ele><time>2026-04-18T11:22:10.927Z</time></trkpt><trkpt lat="43.7860533" lon="11.4497967"><ele>101.0</ele><time>2026-04-18T11:22:11.928Z</time></trkpt><trkpt lat="43.78596" lon="11.44986"><ele>99.8</ele><time>2026-04-18T11:22:12.927Z</time></trkpt><trkpt lat="43.7858667" lon="11.44992"><ele>98.6</ele><time>2026-04-18T11:22:13.927Z</time></trkpt><trkpt lat="43.7857667" lon="11.4499717"><ele>97.4</ele><time>2026-04-18T11:22:14.927Z</time></trkpt><trkpt lat="43.7856783" lon="11.4500117"><ele>96.2</ele><time>2026-04-18T11:22:15.927Z</time></trkpt><trkpt lat="43.7856017" lon="11.45004"><ele>95.0</ele><time>2026-04-18T11:22:16.927Z</time></trkpt><trkpt lat="43.7855333" lon="11.4500717"><ele>95.0</ele><time>2026-04-18T11:22:17.927Z</time></trkpt><trkpt lat="43.7854467" lon="11.4501217"><ele>95.0</ele><time>2026-04-18T11:22:19.927Z</time></trkpt><trkpt lat="43.7853817" lon="11.4501183"><ele>95.0</ele><time>2026-04-18T11:22:21.927Z</time></trkpt><trkpt lat="43.785275" lon="11.4499733"><ele>95.0</ele><time>2026-04-18T11:22:23.927Z</time></trkpt><trkpt lat="43.7851983" lon="11.4498433"><ele>95.0</ele><time>2026-04-18T11:22:24.927Z</time></trkpt><trkpt lat="43.7851117" lon="11.4496917"><ele>94.0</ele><time>2026-04-18T11:22:25.927Z</time></trkpt><trkpt lat="43.785015" lon="11.4495517"><ele>93.0</ele><time>2026-04-18T11:22:26.928Z</time></trkpt><trkpt lat="43.7849333" lon="11.449425"><ele>92.0</ele><time>2026-04-18T11:22:27.927Z</time></trkpt><trkpt lat="43.7848517" lon="11.4493217"><ele>91.0</ele><time>2026-04-18T11:22:28.927Z</time></trkpt><trkpt lat="43.784765" lon="11.44924"><ele>91.0</ele><time>2026-04-18T11:22:29.928Z</time></trkpt><trkpt lat="43.78469" lon="11.4491633"><ele>91.0</ele><time>2026-04-18T11:22:30.928Z</time></trkpt><trkpt lat="43.78462" lon="11.4490967"><ele>91.0</ele><time>2026-04-18T11:22:31.927Z</time></trkpt><trkpt lat="43.78456" lon="11.449045"><ele>91.0</ele><time>2026-04-18T11:22:32.928Z</time></trkpt><trkpt lat="43.7845083" lon="11.44899"><ele>91.0</ele><time>2026-04-18T11:22:33.927Z</time></trkpt><trkpt lat="43.7844083" lon="11.4488933"><ele>91.0</ele><time>2026-04-18T11:22:35.927Z</time></trkpt><trkpt lat="43.7843067" lon="11.4488167"><ele>90.8</ele><time>2026-04-18T11:22:37.928Z</time></trkpt><trkpt lat="43.7842167" lon="11.4487383"><ele>90.6</ele><time>2026-04-18T11:22:39.928Z</time></trkpt><trkpt lat="43.784125" lon="11.4486683"><ele>90.4</ele><time>2026-04-18T11:22:41.928Z</time></trkpt><trkpt lat="43.7840483" lon="11.4485833"><ele>90.2</ele><time>2026-04-18T11:22:43.927Z</time></trkpt><trkpt lat="43.7839983" lon="11.4485083"><ele>90.0</ele><time>2026-04-18T11:22:45.927Z</time></trkpt><trkpt lat="43.7839467" lon="11.4484433"><ele>90.0</ele><time>2026-04-18T11:22:49.927Z</time></trkpt><trkpt lat="43.7840433" lon="11.4485117"><ele>90.0</ele><time>2026-04-18T11:23:39.927Z</time></trkpt><trkpt lat="43.784115" lon="11.4486133"><ele>90.0</ele><time>2026-04-18T11:23:40.928Z</time></trkpt><trkpt lat="43.784205" lon="11.4487217"><ele>90.0</ele><time>2026-04-18T11:23:41.927Z</time></trkpt><trkpt lat="43.7843283" lon="11.4488317"><ele>90.33333333333333</ele><time>2026-04-18T11:23:42.928Z</time></trkpt><trkpt lat="43.784455" lon="11.4489533"><ele>90.66666666666666</ele><time>2026-04-18T11:23:43.928Z</time></trkpt><trkpt lat="43.78458" lon="11.4490617"><ele>91.0</ele><time>2026-04-18T11:23:44.927Z</time></trkpt><trkpt lat="43.7847" lon="11.4491883"><ele>91.0</ele><time>2026-04-18T11:23:45.928Z</time></trkpt><trkpt lat="43.7848067" lon="11.4493217"><ele>91.0</ele><time>2026-04-18T11:23:46.928Z</time></trkpt><trkpt lat="43.7849079" lon="11.4494571"><ele>91.0</ele><time>2026-04-18T11:23:47.927Z</time></trkpt><trkpt lat="43.7849982" lon="11.4495881"><ele>91.0</ele><time>2026-04-18T11:23:48.928Z</time></trkpt><trkpt lat="43.785077" lon="11.4497173"><ele>90.25</ele><time>2026-04-18T11:23:49.927Z</time></trkpt><trkpt lat="43.7851553" lon="11.4498433"><ele>89.5</ele><time>2026-04-18T11:23:50.927Z</time></trkpt><trkpt lat="43.7852254" lon="11.4499594"><ele>88.75</ele><time>2026-04-18T11:23:51.928Z</time></trkpt><trkpt lat="43.7853042" lon="11.4500715"><ele>88.0</ele><time>2026-04-18T11:23:52.927Z</time></trkpt><trkpt lat="43.7853934" lon="11.4501823"><ele>88.0</ele><time>2026-04-18T11:23:53.927Z</time></trkpt><trkpt lat="43.7855068" lon="11.4502792"><ele>88.0</ele><time>2026-04-18T11:23:54.927Z</time></trkpt><trkpt lat="43.7856262" lon="11.4503741"><ele>88.0</ele><time>2026-04-18T11:23:55.927Z</time></trkpt><trkpt lat="43.7857571" lon="11.4504749"><ele>88.0</ele><time>2026-04-18T11:23:56.927Z</time></trkpt><trkpt lat="43.7858935" lon="11.4505905"><ele>90.66666666666666</ele><time>2026-04-18T11:23:57.928Z</time></trkpt><trkpt lat="43.7860325" lon="11.4507099"><ele>93.33333333333333</ele><time>2026-04-18T11:23:58.927Z</time></trkpt><trkpt lat="43.7861732" lon="11.4508329"><ele>96.0</ele><time>2026-04-18T11:23:59.927Z</time></trkpt><trkpt lat="43.7863127" lon="11.4509569"><ele>96.0</ele><time>2026-04-18T11:24:00.927Z</time></trkpt><trkpt lat="43.7864479" lon="11.4510889"><ele>96.0</ele><time>2026-04-18T11:24:01.927Z</time></trkpt><trkpt lat="43.786573" lon="11.4512228"><ele>96.0</ele><time>2026-04-18T11:24:02.927Z</time></trkpt><trkpt lat="43.7866837" lon="11.451359"><ele>94.5</ele><time>2026-04-18T11:24:03.927Z</time></trkpt><trkpt lat="43.7867768" lon="11.4515042"><ele>93.0</ele><time>2026-04-18T11:24:04.927Z</time></trkpt><trkpt lat="43.7868533" lon="11.4516611"><ele>91.5</ele><time>2026-04-18T11:24:05.927Z</time></trkpt><trkpt lat="43.7869201" lon="11.4518332"><ele>90.0</ele><time>2026-04-18T11:24:06.927Z</time></trkpt><trkpt lat="43.7869861" lon="11.4520252"><ele>93.0</ele><time>2026-04-18T11:24:07.928Z</time></trkpt><trkpt lat="43.787052" lon="11.4522198"><ele>96.0</ele><time>2026-04-18T11:24:08.927Z</time></trkpt><trkpt lat="43.7871178" lon="11.4524193"><ele>99.0</ele><time>2026-04-18T11:24:09.928Z</time></trkpt><trkpt lat="43.7871881" lon="11.4526199"><ele>99.0</ele><time>2026-04-18T11:24:10.927Z</time></trkpt><trkpt lat="43.787254" lon="11.4528162"><ele>99.0</ele><time>2026-04-18T11:24:11.927Z</time></trkpt><trkpt lat="43.7873129" lon="11.4530127"><ele>99.0</ele><time>2026-04-18T11:24:12.927Z</time></trkpt><trkpt lat="43.7873679" lon="11.4532035"><ele>97.25</ele><time>2026-04-18T11:24:13.927Z</time></trkpt><trkpt lat="43.7874218" lon="11.4533885"><ele>95.5</ele><time>2026-04-18T11:24:14.927Z</time></trkpt><trkpt lat="43.7874781" lon="11.4535744"><ele>93.75</ele><time>2026-04-18T11:24:15.927Z</time></trkpt><trkpt lat="43.7875301" lon="11.4537604"><ele>92.0</ele><time>2026-04-18T11:24:16.927Z</time></trkpt><trkpt lat="43.7875859" lon="11.4539529"><ele>91.66666666666667</ele><time>2026-04-18T11:24:17.928Z</time></trkpt><trkpt lat="43.7876448" lon="11.4541549"><ele>91.33333333333333</ele><time>2026-04-18T11:24:18.927Z</time></trkpt><trkpt lat="43.7877022" lon="11.4543581"><ele>91.0</ele><time>2026-04-18T11:24:19.927Z</time></trkpt><trkpt lat="43.787756" lon="11.4545668"><ele>93.66666666666666</ele><time>2026-04-18T11:24:20.928Z</time></trkpt><trkpt lat="43.787809" lon="11.4547752"><ele>96.33333333333333</ele><time>2026-04-18T11:24:21.927Z</time></trkpt><trkpt lat="43.7878631" lon="11.4549807"><ele>99.0</ele><time>2026-04-18T11:24:22.927Z</time></trkpt><trkpt lat="43.787915" lon="11.4551815"><ele>99.0</ele><time>2026-04-18T11:24:23.927Z</time></trkpt><trkpt lat="43.7879612" lon="11.4553787"><ele>99.0</ele><time>2026-04-18T11:24:24.927Z</time></trkpt><trkpt lat="43.7880094" lon="11.4555735"><ele>99.0</ele><time>2026-04-18T11:24:25.927Z</time></trkpt><trkpt lat="43.7880523" lon="11.4557626"><ele>99.0</ele><time>2026-04-18T11:24:26.927Z</time></trkpt><trkpt lat="43.7880873" lon="11.4559493"><ele>99.0</ele><time>2026-04-18T11:24:27.928Z</time></trkpt><trkpt lat="43.7881184" lon="11.4561306"><ele>99.0</ele><time>2026-04-18T11:24:28.928Z</time></trkpt><trkpt lat="43.7881398" lon="11.4563093"><ele>99.0</ele><time>2026-04-18T11:24:29.928Z</time></trkpt><trkpt lat="43.7881399" lon="11.4564799"><ele>99.0</ele><time>2026-04-18T11:24:30.927Z</time></trkpt><trkpt lat="43.788134" lon="11.4566414"><ele>99.0</ele><time>2026-04-18T11:24:31.928Z</time></trkpt><trkpt lat="43.7881377" lon="11.4567947"><ele>99.0</ele><time>2026-04-18T11:24:32.928Z</time></trkpt><trkpt lat="43.7881565" lon="11.4569367"><ele>99.0</ele><time>2026-04-18T11:24:33.927Z</time></trkpt><trkpt lat="43.7881911" lon="11.4570842"><ele>99.0</ele><time>2026-04-18T11:24:34.927Z</time></trkpt><trkpt lat="43.7882378" lon="11.4572388"><ele>99.0</ele><time>2026-04-18T11:24:35.927Z</time></trkpt><trkpt lat="43.7882932" lon="11.4573982"><ele>98.5</ele><time>2026-04-18T11:24:36.928Z</time></trkpt><trkpt lat="43.7883484" lon="11.4575622"><ele>98.0</ele><time>2026-04-18T11:24:37.927Z</time></trkpt><trkpt lat="43.7884041" lon="11.4577284"><ele>97.5</ele><time>2026-04-18T11:24:38.927Z</time></trkpt><trkpt lat="43.7884625" lon="11.4578936"><ele>97.0</ele><time>2026-04-18T11:24:39.927Z</time></trkpt><trkpt lat="43.7885256" lon="11.458052"><ele>99.0</ele><time>2026-04-18T11:24:40.928Z</time></trkpt><trkpt lat="43.7885848" lon="11.4582027"><ele>101.0</ele><time>2026-04-18T11:24:41.927Z</time></trkpt><trkpt lat="43.7886403" lon="11.4583381"><ele>102.99999999999999</ele><time>2026-04-18T11:24:42.928Z</time></trkpt><trkpt lat="43.7887002" lon="11.4584524"><ele>105.0</ele><time>2026-04-18T11:24:43.928Z</time></trkpt><trkpt lat="43.7887717" lon="11.4585491"><ele>107.0</ele><time>2026-04-18T11:24:44.927Z</time></trkpt><trkpt lat="43.7888523" lon="11.4586194"><ele>107.0</ele><time>2026-04-18T11:24:45.928Z</time></trkpt><trkpt lat="43.7889403" lon="11.4586943"><ele>107.0</ele><time>2026-04-18T11:24:46.928Z</time></trkpt><trkpt lat="43.7890357" lon="11.4587736"><ele>107.0</ele><time>2026-04-18T11:24:47.927Z</time></trkpt><trkpt lat="43.7891492" lon="11.4588305"><ele>107.0</ele><time>2026-04-18T11:24:48.928Z</time></trkpt><trkpt lat="43.7892736" lon="11.4588818"><ele>107.0</ele><time>2026-04-18T11:24:49.927Z</time></trkpt><trkpt lat="43.7893931" lon="11.4589291"><ele>107.0</ele><time>2026-04-18T11:24:50.927Z</time></trkpt><trkpt lat="43.7895094" lon="11.4589823"><ele>107.0</ele><time>2026-04-18T11:24:51.927Z</time></trkpt><trkpt lat="43.7896232" lon="11.4590619"><ele>107.0</ele><time>2026-04-18T11:24:52.928Z</time></trkpt><trkpt lat="43.7897319" lon="11.4591735"><ele>107.0</ele><time>2026-04-18T11:24:53.927Z</time></trkpt><trkpt lat="43.7898275" lon="11.4593078"><ele>107.0</ele><time>2026-04-18T11:24:54.928Z</time></trkpt><trkpt lat="43.7899131" lon="11.4594595"><ele>107.0</ele><time>2026-04-18T11:24:55.927Z</time></trkpt><trkpt lat="43.7899979" lon="11.4596255"><ele>107.0</ele><time>2026-04-18T11:24:56.927Z</time></trkpt><trkpt lat="43.7900795" lon="11.4598006"><ele>106.5</ele><time>2026-04-18T11:24:57.927Z</time></trkpt><trkpt lat="43.7901568" lon="11.4599765"><ele>106.0</ele><time>2026-04-18T11:24:58.928Z</time></trkpt><trkpt lat="43.7902299" lon="11.4601478"><ele>105.5</ele><time>2026-04-18T11:24:59.928Z</time></trkpt><trkpt lat="43.7902983" lon="11.4603217"><ele>105.0</ele><time>2026-04-18T11:25:00.927Z</time></trkpt><trkpt lat="43.7903652" lon="11.4604853"><ele>106.25</ele><time>2026-04-18T11:25:01.927Z</time></trkpt><trkpt lat="43.7904237" lon="11.4606353"><ele>107.5</ele><time>2026-04-18T11:25:02.928Z</time></trkpt><trkpt lat="43.790483" lon="11.460764"><ele>108.75</ele><time>2026-04-18T11:25:03.928Z</time></trkpt><trkpt lat="43.7905533" lon="11.4608779"><ele>110.0</ele><time>2026-04-18T11:25:04.927Z</time></trkpt><trkpt lat="43.7906366" lon="11.4609793"><ele>110.0</ele><time>2026-04-18T11:25:05.927Z</time></trkpt><trkpt lat="43.7907362" lon="11.4610732"><ele>110.0</ele><time>2026-04-18T11:25:06.928Z</time></trkpt><trkpt lat="43.7908373" lon="11.461163"><ele>110.0</ele><time>2026-04-18T11:25:07.928Z</time></trkpt><trkpt lat="43.7909461" lon="11.4612333"><ele>110.0</ele><time>2026-04-18T11:25:08.927Z</time></trkpt><trkpt lat="43.7910526" lon="11.461279"><ele>109.5</ele><time>2026-04-18T11:25:09.927Z</time></trkpt><trkpt lat="43.7911598" lon="11.4612993"><ele>109.0</ele><time>2026-04-18T11:25:10.927Z</time></trkpt><trkpt lat="43.7912711" lon="11.4613026"><ele>108.5</ele><time>2026-04-18T11:25:11.928Z</time></trkpt><trkpt lat="43.7913903" lon="11.4612776"><ele>108.0</ele><time>2026-04-18T11:25:12.928Z</time></trkpt><trkpt lat="43.7915109" lon="11.461245"><ele>110.0</ele><time>2026-04-18T11:25:13.928Z</time></trkpt><trkpt lat="43.7916308" lon="11.4612019"><ele>112.0</ele><time>2026-04-18T11:25:14.928Z</time></trkpt><trkpt lat="43.7917451" lon="11.4611424"><ele>114.0</ele><time>2026-04-18T11:25:15.927Z</time></trkpt><trkpt lat="43.7918558" lon="11.4610661"><ele>116.0</ele><time>2026-04-18T11:25:16.928Z</time></trkpt><trkpt lat="43.7919564" lon="11.4609782"><ele>116.0</ele><time>2026-04-18T11:25:17.927Z</time></trkpt><trkpt lat="43.7920488" lon="11.4609015"><ele>116.0</ele><time>2026-04-18T11:25:18.927Z</time></trkpt><trkpt lat="43.7921437" lon="11.4608412"><ele>116.0</ele><time>2026-04-18T11:25:19.927Z</time></trkpt><trkpt lat="43.7922472" lon="11.4608092"><ele>116.0</ele><time>2026-04-18T11:25:20.927Z</time></trkpt><trkpt lat="43.7923642" lon="11.4608064"><ele>116.0</ele><time>2026-04-18T11:25:21.927Z</time></trkpt><trkpt lat="43.7924797" lon="11.4608118"><ele>116.0</ele><time>2026-04-18T11:25:22.927Z</time></trkpt><trkpt lat="43.7925824" lon="11.4608117"><ele>116.0</ele><time>2026-04-18T11:25:23.927Z</time></trkpt><trkpt lat="43.7926707" lon="11.4607962"><ele>116.0</ele><time>2026-04-18T11:25:24.928Z</time></trkpt><trkpt lat="43.792752" lon="11.4607601"><ele>116.0</ele><time>2026-04-18T11:25:25.927Z</time></trkpt><trkpt lat="43.7928313" lon="11.4606886"><ele>116.0</ele><time>2026-04-18T11:25:26.927Z</time></trkpt><trkpt lat="43.7929176" lon="11.4605933"><ele>116.75</ele><time>2026-04-18T11:25:27.927Z</time></trkpt><trkpt lat="43.7930139" lon="11.4604899"><ele>117.5</ele><time>2026-04-18T11:25:28.927Z</time></trkpt><trkpt lat="43.7931213" lon="11.4603973"><ele>118.25</ele><time>2026-04-18T11:25:29.927Z</time></trkpt><trkpt lat="43.7932398" lon="11.4603214"><ele>119.0</ele><time>2026-04-18T11:25:30.927Z</time></trkpt><trkpt lat="43.7933618" lon="11.4602303"><ele>119.0</ele><time>2026-04-18T11:25:31.927Z</time></trkpt><trkpt lat="43.793478" lon="11.4601546"><ele>119.0</ele><time>2026-04-18T11:25:32.927Z</time></trkpt><trkpt lat="43.7935938" lon="11.4601006"><ele>119.0</ele><time>2026-04-18T11:25:33.928Z</time></trkpt><trkpt lat="43.7937174" lon="11.4600603"><ele>119.0</ele><time>2026-04-18T11:25:34.927Z</time></trkpt><trkpt lat="43.7938354" lon="11.4600214"><ele>116.25</ele><time>2026-04-18T11:25:35.928Z</time></trkpt><trkpt lat="43.7939352" lon="11.4599854"><ele>113.5</ele><time>2026-04-18T11:25:36.927Z</time></trkpt><trkpt lat="43.7940385" lon="11.4599494"><ele>110.75</ele><time>2026-04-18T11:25:37.928Z</time></trkpt><trkpt lat="43.7941557" lon="11.4599086"><ele>108.0</ele><time>2026-04-18T11:25:38.927Z</time></trkpt><trkpt lat="43.7942712" lon="11.4598624"><ele>106.0</ele><time>2026-04-18T11:25:39.927Z</time></trkpt><trkpt lat="43.7943947" lon="11.4598101"><ele>104.0</ele><time>2026-04-18T11:25:40.927Z</time></trkpt><trkpt lat="43.7945249" lon="11.4597574"><ele>102.0</ele><time>2026-04-18T11:25:41.927Z</time></trkpt><trkpt lat="43.7946552" lon="11.4597022"><ele>100.0</ele><time>2026-04-18T11:25:42.927Z</time></trkpt><trkpt lat="43.7947751" lon="11.4596515"><ele>102.5</ele><time>2026-04-18T11:25:43.927Z</time></trkpt><trkpt lat="43.7948868" lon="11.4596106"><ele>105.0</ele><time>2026-04-18T11:25:44.927Z</time></trkpt><trkpt lat="43.7950044" lon="11.4595791"><ele>107.5</ele><time>2026-04-18T11:25:45.927Z</time></trkpt><trkpt lat="43.7951329" lon="11.4595457"><ele>110.0</ele><time>2026-04-18T11:25:46.928Z</time></trkpt><trkpt lat="43.7952672" lon="11.4595093"><ele>113.0</ele><time>2026-04-18T11:25:47.927Z</time></trkpt><trkpt lat="43.7953989" lon="11.4594639"><ele>116.0</ele><time>2026-04-18T11:25:48.927Z</time></trkpt><trkpt lat="43.7955241" lon="11.4594213"><ele>119.0</ele><time>2026-04-18T11:25:49.927Z</time></trkpt><trkpt lat="43.7956269" lon="11.4593811"><ele>122.0</ele><time>2026-04-18T11:25:50.928Z</time></trkpt><trkpt lat="43.7957312" lon="11.459347"><ele>122.0</ele><time>2026-04-18T11:25:51.927Z</time></trkpt><trkpt lat="43.7958431" lon="11.4593345"><ele>122.0</ele><time>2026-04-18T11:25:52.927Z</time></trkpt><trkpt lat="43.7959664" lon="11.4593385"><ele>122.0</ele><time>2026-04-18T11:25:53.928Z</time></trkpt><trkpt lat="43.7960961" lon="11.4593608"><ele>122.0</ele><time>2026-04-18T11:25:54.927Z</time></trkpt><trkpt lat="43.7962388" lon="11.4594054"><ele>126.0</ele><time>2026-04-18T11:25:55.928Z</time></trkpt><trkpt lat="43.7963846" lon="11.4594554"><ele>130.0</ele><time>2026-04-18T11:25:56.928Z</time></trkpt><trkpt lat="43.7965189" lon="11.4595073"><ele>134.0</ele><time>2026-04-18T11:25:57.927Z</time></trkpt><trkpt lat="43.7966492" lon="11.4595532"><ele>138.0</ele><time>2026-04-18T11:25:58.927Z</time></trkpt><trkpt lat="43.7967725" lon="11.4596006"><ele>133.25</ele><time>2026-04-18T11:25:59.927Z</time></trkpt><trkpt lat="43.7968984" lon="11.4596631"><ele>128.5</ele><time>2026-04-18T11:26:00.927Z</time></trkpt><trkpt lat="43.7970295" lon="11.4597471"><ele>123.75</ele><time>2026-04-18T11:26:01.927Z</time></trkpt><trkpt lat="43.7971696" lon="11.4598402"><ele>119.0</ele><time>2026-04-18T11:26:02.927Z</time></trkpt><trkpt lat="43.7973111" lon="11.4599337"><ele>119.0</ele><time>2026-04-18T11:26:03.927Z</time></trkpt><trkpt lat="43.797449" lon="11.4600203"><ele>119.0</ele><time>2026-04-18T11:26:04.927Z</time></trkpt><trkpt lat="43.7975785" lon="11.4601008"><ele>119.0</ele><time>2026-04-18T11:26:05.927Z</time></trkpt><trkpt lat="43.7977024" lon="11.4601839"><ele>119.0</ele><time>2026-04-18T11:26:06.927Z</time></trkpt><trkpt lat="43.7978204" lon="11.4602576"><ele>115.5</ele><time>2026-04-18T11:26:07.927Z</time></trkpt><trkpt lat="43.7979239" lon="11.4603314"><ele>112.0</ele><time>2026-04-18T11:26:08.928Z</time></trkpt><trkpt lat="43.7980306" lon="11.4603935"><ele>108.5</ele><time>2026-04-18T11:26:09.927Z</time></trkpt><trkpt lat="43.7981477" lon="11.4604306"><ele>105.0</ele><time>2026-04-18T11:26:10.927Z</time></trkpt><trkpt lat="43.7982729" lon="11.4604529"><ele>105.0</ele><time>2026-04-18T11:26:11.927Z</time></trkpt><trkpt lat="43.7983985" lon="11.4604731"><ele>105.0</ele><time>2026-04-18T11:26:12.927Z</time></trkpt><trkpt lat="43.7985165" lon="11.4605043"><ele>105.0</ele><time>2026-04-18T11:26:13.927Z</time></trkpt><trkpt lat="43.7986286" lon="11.4605516"><ele>105.0</ele><time>2026-04-18T11:26:14.927Z</time></trkpt><trkpt lat="43.7987397" lon="11.4606001"><ele>108.33333333333333</ele><time>2026-04-18T11:26:15.928Z</time></trkpt><trkpt lat="43.7988483" lon="11.4606408"><ele>111.66666666666666</ele><time>2026-04-18T11:26:16.927Z</time></trkpt><trkpt lat="43.798937" lon="11.4606779"><ele>115.0</ele><time>2026-04-18T11:26:17.927Z</time></trkpt><trkpt lat="43.799012" lon="11.4607098"><ele>118.33333333333333</ele><time>2026-04-18T11:26:18.927Z</time></trkpt><trkpt lat="43.7990774" lon="11.4607459"><ele>121.66666666666666</ele><time>2026-04-18T11:26:19.927Z</time></trkpt><trkpt lat="43.7991343" lon="11.4608023"><ele>125.0</ele><time>2026-04-18T11:26:20.927Z</time></trkpt><trkpt lat="43.799189" lon="11.4608732"><ele>124.99999999999999</ele><time>2026-04-18T11:26:21.926Z</time></trkpt><trkpt lat="43.7992344" lon="11.4609408"><ele>125.0</ele><time>2026-04-18T11:26:22.927Z</time></trkpt><trkpt lat="43.7992927" lon="11.4610387"><ele>125.0</ele><time>2026-04-18T11:26:24.926Z</time></trkpt><trkpt lat="43.7993445" lon="11.4611284"><ele>125.0</ele><time>2026-04-18T11:26:26.926Z</time></trkpt><trkpt lat="43.7993876" lon="11.4611932"><ele>124.99999999999999</ele><time>2026-04-18T11:26:27.927Z</time></trkpt><trkpt lat="43.7994426" lon="11.4612588"><ele>125.0</ele><time>2026-04-18T11:26:28.927Z</time></trkpt><trkpt lat="43.7994998" lon="11.4613262"><ele>123.6</ele><time>2026-04-18T11:26:29.927Z</time></trkpt><trkpt lat="43.7995571" lon="11.4613858"><ele>122.2</ele><time>2026-04-18T11:26:30.926Z</time></trkpt><trkpt lat="43.799614" lon="11.461434"><ele>120.80000000000001</ele><time>2026-04-18T11:26:31.926Z</time></trkpt><trkpt lat="43.799713" lon="11.4615283"><ele>119.4</ele><time>2026-04-18T11:26:33.926Z</time></trkpt><trkpt lat="43.7997969" lon="11.4616371"><ele>118.0</ele><time>2026-04-18T11:26:35.926Z</time></trkpt><trkpt lat="43.79987" lon="11.461755"><ele>118.00000000000001</ele><time>2026-04-18T11:26:37.927Z</time></trkpt><trkpt lat="43.7999117" lon="11.461835"><ele>118.0</ele><time>2026-04-18T11:26:38.927Z</time></trkpt><trkpt lat="43.7999583" lon="11.4619217"><ele>118.0</ele><time>2026-04-18T11:26:39.926Z</time></trkpt><trkpt lat="43.8000067" lon="11.4620067"><ele>118.0</ele><time>2026-04-18T11:26:40.926Z</time></trkpt><trkpt lat="43.8000533" lon="11.4620967"><ele>118.00000000000001</ele><time>2026-04-18T11:26:41.927Z</time></trkpt><trkpt lat="43.8000883" lon="11.4621967"><ele>118.0</ele><time>2026-04-18T11:26:42.926Z</time></trkpt><trkpt lat="43.8001067" lon="11.4623133"><ele>116.25</ele><time>2026-04-18T11:26:43.926Z</time></trkpt><trkpt lat="43.80011" lon="11.4624633"><ele>114.5</ele><time>2026-04-18T11:26:44.926Z</time></trkpt><trkpt lat="43.8001217" lon="11.4626217"><ele>112.75</ele><time>2026-04-18T11:26:45.926Z</time></trkpt><trkpt lat="43.8001517" lon="11.4627917"><ele>111.0</ele><time>2026-04-18T11:26:46.926Z</time></trkpt><trkpt lat="43.800195" lon="11.4629717"><ele>111.0</ele><time>2026-04-18T11:26:47.927Z</time></trkpt><trkpt lat="43.8002433" lon="11.4631467"><ele>111.0</ele><time>2026-04-18T11:26:48.926Z</time></trkpt><trkpt lat="43.8002933" lon="11.4633283"><ele>111.0</ele><time>2026-04-18T11:26:49.927Z</time></trkpt><trkpt lat="43.800345" lon="11.4635017"><ele>111.0</ele><time>2026-04-18T11:26:50.926Z</time></trkpt><trkpt lat="43.800395" lon="11.46367"><ele>108.75</ele><time>2026-04-18T11:26:51.927Z</time></trkpt><trkpt lat="43.8004517" lon="11.4638383"><ele>106.5</ele><time>2026-04-18T11:26:52.926Z</time></trkpt><trkpt lat="43.8005133" lon="11.4640067"><ele>104.25</ele><time>2026-04-18T11:26:53.926Z</time></trkpt><trkpt lat="43.8005767" lon="11.4641783"><ele>102.0</ele><time>2026-04-18T11:26:54.927Z</time></trkpt><trkpt lat="43.80064" lon="11.4643567"><ele>102.0</ele><time>2026-04-18T11:26:55.927Z</time></trkpt><trkpt lat="43.800705" lon="11.4645333"><ele>102.0</ele><time>2026-04-18T11:26:56.926Z</time></trkpt><trkpt lat="43.800775" lon="11.4647083"><ele>102.0</ele><time>2026-04-18T11:26:57.926Z</time></trkpt><trkpt lat="43.8008433" lon="11.4648983"><ele>102.0</ele><time>2026-04-18T11:26:58.927Z</time></trkpt><trkpt lat="43.8009117" lon="11.4650783"><ele>101.66666666666666</ele><time>2026-04-18T11:26:59.927Z</time></trkpt><trkpt lat="43.8009817" lon="11.46526"><ele>101.33333333333333</ele><time>2026-04-18T11:27:00.926Z</time></trkpt><trkpt lat="43.8010633" lon="11.46544"><ele>101.0</ele><time>2026-04-18T11:27:01.926Z</time></trkpt><trkpt lat="43.8011467" lon="11.4656183"><ele>101.0</ele><time>2026-04-18T11:27:02.926Z</time></trkpt><trkpt lat="43.8012283" lon="11.4657917"><ele>101.0</ele><time>2026-04-18T11:27:03.926Z</time></trkpt><trkpt lat="43.8013033" lon="11.4659617"><ele>101.0</ele><time>2026-04-18T11:27:04.926Z</time></trkpt><trkpt lat="43.80137" lon="11.466125"><ele>101.0</ele><time>2026-04-18T11:27:05.927Z</time></trkpt><trkpt lat="43.80143" lon="11.4662833"><ele>100.5</ele><time>2026-04-18T11:27:06.927Z</time></trkpt><trkpt lat="43.8014867" lon="11.4664383"><ele>100.0</ele><time>2026-04-18T11:27:07.927Z</time></trkpt><trkpt lat="43.801535" lon="11.46659"><ele>99.5</ele><time>2026-04-18T11:27:08.927Z</time></trkpt><trkpt lat="43.8015867" lon="11.4667433"><ele>99.0</ele><time>2026-04-18T11:27:09.927Z</time></trkpt><trkpt lat="43.8016383" lon="11.4668983"><ele>99.0</ele><time>2026-04-18T11:27:10.926Z</time></trkpt><trkpt lat="43.8016867" lon="11.4670533"><ele>99.0</ele><time>2026-04-18T11:27:11.926Z</time></trkpt><trkpt lat="43.80175" lon="11.4672033"><ele>99.0</ele><time>2026-04-18T11:27:12.926Z</time></trkpt><trkpt lat="43.8018217" lon="11.4673467"><ele>99.0</ele><time>2026-04-18T11:27:13.927Z</time></trkpt><trkpt lat="43.8019017" lon="11.4674867"><ele>99.25</ele><time>2026-04-18T11:27:14.927Z</time></trkpt><trkpt lat="43.8019933" lon="11.467615"><ele>99.5</ele><time>2026-04-18T11:27:15.926Z</time></trkpt><trkpt lat="43.8020917" lon="11.4677317"><ele>99.75</ele><time>2026-04-18T11:27:16.926Z</time></trkpt><trkpt lat="43.8021917" lon="11.4678367"><ele>100.0</ele><time>2026-04-18T11:27:17.927Z</time></trkpt><trkpt lat="43.802305" lon="11.467935"><ele>100.0</ele><time>2026-04-18T11:27:18.926Z</time></trkpt><trkpt lat="43.802415" lon="11.4680333"><ele>100.0</ele><time>2026-04-18T11:27:19.927Z</time></trkpt><trkpt lat="43.8025283" lon="11.4681317"><ele>100.0</ele><time>2026-04-18T11:27:20.926Z</time></trkpt><trkpt lat="43.80264" lon="11.4682283"><ele>100.0</ele><time>2026-04-18T11:27:21.927Z</time></trkpt><trkpt lat="43.8027517" lon="11.46832"><ele>100.25</ele><time>2026-04-18T11:27:22.926Z</time></trkpt><trkpt lat="43.8028717" lon="11.4683967"><ele>100.5</ele><time>2026-04-18T11:27:23.927Z</time></trkpt><trkpt lat="43.8029967" lon="11.4684633"><ele>100.75</ele><time>2026-04-18T11:27:24.926Z</time></trkpt><trkpt lat="43.8031183" lon="11.4685233"><ele>101.0</ele><time>2026-04-18T11:27:25.927Z</time></trkpt><trkpt lat="43.803245" lon="11.4685733"><ele>101.0</ele><time>2026-04-18T11:27:26.926Z</time></trkpt><trkpt lat="43.803375" lon="11.46863"><ele>101.0</ele><time>2026-04-18T11:27:27.926Z</time></trkpt><trkpt lat="43.8035033" lon="11.4686767"><ele>101.0</ele><time>2026-04-18T11:27:28.926Z</time></trkpt><trkpt lat="43.80363" lon="11.4687117"><ele>101.0</ele><time>2026-04-18T11:27:29.926Z</time></trkpt><trkpt lat="43.80376" lon="11.4687383"><ele>100.5</ele><time>2026-04-18T11:27:30.926Z</time></trkpt><trkpt lat="43.803905" lon="11.4687633"><ele>100.0</ele><time>2026-04-18T11:27:31.926Z</time></trkpt><trkpt lat="43.8040517" lon="11.4687883"><ele>99.5</ele><time>2026-04-18T11:27:32.926Z</time></trkpt><trkpt lat="43.8041967" lon="11.4688117"><ele>99.0</ele><time>2026-04-18T11:27:33.926Z</time></trkpt><trkpt lat="43.8043383" lon="11.46883"><ele>99.0</ele><time>2026-04-18T11:27:34.927Z</time></trkpt><trkpt lat="43.8044783" lon="11.4688367"><ele>99.0</ele><time>2026-04-18T11:27:35.926Z</time></trkpt><trkpt lat="43.8046133" lon="11.4688517"><ele>99.0</ele><time>2026-04-18T11:27:36.927Z</time></trkpt><trkpt lat="43.8047567" lon="11.46888"><ele>99.0</ele><time>2026-04-18T11:27:37.926Z</time></trkpt><trkpt lat="43.80489" lon="11.468905"><ele>99.0</ele><time>2026-04-18T11:27:38.927Z</time></trkpt><trkpt lat="43.8050283" lon="11.4689333"><ele>99.0</ele><time>2026-04-18T11:27:39.926Z</time></trkpt><trkpt lat="43.805165" lon="11.468965"><ele>99.0</ele><time>2026-04-18T11:27:40.927Z</time></trkpt><trkpt lat="43.8053067" lon="11.4689967"><ele>99.0</ele><time>2026-04-18T11:27:41.926Z</time></trkpt><trkpt lat="43.8054567" lon="11.4690217"><ele>100.25</ele><time>2026-04-18T11:27:42.926Z</time></trkpt><trkpt lat="43.805605" lon="11.4690467"><ele>101.5</ele><time>2026-04-18T11:27:43.926Z</time></trkpt><trkpt lat="43.8057517" lon="11.469085"><ele>102.75</ele><time>2026-04-18T11:27:44.927Z</time></trkpt><trkpt lat="43.8058967" lon="11.4691267"><ele>104.0</ele><time>2026-04-18T11:27:45.926Z</time></trkpt><trkpt lat="43.8060317" lon="11.46917"><ele>105.0</ele><time>2026-04-18T11:27:46.926Z</time></trkpt><trkpt lat="43.8061583" lon="11.4692167"><ele>106.0</ele><time>2026-04-18T11:27:47.926Z</time></trkpt><trkpt lat="43.806275" lon="11.4692633"><ele>107.0</ele><time>2026-04-18T11:27:48.927Z</time></trkpt><trkpt lat="43.80639" lon="11.469305"><ele>108.0</ele><time>2026-04-18T11:27:49.927Z</time></trkpt><trkpt lat="43.8065017" lon="11.46936"><ele>108.0</ele><time>2026-04-18T11:27:50.926Z</time></trkpt><trkpt lat="43.8066083" lon="11.4693967"><ele>108.00000000000001</ele><time>2026-04-18T11:27:51.926Z</time></trkpt><trkpt lat="43.8067133" lon="11.46944"><ele>108.00000000000001</ele><time>2026-04-18T11:27:52.926Z</time></trkpt><trkpt lat="43.8068217" lon="11.46949"><ele>108.0</ele><time>2026-04-18T11:27:53.927Z</time></trkpt><trkpt lat="43.80693" lon="11.46954"><ele>108.0</ele><time>2026-04-18T11:27:54.926Z</time></trkpt><trkpt lat="43.8070467" lon="11.4695867"><ele>107.0</ele><time>2026-04-18T11:27:55.926Z</time></trkpt><trkpt lat="43.807165" lon="11.4696317"><ele>106.0</ele><time>2026-04-18T11:27:56.926Z</time></trkpt><trkpt lat="43.8072767" lon="11.4696817"><ele>105.0</ele><time>2026-04-18T11:27:57.926Z</time></trkpt><trkpt lat="43.8073833" lon="11.4697267"><ele>104.0</ele><time>2026-04-18T11:27:58.926Z</time></trkpt><trkpt lat="43.80749" lon="11.4697733"><ele>104.0</ele><time>2026-04-18T11:27:59.926Z</time></trkpt><trkpt lat="43.80759" lon="11.46982"><ele>104.0</ele><time>2026-04-18T11:28:00.927Z</time></trkpt><trkpt lat="43.8076833" lon="11.4698667"><ele>104.0</ele><time>2026-04-18T11:28:01.927Z</time></trkpt><trkpt lat="43.80776" lon="11.4699233"><ele>104.0</ele><time>2026-04-18T11:28:02.926Z</time></trkpt><trkpt lat="43.80783" lon="11.4699933"><ele>104.0</ele><time>2026-04-18T11:28:03.926Z</time></trkpt><trkpt lat="43.807895" lon="11.4700533"><ele>104.49999999999999</ele><time>2026-04-18T11:28:04.927Z</time></trkpt><trkpt lat="43.807955" lon="11.4701133"><ele>105.0</ele><time>2026-04-18T11:28:05.926Z</time></trkpt><trkpt lat="43.80801" lon="11.4701717"><ele>105.5</ele><time>2026-04-18T11:28:06.926Z</time></trkpt><trkpt lat="43.8081033" lon="11.4702567"><ele>106.0</ele><time>2026-04-18T11:28:08.927Z</time></trkpt><trkpt lat="43.8082117" lon="11.4702367"><ele>106.49999999999999</ele><time>2026-04-18T11:28:10.927Z</time></trkpt><trkpt lat="43.8082817" lon="11.470195"><ele>107.0</ele><time>2026-04-18T11:28:11.926Z</time></trkpt><trkpt lat="43.8083617" lon="11.47015"><ele>106.99999999999999</ele><time>2026-04-18T11:28:12.926Z</time></trkpt><trkpt lat="43.8084333" lon="11.4701"><ele>107.0</ele><time>2026-04-18T11:28:13.926Z</time></trkpt><trkpt lat="43.8085033" lon="11.4700267"><ele>107.0</ele><time>2026-04-18T11:28:14.926Z</time></trkpt><trkpt lat="43.8085667" lon="11.4699433"><ele>107.0</ele><time>2026-04-18T11:28:15.926Z</time></trkpt><trkpt lat="43.8086417" lon="11.46987"><ele>106.99999999999999</ele><time>2026-04-18T11:28:16.927Z</time></trkpt><trkpt lat="43.80873" lon="11.46981"><ele>107.0</ele><time>2026-04-18T11:28:17.927Z</time></trkpt><trkpt lat="43.8088317" lon="11.46981"><ele>108.5</ele><time>2026-04-18T11:28:18.927Z</time></trkpt><trkpt lat="43.8089433" lon="11.4698267"><ele>110.0</ele><time>2026-04-18T11:28:19.926Z</time></trkpt><trkpt lat="43.8090667" lon="11.4698483"><ele>111.5</ele><time>2026-04-18T11:28:20.926Z</time></trkpt><trkpt lat="43.809195" lon="11.46988"><ele>113.0</ele><time>2026-04-18T11:28:21.927Z</time></trkpt><trkpt lat="43.8093117" lon="11.4699083"><ele>115.80000000000001</ele><time>2026-04-18T11:28:22.926Z</time></trkpt><trkpt lat="43.8094217" lon="11.4699383"><ele>118.60000000000001</ele><time>2026-04-18T11:28:23.926Z</time></trkpt><trkpt lat="43.8095133" lon="11.4699817"><ele>121.39999999999999</ele><time>2026-04-18T11:28:24.926Z</time></trkpt><trkpt lat="43.8096133" lon="11.470025"><ele>124.19999999999999</ele><time>2026-04-18T11:28:25.927Z</time></trkpt><trkpt lat="43.8097133" lon="11.4700683"><ele>127.0</ele><time>2026-04-18T11:28:26.926Z</time></trkpt><trkpt lat="43.80981" lon="11.47011"><ele>127.0</ele><time>2026-04-18T11:28:27.926Z</time></trkpt><trkpt lat="43.8099017" lon="11.4701617"><ele>126.99999999999999</ele><time>2026-04-18T11:28:28.926Z</time></trkpt><trkpt lat="43.8099917" lon="11.4702067"><ele>126.99999999999999</ele><time>2026-04-18T11:28:29.926Z</time></trkpt><trkpt lat="43.8100833" lon="11.470255"><ele>127.0</ele><time>2026-04-18T11:28:30.926Z</time></trkpt><trkpt lat="43.810185" lon="11.470305"><ele>127.0</ele><time>2026-04-18T11:28:31.927Z</time></trkpt><trkpt lat="43.8102967" lon="11.47035"><ele>127.0</ele><time>2026-04-18T11:28:32.926Z</time></trkpt><trkpt lat="43.8104017" lon="11.47041"><ele>126.99999999999999</ele><time>2026-04-18T11:28:33.927Z</time></trkpt><trkpt lat="43.8104967" lon="11.4704633"><ele>126.99999999999999</ele><time>2026-04-18T11:28:34.927Z</time></trkpt><trkpt lat="43.8105817" lon="11.4705233"><ele>127.0</ele><time>2026-04-18T11:28:35.926Z</time></trkpt><trkpt lat="43.8106667" lon="11.4705933"><ele>127.0</ele><time>2026-04-18T11:28:36.926Z</time></trkpt><trkpt lat="43.81076" lon="11.4706517"><ele>127.0</ele><time>2026-04-18T11:28:37.926Z</time></trkpt><trkpt lat="43.8108467" lon="11.4707117"><ele>126.99999999999999</ele><time>2026-04-18T11:28:38.927Z</time></trkpt><trkpt lat="43.8109283" lon="11.470785"><ele>126.99999999999999</ele><time>2026-04-18T11:28:39.927Z</time></trkpt><trkpt lat="43.8110117" lon="11.47087"><ele>127.0</ele><time>2026-04-18T11:28:40.926Z</time></trkpt><trkpt lat="43.8110917" lon="11.47097"><ele>127.0</ele><time>2026-04-18T11:28:41.926Z</time></trkpt><trkpt lat="43.8111617" lon="11.4710817"><ele>127.50000000000001</ele><time>2026-04-18T11:28:42.926Z</time></trkpt><trkpt lat="43.811225" lon="11.4711917"><ele>128.0</ele><time>2026-04-18T11:28:43.926Z</time></trkpt><trkpt lat="43.81128" lon="11.4712867"><ele>128.5</ele><time>2026-04-18T11:28:44.926Z</time></trkpt><trkpt lat="43.8113417" lon="11.471355"><ele>129.0</ele><time>2026-04-18T11:28:45.926Z</time></trkpt><trkpt lat="43.8114167" lon="11.471405"><ele>129.5</ele><time>2026-04-18T11:28:46.927Z</time></trkpt><trkpt lat="43.8115" lon="11.471465"><ele>130.0</ele><time>2026-04-18T11:28:47.926Z</time></trkpt><trkpt lat="43.81159" lon="11.4715083"><ele>130.0</ele><time>2026-04-18T11:28:48.927Z</time></trkpt><trkpt lat="43.8116833" lon="11.471565"><ele>130.0</ele><time>2026-04-18T11:28:49.926Z</time></trkpt><trkpt lat="43.8117633" lon="11.4716317"><ele>130.0</ele><time>2026-04-18T11:28:50.927Z</time></trkpt><trkpt lat="43.8118417" lon="11.4717083"><ele>130.0</ele><time>2026-04-18T11:28:51.926Z</time></trkpt><trkpt lat="43.8119267" lon="11.4717983"><ele>130.0</ele><time>2026-04-18T11:28:52.927Z</time></trkpt><trkpt lat="43.8120117" lon="11.4718917"><ele>128.4</ele><time>2026-04-18T11:28:53.926Z</time></trkpt><trkpt lat="43.8121067" lon="11.47198"><ele>126.8</ele><time>2026-04-18T11:28:54.926Z</time></trkpt><trkpt lat="43.81219" lon="11.47206"><ele>125.19999999999999</ele><time>2026-04-18T11:28:55.926Z</time></trkpt><trkpt lat="43.81227" lon="11.47212"><ele>123.6</ele><time>2026-04-18T11:28:56.927Z</time></trkpt><trkpt lat="43.8123517" lon="11.4721633"><ele>122.0</ele><time>2026-04-18T11:28:57.926Z</time></trkpt><trkpt lat="43.8124383" lon="11.47218"><ele>122.0</ele><time>2026-04-18T11:28:58.926Z</time></trkpt><trkpt lat="43.812525" lon="11.472195"><ele>121.99999999999999</ele><time>2026-04-18T11:28:59.926Z</time></trkpt><trkpt lat="43.812615" lon="11.4722317"><ele>121.99999999999999</ele><time>2026-04-18T11:29:00.926Z</time></trkpt><trkpt lat="43.812705" lon="11.4722933"><ele>122.0</ele><time>2026-04-18T11:29:01.926Z</time></trkpt><trkpt lat="43.81279" lon="11.4723767"><ele>122.0</ele><time>2026-04-18T11:29:02.927Z</time></trkpt><trkpt lat="43.81288" lon="11.4724817"><ele>121.25</ele><time>2026-04-18T11:29:03.926Z</time></trkpt><trkpt lat="43.81297" lon="11.4726017"><ele>120.5</ele><time>2026-04-18T11:29:04.926Z</time></trkpt><trkpt lat="43.81306" lon="11.4727217"><ele>119.75</ele><time>2026-04-18T11:29:05.927Z</time></trkpt><trkpt lat="43.8131483" lon="11.472845"><ele>119.0</ele><time>2026-04-18T11:29:06.926Z</time></trkpt><trkpt lat="43.81323" lon="11.472965"><ele>118.99999999999999</ele><time>2026-04-18T11:29:07.926Z</time></trkpt><trkpt lat="43.8132967" lon="11.473065"><ele>119.0</ele><time>2026-04-18T11:29:08.926Z</time></trkpt><trkpt lat="43.8133567" lon="11.473165"><ele>119.0</ele><time>2026-04-18T11:29:09.926Z</time></trkpt><trkpt lat="43.8134183" lon="11.4732567"><ele>119.0</ele><time>2026-04-18T11:29:10.927Z</time></trkpt><trkpt lat="43.813475" lon="11.4733367"><ele>118.99999999999999</ele><time>2026-04-18T11:29:11.926Z</time></trkpt><trkpt lat="43.81353" lon="11.473395"><ele>119.0</ele><time>2026-04-18T11:29:12.926Z</time></trkpt><trkpt lat="43.813595" lon="11.47343"><ele>119.83333333333333</ele><time>2026-04-18T11:29:13.926Z</time></trkpt><trkpt lat="43.8136583" lon="11.4734567"><ele>120.66666666666666</ele><time>2026-04-18T11:29:14.927Z</time></trkpt><trkpt lat="43.813785" lon="11.4734733"><ele>121.5</ele><time>2026-04-18T11:29:16.927Z</time></trkpt><trkpt lat="43.8138433" lon="11.473435"><ele>122.33333333333334</ele><time>2026-04-18T11:29:17.926Z</time></trkpt><trkpt lat="43.8139033" lon="11.47339"><ele>123.16666666666667</ele><time>2026-04-18T11:29:18.927Z</time></trkpt><trkpt lat="43.813965" lon="11.4733617"><ele>124.0</ele><time>2026-04-18T11:29:19.926Z</time></trkpt><trkpt lat="43.8140683" lon="11.4734317"><ele>124.0</ele><time>2026-04-18T11:29:21.926Z</time></trkpt><trkpt lat="43.8141233" lon="11.4735283"><ele>124.0</ele><time>2026-04-18T11:29:22.927Z</time></trkpt><trkpt lat="43.8141883" lon="11.4736317"><ele>124.0</ele><time>2026-04-18T11:29:23.926Z</time></trkpt><trkpt lat="43.814265" lon="11.4737433"><ele>124.0</ele><time>2026-04-18T11:29:24.926Z</time></trkpt><trkpt lat="43.8143533" lon="11.473865"><ele>124.0</ele><time>2026-04-18T11:29:25.927Z</time></trkpt><trkpt lat="43.81444" lon="11.4739917"><ele>126.5</ele><time>2026-04-18T11:29:26.926Z</time></trkpt><trkpt lat="43.814525" lon="11.4741067"><ele>129.0</ele><time>2026-04-18T11:29:27.926Z</time></trkpt><trkpt lat="43.814605" lon="11.4742233"><ele>131.5</ele><time>2026-04-18T11:29:28.927Z</time></trkpt><trkpt lat="43.8146917" lon="11.4743383"><ele>134.0</ele><time>2026-04-18T11:29:29.927Z</time></trkpt><trkpt lat="43.81479" lon="11.47446"><ele>134.0</ele><time>2026-04-18T11:29:30.926Z</time></trkpt><trkpt lat="43.8148917" lon="11.4745817"><ele>134.0</ele><time>2026-04-18T11:29:31.926Z</time></trkpt><trkpt lat="43.815005" lon="11.4746967"><ele>134.0</ele><time>2026-04-18T11:29:32.926Z</time></trkpt><trkpt lat="43.8151183" lon="11.474815"><ele>134.0</ele><time>2026-04-18T11:29:33.926Z</time></trkpt><trkpt lat="43.8152317" lon="11.474925"><ele>136.5</ele><time>2026-04-18T11:29:34.926Z</time></trkpt><trkpt lat="43.815335" lon="11.475045"><ele>139.0</ele><time>2026-04-18T11:29:35.926Z</time></trkpt><trkpt lat="43.8154267" lon="11.4751367"><ele>141.5</ele><time>2026-04-18T11:29:36.926Z</time></trkpt><trkpt lat="43.815515" lon="11.4752217"><ele>144.0</ele><time>2026-04-18T11:29:37.927Z</time></trkpt><trkpt lat="43.8155967" lon="11.4752983"><ele>144.0</ele><time>2026-04-18T11:29:38.927Z</time></trkpt><trkpt lat="43.8156767" lon="11.4753833"><ele>144.0</ele><time>2026-04-18T11:29:39.926Z</time></trkpt><trkpt lat="43.8157517" lon="11.4754617"><ele>144.0</ele><time>2026-04-18T11:29:40.926Z</time></trkpt><trkpt lat="43.8158267" lon="11.4755317"><ele>144.0</ele><time>2026-04-18T11:29:41.927Z</time></trkpt><trkpt lat="43.8158933" lon="11.47561"><ele>144.0</ele><time>2026-04-18T11:29:42.926Z</time></trkpt><trkpt lat="43.8159517" lon="11.475685"><ele>142.6</ele><time>2026-04-18T11:29:43.926Z</time></trkpt><trkpt lat="43.8160217" lon="11.475745"><ele>141.2</ele><time>2026-04-18T11:29:44.926Z</time></trkpt><trkpt lat="43.8161067" lon="11.47579"><ele>139.79999999999998</ele><time>2026-04-18T11:29:45.926Z</time></trkpt><trkpt lat="43.8162083" lon="11.47582"><ele>138.4</ele><time>2026-04-18T11:29:46.926Z</time></trkpt><trkpt lat="43.81632" lon="11.4758383"><ele>137.0</ele><time>2026-04-18T11:29:47.926Z</time></trkpt><trkpt lat="43.81644" lon="11.4758533"><ele>137.0</ele><time>2026-04-18T11:29:48.926Z</time></trkpt><trkpt lat="43.81658" lon="11.4758617"><ele>137.0</ele><time>2026-04-18T11:29:49.927Z</time></trkpt><trkpt lat="43.8167117" lon="11.475875"><ele>137.0</ele><time>2026-04-18T11:29:50.927Z</time></trkpt><trkpt lat="43.8168483" lon="11.4758883"><ele>137.0</ele><time>2026-04-18T11:29:51.927Z</time></trkpt><trkpt lat="43.8169783" lon="11.4759017"><ele>136.5</ele><time>2026-04-18T11:29:52.927Z</time></trkpt><trkpt lat="43.81711" lon="11.4759267"><ele>136.0</ele><time>2026-04-18T11:29:53.927Z</time></trkpt><trkpt lat="43.81724" lon="11.4759733"><ele>135.5</ele><time>2026-04-18T11:29:54.926Z</time></trkpt><trkpt lat="43.81737" lon="11.4760217"><ele>135.0</ele><time>2026-04-18T11:29:55.926Z</time></trkpt><trkpt lat="43.8175" lon="11.4760767"><ele>135.0</ele><time>2026-04-18T11:29:56.926Z</time></trkpt><trkpt lat="43.81763" lon="11.4761267"><ele>135.0</ele><time>2026-04-18T11:29:57.926Z</time></trkpt><trkpt lat="43.81775" lon="11.4761817"><ele>135.0</ele><time>2026-04-18T11:29:58.926Z</time></trkpt><trkpt lat="43.8178533" lon="11.4762567"><ele>135.0</ele><time>2026-04-18T11:29:59.926Z</time></trkpt><trkpt lat="43.8179567" lon="11.4763267"><ele>134.6</ele><time>2026-04-18T11:30:00.926Z</time></trkpt><trkpt lat="43.8180533" lon="11.4763917"><ele>134.2</ele><time>2026-04-18T11:30:01.926Z</time></trkpt><trkpt lat="43.8181433" lon="11.4764333"><ele>133.8</ele><time>2026-04-18T11:30:02.926Z</time></trkpt><trkpt lat="43.818255" lon="11.476445"><ele>133.4</ele><time>2026-04-18T11:30:03.927Z</time></trkpt><trkpt lat="43.81838" lon="11.4764433"><ele>133.0</ele><time>2026-04-18T11:30:04.926Z</time></trkpt><trkpt lat="43.8185" lon="11.4764283"><ele>133.0</ele><time>2026-04-18T11:30:05.927Z</time></trkpt><trkpt lat="43.81862" lon="11.4764083"><ele>133.0</ele><time>2026-04-18T11:30:06.926Z</time></trkpt><trkpt lat="43.81873" lon="11.476405"><ele>133.0</ele><time>2026-04-18T11:30:07.926Z</time></trkpt><trkpt lat="43.8188317" lon="11.4764383"><ele>133.0</ele><time>2026-04-18T11:30:08.927Z</time></trkpt><trkpt lat="43.8189333" lon="11.4765117"><ele>133.0</ele><time>2026-04-18T11:30:09.926Z</time></trkpt><trkpt lat="43.81902" lon="11.4765883"><ele>133.0</ele><time>2026-04-18T11:30:10.926Z</time></trkpt><trkpt lat="43.8191017" lon="11.4766417"><ele>133.0</ele><time>2026-04-18T11:30:11.927Z</time></trkpt><trkpt lat="43.819175" lon="11.4766767"><ele>133.0</ele><time>2026-04-18T11:30:12.927Z</time></trkpt><trkpt lat="43.8192583" lon="11.47668"><ele>133.0</ele><time>2026-04-18T11:30:13.926Z</time></trkpt><trkpt lat="43.8193433" lon="11.4766533"><ele>133.0</ele><time>2026-04-18T11:30:14.927Z</time></trkpt><trkpt lat="43.8194417" lon="11.47659"><ele>132.0</ele><time>2026-04-18T11:30:15.927Z</time></trkpt><trkpt lat="43.81956" lon="11.4765033"><ele>131.0</ele><time>2026-04-18T11:30:16.927Z</time></trkpt><trkpt lat="43.8196767" lon="11.47643"><ele>130.0</ele><time>2026-04-18T11:30:17.926Z</time></trkpt><trkpt lat="43.8197967" lon="11.4763517"><ele>129.0</ele><time>2026-04-18T11:30:18.926Z</time></trkpt><trkpt lat="43.819925" lon="11.4762667"><ele>130.75</ele><time>2026-04-18T11:30:19.926Z</time></trkpt><trkpt lat="43.8200583" lon="11.4762233"><ele>132.5</ele><time>2026-04-18T11:30:20.927Z</time></trkpt><trkpt lat="43.8201933" lon="11.4761983"><ele>134.25</ele><time>2026-04-18T11:30:21.926Z</time></trkpt><trkpt lat="43.8203283" lon="11.4761983"><ele>136.0</ele><time>2026-04-18T11:30:22.926Z</time></trkpt><trkpt lat="43.82045" lon="11.4762067"><ele>136.0</ele><time>2026-04-18T11:30:23.927Z</time></trkpt><trkpt lat="43.8205667" lon="11.4762267"><ele>136.0</ele><time>2026-04-18T11:30:24.927Z</time></trkpt><trkpt lat="43.8206967" lon="11.4762567"><ele>136.0</ele><time>2026-04-18T11:30:25.927Z</time></trkpt><trkpt lat="43.8208333" lon="11.476295"><ele>136.0</ele><time>2026-04-18T11:30:26.926Z</time></trkpt><trkpt lat="43.8209683" lon="11.4763417"><ele>135.5</ele><time>2026-04-18T11:30:27.927Z</time></trkpt><trkpt lat="43.82109" lon="11.4763833"><ele>135.0</ele><time>2026-04-18T11:30:28.926Z</time></trkpt><trkpt lat="43.821215" lon="11.4764183"><ele>134.5</ele><time>2026-04-18T11:30:29.927Z</time></trkpt><trkpt lat="43.8213433" lon="11.476455"><ele>134.0</ele><time>2026-04-18T11:30:30.927Z</time></trkpt><trkpt lat="43.82148" lon="11.476495"><ele>134.0</ele><time>2026-04-18T11:30:31.926Z</time></trkpt><trkpt lat="43.8216217" lon="11.4765367"><ele>134.0</ele><time>2026-04-18T11:30:32.926Z</time></trkpt><trkpt lat="43.8217667" lon="11.4765733"><ele>134.0</ele><time>2026-04-18T11:30:33.927Z</time></trkpt><trkpt lat="43.82191" lon="11.4766117"><ele>134.0</ele><time>2026-04-18T11:30:34.926Z</time></trkpt><trkpt lat="43.8220433" lon="11.476655"><ele>134.0</ele><time>2026-04-18T11:30:35.926Z</time></trkpt><trkpt lat="43.8221633" lon="11.4767"><ele>134.0</ele><time>2026-04-18T11:30:36.926Z</time></trkpt><trkpt lat="43.822285" lon="11.476735"><ele>134.0</ele><time>2026-04-18T11:30:37.927Z</time></trkpt><trkpt lat="43.822415" lon="11.4767617"><ele>134.0</ele><time>2026-04-18T11:30:38.927Z</time></trkpt><trkpt lat="43.8225567" lon="11.4767767"><ele>134.5</ele><time>2026-04-18T11:30:39.926Z</time></trkpt><trkpt lat="43.8226967" lon="11.4767867"><ele>135.0</ele><time>2026-04-18T11:30:40.926Z</time></trkpt><trkpt lat="43.8228267" lon="11.4768017"><ele>135.5</ele><time>2026-04-18T11:30:41.927Z</time></trkpt><trkpt lat="43.82295" lon="11.476815"><ele>136.0</ele><time>2026-04-18T11:30:42.926Z</time></trkpt><trkpt lat="43.8230617" lon="11.47683"><ele>136.0</ele><time>2026-04-18T11:30:43.927Z</time></trkpt><trkpt lat="43.8231633" lon="11.476845"><ele>136.0</ele><time>2026-04-18T11:30:44.926Z</time></trkpt><trkpt lat="43.8232633" lon="11.4768617"><ele>136.0</ele><time>2026-04-18T11:30:45.926Z</time></trkpt><trkpt lat="43.8233733" lon="11.47689"><ele>136.0</ele><time>2026-04-18T11:30:46.927Z</time></trkpt><trkpt lat="43.8234767" lon="11.4769633"><ele>136.0</ele><time>2026-04-18T11:30:47.926Z</time></trkpt><trkpt lat="43.823585" lon="11.477055"><ele>134.5</ele><time>2026-04-18T11:30:48.927Z</time></trkpt><trkpt lat="43.8236983" lon="11.4771433"><ele>133.0</ele><time>2026-04-18T11:30:49.926Z</time></trkpt><trkpt lat="43.8238167" lon="11.477215"><ele>131.5</ele><time>2026-04-18T11:30:50.926Z</time></trkpt><trkpt lat="43.8239483" lon="11.47728"><ele>130.0</ele><time>2026-04-18T11:30:51.926Z</time></trkpt><trkpt lat="43.8240767" lon="11.477355"><ele>130.0</ele><time>2026-04-18T11:30:52.926Z</time></trkpt><trkpt lat="43.824205" lon="11.4774183"><ele>130.0</ele><time>2026-04-18T11:30:53.926Z</time></trkpt><trkpt lat="43.824335" lon="11.4774767"><ele>130.0</ele><time>2026-04-18T11:30:54.926Z</time></trkpt><trkpt lat="43.82447" lon="11.4775383"><ele>130.0</ele><time>2026-04-18T11:30:55.926Z</time></trkpt><trkpt lat="43.824605" lon="11.4776067"><ele>130.5</ele><time>2026-04-18T11:30:56.926Z</time></trkpt><trkpt lat="43.8247383" lon="11.477665"><ele>131.0</ele><time>2026-04-18T11:30:57.927Z</time></trkpt><trkpt lat="43.824875" lon="11.4777217"><ele>131.5</ele><time>2026-04-18T11:30:58.926Z</time></trkpt><trkpt lat="43.825015" lon="11.4777733"><ele>132.0</ele><time>2026-04-18T11:30:59.926Z</time></trkpt><trkpt lat="43.8251433" lon="11.4778217"><ele>132.0</ele><time>2026-04-18T11:31:00.926Z</time></trkpt><trkpt lat="43.8252567" lon="11.477865"><ele>132.0</ele><time>2026-04-18T11:31:01.927Z</time></trkpt><trkpt lat="43.8253633" lon="11.4779133"><ele>132.0</ele><time>2026-04-18T11:31:02.926Z</time></trkpt><trkpt lat="43.825465" lon="11.47796"><ele>132.0</ele><time>2026-04-18T11:31:03.927Z</time></trkpt><trkpt lat="43.8255717" lon="11.4780117"><ele>130.0</ele><time>2026-04-18T11:31:04.926Z</time></trkpt><trkpt lat="43.825675" lon="11.4780633"><ele>127.99999999999999</ele><time>2026-04-18T11:31:05.926Z</time></trkpt><trkpt lat="43.82577" lon="11.478125"><ele>125.99999999999999</ele><time>2026-04-18T11:31:06.926Z</time></trkpt><trkpt lat="43.8258633" lon="11.47819"><ele>124.0</ele><time>2026-04-18T11:31:07.927Z</time></trkpt><trkpt lat="43.8259433" lon="11.47826"><ele>122.0</ele><time>2026-04-18T11:31:08.926Z</time></trkpt><trkpt lat="43.8260183" lon="11.4783217"><ele>120.19999999999999</ele><time>2026-04-18T11:31:09.927Z</time></trkpt><trkpt lat="43.8261017" lon="11.4783783"><ele>118.39999999999999</ele><time>2026-04-18T11:31:10.926Z</time></trkpt><trkpt lat="43.82619" lon="11.4784117"><ele>116.60000000000001</ele><time>2026-04-18T11:31:11.926Z</time></trkpt><trkpt lat="43.8262783" lon="11.4784283"><ele>114.80000000000001</ele><time>2026-04-18T11:31:12.926Z</time></trkpt><trkpt lat="43.826385" lon="11.4784267"><ele>113.0</ele><time>2026-04-18T11:31:13.926Z</time></trkpt><trkpt lat="43.826495" lon="11.4784167"><ele>113.0</ele><time>2026-04-18T11:31:14.926Z</time></trkpt><trkpt lat="43.826605" lon="11.4784067"><ele>113.00000000000001</ele><time>2026-04-18T11:31:15.926Z</time></trkpt><trkpt lat="43.8267167" lon="11.478395"><ele>113.00000000000001</ele><time>2026-04-18T11:31:16.927Z</time></trkpt><trkpt lat="43.8268183" lon="11.4783817"><ele>113.0</ele><time>2026-04-18T11:31:17.926Z</time></trkpt><trkpt lat="43.826905" lon="11.4783783"><ele>113.0</ele><time>2026-04-18T11:31:18.926Z</time></trkpt><trkpt lat="43.826985" lon="11.4783983"><ele>112.60000000000001</ele><time>2026-04-18T11:31:19.927Z</time></trkpt><trkpt lat="43.82706" lon="11.4784433"><ele>112.20000000000002</ele><time>2026-04-18T11:31:20.926Z</time></trkpt><trkpt lat="43.8271417" lon="11.4785117"><ele>111.8</ele><time>2026-04-18T11:31:21.927Z</time></trkpt><trkpt lat="43.8272383" lon="11.478595"><ele>111.4</ele><time>2026-04-18T11:31:22.926Z</time></trkpt><trkpt lat="43.8273433" lon="11.4786833"><ele>111.0</ele><time>2026-04-18T11:31:23.926Z</time></trkpt><trkpt lat="43.8274433" lon="11.4787733"><ele>111.0</ele><time>2026-04-18T11:31:24.926Z</time></trkpt><trkpt lat="43.82755" lon="11.478865"><ele>111.0</ele><time>2026-04-18T11:31:25.926Z</time></trkpt><trkpt lat="43.8276633" lon="11.47896"><ele>111.0</ele><time>2026-04-18T11:31:26.926Z</time></trkpt><trkpt lat="43.8277817" lon="11.47905"><ele>111.0</ele><time>2026-04-18T11:31:27.926Z</time></trkpt><trkpt lat="43.8278883" lon="11.479145"><ele>110.75</ele><time>2026-04-18T11:31:28.927Z</time></trkpt><trkpt lat="43.8279883" lon="11.4792567"><ele>110.5</ele><time>2026-04-18T11:31:29.926Z</time></trkpt><trkpt lat="43.828085" lon="11.4793733"><ele>110.25</ele><time>2026-04-18T11:31:30.927Z</time></trkpt><trkpt lat="43.82817" lon="11.4795067"><ele>110.0</ele><time>2026-04-18T11:31:31.926Z</time></trkpt><trkpt lat="43.828245" lon="11.4796633"><ele>110.0</ele><time>2026-04-18T11:31:32.926Z</time></trkpt><trkpt lat="43.828325" lon="11.4798217"><ele>110.0</ele><time>2026-04-18T11:31:33.926Z</time></trkpt><trkpt lat="43.8284033" lon="11.479985"><ele>110.0</ele><time>2026-04-18T11:31:34.926Z</time></trkpt><trkpt lat="43.8284883" lon="11.4801483"><ele>110.0</ele><time>2026-04-18T11:31:35.926Z</time></trkpt><trkpt lat="43.828565" lon="11.480305"><ele>110.0</ele><time>2026-04-18T11:31:36.926Z</time></trkpt><trkpt lat="43.82865" lon="11.4804617"><ele>110.0</ele><time>2026-04-18T11:31:37.926Z</time></trkpt><trkpt lat="43.8287317" lon="11.48062"><ele>110.0</ele><time>2026-04-18T11:31:38.927Z</time></trkpt><trkpt lat="43.8288167" lon="11.48079"><ele>110.0</ele><time>2026-04-18T11:31:39.926Z</time></trkpt><trkpt lat="43.828905" lon="11.4809583"><ele>110.0</ele><time>2026-04-18T11:31:40.926Z</time></trkpt><trkpt lat="43.82899" lon="11.4811217"><ele>110.0</ele><time>2026-04-18T11:31:41.926Z</time></trkpt><trkpt lat="43.8290833" lon="11.4812767"><ele>110.0</ele><time>2026-04-18T11:31:42.927Z</time></trkpt><trkpt lat="43.8291617" lon="11.4814217"><ele>110.0</ele><time>2026-04-18T11:31:43.926Z</time></trkpt><trkpt lat="43.8292383" lon="11.481545"><ele>110.6</ele><time>2026-04-18T11:31:44.927Z</time></trkpt><trkpt lat="43.82932" lon="11.4816483"><ele>111.2</ele><time>2026-04-18T11:31:45.926Z</time></trkpt><trkpt lat="43.8294033" lon="11.4817183"><ele>111.80000000000001</ele><time>2026-04-18T11:31:46.926Z</time></trkpt><trkpt lat="43.8294933" lon="11.4817517"><ele>112.4</ele><time>2026-04-18T11:31:47.927Z</time></trkpt><trkpt lat="43.829585" lon="11.481755"><ele>113.0</ele><time>2026-04-18T11:31:48.926Z</time></trkpt><trkpt lat="43.82966" lon="11.481735"><ele>113.0</ele><time>2026-04-18T11:31:49.926Z</time></trkpt><trkpt lat="43.8297283" lon="11.4817417"><ele>113.00000000000001</ele><time>2026-04-18T11:31:50.926Z</time></trkpt><trkpt lat="43.8297883" lon="11.4818"><ele>113.00000000000001</ele><time>2026-04-18T11:31:51.927Z</time></trkpt><trkpt lat="43.8298417" lon="11.4819017"><ele>113.0</ele><time>2026-04-18T11:31:52.927Z</time></trkpt><trkpt lat="43.8298883" lon="11.48206"><ele>113.0</ele><time>2026-04-18T11:31:53.926Z</time></trkpt><trkpt lat="43.8299317" lon="11.48223"><ele>112.75</ele><time>2026-04-18T11:31:54.927Z</time></trkpt><trkpt lat="43.8299767" lon="11.4824167"><ele>112.5</ele><time>2026-04-18T11:31:55.926Z</time></trkpt><trkpt lat="43.8300283" lon="11.482605"><ele>112.25</ele><time>2026-04-18T11:31:56.926Z</time></trkpt><trkpt lat="43.8300917" lon="11.48281"><ele>112.0</ele><time>2026-04-18T11:31:57.927Z</time></trkpt><trkpt lat="43.830155" lon="11.48302"><ele>114.75</ele><time>2026-04-18T11:31:58.926Z</time></trkpt><trkpt lat="43.8302117" lon="11.48322"><ele>117.5</ele><time>2026-04-18T11:31:59.927Z</time></trkpt><trkpt lat="43.830265" lon="11.48341"><ele>120.25</ele><time>2026-04-18T11:32:00.926Z</time></trkpt><trkpt lat="43.83032" lon="11.48359"><ele>123.0</ele><time>2026-04-18T11:32:01.926Z</time></trkpt><trkpt lat="43.8303717" lon="11.483755"><ele>124.0</ele><time>2026-04-18T11:32:02.926Z</time></trkpt><trkpt lat="43.83044" lon="11.4839033"><ele>125.0</ele><time>2026-04-18T11:32:03.927Z</time></trkpt><trkpt lat="43.8305417" lon="11.4840367"><ele>126.0</ele><time>2026-04-18T11:32:04.927Z</time></trkpt><trkpt lat="43.8306333" lon="11.4841683"><ele>127.0</ele><time>2026-04-18T11:32:05.926Z</time></trkpt><trkpt lat="43.8307117" lon="11.4842833"><ele>127.0</ele><time>2026-04-18T11:32:06.927Z</time></trkpt><trkpt lat="43.8307783" lon="11.4844033"><ele>126.99999999999999</ele><time>2026-04-18T11:32:07.926Z</time></trkpt><trkpt lat="43.8308167" lon="11.484535"><ele>126.99999999999999</ele><time>2026-04-18T11:32:08.926Z</time></trkpt><trkpt lat="43.8308367" lon="11.4846883"><ele>127.0</ele><time>2026-04-18T11:32:09.926Z</time></trkpt><trkpt lat="43.8308367" lon="11.4848483"><ele>127.0</ele><time>2026-04-18T11:32:10.927Z</time></trkpt><trkpt lat="43.83082" lon="11.4850233"><ele>127.0</ele><time>2026-04-18T11:32:11.927Z</time></trkpt><trkpt lat="43.8307933" lon="11.4852067"><ele>127.0</ele><time>2026-04-18T11:32:12.926Z</time></trkpt><trkpt lat="43.830755" lon="11.4853983"><ele>127.0</ele><time>2026-04-18T11:32:13.927Z</time></trkpt><trkpt lat="43.830715" lon="11.4855867"><ele>127.0</ele><time>2026-04-18T11:32:14.927Z</time></trkpt><trkpt lat="43.8306783" lon="11.4857583"><ele>127.0</ele><time>2026-04-18T11:32:15.927Z</time></trkpt><trkpt lat="43.8306467" lon="11.48592"><ele>126.99999999999999</ele><time>2026-04-18T11:32:16.926Z</time></trkpt><trkpt lat="43.83061" lon="11.486065"><ele>126.99999999999999</ele><time>2026-04-18T11:32:17.926Z</time></trkpt><trkpt lat="43.8305867" lon="11.4862033"><ele>127.0</ele><time>2026-04-18T11:32:18.927Z</time></trkpt><trkpt lat="43.830575" lon="11.4863317"><ele>127.0</ele><time>2026-04-18T11:32:19.927Z</time></trkpt><trkpt lat="43.83058" lon="11.4864333"><ele>126.6</ele><time>2026-04-18T11:32:20.926Z</time></trkpt><trkpt lat="43.8306333" lon="11.4865817"><ele>126.19999999999999</ele><time>2026-04-18T11:32:22.926Z</time></trkpt><trkpt lat="43.8306067" lon="11.4866917"><ele>125.8</ele><time>2026-04-18T11:32:24.927Z</time></trkpt><trkpt lat="43.8305367" lon="11.4867317"><ele>125.4</ele><time>2026-04-18T11:32:25.927Z</time></trkpt><trkpt lat="43.830455" lon="11.486785"><ele>125.0</ele><time>2026-04-18T11:32:26.926Z</time></trkpt><trkpt lat="43.830365" lon="11.4868467"><ele>125.0</ele><time>2026-04-18T11:32:27.926Z</time></trkpt><trkpt lat="43.8302667" lon="11.4869167"><ele>125.0</ele><time>2026-04-18T11:32:28.926Z</time></trkpt><trkpt lat="43.8301717" lon="11.4869783"><ele>125.0</ele><time>2026-04-18T11:32:29.926Z</time></trkpt><trkpt lat="43.8300767" lon="11.4870383"><ele>125.0</ele><time>2026-04-18T11:32:30.927Z</time></trkpt><trkpt lat="43.829995" lon="11.48709"><ele>125.0</ele><time>2026-04-18T11:32:31.927Z</time></trkpt><trkpt lat="43.8299233" lon="11.4871533"><ele>123.99999999999999</ele><time>2026-04-18T11:32:32.926Z</time></trkpt><trkpt lat="43.8298667" lon="11.4872417"><ele>123.0</ele><time>2026-04-18T11:32:33.926Z</time></trkpt><trkpt lat="43.8298283" lon="11.487345"><ele>122.0</ele><time>2026-04-18T11:32:34.926Z</time></trkpt><trkpt lat="43.82979" lon="11.4874583"><ele>121.0</ele><time>2026-04-18T11:32:35.926Z</time></trkpt><trkpt lat="43.82976" lon="11.4875817"><ele>119.99999999999999</ele><time>2026-04-18T11:32:36.926Z</time></trkpt><trkpt lat="43.8297267" lon="11.487675"><ele>119.0</ele><time>2026-04-18T11:32:37.927Z</time></trkpt><trkpt lat="43.8296883" lon="11.487745"><ele>119.0</ele><time>2026-04-18T11:32:38.926Z</time></trkpt><trkpt lat="43.82962" lon="11.4878"><ele>119.0</ele><time>2026-04-18T11:32:39.926Z</time></trkpt><trkpt lat="43.8295233" lon="11.4878417"><ele>119.0</ele><time>2026-04-18T11:32:40.927Z</time></trkpt><trkpt lat="43.8294117" lon="11.4878767"><ele>119.0</ele><time>2026-04-18T11:32:41.926Z</time></trkpt><trkpt lat="43.8293067" lon="11.4879083"><ele>119.0</ele><time>2026-04-18T11:32:42.926Z</time></trkpt><trkpt lat="43.8291983" lon="11.4879167"><ele>118.0</ele><time>2026-04-18T11:32:43.926Z</time></trkpt><trkpt lat="43.8290917" lon="11.4879183"><ele>117.0</ele><time>2026-04-18T11:32:44.926Z</time></trkpt><trkpt lat="43.8289833" lon="11.4879117"><ele>116.0</ele><time>2026-04-18T11:32:45.926Z</time></trkpt><trkpt lat="43.828875" lon="11.4879067"><ele>115.0</ele><time>2026-04-18T11:32:46.926Z</time></trkpt><trkpt lat="43.8287733" lon="11.4879"><ele>114.0</ele><time>2026-04-18T11:32:47.927Z</time></trkpt><trkpt lat="43.8286833" lon="11.487895"><ele>114.0</ele><time>2026-04-18T11:32:48.926Z</time></trkpt><trkpt lat="43.8286017" lon="11.4878867"><ele>114.0</ele><time>2026-04-18T11:32:49.926Z</time></trkpt><trkpt lat="43.82851" lon="11.4878817"><ele>114.0</ele><time>2026-04-18T11:32:50.926Z</time></trkpt><trkpt lat="43.8284067" lon="11.4879"><ele>114.0</ele><time>2026-04-18T11:32:51.926Z</time></trkpt><trkpt lat="43.82831" lon="11.4879233"><ele>114.0</ele><time>2026-04-18T11:32:52.926Z</time></trkpt><trkpt lat="43.8282133" lon="11.4879733"><ele>114.0</ele><time>2026-04-18T11:32:53.926Z</time></trkpt><trkpt lat="43.8281333" lon="11.488015"><ele>114.0</ele><time>2026-04-18T11:32:54.926Z</time></trkpt><trkpt lat="43.8280667" lon="11.488065"><ele>114.0</ele><time>2026-04-18T11:32:55.927Z</time></trkpt><trkpt lat="43.8280067" lon="11.4881217"><ele>114.0</ele><time>2026-04-18T11:32:56.926Z</time></trkpt><trkpt lat="43.8279433" lon="11.488235"><ele>114.0</ele><time>2026-04-18T11:32:58.926Z</time></trkpt><trkpt lat="43.8278883" lon="11.48836"><ele>114.0</ele><time>2026-04-18T11:35:32.926Z</time></trkpt><trkpt lat="43.827815" lon="11.4884517"><ele>114.0</ele><time>2026-04-18T11:35:34.926Z</time></trkpt><trkpt lat="43.8277333" lon="11.4885633"><ele>114.0</ele><time>2026-04-18T11:35:36.926Z</time></trkpt><trkpt lat="43.827675" lon="11.48863"><ele>114.0</ele><time>2026-04-18T11:35:37.926Z</time></trkpt><trkpt lat="43.8276083" lon="11.48871"><ele>114.0</ele><time>2026-04-18T11:35:38.927Z</time></trkpt><trkpt lat="43.82753" lon="11.4887983"><ele>114.0</ele><time>2026-04-18T11:35:39.926Z</time></trkpt><trkpt lat="43.8274567" lon="11.4888967"><ele>114.28571428571428</ele><time>2026-04-18T11:35:40.926Z</time></trkpt><trkpt lat="43.8273983" lon="11.4889767"><ele>114.57142857142856</ele><time>2026-04-18T11:35:41.926Z</time></trkpt><trkpt lat="43.8273383" lon="11.4890417"><ele>114.85714285714286</ele><time>2026-04-18T11:35:42.926Z</time></trkpt><trkpt lat="43.8272717" lon="11.4891017"><ele>115.14285714285714</ele><time>2026-04-18T11:35:43.927Z</time></trkpt><trkpt lat="43.8272133" lon="11.48914"><ele>115.42857142857143</ele><time>2026-04-18T11:35:44.926Z</time></trkpt><trkpt lat="43.8271483" lon="11.489185"><ele>115.71428571428572</ele><time>2026-04-18T11:35:46.926Z</time></trkpt><trkpt lat="43.8270817" lon="11.4891867"><ele>116.00000000000001</ele><time>2026-04-18T11:35:50.927Z</time></trkpt><trkpt lat="43.827025" lon="11.4891017"><ele>116.0</ele><time>2026-04-18T11:35:52.926Z</time></trkpt><trkpt lat="43.8269633" lon="11.4889367"><ele>116.0</ele><time>2026-04-18T11:35:54.926Z</time></trkpt><trkpt lat="43.826935" lon="11.48882"><ele>116.0</ele><time>2026-04-18T11:35:55.926Z</time></trkpt><trkpt lat="43.82689" lon="11.4886733"><ele>116.0</ele><time>2026-04-18T11:35:56.926Z</time></trkpt><trkpt lat="43.82686" lon="11.48853"><ele>116.0</ele><time>2026-04-18T11:35:57.926Z</time></trkpt><trkpt lat="43.82681" lon="11.4883933"><ele>115.75</ele><time>2026-04-18T11:35:58.926Z</time></trkpt><trkpt lat="43.8267583" lon="11.4882417"><ele>115.5</ele><time>2026-04-18T11:35:59.926Z</time></trkpt><trkpt lat="43.8267133" lon="11.4880933"><ele>115.25</ele><time>2026-04-18T11:36:00.927Z</time></trkpt><trkpt lat="43.8266533" lon="11.4879617"><ele>115.0</ele><time>2026-04-18T11:36:01.927Z</time></trkpt><trkpt lat="43.8265783" lon="11.487845"><ele>114.83333333333334</ele><time>2026-04-18T11:36:02.926Z</time></trkpt><trkpt lat="43.826495" lon="11.4877433"><ele>114.66666666666667</ele><time>2026-04-18T11:36:03.927Z</time></trkpt><trkpt lat="43.8264083" lon="11.4876817"><ele>114.5</ele><time>2026-04-18T11:36:04.927Z</time></trkpt><trkpt lat="43.8263183" lon="11.4876367"><ele>114.33333333333334</ele><time>2026-04-18T11:36:05.927Z</time></trkpt><trkpt lat="43.8262533" lon="11.4876083"><ele>114.16666666666667</ele><time>2026-04-18T11:36:06.926Z</time></trkpt><trkpt lat="43.8261883" lon="11.4875633"><ele>114.0</ele><time>2026-04-18T11:36:08.926Z</time></trkpt><trkpt lat="43.8260933" lon="11.48756"><ele>114.25</ele><time>2026-04-18T11:36:51.926Z</time></trkpt><trkpt lat="43.82597" lon="11.48751"><ele>114.5</ele><time>2026-04-18T11:36:53.926Z</time></trkpt><trkpt lat="43.825875" lon="11.4874667"><ele>114.75</ele><time>2026-04-18T11:36:54.927Z</time></trkpt><trkpt lat="43.825745" lon="11.4874017"><ele>115.0</ele><time>2026-04-18T11:36:55.926Z</time></trkpt><trkpt lat="43.8256083" lon="11.4873417"><ele>115.0</ele><time>2026-04-18T11:36:56.926Z</time></trkpt><trkpt lat="43.8254667" lon="11.4872783"><ele>115.0</ele><time>2026-04-18T11:36:57.927Z</time></trkpt><trkpt lat="43.8253117" lon="11.48721"><ele>115.0</ele><time>2026-04-18T11:36:58.926Z</time></trkpt><trkpt lat="43.8251717" lon="11.4871367"><ele>114.25</ele><time>2026-04-18T11:36:59.926Z</time></trkpt><trkpt lat="43.8250383" lon="11.48706"><ele>113.5</ele><time>2026-04-18T11:37:00.927Z</time></trkpt><trkpt lat="43.8249083" lon="11.4869933"><ele>112.75</ele><time>2026-04-18T11:37:01.926Z</time></trkpt><trkpt lat="43.824785" lon="11.4869217"><ele>112.0</ele><time>2026-04-18T11:37:02.926Z</time></trkpt><trkpt lat="43.824665" lon="11.4868567"><ele>112.0</ele><time>2026-04-18T11:37:03.926Z</time></trkpt><trkpt lat="43.824545" lon="11.4867883"><ele>112.0</ele><time>2026-04-18T11:37:04.927Z</time></trkpt><trkpt lat="43.8244267" lon="11.4867217"><ele>112.0</ele><time>2026-04-18T11:37:05.926Z</time></trkpt><trkpt lat="43.82429" lon="11.4866867"><ele>112.0</ele><time>2026-04-18T11:37:06.926Z</time></trkpt><trkpt lat="43.824165" lon="11.4866233"><ele>112.25</ele><time>2026-04-18T11:37:07.927Z</time></trkpt><trkpt lat="43.8240367" lon="11.48656"><ele>112.5</ele><time>2026-04-18T11:37:08.926Z</time></trkpt><trkpt lat="43.8239117" lon="11.486505"><ele>112.75</ele><time>2026-04-18T11:37:09.926Z</time></trkpt><trkpt lat="43.82377" lon="11.4864483"><ele>113.0</ele><time>2026-04-18T11:37:10.927Z</time></trkpt><trkpt lat="43.82364" lon="11.4863917"><ele>113.0</ele><time>2026-04-18T11:37:11.926Z</time></trkpt><trkpt lat="43.8235167" lon="11.486325"><ele>113.0</ele><time>2026-04-18T11:37:12.927Z</time></trkpt><trkpt lat="43.8233967" lon="11.4862617"><ele>113.0</ele><time>2026-04-18T11:37:13.926Z</time></trkpt><trkpt lat="43.8232817" lon="11.4861983"><ele>113.0</ele><time>2026-04-18T11:37:14.926Z</time></trkpt><trkpt lat="43.823165" lon="11.4861483"><ele>112.25</ele><time>2026-04-18T11:37:15.926Z</time></trkpt><trkpt lat="43.8230517" lon="11.4860933"><ele>111.5</ele><time>2026-04-18T11:37:16.927Z</time></trkpt><trkpt lat="43.8229383" lon="11.486035"><ele>110.75</ele><time>2026-04-18T11:37:17.926Z</time></trkpt><trkpt lat="43.8228283" lon="11.48598"><ele>110.0</ele><time>2026-04-18T11:37:18.927Z</time></trkpt><trkpt lat="43.8227167" lon="11.4859267"><ele>110.0</ele><time>2026-04-18T11:37:19.926Z</time></trkpt><trkpt lat="43.822605" lon="11.4858733"><ele>110.0</ele><time>2026-04-18T11:37:20.926Z</time></trkpt><trkpt lat="43.8224933" lon="11.485815"><ele>110.0</ele><time>2026-04-18T11:37:21.926Z</time></trkpt><trkpt lat="43.8223817" lon="11.485765"><ele>110.0</ele><time>2026-04-18T11:37:22.927Z</time></trkpt><trkpt lat="43.8222717" lon="11.485715"><ele>110.0</ele><time>2026-04-18T11:37:23.926Z</time></trkpt><trkpt lat="43.8221683" lon="11.485665"><ele>110.0</ele><time>2026-04-18T11:37:24.926Z</time></trkpt><trkpt lat="43.8220667" lon="11.4856067"><ele>110.0</ele><time>2026-04-18T11:37:25.926Z</time></trkpt><trkpt lat="43.8219483" lon="11.4855433"><ele>110.0</ele><time>2026-04-18T11:37:26.927Z</time></trkpt><trkpt lat="43.8218217" lon="11.48549"><ele>110.0</ele><time>2026-04-18T11:37:27.927Z</time></trkpt><trkpt lat="43.8217" lon="11.4854267"><ele>110.0</ele><time>2026-04-18T11:37:28.926Z</time></trkpt><trkpt lat="43.8215717" lon="11.4853683"><ele>110.0</ele><time>2026-04-18T11:37:29.926Z</time></trkpt><trkpt lat="43.8214433" lon="11.48531"><ele>110.0</ele><time>2026-04-18T11:37:30.926Z</time></trkpt><trkpt lat="43.8213217" lon="11.4852433"><ele>110.0</ele><time>2026-04-18T11:37:31.926Z</time></trkpt><trkpt lat="43.8212067" lon="11.48518"><ele>110.0</ele><time>2026-04-18T11:37:32.926Z</time></trkpt><trkpt lat="43.8210917" lon="11.4851183"><ele>110.0</ele><time>2026-04-18T11:37:33.926Z</time></trkpt><trkpt lat="43.820975" lon="11.4850683"><ele>110.0</ele><time>2026-04-18T11:37:34.926Z</time></trkpt><trkpt lat="43.8208583" lon="11.4850167"><ele>110.0</ele><time>2026-04-18T11:37:35.927Z</time></trkpt><trkpt lat="43.8207383" lon="11.4849717"><ele>110.0</ele><time>2026-04-18T11:37:36.926Z</time></trkpt><trkpt lat="43.820625" lon="11.4849233"><ele>110.0</ele><time>2026-04-18T11:37:37.927Z</time></trkpt><trkpt lat="43.8205083" lon="11.48488"><ele>110.0</ele><time>2026-04-18T11:37:38.926Z</time></trkpt><trkpt lat="43.820395" lon="11.4848383"><ele>110.0</ele><time>2026-04-18T11:37:39.926Z</time></trkpt><trkpt lat="43.8202917" lon="11.4847783"><ele>110.0</ele><time>2026-04-18T11:37:40.926Z</time></trkpt><trkpt lat="43.8201833" lon="11.484735"><ele>110.0</ele><time>2026-04-18T11:37:41.926Z</time></trkpt><trkpt lat="43.8200667" lon="11.484665"><ele>110.0</ele><time>2026-04-18T11:37:42.926Z</time></trkpt><trkpt lat="43.8199467" lon="11.4846083"><ele>109.75</ele><time>2026-04-18T11:37:43.926Z</time></trkpt><trkpt lat="43.819825" lon="11.48455"><ele>109.5</ele><time>2026-04-18T11:37:44.926Z</time></trkpt><trkpt lat="43.819705" lon="11.484495"><ele>109.25</ele><time>2026-04-18T11:37:45.927Z</time></trkpt><trkpt lat="43.81959" lon="11.4844367"><ele>109.0</ele><time>2026-04-18T11:37:46.927Z</time></trkpt><trkpt lat="43.8194733" lon="11.4843817"><ele>109.0</ele><time>2026-04-18T11:37:47.926Z</time></trkpt><trkpt lat="43.8193667" lon="11.4843283"><ele>109.0</ele><time>2026-04-18T11:37:48.927Z</time></trkpt><trkpt lat="43.8192817" lon="11.484285"><ele>109.0</ele><time>2026-04-18T11:37:49.926Z</time></trkpt><trkpt lat="43.8192167" lon="11.4842483"><ele>109.0</ele><time>2026-04-18T11:37:50.926Z</time></trkpt><trkpt lat="43.819125" lon="11.4841467"><ele>109.0</ele><time>2026-04-18T11:37:52.926Z</time></trkpt><trkpt lat="43.81906" lon="11.4840417"><ele>109.00000000000001</ele><time>2026-04-18T11:37:54.926Z</time></trkpt><trkpt lat="43.8189883" lon="11.483995"><ele>109.0</ele><time>2026-04-18T11:37:57.926Z</time></trkpt><trkpt lat="43.8188883" lon="11.484055"><ele>109.0</ele><time>2026-04-18T11:42:09.926Z</time></trkpt><trkpt lat="43.81883" lon="11.4840133"><ele>109.0</ele><time>2026-04-18T11:42:11.925Z</time></trkpt><trkpt lat="43.8187617" lon="11.4840267"><ele>109.00000000000001</ele><time>2026-04-18T11:42:14.925Z</time></trkpt><trkpt lat="43.818805" lon="11.4841383"><ele>109.0</ele><time>2026-04-18T11:42:22.925Z</time></trkpt><trkpt lat="43.8188667" lon="11.4841633"><ele>109.0</ele><time>2026-04-18T11:42:23.925Z</time></trkpt><trkpt lat="43.8189517" lon="11.4841933"><ele>109.0</ele><time>2026-04-18T11:42:24.925Z</time></trkpt><trkpt lat="43.8190517" lon="11.4842333"><ele>109.0</ele><time>2026-04-18T11:42:25.926Z</time></trkpt><trkpt lat="43.81917" lon="11.4842833"><ele>109.0</ele><time>2026-04-18T11:42:26.925Z</time></trkpt><trkpt lat="43.8192867" lon="11.4843367"><ele>109.0</ele><time>2026-04-18T11:42:27.925Z</time></trkpt><trkpt lat="43.819415" lon="11.484395"><ele>109.0</ele><time>2026-04-18T11:42:28.925Z</time></trkpt><trkpt lat="43.8195433" lon="11.4844617"><ele>109.0</ele><time>2026-04-18T11:42:29.925Z</time></trkpt><trkpt lat="43.8196767" lon="11.4845267"><ele>109.0</ele><time>2026-04-18T11:42:30.925Z</time></trkpt><trkpt lat="43.8198" lon="11.48459"><ele>109.0</ele><time>2026-04-18T11:42:31.925Z</time></trkpt><trkpt lat="43.8199283" lon="11.4846533"><ele>109.0</ele><time>2026-04-18T11:42:32.926Z</time></trkpt><trkpt lat="43.8200517" lon="11.4847133"><ele>109.0</ele><time>2026-04-18T11:42:33.925Z</time></trkpt><trkpt lat="43.820165" lon="11.48477"><ele>109.0</ele><time>2026-04-18T11:42:34.925Z</time></trkpt><trkpt lat="43.8202933" lon="11.4848183"><ele>109.0</ele><time>2026-04-18T11:42:35.925Z</time></trkpt><trkpt lat="43.8204183" lon="11.4848783"><ele>109.25</ele><time>2026-04-18T11:42:36.926Z</time></trkpt><trkpt lat="43.8205383" lon="11.4849267"><ele>109.5</ele><time>2026-04-18T11:42:37.926Z</time></trkpt><trkpt lat="43.820655" lon="11.4849833"><ele>109.75</ele><time>2026-04-18T11:42:38.925Z</time></trkpt><trkpt lat="43.8207633" lon="11.4850417"><ele>110.0</ele><time>2026-04-18T11:42:39.926Z</time></trkpt><trkpt lat="43.8208783" lon="11.4850967"><ele>110.0</ele><time>2026-04-18T11:42:40.925Z</time></trkpt><trkpt lat="43.8209883" lon="11.485145"><ele>110.0</ele><time>2026-04-18T11:42:41.925Z</time></trkpt><trkpt lat="43.8210967" lon="11.4851967"><ele>110.0</ele><time>2026-04-18T11:42:42.925Z</time></trkpt><trkpt lat="43.8212033" lon="11.48524"><ele>110.0</ele><time>2026-04-18T11:42:43.925Z</time></trkpt><trkpt lat="43.8213083" lon="11.4852917"><ele>110.0</ele><time>2026-04-18T11:42:44.925Z</time></trkpt><trkpt lat="43.821415" lon="11.485345"><ele>110.0</ele><time>2026-04-18T11:42:45.925Z</time></trkpt><trkpt lat="43.82152" lon="11.4853983"><ele>110.0</ele><time>2026-04-18T11:42:46.925Z</time></trkpt><trkpt lat="43.82162" lon="11.485445"><ele>110.0</ele><time>2026-04-18T11:42:47.926Z</time></trkpt><trkpt lat="43.8217183" lon="11.485495"><ele>110.0</ele><time>2026-04-18T11:42:48.925Z</time></trkpt><trkpt lat="43.8218033" lon="11.4855317"><ele>109.99999999999999</ele><time>2026-04-18T11:42:49.925Z</time></trkpt><trkpt lat="43.8218817" lon="11.48557"><ele>110.0</ele><time>2026-04-18T11:42:50.926Z</time></trkpt><trkpt lat="43.8219517" lon="11.4855983"><ele>110.0</ele><time>2026-04-18T11:42:51.925Z</time></trkpt><trkpt lat="43.8220217" lon="11.48564"><ele>110.0</ele><time>2026-04-18T11:42:52.926Z</time></trkpt><trkpt lat="43.8220983" lon="11.4856783"><ele>109.99999999999999</ele><time>2026-04-18T11:42:53.925Z</time></trkpt><trkpt lat="43.8221817" lon="11.4857183"><ele>110.0</ele><time>2026-04-18T11:42:54.926Z</time></trkpt><trkpt lat="43.8222683" lon="11.48576"><ele>110.0</ele><time>2026-04-18T11:42:55.926Z</time></trkpt><trkpt lat="43.8223583" lon="11.4858017"><ele>110.0</ele><time>2026-04-18T11:42:56.925Z</time></trkpt><trkpt lat="43.8224517" lon="11.4858383"><ele>110.0</ele><time>2026-04-18T11:42:57.926Z</time></trkpt><trkpt lat="43.8225533" lon="11.4858833"><ele>110.0</ele><time>2026-04-18T11:42:58.926Z</time></trkpt><trkpt lat="43.822655" lon="11.48593"><ele>110.0</ele><time>2026-04-18T11:42:59.926Z</time></trkpt><trkpt lat="43.8227567" lon="11.4859767"><ele>110.0</ele><time>2026-04-18T11:43:00.926Z</time></trkpt><trkpt lat="43.8228567" lon="11.48602"><ele>110.0</ele><time>2026-04-18T11:43:01.926Z</time></trkpt><trkpt lat="43.8229583" lon="11.4860617"><ele>110.0</ele><time>2026-04-18T11:43:02.926Z</time></trkpt><trkpt lat="43.8230617" lon="11.4861067"><ele>110.0</ele><time>2026-04-18T11:43:03.926Z</time></trkpt><trkpt lat="43.8231617" lon="11.4861583"><ele>110.0</ele><time>2026-04-18T11:43:04.926Z</time></trkpt><trkpt lat="43.82326" lon="11.486205"><ele>110.0</ele><time>2026-04-18T11:43:05.925Z</time></trkpt><trkpt lat="43.8233583" lon="11.48625"><ele>110.0</ele><time>2026-04-18T11:43:06.926Z</time></trkpt><trkpt lat="43.82346" lon="11.4862983"><ele>110.0</ele><time>2026-04-18T11:43:07.925Z</time></trkpt><trkpt lat="43.8235683" lon="11.4863583"><ele>110.0</ele><time>2026-04-18T11:43:08.925Z</time></trkpt><trkpt lat="43.8236667" lon="11.4864133"><ele>110.0</ele><time>2026-04-18T11:43:09.925Z</time></trkpt><trkpt lat="43.8237717" lon="11.4864883"><ele>110.75</ele><time>2026-04-18T11:43:10.925Z</time></trkpt><trkpt lat="43.8238767" lon="11.4865533"><ele>111.5</ele><time>2026-04-18T11:43:11.925Z</time></trkpt><trkpt lat="43.8239917" lon="11.4866083"><ele>112.25</ele><time>2026-04-18T11:43:12.925Z</time></trkpt><trkpt lat="43.8241083" lon="11.4866517"><ele>113.0</ele><time>2026-04-18T11:43:13.925Z</time></trkpt><trkpt lat="43.8242333" lon="11.486705"><ele>112.75</ele><time>2026-04-18T11:43:14.926Z</time></trkpt><trkpt lat="43.824345" lon="11.4867533"><ele>112.5</ele><time>2026-04-18T11:43:15.925Z</time></trkpt><trkpt lat="43.82446" lon="11.4867983"><ele>112.25</ele><time>2026-04-18T11:43:16.926Z</time></trkpt><trkpt lat="43.8245817" lon="11.486855"><ele>112.0</ele><time>2026-04-18T11:43:17.926Z</time></trkpt><trkpt lat="43.8246917" lon="11.4869"><ele>112.0</ele><time>2026-04-18T11:43:18.925Z</time></trkpt><trkpt lat="43.8248" lon="11.48695"><ele>112.0</ele><time>2026-04-18T11:43:19.925Z</time></trkpt><trkpt lat="43.824905" lon="11.4870117"><ele>112.0</ele><time>2026-04-18T11:43:20.926Z</time></trkpt><trkpt lat="43.82501" lon="11.4870633"><ele>112.0</ele><time>2026-04-18T11:43:21.925Z</time></trkpt><trkpt lat="43.8251167" lon="11.4871133"><ele>112.6</ele><time>2026-04-18T11:43:22.925Z</time></trkpt><trkpt lat="43.825225" lon="11.4871583"><ele>113.19999999999999</ele><time>2026-04-18T11:43:23.926Z</time></trkpt><trkpt lat="43.8253283" lon="11.487215"><ele>113.8</ele><time>2026-04-18T11:43:24.925Z</time></trkpt><trkpt lat="43.825425" lon="11.487255"><ele>114.4</ele><time>2026-04-18T11:43:25.926Z</time></trkpt><trkpt lat="43.825525" lon="11.4872967"><ele>115.0</ele><time>2026-04-18T11:43:26.926Z</time></trkpt><trkpt lat="43.82563" lon="11.487345"><ele>115.0</ele><time>2026-04-18T11:43:27.926Z</time></trkpt><trkpt lat="43.8257367" lon="11.4873967"><ele>115.0</ele><time>2026-04-18T11:43:28.925Z</time></trkpt><trkpt lat="43.82585" lon="11.4874483"><ele>115.0</ele><time>2026-04-18T11:43:29.926Z</time></trkpt><trkpt lat="43.825965" lon="11.4874967"><ele>115.0</ele><time>2026-04-18T11:43:30.925Z</time></trkpt><trkpt lat="43.8260717" lon="11.487545"><ele>114.8</ele><time>2026-04-18T11:43:31.926Z</time></trkpt><trkpt lat="43.826175" lon="11.487595"><ele>114.6</ele><time>2026-04-18T11:43:32.926Z</time></trkpt><trkpt lat="43.8262783" lon="11.4876417"><ele>114.4</ele><time>2026-04-18T11:43:33.925Z</time></trkpt><trkpt lat="43.826375" lon="11.4877"><ele>114.2</ele><time>2026-04-18T11:43:34.925Z</time></trkpt><trkpt lat="43.8264767" lon="11.4877733"><ele>114.0</ele><time>2026-04-18T11:43:35.925Z</time></trkpt><trkpt lat="43.8265817" lon="11.4878617"><ele>114.25</ele><time>2026-04-18T11:43:36.925Z</time></trkpt><trkpt lat="43.826665" lon="11.48798"><ele>114.5</ele><time>2026-04-18T11:43:37.925Z</time></trkpt><trkpt lat="43.8267333" lon="11.4881233"><ele>114.75</ele><time>2026-04-18T11:43:38.925Z</time></trkpt><trkpt lat="43.8267767" lon="11.4882883"><ele>115.0</ele><time>2026-04-18T11:43:39.925Z</time></trkpt><trkpt lat="43.826825" lon="11.4884533"><ele>115.25</ele><time>2026-04-18T11:43:40.925Z</time></trkpt><trkpt lat="43.8268733" lon="11.4886133"><ele>115.5</ele><time>2026-04-18T11:43:41.926Z</time></trkpt><trkpt lat="43.82691" lon="11.4887833"><ele>115.75</ele><time>2026-04-18T11:43:42.926Z</time></trkpt><trkpt lat="43.8269633" lon="11.4889333"><ele>116.0</ele><time>2026-04-18T11:43:43.925Z</time></trkpt><trkpt lat="43.8270117" lon="11.4890717"><ele>116.0</ele><time>2026-04-18T11:43:44.925Z</time></trkpt><trkpt lat="43.827065" lon="11.48919"><ele>116.0</ele><time>2026-04-18T11:43:45.926Z</time></trkpt><trkpt lat="43.8271233" lon="11.489295"><ele>116.0</ele><time>2026-04-18T11:43:46.926Z</time></trkpt><trkpt lat="43.827155" lon="11.4894067"><ele>116.0</ele><time>2026-04-18T11:43:47.926Z</time></trkpt><trkpt lat="43.8272017" lon="11.4895367"><ele>116.0</ele><time>2026-04-18T11:43:48.925Z</time></trkpt><trkpt lat="43.827245" lon="11.4897067"><ele>116.4</ele><time>2026-04-18T11:43:49.925Z</time></trkpt><trkpt lat="43.8272883" lon="11.4898583"><ele>116.8</ele><time>2026-04-18T11:43:50.925Z</time></trkpt><trkpt lat="43.827295" lon="11.4899967"><ele>117.20000000000002</ele><time>2026-04-18T11:43:51.926Z</time></trkpt><trkpt lat="43.8273167" lon="11.4901217"><ele>117.60000000000001</ele><time>2026-04-18T11:43:52.925Z</time></trkpt><trkpt lat="43.8273167" lon="11.49025"><ele>118.0</ele><time>2026-04-18T11:43:53.925Z</time></trkpt><trkpt lat="43.827305" lon="11.4903717"><ele>118.2</ele><time>2026-04-18T11:43:54.925Z</time></trkpt><trkpt lat="43.82727" lon="11.4905017"><ele>118.4</ele><time>2026-04-18T11:43:55.926Z</time></trkpt><trkpt lat="43.8272283" lon="11.49064"><ele>118.60000000000001</ele><time>2026-04-18T11:43:56.925Z</time></trkpt><trkpt lat="43.82719" lon="11.490765"><ele>118.80000000000001</ele><time>2026-04-18T11:43:57.925Z</time></trkpt><trkpt lat="43.8271517" lon="11.4908733"><ele>119.0</ele><time>2026-04-18T11:43:58.925Z</time></trkpt><trkpt lat="43.82712" lon="11.49099"><ele>119.0</ele><time>2026-04-18T11:43:59.925Z</time></trkpt><trkpt lat="43.8271167" lon="11.491115"><ele>119.0</ele><time>2026-04-18T11:44:00.926Z</time></trkpt><trkpt lat="43.8271567" lon="11.4912517"><ele>119.0</ele><time>2026-04-18T11:44:01.926Z</time></trkpt><trkpt lat="43.8272167" lon="11.4914017"><ele>119.0</ele><time>2026-04-18T11:44:02.926Z</time></trkpt><trkpt lat="43.8272683" lon="11.4915483"><ele>119.0</ele><time>2026-04-18T11:44:03.925Z</time></trkpt><trkpt lat="43.82733" lon="11.491705"><ele>118.5</ele><time>2026-04-18T11:44:04.926Z</time></trkpt><trkpt lat="43.8273917" lon="11.4918583"><ele>118.0</ele><time>2026-04-18T11:44:05.925Z</time></trkpt><trkpt lat="43.827445" lon="11.4920233"><ele>117.5</ele><time>2026-04-18T11:44:06.925Z</time></trkpt><trkpt lat="43.827505" lon="11.492185"><ele>117.0</ele><time>2026-04-18T11:44:07.925Z</time></trkpt><trkpt lat="43.8275617" lon="11.4923617"><ele>117.0</ele><time>2026-04-18T11:44:08.926Z</time></trkpt><trkpt lat="43.827615" lon="11.49253"><ele>117.0</ele><time>2026-04-18T11:44:09.925Z</time></trkpt><trkpt lat="43.8276817" lon="11.492695"><ele>117.0</ele><time>2026-04-18T11:44:10.925Z</time></trkpt><trkpt lat="43.8277417" lon="11.4928683"><ele>117.0</ele><time>2026-04-18T11:44:11.925Z</time></trkpt><trkpt lat="43.8277933" lon="11.4930467"><ele>116.25</ele><time>2026-04-18T11:44:12.925Z</time></trkpt><trkpt lat="43.8278467" lon="11.493225"><ele>115.5</ele><time>2026-04-18T11:44:13.925Z</time></trkpt><trkpt lat="43.8279" lon="11.4933767"><ele>114.75</ele><time>2026-04-18T11:44:14.925Z</time></trkpt><trkpt lat="43.8279467" lon="11.493525"><ele>114.0</ele><time>2026-04-18T11:44:15.925Z</time></trkpt><trkpt lat="43.8279917" lon="11.4936633"><ele>114.4</ele><time>2026-04-18T11:44:16.925Z</time></trkpt><trkpt lat="43.8280333" lon="11.49381"><ele>114.80000000000001</ele><time>2026-04-18T11:44:17.925Z</time></trkpt><trkpt lat="43.82807" lon="11.493955"><ele>115.19999999999999</ele><time>2026-04-18T11:44:18.925Z</time></trkpt><trkpt lat="43.8281083" lon="11.4941"><ele>115.6</ele><time>2026-04-18T11:44:19.925Z</time></trkpt><trkpt lat="43.8281433" lon="11.4942467"><ele>116.0</ele><time>2026-04-18T11:44:20.925Z</time></trkpt><trkpt lat="43.828185" lon="11.4943833"><ele>116.0</ele><time>2026-04-18T11:44:21.926Z</time></trkpt><trkpt lat="43.8282167" lon="11.49452"><ele>116.0</ele><time>2026-04-18T11:44:22.926Z</time></trkpt><trkpt lat="43.8282483" lon="11.494645"><ele>116.0</ele><time>2026-04-18T11:44:23.925Z</time></trkpt><trkpt lat="43.8282817" lon="11.494775"><ele>116.0</ele><time>2026-04-18T11:44:24.925Z</time></trkpt><trkpt lat="43.8283133" lon="11.4949"><ele>116.0</ele><time>2026-04-18T11:44:25.926Z</time></trkpt><trkpt lat="43.8283583" lon="11.495025"><ele>115.75</ele><time>2026-04-18T11:44:26.925Z</time></trkpt><trkpt lat="43.82842" lon="11.49516"><ele>115.5</ele><time>2026-04-18T11:44:27.925Z</time></trkpt><trkpt lat="43.82849" lon="11.4952883"><ele>115.25</ele><time>2026-04-18T11:44:28.926Z</time></trkpt><trkpt lat="43.8285683" lon="11.4954033"><ele>115.0</ele><time>2026-04-18T11:44:29.925Z</time></trkpt><trkpt lat="43.8286467" lon="11.4955067"><ele>115.0</ele><time>2026-04-18T11:44:30.925Z</time></trkpt><trkpt lat="43.8287183" lon="11.49561"><ele>115.0</ele><time>2026-04-18T11:44:31.925Z</time></trkpt><trkpt lat="43.8287883" lon="11.4957067"><ele>115.0</ele><time>2026-04-18T11:44:32.925Z</time></trkpt><trkpt lat="43.8288567" lon="11.4957983"><ele>115.0</ele><time>2026-04-18T11:44:33.925Z</time></trkpt><trkpt lat="43.82893" lon="11.4958917"><ele>115.0</ele><time>2026-04-18T11:44:34.925Z</time></trkpt><trkpt lat="43.8290083" lon="11.496"><ele>115.0</ele><time>2026-04-18T11:44:35.926Z</time></trkpt><trkpt lat="43.8290867" lon="11.4961017"><ele>115.0</ele><time>2026-04-18T11:44:36.925Z</time></trkpt><trkpt lat="43.8291733" lon="11.496205"><ele>115.0</ele><time>2026-04-18T11:44:37.926Z</time></trkpt><trkpt lat="43.829255" lon="11.4963017"><ele>115.0</ele><time>2026-04-18T11:44:38.926Z</time></trkpt><trkpt lat="43.8293333" lon="11.49641"><ele>115.0</ele><time>2026-04-18T11:44:39.925Z</time></trkpt><trkpt lat="43.8294217" lon="11.496515"><ele>115.0</ele><time>2026-04-18T11:44:40.926Z</time></trkpt><trkpt lat="43.82951" lon="11.4966283"><ele>115.0</ele><time>2026-04-18T11:44:41.925Z</time></trkpt><trkpt lat="43.8296083" lon="11.496745"><ele>115.0</ele><time>2026-04-18T11:44:42.926Z</time></trkpt><trkpt lat="43.82971" lon="11.496865"><ele>115.0</ele><time>2026-04-18T11:44:43.926Z</time></trkpt><trkpt lat="43.8298067" lon="11.49699"><ele>115.5</ele><time>2026-04-18T11:44:44.925Z</time></trkpt><trkpt lat="43.829905" lon="11.49713"><ele>116.0</ele><time>2026-04-18T11:44:45.926Z</time></trkpt><trkpt lat="43.8300033" lon="11.4972583"><ele>116.5</ele><time>2026-04-18T11:44:46.926Z</time></trkpt><trkpt lat="43.8301083" lon="11.4973867"><ele>117.0</ele><time>2026-04-18T11:44:47.926Z</time></trkpt><trkpt lat="43.8302167" lon="11.4975117"><ele>117.0</ele><time>2026-04-18T11:44:48.926Z</time></trkpt><trkpt lat="43.8303217" lon="11.4976333"><ele>117.0</ele><time>2026-04-18T11:44:49.926Z</time></trkpt><trkpt lat="43.8304267" lon="11.49775"><ele>117.0</ele><time>2026-04-18T11:44:50.925Z</time></trkpt><trkpt lat="43.8305417" lon="11.49785"><ele>117.0</ele><time>2026-04-18T11:44:51.925Z</time></trkpt><trkpt lat="43.8306617" lon="11.4979317"><ele>119.0</ele><time>2026-04-18T11:44:52.925Z</time></trkpt><trkpt lat="43.8307883" lon="11.498"><ele>121.0</ele><time>2026-04-18T11:44:53.925Z</time></trkpt><trkpt lat="43.8309183" lon="11.4980617"><ele>123.0</ele><time>2026-04-18T11:44:54.925Z</time></trkpt><trkpt lat="43.83106" lon="11.49813"><ele>125.0</ele><time>2026-04-18T11:44:55.926Z</time></trkpt><trkpt lat="43.8312" lon="11.4981817"><ele>125.0</ele><time>2026-04-18T11:44:56.925Z</time></trkpt><trkpt lat="43.8313433" lon="11.4982533"><ele>125.0</ele><time>2026-04-18T11:44:57.926Z</time></trkpt><trkpt lat="43.83148" lon="11.49833"><ele>125.0</ele><time>2026-04-18T11:44:58.925Z</time></trkpt><trkpt lat="43.8316217" lon="11.498395"><ele>125.0</ele><time>2026-04-18T11:44:59.926Z</time></trkpt><trkpt lat="43.8317667" lon="11.498455"><ele>124.0</ele><time>2026-04-18T11:45:00.925Z</time></trkpt><trkpt lat="43.8319083" lon="11.4985033"><ele>123.0</ele><time>2026-04-18T11:45:01.925Z</time></trkpt><trkpt lat="43.83205" lon="11.49855"><ele>122.0</ele><time>2026-04-18T11:45:02.926Z</time></trkpt><trkpt lat="43.8321867" lon="11.4985867"><ele>121.0</ele><time>2026-04-18T11:45:03.925Z</time></trkpt><trkpt lat="43.8323267" lon="11.49862"><ele>121.0</ele><time>2026-04-18T11:45:04.925Z</time></trkpt><trkpt lat="43.832465" lon="11.49864"><ele>121.0</ele><time>2026-04-18T11:45:05.925Z</time></trkpt><trkpt lat="43.832615" lon="11.4986433"><ele>121.0</ele><time>2026-04-18T11:45:06.926Z</time></trkpt><trkpt lat="43.8327617" lon="11.4986483"><ele>121.0</ele><time>2026-04-18T11:45:07.926Z</time></trkpt><trkpt lat="43.8329017" lon="11.4986383"><ele>120.5</ele><time>2026-04-18T11:45:08.925Z</time></trkpt><trkpt lat="43.8330333" lon="11.49863"><ele>120.0</ele><time>2026-04-18T11:45:09.925Z</time></trkpt><trkpt lat="43.8331567" lon="11.49863"><ele>119.5</ele><time>2026-04-18T11:45:10.925Z</time></trkpt><trkpt lat="43.8332717" lon="11.4986267"><ele>119.0</ele><time>2026-04-18T11:45:11.926Z</time></trkpt><trkpt lat="43.8333883" lon="11.498625"><ele>118.75</ele><time>2026-04-18T11:45:12.925Z</time></trkpt><trkpt lat="43.8334983" lon="11.49862"><ele>118.5</ele><time>2026-04-18T11:45:13.926Z</time></trkpt><trkpt lat="43.8336133" lon="11.4986167"><ele>118.25</ele><time>2026-04-18T11:45:14.925Z</time></trkpt><trkpt lat="43.8337367" lon="11.4986167"><ele>118.0</ele><time>2026-04-18T11:45:15.926Z</time></trkpt><trkpt lat="43.8338633" lon="11.49862"><ele>118.0</ele><time>2026-04-18T11:45:16.925Z</time></trkpt><trkpt lat="43.8339883" lon="11.49862"><ele>118.0</ele><time>2026-04-18T11:45:17.925Z</time></trkpt><trkpt lat="43.8341233" lon="11.4986167"><ele>118.0</ele><time>2026-04-18T11:45:18.925Z</time></trkpt><trkpt lat="43.834255" lon="11.4986183"><ele>118.0</ele><time>2026-04-18T11:45:19.925Z</time></trkpt><trkpt lat="43.8343817" lon="11.4986183"><ele>118.2</ele><time>2026-04-18T11:45:20.925Z</time></trkpt><trkpt lat="43.834495" lon="11.4986217"><ele>118.4</ele><time>2026-04-18T11:45:21.926Z</time></trkpt><trkpt lat="43.8346017" lon="11.4986133"><ele>118.60000000000001</ele><time>2026-04-18T11:45:22.926Z</time></trkpt><trkpt lat="43.8347117" lon="11.4986017"><ele>118.80000000000001</ele><time>2026-04-18T11:45:23.926Z</time></trkpt><trkpt lat="43.8348233" lon="11.498595"><ele>119.0</ele><time>2026-04-18T11:45:24.926Z</time></trkpt><trkpt lat="43.8349333" lon="11.4985933"><ele>119.0</ele><time>2026-04-18T11:45:25.926Z</time></trkpt><trkpt lat="43.83504" lon="11.4985883"><ele>119.0</ele><time>2026-04-18T11:45:26.925Z</time></trkpt><trkpt lat="43.8351483" lon="11.4985867"><ele>119.0</ele><time>2026-04-18T11:45:27.925Z</time></trkpt><trkpt lat="43.8352683" lon="11.4985867"><ele>119.0</ele><time>2026-04-18T11:45:28.925Z</time></trkpt><trkpt lat="43.8353867" lon="11.49858"><ele>119.25</ele><time>2026-04-18T11:45:29.925Z</time></trkpt><trkpt lat="43.8355067" lon="11.4985767"><ele>119.5</ele><time>2026-04-18T11:45:30.925Z</time></trkpt><trkpt lat="43.8356333" lon="11.4985733"><ele>119.75</ele><time>2026-04-18T11:45:31.925Z</time></trkpt><trkpt lat="43.8357617" lon="11.4985683"><ele>120.0</ele><time>2026-04-18T11:45:32.925Z</time></trkpt><trkpt lat="43.83589" lon="11.4985667"><ele>121.0</ele><time>2026-04-18T11:45:33.925Z</time></trkpt><trkpt lat="43.8360183" lon="11.498565"><ele>122.0</ele><time>2026-04-18T11:45:34.925Z</time></trkpt><trkpt lat="43.8361467" lon="11.4985583"><ele>123.0</ele><time>2026-04-18T11:45:35.925Z</time></trkpt><trkpt lat="43.8362767" lon="11.498555"><ele>124.0</ele><time>2026-04-18T11:45:36.925Z</time></trkpt><trkpt lat="43.8364117" lon="11.4985533"><ele>124.0</ele><time>2026-04-18T11:45:37.926Z</time></trkpt><trkpt lat="43.8365467" lon="11.49855"><ele>124.0</ele><time>2026-04-18T11:45:38.925Z</time></trkpt><trkpt lat="43.8366817" lon="11.4985467"><ele>124.0</ele><time>2026-04-18T11:45:39.925Z</time></trkpt><trkpt lat="43.8368117" lon="11.4985517"><ele>124.0</ele><time>2026-04-18T11:45:40.925Z</time></trkpt><trkpt lat="43.8369317" lon="11.498575"><ele>124.5</ele><time>2026-04-18T11:45:41.925Z</time></trkpt><trkpt lat="43.837025" lon="11.4986217"><ele>125.0</ele><time>2026-04-18T11:45:42.926Z</time></trkpt><trkpt lat="43.8371183" lon="11.4986967"><ele>125.5</ele><time>2026-04-18T11:45:43.926Z</time></trkpt><trkpt lat="43.837215" lon="11.4988033"><ele>126.0</ele><time>2026-04-18T11:45:44.925Z</time></trkpt><trkpt lat="43.8373183" lon="11.49892"><ele>127.0</ele><time>2026-04-18T11:45:45.926Z</time></trkpt><trkpt lat="43.8374183" lon="11.4990367"><ele>128.0</ele><time>2026-04-18T11:45:46.925Z</time></trkpt><trkpt lat="43.837505" lon="11.4991817"><ele>129.0</ele><time>2026-04-18T11:45:47.925Z</time></trkpt><trkpt lat="43.83758" lon="11.499355"><ele>130.0</ele><time>2026-04-18T11:45:48.925Z</time></trkpt><trkpt lat="43.8376317" lon="11.49954"><ele>131.0</ele><time>2026-04-18T11:45:49.925Z</time></trkpt><trkpt lat="43.8376683" lon="11.49971"><ele>132.0</ele><time>2026-04-18T11:45:50.925Z</time></trkpt><trkpt lat="43.8377133" lon="11.499865"><ele>133.0</ele><time>2026-04-18T11:45:51.926Z</time></trkpt><trkpt lat="43.8377733" lon="11.5000133"><ele>134.0</ele><time>2026-04-18T11:45:52.925Z</time></trkpt><trkpt lat="43.8378617" lon="11.5001333"><ele>134.0</ele><time>2026-04-18T11:45:53.925Z</time></trkpt><trkpt lat="43.8379583" lon="11.5002233"><ele>134.0</ele><time>2026-04-18T11:45:54.925Z</time></trkpt><trkpt lat="43.8380717" lon="11.500285"><ele>134.0</ele><time>2026-04-18T11:45:55.925Z</time></trkpt><trkpt lat="43.83819" lon="11.5003283"><ele>134.0</ele><time>2026-04-18T11:45:56.925Z</time></trkpt><trkpt lat="43.8383083" lon="11.5003583"><ele>134.0</ele><time>2026-04-18T11:45:57.925Z</time></trkpt><trkpt lat="43.8384383" lon="11.500395"><ele>134.0</ele><time>2026-04-18T11:45:58.925Z</time></trkpt><trkpt lat="43.838565" lon="11.5004333"><ele>134.0</ele><time>2026-04-18T11:45:59.926Z</time></trkpt><trkpt lat="43.8386833" lon="11.5004683"><ele>134.0</ele><time>2026-04-18T11:46:00.925Z</time></trkpt><trkpt lat="43.838805" lon="11.5005033"><ele>136.0</ele><time>2026-04-18T11:46:01.925Z</time></trkpt><trkpt lat="43.8389217" lon="11.50053"><ele>138.0</ele><time>2026-04-18T11:46:02.925Z</time></trkpt><trkpt lat="43.83905" lon="11.500565"><ele>140.0</ele><time>2026-04-18T11:46:03.926Z</time></trkpt><trkpt lat="43.8391683" lon="11.5006083"><ele>142.0</ele><time>2026-04-18T11:46:04.925Z</time></trkpt><trkpt lat="43.8392783" lon="11.5006383"><ele>142.5</ele><time>2026-04-18T11:46:05.925Z</time></trkpt><trkpt lat="43.83936" lon="11.5006667"><ele>143.0</ele><time>2026-04-18T11:46:06.925Z</time></trkpt><trkpt lat="43.8394267" lon="11.50069"><ele>143.5</ele><time>2026-04-18T11:46:07.925Z</time></trkpt><trkpt lat="43.839525" lon="11.5007483"><ele>144.0</ele><time>2026-04-18T11:46:09.925Z</time></trkpt><trkpt lat="43.8395333" lon="11.5008983"><ele>144.5</ele><time>2026-04-18T11:46:11.925Z</time></trkpt><trkpt lat="43.8395083" lon="11.5009967"><ele>145.0</ele><time>2026-04-18T11:46:12.926Z</time></trkpt><trkpt lat="43.839495" lon="11.501105"><ele>145.0</ele><time>2026-04-18T11:46:13.925Z</time></trkpt><trkpt lat="43.8395033" lon="11.5012033"><ele>145.0</ele><time>2026-04-18T11:46:14.925Z</time></trkpt><trkpt lat="43.8395633" lon="11.5013617"><ele>145.0</ele><time>2026-04-18T11:46:16.925Z</time></trkpt><trkpt lat="43.83961" lon="11.5014667"><ele>145.0</ele><time>2026-04-18T11:46:17.925Z</time></trkpt><trkpt lat="43.8396667" lon="11.5015933"><ele>145.0</ele><time>2026-04-18T11:46:18.925Z</time></trkpt><trkpt lat="43.8397317" lon="11.50173"><ele>146.0</ele><time>2026-04-18T11:46:19.925Z</time></trkpt><trkpt lat="43.8397933" lon="11.501885"><ele>147.0</ele><time>2026-04-18T11:46:20.926Z</time></trkpt><trkpt lat="43.83986" lon="11.50204"><ele>148.0</ele><time>2026-04-18T11:46:21.925Z</time></trkpt><trkpt lat="43.8399383" lon="11.502205"><ele>149.0</ele><time>2026-04-18T11:46:22.925Z</time></trkpt><trkpt lat="43.84002" lon="11.502365"><ele>150.2</ele><time>2026-04-18T11:46:23.926Z</time></trkpt><trkpt lat="43.8400883" lon="11.5025183"><ele>151.4</ele><time>2026-04-18T11:46:24.926Z</time></trkpt><trkpt lat="43.84015" lon="11.5026533"><ele>152.6</ele><time>2026-04-18T11:46:25.925Z</time></trkpt><trkpt lat="43.8401833" lon="11.5027767"><ele>153.8</ele><time>2026-04-18T11:46:26.925Z</time></trkpt><trkpt lat="43.8401883" lon="11.5029067"><ele>155.0</ele><time>2026-04-18T11:46:27.925Z</time></trkpt><trkpt lat="43.8401683" lon="11.5030267"><ele>157.8</ele><time>2026-04-18T11:46:28.925Z</time></trkpt><trkpt lat="43.8401283" lon="11.5031333"><ele>160.6</ele><time>2026-04-18T11:46:29.925Z</time></trkpt><trkpt lat="43.8400683" lon="11.5032417"><ele>163.39999999999998</ele><time>2026-04-18T11:46:30.925Z</time></trkpt><trkpt lat="43.8399917" lon="11.5033483"><ele>166.2</ele><time>2026-04-18T11:46:31.925Z</time></trkpt><trkpt lat="43.8399167" lon="11.503455"><ele>169.0</ele><time>2026-04-18T11:46:32.925Z</time></trkpt><trkpt lat="43.8398383" lon="11.5035533"><ele>169.0</ele><time>2026-04-18T11:46:33.925Z</time></trkpt><trkpt lat="43.8397733" lon="11.50366"><ele>169.0</ele><time>2026-04-18T11:46:34.925Z</time></trkpt><trkpt lat="43.839735" lon="11.5037583"><ele>169.0</ele><time>2026-04-18T11:46:35.925Z</time></trkpt><trkpt lat="43.83973" lon="11.50386"><ele>169.0</ele><time>2026-04-18T11:46:36.925Z</time></trkpt><trkpt lat="43.839735" lon="11.5039617"><ele>169.0</ele><time>2026-04-18T11:46:37.925Z</time></trkpt><trkpt lat="43.8398" lon="11.5040133"><ele>169.0</ele><time>2026-04-18T11:46:38.925Z</time></trkpt><trkpt lat="43.839865" lon="11.5040233"><ele>169.0</ele><time>2026-04-18T11:46:39.925Z</time></trkpt><trkpt lat="43.83998" lon="11.5039133"><ele>169.0</ele><time>2026-04-18T11:46:41.926Z</time></trkpt><trkpt lat="43.8400417" lon="11.50381"><ele>169.0</ele><time>2026-04-18T11:46:42.925Z</time></trkpt><trkpt lat="43.84013" lon="11.5036883"><ele>169.0</ele><time>2026-04-18T11:46:43.926Z</time></trkpt><trkpt lat="43.8402067" lon="11.5035783"><ele>169.79999999999998</ele><time>2026-04-18T11:46:44.925Z</time></trkpt><trkpt lat="43.8402717" lon="11.5034983"><ele>170.6</ele><time>2026-04-18T11:46:45.925Z</time></trkpt><trkpt lat="43.8403367" lon="11.5034617"><ele>171.4</ele><time>2026-04-18T11:46:46.925Z</time></trkpt><trkpt lat="43.840415" lon="11.5035033"><ele>172.2</ele><time>2026-04-18T11:46:48.926Z</time></trkpt><trkpt lat="43.8403733" lon="11.5036483"><ele>173.0</ele><time>2026-04-18T11:46:50.926Z</time></trkpt><trkpt lat="43.8403083" lon="11.5037467"><ele>174.60000000000002</ele><time>2026-04-18T11:46:51.925Z</time></trkpt><trkpt lat="43.8402367" lon="11.50386"><ele>176.20000000000002</ele><time>2026-04-18T11:46:52.925Z</time></trkpt><trkpt lat="43.84017" lon="11.503985"><ele>177.8</ele><time>2026-04-18T11:46:53.926Z</time></trkpt><trkpt lat="43.8401167" lon="11.504105"><ele>179.4</ele><time>2026-04-18T11:46:54.926Z</time></trkpt><trkpt lat="43.8400817" lon="11.5042033"><ele>181.0</ele><time>2026-04-18T11:46:55.926Z</time></trkpt><trkpt lat="43.8400683" lon="11.5042967"><ele>182.8</ele><time>2026-04-18T11:46:56.925Z</time></trkpt><trkpt lat="43.840135" lon="11.5044117"><ele>184.60000000000002</ele><time>2026-04-18T11:46:58.925Z</time></trkpt><trkpt lat="43.84025" lon="11.5043167"><ele>186.4</ele><time>2026-04-18T11:47:00.925Z</time></trkpt><trkpt lat="43.8403083" lon="11.5042233"><ele>188.2</ele><time>2026-04-18T11:47:01.925Z</time></trkpt><trkpt lat="43.8403717" lon="11.504135"><ele>190.0</ele><time>2026-04-18T11:47:02.925Z</time></trkpt><trkpt lat="43.8404433" lon="11.5040617"><ele>190.0</ele><time>2026-04-18T11:47:03.926Z</time></trkpt><trkpt lat="43.8405133" lon="11.5040333"><ele>190.0</ele><time>2026-04-18T11:47:04.926Z</time></trkpt><trkpt lat="43.840575" lon="11.504055"><ele>190.0</ele><time>2026-04-18T11:47:05.926Z</time></trkpt><trkpt lat="43.8406267" lon="11.5041117"><ele>190.0</ele><time>2026-04-18T11:47:06.926Z</time></trkpt><trkpt lat="43.8406683" lon="11.50422"><ele>190.0</ele><time>2026-04-18T11:47:07.925Z</time></trkpt><trkpt lat="43.8406967" lon="11.5043683"><ele>190.0</ele><time>2026-04-18T11:47:08.926Z</time></trkpt><trkpt lat="43.8407167" lon="11.5045417"><ele>191.75</ele><time>2026-04-18T11:47:09.925Z</time></trkpt><trkpt lat="43.8407317" lon="11.5047217"><ele>193.5</ele><time>2026-04-18T11:47:10.925Z</time></trkpt><trkpt lat="43.8407367" lon="11.5049033"><ele>195.25</ele><time>2026-04-18T11:47:11.925Z</time></trkpt><trkpt lat="43.8407267" lon="11.5050767"><ele>197.0</ele><time>2026-04-18T11:47:12.925Z</time></trkpt><trkpt lat="43.8407033" lon="11.5052483"><ele>197.5</ele><time>2026-04-18T11:47:13.925Z</time></trkpt><trkpt lat="43.8406517" lon="11.5054167"><ele>198.0</ele><time>2026-04-18T11:47:14.925Z</time></trkpt><trkpt lat="43.8406033" lon="11.5055833"><ele>198.5</ele><time>2026-04-18T11:47:15.925Z</time></trkpt><trkpt lat="43.8405533" lon="11.505755"><ele>199.0</ele><time>2026-04-18T11:47:16.925Z</time></trkpt><trkpt lat="43.8405067" lon="11.5059217"><ele>199.0</ele><time>2026-04-18T11:47:17.926Z</time></trkpt><trkpt lat="43.8404783" lon="11.5060867"><ele>199.0</ele><time>2026-04-18T11:47:18.926Z</time></trkpt><trkpt lat="43.8404667" lon="11.5062533"><ele>199.0</ele><time>2026-04-18T11:47:19.925Z</time></trkpt><trkpt lat="43.8404717" lon="11.5064217"><ele>199.0</ele><time>2026-04-18T11:47:20.926Z</time></trkpt><trkpt lat="43.8405067" lon="11.5065983"><ele>200.75</ele><time>2026-04-18T11:47:21.925Z</time></trkpt><trkpt lat="43.8405683" lon="11.5067817"><ele>202.5</ele><time>2026-04-18T11:47:22.925Z</time></trkpt><trkpt lat="43.84062" lon="11.506965"><ele>204.25</ele><time>2026-04-18T11:47:23.925Z</time></trkpt><trkpt lat="43.8406667" lon="11.5071417"><ele>206.0</ele><time>2026-04-18T11:47:24.925Z</time></trkpt><trkpt lat="43.8407167" lon="11.5073033"><ele>208.75</ele><time>2026-04-18T11:47:25.925Z</time></trkpt><trkpt lat="43.8407433" lon="11.50745"><ele>211.5</ele><time>2026-04-18T11:47:26.925Z</time></trkpt><trkpt lat="43.84073" lon="11.5076233"><ele>214.25</ele><time>2026-04-18T11:47:27.925Z</time></trkpt><trkpt lat="43.840705" lon="11.50782"><ele>217.0</ele><time>2026-04-18T11:47:28.925Z</time></trkpt><trkpt lat="43.8406683" lon="11.5080367"><ele>219.0</ele><time>2026-04-18T11:47:29.925Z</time></trkpt><trkpt lat="43.8406317" lon="11.50825"><ele>221.0</ele><time>2026-04-18T11:47:30.925Z</time></trkpt><trkpt lat="43.8405983" lon="11.50845"><ele>223.0</ele><time>2026-04-18T11:47:31.926Z</time></trkpt><trkpt lat="43.8405717" lon="11.508635"><ele>225.0</ele><time>2026-04-18T11:47:32.925Z</time></trkpt><trkpt lat="43.8405533" lon="11.5088033"><ele>226.4</ele><time>2026-04-18T11:47:33.926Z</time></trkpt><trkpt lat="43.8405367" lon="11.50895"><ele>227.8</ele><time>2026-04-18T11:47:34.925Z</time></trkpt><trkpt lat="43.8405417" lon="11.509095"><ele>229.2</ele><time>2026-04-18T11:47:35.926Z</time></trkpt><trkpt lat="43.8405767" lon="11.5092233"><ele>230.6</ele><time>2026-04-18T11:47:36.925Z</time></trkpt><trkpt lat="43.8406433" lon="11.509335"><ele>232.0</ele><time>2026-04-18T11:47:37.925Z</time></trkpt><trkpt lat="43.8407333" lon="11.509445"><ele>232.0</ele><time>2026-04-18T11:47:38.925Z</time></trkpt><trkpt lat="43.8408283" lon="11.5095267"><ele>232.0</ele><time>2026-04-18T11:47:39.925Z</time></trkpt><trkpt lat="43.8409333" lon="11.50958"><ele>232.0</ele><time>2026-04-18T11:47:40.925Z</time></trkpt><trkpt lat="43.8410467" lon="11.5095917"><ele>232.0</ele><time>2026-04-18T11:47:41.926Z</time></trkpt><trkpt lat="43.8411717" lon="11.5095683"><ele>234.33333333333331</ele><time>2026-04-18T11:47:42.925Z</time></trkpt><trkpt lat="43.841315" lon="11.5095183"><ele>236.66666666666669</ele><time>2026-04-18T11:47:43.925Z</time></trkpt><trkpt lat="43.8414633" lon="11.5094567"><ele>239.0</ele><time>2026-04-18T11:47:44.925Z</time></trkpt><trkpt lat="43.8416133" lon="11.5093733"><ele>239.0</ele><time>2026-04-18T11:47:45.925Z</time></trkpt><trkpt lat="43.841755" lon="11.5092733"><ele>239.0</ele><time>2026-04-18T11:47:46.925Z</time></trkpt><trkpt lat="43.8418817" lon="11.5091283"><ele>239.0</ele><time>2026-04-18T11:47:47.926Z</time></trkpt><trkpt lat="43.8420033" lon="11.5089583"><ele>243.0</ele><time>2026-04-18T11:47:48.926Z</time></trkpt><trkpt lat="43.8421267" lon="11.5087633"><ele>247.0</ele><time>2026-04-18T11:47:49.925Z</time></trkpt><trkpt lat="43.84225" lon="11.50857"><ele>251.0</ele><time>2026-04-18T11:47:50.925Z</time></trkpt><trkpt lat="43.842355" lon="11.50841"><ele>251.0</ele><time>2026-04-18T11:47:51.925Z</time></trkpt><trkpt lat="43.842445" lon="11.508265"><ele>251.0</ele><time>2026-04-18T11:47:52.926Z</time></trkpt><trkpt lat="43.84252" lon="11.508135"><ele>251.0</ele><time>2026-04-18T11:47:53.925Z</time></trkpt><trkpt lat="43.8425883" lon="11.5080217"><ele>251.0</ele><time>2026-04-18T11:47:54.926Z</time></trkpt><trkpt lat="43.8426567" lon="11.5079383"><ele>252.0</ele><time>2026-04-18T11:47:55.926Z</time></trkpt><trkpt lat="43.842725" lon="11.507885"><ele>253.00000000000003</ele><time>2026-04-18T11:47:56.926Z</time></trkpt><trkpt lat="43.842855" lon="11.5078867"><ele>254.00000000000003</ele><time>2026-04-18T11:47:58.925Z</time></trkpt><trkpt lat="43.8429283" lon="11.507955"><ele>255.0</ele><time>2026-04-18T11:47:59.925Z</time></trkpt><trkpt lat="43.8430133" lon="11.508075"><ele>256.0</ele><time>2026-04-18T11:48:00.926Z</time></trkpt><trkpt lat="43.843095" lon="11.5082133"><ele>256.0</ele><time>2026-04-18T11:48:01.925Z</time></trkpt><trkpt lat="43.8431567" lon="11.5083367"><ele>256.0</ele><time>2026-04-18T11:48:02.925Z</time></trkpt><trkpt lat="43.8431917" lon="11.508465"><ele>256.0</ele><time>2026-04-18T11:48:03.925Z</time></trkpt><trkpt lat="43.843195" lon="11.5085933"><ele>256.0</ele><time>2026-04-18T11:48:04.925Z</time></trkpt><trkpt lat="43.8431683" lon="11.508735"><ele>256.0</ele><time>2026-04-18T11:48:05.926Z</time></trkpt><trkpt lat="43.8431" lon="11.508885"><ele>257.66666666666663</ele><time>2026-04-18T11:48:06.926Z</time></trkpt><trkpt lat="43.8430167" lon="11.50906"><ele>259.3333333333333</ele><time>2026-04-18T11:48:07.925Z</time></trkpt><trkpt lat="43.84293" lon="11.50925"><ele>261.0</ele><time>2026-04-18T11:48:08.926Z</time></trkpt><trkpt lat="43.8428333" lon="11.5094617"><ele>262.6666666666667</ele><time>2026-04-18T11:48:09.926Z</time></trkpt><trkpt lat="43.8427367" lon="11.50967"><ele>264.33333333333337</ele><time>2026-04-18T11:48:10.926Z</time></trkpt><trkpt lat="43.8426383" lon="11.5098733"><ele>266.0</ele><time>2026-04-18T11:48:11.925Z</time></trkpt><trkpt lat="43.8425267" lon="11.5100617"><ele>267.25</ele><time>2026-04-18T11:48:12.925Z</time></trkpt><trkpt lat="43.8424133" lon="11.5102283"><ele>268.5</ele><time>2026-04-18T11:48:13.925Z</time></trkpt><trkpt lat="43.8423067" lon="11.5103483"><ele>269.75</ele><time>2026-04-18T11:48:14.925Z</time></trkpt><trkpt lat="43.8421917" lon="11.5104317"><ele>271.0</ele><time>2026-04-18T11:48:15.926Z</time></trkpt><trkpt lat="43.8420967" lon="11.510505"><ele>274.0</ele><time>2026-04-18T11:48:16.925Z</time></trkpt><trkpt lat="43.84202" lon="11.51059"><ele>277.0</ele><time>2026-04-18T11:48:17.925Z</time></trkpt><trkpt lat="43.8419483" lon="11.51071"><ele>280.0</ele><time>2026-04-18T11:48:18.925Z</time></trkpt><trkpt lat="43.8418917" lon="11.51086"><ele>283.0</ele><time>2026-04-18T11:48:19.926Z</time></trkpt><trkpt lat="43.8418433" lon="11.5110383"><ele>284.0</ele><time>2026-04-18T11:48:20.926Z</time></trkpt><trkpt lat="43.8417917" lon="11.51123"><ele>285.0</ele><time>2026-04-18T11:48:21.925Z</time></trkpt><trkpt lat="43.8417433" lon="11.51142"><ele>286.0</ele><time>2026-04-18T11:48:22.925Z</time></trkpt><trkpt lat="43.8416917" lon="11.51161"><ele>287.0</ele><time>2026-04-18T11:48:23.926Z</time></trkpt><trkpt lat="43.8416183" lon="11.5117783"><ele>287.0</ele><time>2026-04-18T11:48:24.926Z</time></trkpt><trkpt lat="43.8415167" lon="11.511925"><ele>287.0</ele><time>2026-04-18T11:48:25.925Z</time></trkpt><trkpt lat="43.8414283" lon="11.5120483"><ele>287.0</ele><time>2026-04-18T11:48:26.926Z</time></trkpt><trkpt lat="43.84136" lon="11.5121417"><ele>287.0</ele><time>2026-04-18T11:48:27.925Z</time></trkpt><trkpt lat="43.84131" lon="11.5122317"><ele>289.8</ele><time>2026-04-18T11:48:28.925Z</time></trkpt><trkpt lat="43.841325" lon="11.512385"><ele>292.6</ele><time>2026-04-18T11:48:30.925Z</time></trkpt><trkpt lat="43.8414167" lon="11.5123783"><ele>295.40000000000003</ele><time>2026-04-18T11:48:32.925Z</time></trkpt><trkpt lat="43.8415117" lon="11.5122883"><ele>298.2</ele><time>2026-04-18T11:48:33.925Z</time></trkpt><trkpt lat="43.841615" lon="11.5122083"><ele>301.0</ele><time>2026-04-18T11:48:34.925Z</time></trkpt><trkpt lat="43.84171" lon="11.5121617"><ele>300.0</ele><time>2026-04-18T11:48:35.925Z</time></trkpt><trkpt lat="43.8418067" lon="11.512175"><ele>299.0</ele><time>2026-04-18T11:48:36.925Z</time></trkpt><trkpt lat="43.8419067" lon="11.5122333"><ele>298.0</ele><time>2026-04-18T11:48:37.925Z</time></trkpt><trkpt lat="43.842005" lon="11.5123233"><ele>297.0</ele><time>2026-04-18T11:48:38.925Z</time></trkpt><trkpt lat="43.8421" lon="11.5124433"><ele>297.0</ele><time>2026-04-18T11:48:39.925Z</time></trkpt><trkpt lat="43.84216" lon="11.5125717"><ele>297.0</ele><time>2026-04-18T11:48:40.925Z</time></trkpt><trkpt lat="43.84217" lon="11.5126933"><ele>297.0</ele><time>2026-04-18T11:48:41.926Z</time></trkpt><trkpt lat="43.8421467" lon="11.5128083"><ele>297.0</ele><time>2026-04-18T11:48:42.925Z</time></trkpt><trkpt lat="43.8420917" lon="11.5129133"><ele>297.0</ele><time>2026-04-18T11:48:43.926Z</time></trkpt><trkpt lat="43.8420033" lon="11.513015"><ele>297.25</ele><time>2026-04-18T11:48:44.926Z</time></trkpt><trkpt lat="43.84191" lon="11.513125"><ele>297.5</ele><time>2026-04-18T11:48:45.926Z</time></trkpt><trkpt lat="43.8418167" lon="11.513215"><ele>297.75</ele><time>2026-04-18T11:48:46.925Z</time></trkpt><trkpt lat="43.8417117" lon="11.5132617"><ele>298.0</ele><time>2026-04-18T11:48:47.925Z</time></trkpt><trkpt lat="43.8416067" lon="11.5132583"><ele>300.8</ele><time>2026-04-18T11:48:48.925Z</time></trkpt><trkpt lat="43.8415033" lon="11.5132083"><ele>303.6</ele><time>2026-04-18T11:48:49.925Z</time></trkpt><trkpt lat="43.8413967" lon="11.5131567"><ele>306.4</ele><time>2026-04-18T11:48:50.925Z</time></trkpt><trkpt lat="43.8412967" lon="11.51313"><ele>309.2</ele><time>2026-04-18T11:48:51.925Z</time></trkpt><trkpt lat="43.841205" lon="11.5131483"><ele>312.0</ele><time>2026-04-18T11:48:52.925Z</time></trkpt><trkpt lat="43.84112" lon="11.5132017"><ele>312.0</ele><time>2026-04-18T11:48:53.926Z</time></trkpt><trkpt lat="43.8410433" lon="11.5133133"><ele>312.0</ele><time>2026-04-18T11:48:54.925Z</time></trkpt><trkpt lat="43.8409633" lon="11.5134483"><ele>312.0</ele><time>2026-04-18T11:48:55.925Z</time></trkpt><trkpt lat="43.8408817" lon="11.51358"><ele>312.0</ele><time>2026-04-18T11:48:56.926Z</time></trkpt><trkpt lat="43.8408133" lon="11.51372"><ele>314.25</ele><time>2026-04-18T11:48:57.925Z</time></trkpt><trkpt lat="43.8407633" lon="11.5138917"><ele>316.5</ele><time>2026-04-18T11:48:58.925Z</time></trkpt><trkpt lat="43.8407267" lon="11.5140833"><ele>318.75</ele><time>2026-04-18T11:48:59.925Z</time></trkpt><trkpt lat="43.8406667" lon="11.5142733"><ele>321.0</ele><time>2026-04-18T11:49:00.925Z</time></trkpt><trkpt lat="43.8405883" lon="11.51444"><ele>321.0</ele><time>2026-04-18T11:49:01.926Z</time></trkpt><trkpt lat="43.8405067" lon="11.5145633"><ele>321.0</ele><time>2026-04-18T11:49:02.926Z</time></trkpt><trkpt lat="43.8404117" lon="11.5146433"><ele>321.0</ele><time>2026-04-18T11:49:03.926Z</time></trkpt><trkpt lat="43.8403267" lon="11.51472"><ele>321.0</ele><time>2026-04-18T11:49:04.925Z</time></trkpt><trkpt lat="43.8402483" lon="11.5148417"><ele>321.0</ele><time>2026-04-18T11:49:05.925Z</time></trkpt><trkpt lat="43.8401633" lon="11.5149983"><ele>321.0</ele><time>2026-04-18T11:49:06.926Z</time></trkpt><trkpt lat="43.8400783" lon="11.5151567"><ele>321.0</ele><time>2026-04-18T11:49:07.925Z</time></trkpt><trkpt lat="43.8399983" lon="11.5152983"><ele>321.0</ele><time>2026-04-18T11:49:08.925Z</time></trkpt><trkpt lat="43.83993" lon="11.5154117"><ele>323.4</ele><time>2026-04-18T11:49:09.925Z</time></trkpt><trkpt lat="43.8398783" lon="11.5155267"><ele>325.8</ele><time>2026-04-18T11:49:10.926Z</time></trkpt><trkpt lat="43.83986" lon="11.51565"><ele>328.2</ele><time>2026-04-18T11:49:11.925Z</time></trkpt><trkpt lat="43.8398683" lon="11.51577"><ele>330.59999999999997</ele><time>2026-04-18T11:49:12.925Z</time></trkpt><trkpt lat="43.8399067" lon="11.5159067"><ele>333.0</ele><time>2026-04-18T11:49:13.926Z</time></trkpt><trkpt lat="43.83995" lon="11.5160567"><ele>333.0</ele><time>2026-04-18T11:49:14.925Z</time></trkpt><trkpt lat="43.8399783" lon="11.51621"><ele>333.0</ele><time>2026-04-18T11:49:15.925Z</time></trkpt><trkpt lat="43.84" lon="11.5163717"><ele>333.0</ele><time>2026-04-18T11:49:16.926Z</time></trkpt><trkpt lat="43.8400283" lon="11.51652"><ele>333.0</ele><time>2026-04-18T11:49:17.925Z</time></trkpt><trkpt lat="43.8400767" lon="11.5166467"><ele>333.0</ele><time>2026-04-18T11:49:18.925Z</time></trkpt><trkpt lat="43.84016" lon="11.5167683"><ele>334.2</ele><time>2026-04-18T11:49:19.925Z</time></trkpt><trkpt lat="43.8402583" lon="11.5168833"><ele>335.4</ele><time>2026-04-18T11:49:20.925Z</time></trkpt><trkpt lat="43.8403283" lon="11.516995"><ele>336.59999999999997</ele><time>2026-04-18T11:49:21.925Z</time></trkpt><trkpt lat="43.8403817" lon="11.5171167"><ele>337.79999999999995</ele><time>2026-04-18T11:49:22.925Z</time></trkpt><trkpt lat="43.8404033" lon="11.5172333"><ele>339.0</ele><time>2026-04-18T11:49:23.925Z</time></trkpt><trkpt lat="43.840385" lon="11.51733"><ele>341.0</ele><time>2026-04-18T11:49:24.926Z</time></trkpt><trkpt lat="43.840355" lon="11.5174083"><ele>343.0</ele><time>2026-04-18T11:49:25.926Z</time></trkpt><trkpt lat="43.8402817" lon="11.5174433"><ele>345.0</ele><time>2026-04-18T11:49:26.925Z</time></trkpt><trkpt lat="43.8401883" lon="11.5174467"><ele>347.0</ele><time>2026-04-18T11:49:27.925Z</time></trkpt><trkpt lat="43.8400717" lon="11.5174433"><ele>349.0</ele><time>2026-04-18T11:49:28.925Z</time></trkpt><trkpt lat="43.8399367" lon="11.51743"><ele>350.5</ele><time>2026-04-18T11:49:29.925Z</time></trkpt><trkpt lat="43.8398" lon="11.5174183"><ele>352.0</ele><time>2026-04-18T11:49:30.925Z</time></trkpt><trkpt lat="43.83967" lon="11.5174067"><ele>353.5</ele><time>2026-04-18T11:49:31.925Z</time></trkpt><trkpt lat="43.8395517" lon="11.5174017"><ele>355.0</ele><time>2026-04-18T11:49:32.926Z</time></trkpt><trkpt lat="43.8394283" lon="11.517415"><ele>355.0</ele><time>2026-04-18T11:49:33.926Z</time></trkpt><trkpt lat="43.8393083" lon="11.517445"><ele>355.0</ele><time>2026-04-18T11:49:34.925Z</time></trkpt><trkpt lat="43.8391967" lon="11.5174867"><ele>355.0</ele><time>2026-04-18T11:49:35.925Z</time></trkpt><trkpt lat="43.8390867" lon="11.517565"><ele>355.0</ele><time>2026-04-18T11:49:36.925Z</time></trkpt><trkpt lat="43.83899" lon="11.5176717"><ele>355.66666666666663</ele><time>2026-04-18T11:49:37.925Z</time></trkpt><trkpt lat="43.8389033" lon="11.5177733"><ele>356.3333333333333</ele><time>2026-04-18T11:49:38.925Z</time></trkpt><trkpt lat="43.8388333" lon="11.5178567"><ele>357.0</ele><time>2026-04-18T11:49:39.925Z</time></trkpt><trkpt lat="43.8387733" lon="11.5179067"><ele>357.6666666666667</ele><time>2026-04-18T11:49:40.925Z</time></trkpt><trkpt lat="43.83871" lon="11.517915"><ele>358.33333333333337</ele><time>2026-04-18T11:49:41.926Z</time></trkpt><trkpt lat="43.8386467" lon="11.5178917"><ele>359.0</ele><time>2026-04-18T11:49:42.925Z</time></trkpt><trkpt lat="43.8385783" lon="11.5178283"><ele>359.0</ele><time>2026-04-18T11:49:43.925Z</time></trkpt><trkpt lat="43.83852" lon="11.5177117"><ele>359.0</ele><time>2026-04-18T11:49:44.926Z</time></trkpt><trkpt lat="43.838465" lon="11.517565"><ele>359.0</ele><time>2026-04-18T11:49:45.926Z</time></trkpt><trkpt lat="43.838415" lon="11.5174017"><ele>359.0</ele><time>2026-04-18T11:49:46.925Z</time></trkpt><trkpt lat="43.8383883" lon="11.5172083"><ele>364.25</ele><time>2026-04-18T11:49:47.926Z</time></trkpt><trkpt lat="43.8383767" lon="11.51699"><ele>369.5</ele><time>2026-04-18T11:49:48.925Z</time></trkpt><trkpt lat="43.8383517" lon="11.51679"><ele>374.75</ele><time>2026-04-18T11:49:49.925Z</time></trkpt><trkpt lat="43.8383317" lon="11.5166117"><ele>380.0</ele><time>2026-04-18T11:49:50.925Z</time></trkpt><trkpt lat="43.8383017" lon="11.516455"><ele>380.0</ele><time>2026-04-18T11:49:51.926Z</time></trkpt><trkpt lat="43.838265" lon="11.5163283"><ele>380.0</ele><time>2026-04-18T11:49:52.926Z</time></trkpt><trkpt lat="43.8382117" lon="11.5162283"><ele>380.0</ele><time>2026-04-18T11:49:53.925Z</time></trkpt><trkpt lat="43.8381483" lon="11.51614"><ele>380.0</ele><time>2026-04-18T11:49:54.925Z</time></trkpt><trkpt lat="43.8380633" lon="11.5160817"><ele>380.0</ele><time>2026-04-18T11:49:55.925Z</time></trkpt><trkpt lat="43.8379733" lon="11.51606"><ele>379.4</ele><time>2026-04-18T11:49:56.926Z</time></trkpt><trkpt lat="43.837885" lon="11.51606"><ele>378.8</ele><time>2026-04-18T11:49:57.926Z</time></trkpt><trkpt lat="43.837785" lon="11.5160767"><ele>378.20000000000005</ele><time>2026-04-18T11:49:58.926Z</time></trkpt><trkpt lat="43.837685" lon="11.5161033"><ele>377.6</ele><time>2026-04-18T11:49:59.926Z</time></trkpt><trkpt lat="43.8375783" lon="11.5161533"><ele>377.0</ele><time>2026-04-18T11:50:00.925Z</time></trkpt><trkpt lat="43.83748" lon="11.5162267"><ele>380.5</ele><time>2026-04-18T11:50:01.925Z</time></trkpt><trkpt lat="43.8373867" lon="11.5163083"><ele>384.0</ele><time>2026-04-18T11:50:02.925Z</time></trkpt><trkpt lat="43.8372983" lon="11.5164017"><ele>387.5</ele><time>2026-04-18T11:50:03.926Z</time></trkpt><trkpt lat="43.8372067" lon="11.516495"><ele>391.0</ele><time>2026-04-18T11:50:04.925Z</time></trkpt><trkpt lat="43.8371117" lon="11.5165883"><ele>391.0</ele><time>2026-04-18T11:50:05.925Z</time></trkpt><trkpt lat="43.8370033" lon="11.5166517"><ele>391.0</ele><time>2026-04-18T11:50:06.926Z</time></trkpt><trkpt lat="43.8368867" lon="11.5166933"><ele>391.0</ele><time>2026-04-18T11:50:07.926Z</time></trkpt><trkpt lat="43.8367567" lon="11.5167333"><ele>391.0</ele><time>2026-04-18T11:50:08.925Z</time></trkpt><trkpt lat="43.8366333" lon="11.5167683"><ele>391.0</ele><time>2026-04-18T11:50:09.925Z</time></trkpt><trkpt lat="43.8365133" lon="11.5168017"><ele>391.0</ele><time>2026-04-18T11:50:10.925Z</time></trkpt><trkpt lat="43.8363983" lon="11.5168283"><ele>391.0</ele><time>2026-04-18T11:50:11.926Z</time></trkpt><trkpt lat="43.8362967" lon="11.5168233"><ele>391.0</ele><time>2026-04-18T11:50:12.925Z</time></trkpt><trkpt lat="43.8361967" lon="11.5167933"><ele>391.0</ele><time>2026-04-18T11:50:13.926Z</time></trkpt><trkpt lat="43.8360917" lon="11.5167267"><ele>391.0</ele><time>2026-04-18T11:50:14.926Z</time></trkpt><trkpt lat="43.83599" lon="11.5166517"><ele>391.0</ele><time>2026-04-18T11:50:15.925Z</time></trkpt><trkpt lat="43.83589" lon="11.516585"><ele>391.0</ele><time>2026-04-18T11:50:16.926Z</time></trkpt><trkpt lat="43.83579" lon="11.5165133"><ele>391.0</ele><time>2026-04-18T11:50:17.925Z</time></trkpt><trkpt lat="43.8356917" lon="11.5164483"><ele>391.0</ele><time>2026-04-18T11:50:18.926Z</time></trkpt><trkpt lat="43.835585" lon="11.5163967"><ele>393.25</ele><time>2026-04-18T11:50:19.925Z</time></trkpt><trkpt lat="43.8354717" lon="11.5163583"><ele>395.5</ele><time>2026-04-18T11:50:20.925Z</time></trkpt><trkpt lat="43.8353467" lon="11.51634"><ele>397.75</ele><time>2026-04-18T11:50:21.926Z</time></trkpt><trkpt lat="43.835225" lon="11.5163267"><ele>400.0</ele><time>2026-04-18T11:50:22.925Z</time></trkpt><trkpt lat="43.835105" lon="11.5163067"><ele>402.4</ele><time>2026-04-18T11:50:23.925Z</time></trkpt><trkpt lat="43.8349917" lon="11.5163067"><ele>404.8</ele><time>2026-04-18T11:50:24.925Z</time></trkpt><trkpt lat="43.8349033" lon="11.5163217"><ele>407.20000000000005</ele><time>2026-04-18T11:50:25.925Z</time></trkpt><trkpt lat="43.834815" lon="11.5163617"><ele>409.6</ele><time>2026-04-18T11:50:26.926Z</time></trkpt><trkpt lat="43.8347267" lon="11.5164033"><ele>412.0</ele><time>2026-04-18T11:50:27.926Z</time></trkpt><trkpt lat="43.83463" lon="11.5164267"><ele>412.0</ele><time>2026-04-18T11:50:28.926Z</time></trkpt><trkpt lat="43.834535" lon="11.5164067"><ele>412.0</ele><time>2026-04-18T11:50:29.925Z</time></trkpt><trkpt lat="43.8344517" lon="11.5163583"><ele>412.0</ele><time>2026-04-18T11:50:30.926Z</time></trkpt><trkpt lat="43.8343717" lon="11.5163117"><ele>412.0</ele><time>2026-04-18T11:50:31.925Z</time></trkpt><trkpt lat="43.8342817" lon="11.516295"><ele>412.0</ele><time>2026-04-18T11:50:32.925Z</time></trkpt><trkpt lat="43.8341833" lon="11.516305"><ele>412.75</ele><time>2026-04-18T11:50:33.925Z</time></trkpt><trkpt lat="43.8340717" lon="11.5163433"><ele>413.5</ele><time>2026-04-18T11:50:34.925Z</time></trkpt><trkpt lat="43.8339533" lon="11.5163817"><ele>414.25</ele><time>2026-04-18T11:50:35.925Z</time></trkpt><trkpt lat="43.8338383" lon="11.5164283"><ele>415.0</ele><time>2026-04-18T11:50:36.926Z</time></trkpt><trkpt lat="43.8337367" lon="11.5164783"><ele>415.0</ele><time>2026-04-18T11:50:37.926Z</time></trkpt><trkpt lat="43.8336417" lon="11.51654"><ele>415.0</ele><time>2026-04-18T11:50:38.925Z</time></trkpt><trkpt lat="43.83356" lon="11.51662"><ele>415.0</ele><time>2026-04-18T11:50:39.925Z</time></trkpt><trkpt lat="43.833475" lon="11.516715"><ele>415.0</ele><time>2026-04-18T11:50:40.925Z</time></trkpt><trkpt lat="43.8333983" lon="11.5168067"><ele>415.0</ele><time>2026-04-18T11:50:41.925Z</time></trkpt><trkpt lat="43.833315" lon="11.5168617"><ele>415.4</ele><time>2026-04-18T11:50:42.925Z</time></trkpt><trkpt lat="43.8332267" lon="11.5168683"><ele>415.8</ele><time>2026-04-18T11:50:43.925Z</time></trkpt><trkpt lat="43.83315" lon="11.516815"><ele>416.20000000000005</ele><time>2026-04-18T11:50:44.925Z</time></trkpt><trkpt lat="43.833085" lon="11.51672"><ele>416.6</ele><time>2026-04-18T11:50:45.925Z</time></trkpt><trkpt lat="43.833055" lon="11.5165783"><ele>417.0</ele><time>2026-04-18T11:50:46.925Z</time></trkpt><trkpt lat="43.8330467" lon="11.51643"><ele>417.0</ele><time>2026-04-18T11:50:47.925Z</time></trkpt><trkpt lat="43.833045" lon="11.5163167"><ele>417.0</ele><time>2026-04-18T11:50:48.925Z</time></trkpt><trkpt lat="43.8330083" lon="11.516205"><ele>417.0</ele><time>2026-04-18T11:50:49.926Z</time></trkpt><trkpt lat="43.8329483" lon="11.5161167"><ele>417.0</ele><time>2026-04-18T11:50:50.925Z</time></trkpt><trkpt lat="43.83287" lon="11.5160467"><ele>417.0</ele><time>2026-04-18T11:50:51.925Z</time></trkpt><trkpt lat="43.8327767" lon="11.5159967"><ele>415.75</ele><time>2026-04-18T11:50:52.925Z</time></trkpt><trkpt lat="43.832665" lon="11.5159733"><ele>414.5</ele><time>2026-04-18T11:50:53.925Z</time></trkpt><trkpt lat="43.8325233" lon="11.51595"><ele>413.25</ele><time>2026-04-18T11:50:54.925Z</time></trkpt><trkpt lat="43.8323767" lon="11.515905"><ele>412.0</ele><time>2026-04-18T11:50:55.926Z</time></trkpt><trkpt lat="43.8322367" lon="11.5158483"><ele>412.0</ele><time>2026-04-18T11:50:56.925Z</time></trkpt><trkpt lat="43.8320983" lon="11.51578"><ele>412.0</ele><time>2026-04-18T11:50:57.926Z</time></trkpt><trkpt lat="43.83197" lon="11.5157033"><ele>412.0</ele><time>2026-04-18T11:50:58.925Z</time></trkpt><trkpt lat="43.83185" lon="11.5156467"><ele>412.0</ele><time>2026-04-18T11:50:59.925Z</time></trkpt><trkpt lat="43.8317517" lon="11.5156283"><ele>414.0</ele><time>2026-04-18T11:51:00.925Z</time></trkpt><trkpt lat="43.831655" lon="11.5156517"><ele>416.0</ele><time>2026-04-18T11:51:01.925Z</time></trkpt><trkpt lat="43.83155" lon="11.515695"><ele>418.0</ele><time>2026-04-18T11:51:02.926Z</time></trkpt><trkpt lat="43.831435" lon="11.5157167"><ele>420.0</ele><time>2026-04-18T11:51:03.925Z</time></trkpt><trkpt lat="43.83131" lon="11.515685"><ele>420.0</ele><time>2026-04-18T11:51:04.925Z</time></trkpt><trkpt lat="43.8311817" lon="11.51561"><ele>420.0</ele><time>2026-04-18T11:51:05.925Z</time></trkpt><trkpt lat="43.8310533" lon="11.5155183"><ele>420.0</ele><time>2026-04-18T11:51:06.925Z</time></trkpt><trkpt lat="43.8309283" lon="11.5154383"><ele>420.0</ele><time>2026-04-18T11:51:07.925Z</time></trkpt><trkpt lat="43.83081" lon="11.515365"><ele>420.4</ele><time>2026-04-18T11:51:08.925Z</time></trkpt><trkpt lat="43.8306967" lon="11.5152983"><ele>420.8</ele><time>2026-04-18T11:51:09.925Z</time></trkpt><trkpt lat="43.8305917" lon="11.51526"><ele>421.20000000000005</ele><time>2026-04-18T11:51:10.924Z</time></trkpt><trkpt lat="43.8304917" lon="11.5152683"><ele>421.6</ele><time>2026-04-18T11:51:11.924Z</time></trkpt><trkpt lat="43.8304017" lon="11.5153383"><ele>422.0</ele><time>2026-04-18T11:51:12.924Z</time></trkpt><trkpt lat="43.8303283" lon="11.5154567"><ele>423.25</ele><time>2026-04-18T11:51:13.925Z</time></trkpt><trkpt lat="43.8302717" lon="11.5156117"><ele>424.5</ele><time>2026-04-18T11:51:14.924Z</time></trkpt><trkpt lat="43.830215" lon="11.5157833"><ele>425.75</ele><time>2026-04-18T11:51:15.924Z</time></trkpt><trkpt lat="43.8301567" lon="11.5159533"><ele>427.0</ele><time>2026-04-18T11:51:16.925Z</time></trkpt><trkpt lat="43.8300967" lon="11.5161317"><ele>432.25</ele><time>2026-04-18T11:51:17.924Z</time></trkpt><trkpt lat="43.8300283" lon="11.5162933"><ele>437.5</ele><time>2026-04-18T11:51:18.925Z</time></trkpt><trkpt lat="43.829955" lon="11.51645"><ele>442.75</ele><time>2026-04-18T11:51:19.925Z</time></trkpt><trkpt lat="43.82987" lon="11.5165817"><ele>448.0</ele><time>2026-04-18T11:51:20.924Z</time></trkpt><trkpt lat="43.8297833" lon="11.5167033"><ele>448.0</ele><time>2026-04-18T11:51:21.924Z</time></trkpt><trkpt lat="43.829695" lon="11.5168217"><ele>447.99999999999994</ele><time>2026-04-18T11:51:22.925Z</time></trkpt><trkpt lat="43.8296067" lon="11.5169333"><ele>447.99999999999994</ele><time>2026-04-18T11:51:23.925Z</time></trkpt><trkpt lat="43.8295367" lon="11.517045"><ele>448.0</ele><time>2026-04-18T11:51:24.924Z</time></trkpt><trkpt lat="43.82948" lon="11.517145"><ele>448.0</ele><time>2026-04-18T11:51:25.924Z</time></trkpt><trkpt lat="43.8294517" lon="11.5172417"><ele>450.0</ele><time>2026-04-18T11:51:26.924Z</time></trkpt><trkpt lat="43.8294367" lon="11.5173567"><ele>451.99999999999994</ele><time>2026-04-18T11:51:27.925Z</time></trkpt><trkpt lat="43.82948" lon="11.5174817"><ele>453.99999999999994</ele><time>2026-04-18T11:51:28.924Z</time></trkpt><trkpt lat="43.8295533" lon="11.51761"><ele>456.0</ele><time>2026-04-18T11:51:29.925Z</time></trkpt><trkpt lat="43.8296583" lon="11.5177033"><ele>458.0</ele><time>2026-04-18T11:51:30.924Z</time></trkpt><trkpt lat="43.8297583" lon="11.5177983"><ele>458.0</ele><time>2026-04-18T11:51:31.924Z</time></trkpt><trkpt lat="43.8298667" lon="11.5178767"><ele>457.99999999999994</ele><time>2026-04-18T11:51:32.925Z</time></trkpt><trkpt lat="43.8299383" lon="11.51796"><ele>457.99999999999994</ele><time>2026-04-18T11:51:33.924Z</time></trkpt><trkpt lat="43.8299917" lon="11.5180733"><ele>458.0</ele><time>2026-04-18T11:51:34.924Z</time></trkpt><trkpt lat="43.830015" lon="11.518205"><ele>458.0</ele><time>2026-04-18T11:51:35.924Z</time></trkpt><trkpt lat="43.8300133" lon="11.5183667"><ele>458.25</ele><time>2026-04-18T11:51:36.924Z</time></trkpt><trkpt lat="43.8300117" lon="11.518545"><ele>458.5</ele><time>2026-04-18T11:51:37.925Z</time></trkpt><trkpt lat="43.8299983" lon="11.5187183"><ele>458.75</ele><time>2026-04-18T11:51:38.925Z</time></trkpt><trkpt lat="43.829975" lon="11.5188683"><ele>459.0</ele><time>2026-04-18T11:51:39.924Z</time></trkpt><trkpt lat="43.8299183" lon="11.5189667"><ele>459.79999999999995</ele><time>2026-04-18T11:51:40.924Z</time></trkpt><trkpt lat="43.8298517" lon="11.5190317"><ele>460.59999999999997</ele><time>2026-04-18T11:51:41.925Z</time></trkpt><trkpt lat="43.82976" lon="11.51907"><ele>461.4</ele><time>2026-04-18T11:51:42.925Z</time></trkpt><trkpt lat="43.8296667" lon="11.5191467"><ele>462.2</ele><time>2026-04-18T11:51:43.925Z</time></trkpt><trkpt lat="43.82958" lon="11.51925"><ele>463.0</ele><time>2026-04-18T11:51:44.924Z</time></trkpt><trkpt lat="43.8295317" lon="11.5193817"><ele>463.0</ele><time>2026-04-18T11:51:45.925Z</time></trkpt><trkpt lat="43.8295067" lon="11.5195283"><ele>463.0</ele><time>2026-04-18T11:51:46.924Z</time></trkpt><trkpt lat="43.8295033" lon="11.5196833"><ele>463.0</ele><time>2026-04-18T11:51:47.925Z</time></trkpt><trkpt lat="43.8295183" lon="11.5198417"><ele>463.0</ele><time>2026-04-18T11:51:48.924Z</time></trkpt><trkpt lat="43.8295517" lon="11.5200067"><ele>464.5</ele><time>2026-04-18T11:51:49.924Z</time></trkpt><trkpt lat="43.8295967" lon="11.5201933"><ele>466.0</ele><time>2026-04-18T11:51:50.924Z</time></trkpt><trkpt lat="43.8296433" lon="11.52038"><ele>467.5</ele><time>2026-04-18T11:51:51.924Z</time></trkpt><trkpt lat="43.8296933" lon="11.5205417"><ele>469.0</ele><time>2026-04-18T11:51:52.924Z</time></trkpt><trkpt lat="43.829755" lon="11.5206917"><ele>469.0</ele><time>2026-04-18T11:51:53.924Z</time></trkpt><trkpt lat="43.8298217" lon="11.5208217"><ele>469.0</ele><time>2026-04-18T11:51:54.924Z</time></trkpt><trkpt lat="43.8298883" lon="11.5209483"><ele>469.0</ele><time>2026-04-18T11:51:55.925Z</time></trkpt><trkpt lat="43.8299533" lon="11.5210633"><ele>469.0</ele><time>2026-04-18T11:51:56.924Z</time></trkpt><trkpt lat="43.8300117" lon="11.5211867"><ele>469.0</ele><time>2026-04-18T11:51:57.925Z</time></trkpt><trkpt lat="43.830025" lon="11.5213083"><ele>468.0</ele><time>2026-04-18T11:51:58.924Z</time></trkpt><trkpt lat="43.82999" lon="11.5214483"><ele>467.0</ele><time>2026-04-18T11:51:59.924Z</time></trkpt><trkpt lat="43.8299467" lon="11.5215833"><ele>466.0</ele><time>2026-04-18T11:52:00.925Z</time></trkpt><trkpt lat="43.8299067" lon="11.5217267"><ele>465.0</ele><time>2026-04-18T11:52:01.924Z</time></trkpt><trkpt lat="43.829905" lon="11.5218633"><ele>464.0</ele><time>2026-04-18T11:52:02.925Z</time></trkpt><trkpt lat="43.8299317" lon="11.5219983"><ele>462.5</ele><time>2026-04-18T11:52:03.924Z</time></trkpt><trkpt lat="43.8299967" lon="11.5221467"><ele>461.0</ele><time>2026-04-18T11:52:04.924Z</time></trkpt><trkpt lat="43.8300817" lon="11.5223"><ele>459.5</ele><time>2026-04-18T11:52:05.924Z</time></trkpt><trkpt lat="43.8301617" lon="11.522455"><ele>458.0</ele><time>2026-04-18T11:52:06.924Z</time></trkpt><trkpt lat="43.830245" lon="11.5225867"><ele>460.75</ele><time>2026-04-18T11:52:07.925Z</time></trkpt><trkpt lat="43.8303433" lon="11.5227"><ele>463.5</ele><time>2026-04-18T11:52:08.924Z</time></trkpt><trkpt lat="43.830465" lon="11.522805"><ele>466.25</ele><time>2026-04-18T11:52:09.924Z</time></trkpt><trkpt lat="43.830605" lon="11.5229133"><ele>469.0</ele><time>2026-04-18T11:52:10.924Z</time></trkpt><trkpt lat="43.830745" lon="11.5230117"><ele>469.0</ele><time>2026-04-18T11:52:11.925Z</time></trkpt><trkpt lat="43.830875" lon="11.5230967"><ele>469.0</ele><time>2026-04-18T11:52:12.924Z</time></trkpt><trkpt lat="43.8309867" lon="11.5231817"><ele>469.0</ele><time>2026-04-18T11:52:13.925Z</time></trkpt><trkpt lat="43.8310817" lon="11.523265"><ele>469.0</ele><time>2026-04-18T11:52:14.925Z</time></trkpt><trkpt lat="43.8311533" lon="11.5233717"><ele>474.0</ele><time>2026-04-18T11:52:15.925Z</time></trkpt><trkpt lat="43.8312" lon="11.523495"><ele>479.0</ele><time>2026-04-18T11:52:16.924Z</time></trkpt><trkpt lat="43.8312017" lon="11.5236383"><ele>484.0</ele><time>2026-04-18T11:52:17.925Z</time></trkpt><trkpt lat="43.8311633" lon="11.52377"><ele>489.0</ele><time>2026-04-18T11:52:18.924Z</time></trkpt><trkpt lat="43.831095" lon="11.5239117"><ele>494.0</ele><time>2026-04-18T11:52:19.925Z</time></trkpt><trkpt lat="43.831" lon="11.5240583"><ele>491.0</ele><time>2026-04-18T11:52:20.924Z</time></trkpt><trkpt lat="43.8308917" lon="11.5242283"><ele>488.0</ele><time>2026-04-18T11:52:21.924Z</time></trkpt><trkpt lat="43.83077" lon="11.5244383"><ele>485.0</ele><time>2026-04-18T11:52:22.924Z</time></trkpt><trkpt lat="43.830655" lon="11.5246233"><ele>485.0</ele><time>2026-04-18T11:52:23.925Z</time></trkpt><trkpt lat="43.8305483" lon="11.5247967"><ele>485.0</ele><time>2026-04-18T11:52:24.924Z</time></trkpt><trkpt lat="43.83044" lon="11.5249767"><ele>485.0</ele><time>2026-04-18T11:52:25.924Z</time></trkpt><trkpt lat="43.83034" lon="11.52515"><ele>485.0</ele><time>2026-04-18T11:52:26.925Z</time></trkpt><trkpt lat="43.8302517" lon="11.5253233"><ele>485.0</ele><time>2026-04-18T11:52:27.924Z</time></trkpt><trkpt lat="43.8301717" lon="11.5254883"><ele>485.0</ele><time>2026-04-18T11:52:28.925Z</time></trkpt><trkpt lat="43.8301033" lon="11.5256483"><ele>485.0</ele><time>2026-04-18T11:52:29.924Z</time></trkpt><trkpt lat="43.8300483" lon="11.52581"><ele>482.8</ele><time>2026-04-18T11:52:30.924Z</time></trkpt><trkpt lat="43.8300033" lon="11.5259667"><ele>480.6</ele><time>2026-04-18T11:52:31.924Z</time></trkpt><trkpt lat="43.8299717" lon="11.5261067"><ele>478.4</ele><time>2026-04-18T11:52:32.924Z</time></trkpt><trkpt lat="43.8299633" lon="11.5262283"><ele>476.2</ele><time>2026-04-18T11:52:33.924Z</time></trkpt><trkpt lat="43.8299833" lon="11.52635"><ele>474.0</ele><time>2026-04-18T11:52:34.924Z</time></trkpt><trkpt lat="43.8300283" lon="11.5264733"><ele>474.0</ele><time>2026-04-18T11:52:35.924Z</time></trkpt><trkpt lat="43.830095" lon="11.5266133"><ele>474.0</ele><time>2026-04-18T11:52:36.925Z</time></trkpt><trkpt lat="43.830165" lon="11.5267783"><ele>474.0</ele><time>2026-04-18T11:52:37.925Z</time></trkpt><trkpt lat="43.8302133" lon="11.526955"><ele>474.0</ele><time>2026-04-18T11:52:38.925Z</time></trkpt><trkpt lat="43.8302517" lon="11.527145"><ele>479.25</ele><time>2026-04-18T11:52:39.924Z</time></trkpt><trkpt lat="43.8302783" lon="11.5273317"><ele>484.5</ele><time>2026-04-18T11:52:40.925Z</time></trkpt><trkpt lat="43.8303" lon="11.5275167"><ele>489.75</ele><time>2026-04-18T11:52:41.925Z</time></trkpt><trkpt lat="43.8303283" lon="11.5277133"><ele>495.0</ele><time>2026-04-18T11:52:42.924Z</time></trkpt><trkpt lat="43.8303483" lon="11.5279167"><ele>495.0</ele><time>2026-04-18T11:52:43.924Z</time></trkpt><trkpt lat="43.8303617" lon="11.52814"><ele>495.0</ele><time>2026-04-18T11:52:44.924Z</time></trkpt><trkpt lat="43.8303667" lon="11.5283733"><ele>495.0</ele><time>2026-04-18T11:52:45.925Z</time></trkpt><trkpt lat="43.8303533" lon="11.5285917"><ele>496.0</ele><time>2026-04-18T11:52:46.924Z</time></trkpt><trkpt lat="43.8303383" lon="11.528795"><ele>497.0</ele><time>2026-04-18T11:52:47.924Z</time></trkpt><trkpt lat="43.8302917" lon="11.5289717"><ele>498.0</ele><time>2026-04-18T11:52:48.925Z</time></trkpt><trkpt lat="43.8302167" lon="11.5291167"><ele>499.0</ele><time>2026-04-18T11:52:49.924Z</time></trkpt><trkpt lat="43.83011" lon="11.52922"><ele>498.2</ele><time>2026-04-18T11:52:50.924Z</time></trkpt><trkpt lat="43.83" lon="11.5292833"><ele>497.4</ele><time>2026-04-18T11:52:51.925Z</time></trkpt><trkpt lat="43.82989" lon="11.5293317"><ele>496.6</ele><time>2026-04-18T11:52:52.924Z</time></trkpt><trkpt lat="43.8297883" lon="11.5293833"><ele>495.8</ele><time>2026-04-18T11:52:53.925Z</time></trkpt><trkpt lat="43.8297083" lon="11.5294717"><ele>495.0</ele><time>2026-04-18T11:52:54.924Z</time></trkpt><trkpt lat="43.8296417" lon="11.5296067"><ele>495.0</ele><time>2026-04-18T11:52:55.924Z</time></trkpt><trkpt lat="43.8295833" lon="11.52977"><ele>495.0</ele><time>2026-04-18T11:52:56.924Z</time></trkpt><trkpt lat="43.8295317" lon="11.52995"><ele>495.0</ele><time>2026-04-18T11:52:57.924Z</time></trkpt><trkpt lat="43.829485" lon="11.530135"><ele>495.0</ele><time>2026-04-18T11:52:58.925Z</time></trkpt><trkpt lat="43.8294417" lon="11.5303017"><ele>495.75</ele><time>2026-04-18T11:52:59.925Z</time></trkpt><trkpt lat="43.829405" lon="11.5304467"><ele>496.5</ele><time>2026-04-18T11:53:00.924Z</time></trkpt><trkpt lat="43.829385" lon="11.5305933"><ele>497.25</ele><time>2026-04-18T11:53:01.924Z</time></trkpt><trkpt lat="43.829375" lon="11.5307517"><ele>498.0</ele><time>2026-04-18T11:53:02.924Z</time></trkpt><trkpt lat="43.82938" lon="11.5309267"><ele>498.0</ele><time>2026-04-18T11:53:03.924Z</time></trkpt><trkpt lat="43.8293883" lon="11.5311183"><ele>498.0</ele><time>2026-04-18T11:53:04.925Z</time></trkpt><trkpt lat="43.8293833" lon="11.5312817"><ele>498.0</ele><time>2026-04-18T11:53:05.924Z</time></trkpt><trkpt lat="43.82935" lon="11.531445"><ele>498.0</ele><time>2026-04-18T11:53:06.924Z</time></trkpt><trkpt lat="43.8293" lon="11.53161"><ele>496.33333333333337</ele><time>2026-04-18T11:53:07.924Z</time></trkpt><trkpt lat="43.82924" lon="11.5317867"><ele>494.6666666666667</ele><time>2026-04-18T11:53:08.924Z</time></trkpt><trkpt lat="43.8291767" lon="11.5319767"><ele>493.0</ele><time>2026-04-18T11:53:09.925Z</time></trkpt><trkpt lat="43.829105" lon="11.53218"><ele>493.0</ele><time>2026-04-18T11:53:10.924Z</time></trkpt><trkpt lat="43.8290317" lon="11.5323733"><ele>493.0</ele><time>2026-04-18T11:53:11.924Z</time></trkpt><trkpt lat="43.8289617" lon="11.5325567"><ele>493.0</ele><time>2026-04-18T11:53:12.924Z</time></trkpt><trkpt lat="43.8288933" lon="11.53273"><ele>493.0</ele><time>2026-04-18T11:53:13.924Z</time></trkpt><trkpt lat="43.8288217" lon="11.5328883"><ele>493.0</ele><time>2026-04-18T11:53:14.925Z</time></trkpt><trkpt lat="43.8287667" lon="11.5330417"><ele>493.0</ele><time>2026-04-18T11:53:15.924Z</time></trkpt><trkpt lat="43.828725" lon="11.53318"><ele>493.0</ele><time>2026-04-18T11:53:16.924Z</time></trkpt><trkpt lat="43.8287017" lon="11.5332967"><ele>493.0</ele><time>2026-04-18T11:53:17.924Z</time></trkpt><trkpt lat="43.8287117" lon="11.5334083"><ele>492.99999999999994</ele><time>2026-04-18T11:53:18.924Z</time></trkpt><trkpt lat="43.8287483" lon="11.533535"><ele>492.99999999999994</ele><time>2026-04-18T11:53:19.925Z</time></trkpt><trkpt lat="43.8288083" lon="11.5336683"><ele>493.0</ele><time>2026-04-18T11:53:20.925Z</time></trkpt><trkpt lat="43.82887" lon="11.5338133"><ele>493.0</ele><time>2026-04-18T11:53:21.925Z</time></trkpt><trkpt lat="43.8289167" lon="11.53395"><ele>494.0</ele><time>2026-04-18T11:53:22.925Z</time></trkpt><trkpt lat="43.82894" lon="11.5340767"><ele>494.99999999999994</ele><time>2026-04-18T11:53:23.925Z</time></trkpt><trkpt lat="43.8289233" lon="11.5341883"><ele>495.99999999999994</ele><time>2026-04-18T11:53:24.924Z</time></trkpt><trkpt lat="43.82889" lon="11.534305"><ele>497.0</ele><time>2026-04-18T11:53:25.924Z</time></trkpt><trkpt lat="43.8288417" lon="11.5344383"><ele>498.0</ele><time>2026-04-18T11:53:26.925Z</time></trkpt><trkpt lat="43.8287883" lon="11.5346"><ele>500.5</ele><time>2026-04-18T11:53:27.925Z</time></trkpt><trkpt lat="43.8287267" lon="11.53477"><ele>503.0</ele><time>2026-04-18T11:53:28.924Z</time></trkpt><trkpt lat="43.8286517" lon="11.53494"><ele>505.5</ele><time>2026-04-18T11:53:29.924Z</time></trkpt><trkpt lat="43.8285733" lon="11.5351167"><ele>508.0</ele><time>2026-04-18T11:53:30.924Z</time></trkpt><trkpt lat="43.8285033" lon="11.5352667"><ele>506.2</ele><time>2026-04-18T11:53:31.924Z</time></trkpt><trkpt lat="43.828435" lon="11.535395"><ele>504.4</ele><time>2026-04-18T11:53:32.924Z</time></trkpt><trkpt lat="43.8283733" lon="11.535505"><ele>502.59999999999997</ele><time>2026-04-18T11:53:33.924Z</time></trkpt><trkpt lat="43.8283" lon="11.5355583"><ele>500.79999999999995</ele><time>2026-04-18T11:53:34.924Z</time></trkpt><trkpt lat="43.8282167" lon="11.535615"><ele>499.0</ele><time>2026-04-18T11:53:35.925Z</time></trkpt><trkpt lat="43.8281217" lon="11.53565"><ele>499.0</ele><time>2026-04-18T11:53:36.924Z</time></trkpt><trkpt lat="43.8280233" lon="11.5356683"><ele>499.0</ele><time>2026-04-18T11:53:37.925Z</time></trkpt><trkpt lat="43.8279267" lon="11.5357"><ele>499.0</ele><time>2026-04-18T11:53:38.925Z</time></trkpt><trkpt lat="43.82784" lon="11.5357633"><ele>499.0</ele><time>2026-04-18T11:53:39.924Z</time></trkpt><trkpt lat="43.827755" lon="11.535845"><ele>499.0</ele><time>2026-04-18T11:53:40.924Z</time></trkpt><trkpt lat="43.82767" lon="11.535975"><ele>499.0</ele><time>2026-04-18T11:53:41.924Z</time></trkpt><trkpt lat="43.82758" lon="11.53614"><ele>499.0</ele><time>2026-04-18T11:53:42.925Z</time></trkpt><trkpt lat="43.8274817" lon="11.5362917"><ele>499.0</ele><time>2026-04-18T11:53:43.925Z</time></trkpt><trkpt lat="43.827375" lon="11.5364417"><ele>499.0</ele><time>2026-04-18T11:53:44.925Z</time></trkpt><trkpt lat="43.8272567" lon="11.536585"><ele>499.0</ele><time>2026-04-18T11:53:45.924Z</time></trkpt><trkpt lat="43.82713" lon="11.5367467"><ele>499.0</ele><time>2026-04-18T11:53:46.925Z</time></trkpt><trkpt lat="43.827015" lon="11.5369133"><ele>499.0</ele><time>2026-04-18T11:53:47.925Z</time></trkpt><trkpt lat="43.8269067" lon="11.5370833"><ele>497.33333333333337</ele><time>2026-04-18T11:53:48.924Z</time></trkpt><trkpt lat="43.8267967" lon="11.5372417"><ele>495.66666666666663</ele><time>2026-04-18T11:53:49.924Z</time></trkpt><trkpt lat="43.8266867" lon="11.5374033"><ele>494.0</ele><time>2026-04-18T11:53:50.924Z</time></trkpt><trkpt lat="43.826585" lon="11.5375567"><ele>494.0</ele><time>2026-04-18T11:53:51.924Z</time></trkpt><trkpt lat="43.82649" lon="11.5377117"><ele>494.0</ele><time>2026-04-18T11:53:52.924Z</time></trkpt><trkpt lat="43.8263933" lon="11.53788"><ele>494.0</ele><time>2026-04-18T11:53:53.924Z</time></trkpt><trkpt lat="43.8262967" lon="11.5380583"><ele>500.0</ele><time>2026-04-18T11:53:54.924Z</time></trkpt><trkpt lat="43.8262017" lon="11.5382533"><ele>506.0</ele><time>2026-04-18T11:53:55.924Z</time></trkpt><trkpt lat="43.82611" lon="11.5384333"><ele>512.0</ele><time>2026-04-18T11:53:56.925Z</time></trkpt><trkpt lat="43.8260367" lon="11.538615"><ele>509.0</ele><time>2026-04-18T11:53:57.924Z</time></trkpt><trkpt lat="43.82597" lon="11.5387633"><ele>506.00000000000006</ele><time>2026-04-18T11:53:58.924Z</time></trkpt><trkpt lat="43.8259167" lon="11.5389017"><ele>503.00000000000006</ele><time>2026-04-18T11:53:59.925Z</time></trkpt><trkpt lat="43.8258733" lon="11.5390367"><ele>500.0</ele><time>2026-04-18T11:54:00.925Z</time></trkpt><trkpt lat="43.8258383" lon="11.5391717"><ele>497.0</ele><time>2026-04-18T11:54:01.924Z</time></trkpt><trkpt lat="43.8258017" lon="11.53931"><ele>497.0</ele><time>2026-04-18T11:54:02.925Z</time></trkpt><trkpt lat="43.8257617" lon="11.5394"><ele>497.00000000000006</ele><time>2026-04-18T11:54:03.925Z</time></trkpt><trkpt lat="43.8256967" lon="11.539475"><ele>497.00000000000006</ele><time>2026-04-18T11:54:04.925Z</time></trkpt><trkpt lat="43.82561" lon="11.5395517"><ele>497.0</ele><time>2026-04-18T11:54:05.924Z</time></trkpt><trkpt lat="43.8255217" lon="11.5396617"><ele>497.0</ele><time>2026-04-18T11:54:06.924Z</time></trkpt><trkpt lat="43.8254333" lon="11.5398"><ele>503.0</ele><time>2026-04-18T11:54:07.925Z</time></trkpt><trkpt lat="43.825345" lon="11.5399617"><ele>509.0</ele><time>2026-04-18T11:54:08.924Z</time></trkpt><trkpt lat="43.82526" lon="11.5401267"><ele>515.0</ele><time>2026-04-18T11:54:09.924Z</time></trkpt><trkpt lat="43.82517" lon="11.5403067"><ele>513.3333333333333</ele><time>2026-04-18T11:54:10.924Z</time></trkpt><trkpt lat="43.8250833" lon="11.540505"><ele>511.66666666666663</ele><time>2026-04-18T11:54:11.924Z</time></trkpt><trkpt lat="43.8249917" lon="11.540705"><ele>510.0</ele><time>2026-04-18T11:54:12.924Z</time></trkpt><trkpt lat="43.8248983" lon="11.5408967"><ele>510.0</ele><time>2026-04-18T11:54:13.924Z</time></trkpt><trkpt lat="43.8248033" lon="11.5410767"><ele>510.0</ele><time>2026-04-18T11:54:14.924Z</time></trkpt><trkpt lat="43.8247" lon="11.5412317"><ele>510.0</ele><time>2026-04-18T11:54:15.925Z</time></trkpt><trkpt lat="43.8245833" lon="11.5413767"><ele>509.33333333333337</ele><time>2026-04-18T11:54:16.924Z</time></trkpt><trkpt lat="43.8244517" lon="11.5415083"><ele>508.6666666666667</ele><time>2026-04-18T11:54:17.924Z</time></trkpt><trkpt lat="43.8243167" lon="11.5416283"><ele>508.0</ele><time>2026-04-18T11:54:18.925Z</time></trkpt><trkpt lat="43.8241833" lon="11.54175"><ele>508.0</ele><time>2026-04-18T11:54:19.924Z</time></trkpt><trkpt lat="43.8240433" lon="11.541865"><ele>508.0</ele><time>2026-04-18T11:54:20.925Z</time></trkpt><trkpt lat="43.823905" lon="11.5419867"><ele>508.0</ele><time>2026-04-18T11:54:21.925Z</time></trkpt><trkpt lat="43.82377" lon="11.542115"><ele>508.75</ele><time>2026-04-18T11:54:22.925Z</time></trkpt><trkpt lat="43.8236433" lon="11.54223"><ele>509.5</ele><time>2026-04-18T11:54:23.924Z</time></trkpt><trkpt lat="43.8235283" lon="11.5423333"><ele>510.25</ele><time>2026-04-18T11:54:24.924Z</time></trkpt><trkpt lat="43.823435" lon="11.5424417"><ele>511.0</ele><time>2026-04-18T11:54:25.925Z</time></trkpt><trkpt lat="43.8233417" lon="11.542565"><ele>511.0</ele><time>2026-04-18T11:54:26.924Z</time></trkpt><trkpt lat="43.8232483" lon="11.54271"><ele>511.0</ele><time>2026-04-18T11:54:27.924Z</time></trkpt><trkpt lat="43.8231433" lon="11.5428767"><ele>511.0</ele><time>2026-04-18T11:54:28.924Z</time></trkpt><trkpt lat="43.8230317" lon="11.5430417"><ele>510.33333333333337</ele><time>2026-04-18T11:54:29.924Z</time></trkpt><trkpt lat="43.82291" lon="11.5432067"><ele>509.66666666666663</ele><time>2026-04-18T11:54:30.925Z</time></trkpt><trkpt lat="43.8227733" lon="11.5433617"><ele>509.0</ele><time>2026-04-18T11:54:31.925Z</time></trkpt><trkpt lat="43.8226367" lon="11.5435083"><ele>509.0</ele><time>2026-04-18T11:54:32.925Z</time></trkpt><trkpt lat="43.8225067" lon="11.5436533"><ele>509.0</ele><time>2026-04-18T11:54:33.924Z</time></trkpt><trkpt lat="43.8223767" lon="11.543805"><ele>509.0</ele><time>2026-04-18T11:54:34.924Z</time></trkpt><trkpt lat="43.82225" lon="11.5439683"><ele>513.3333333333333</ele><time>2026-04-18T11:54:35.925Z</time></trkpt><trkpt lat="43.8221267" lon="11.5441383"><ele>517.6666666666666</ele><time>2026-04-18T11:54:36.925Z</time></trkpt><trkpt lat="43.8220067" lon="11.5442967"><ele>522.0</ele><time>2026-04-18T11:54:37.924Z</time></trkpt><trkpt lat="43.8218967" lon="11.5444617"><ele>522.0</ele><time>2026-04-18T11:54:38.924Z</time></trkpt><trkpt lat="43.82178" lon="11.5446333"><ele>522.0</ele><time>2026-04-18T11:54:39.924Z</time></trkpt><trkpt lat="43.821665" lon="11.5448267"><ele>522.0</ele><time>2026-04-18T11:54:40.924Z</time></trkpt><trkpt lat="43.8215583" lon="11.5450333"><ele>522.0</ele><time>2026-04-18T11:54:41.925Z</time></trkpt><trkpt lat="43.8214483" lon="11.5452483"><ele>522.0</ele><time>2026-04-18T11:54:42.924Z</time></trkpt><trkpt lat="43.8213417" lon="11.545465"><ele>522.0</ele><time>2026-04-18T11:54:43.925Z</time></trkpt><trkpt lat="43.8212317" lon="11.5456817"><ele>527.0</ele><time>2026-04-18T11:54:44.924Z</time></trkpt><trkpt lat="43.821125" lon="11.5458917"><ele>532.0</ele><time>2026-04-18T11:54:45.925Z</time></trkpt><trkpt lat="43.82102" lon="11.546075"><ele>537.0</ele><time>2026-04-18T11:54:46.924Z</time></trkpt><trkpt lat="43.820925" lon="11.5462467"><ele>537.5</ele><time>2026-04-18T11:54:47.924Z</time></trkpt><trkpt lat="43.8208383" lon="11.5464017"><ele>538.0</ele><time>2026-04-18T11:54:48.925Z</time></trkpt><trkpt lat="43.82076" lon="11.5465533"><ele>538.5</ele><time>2026-04-18T11:54:49.924Z</time></trkpt><trkpt lat="43.8206867" lon="11.5466767"><ele>539.0</ele><time>2026-04-18T11:54:50.925Z</time></trkpt><trkpt lat="43.8206083" lon="11.5467633"><ele>539.0</ele><time>2026-04-18T11:54:51.924Z</time></trkpt><trkpt lat="43.8205217" lon="11.5468083"><ele>539.0</ele><time>2026-04-18T11:54:52.924Z</time></trkpt><trkpt lat="43.8204033" lon="11.5467983"><ele>539.0</ele><time>2026-04-18T11:54:53.924Z</time></trkpt><trkpt lat="43.820275" lon="11.546765"><ele>539.0</ele><time>2026-04-18T11:54:54.925Z</time></trkpt><trkpt lat="43.8201283" lon="11.546705"><ele>538.25</ele><time>2026-04-18T11:54:55.924Z</time></trkpt><trkpt lat="43.819985" lon="11.54665"><ele>537.5</ele><time>2026-04-18T11:54:56.925Z</time></trkpt><trkpt lat="43.8198433" lon="11.5466017"><ele>536.75</ele><time>2026-04-18T11:54:57.924Z</time></trkpt><trkpt lat="43.8197033" lon="11.54655"><ele>536.0</ele><time>2026-04-18T11:54:58.924Z</time></trkpt><trkpt lat="43.8195667" lon="11.5465117"><ele>536.0</ele><time>2026-04-18T11:54:59.925Z</time></trkpt><trkpt lat="43.81943" lon="11.5464817"><ele>536.0</ele><time>2026-04-18T11:55:00.924Z</time></trkpt><trkpt lat="43.8192933" lon="11.5464633"><ele>536.0</ele><time>2026-04-18T11:55:01.925Z</time></trkpt><trkpt lat="43.8191617" lon="11.5464533"><ele>536.0</ele><time>2026-04-18T11:55:02.924Z</time></trkpt><trkpt lat="43.8190333" lon="11.5464417"><ele>535.25</ele><time>2026-04-18T11:55:03.924Z</time></trkpt><trkpt lat="43.8189117" lon="11.5464167"><ele>534.5</ele><time>2026-04-18T11:55:04.925Z</time></trkpt><trkpt lat="43.818795" lon="11.5463517"><ele>533.75</ele><time>2026-04-18T11:55:05.924Z</time></trkpt><trkpt lat="43.8186967" lon="11.5462433"><ele>533.0</ele><time>2026-04-18T11:55:06.925Z</time></trkpt><trkpt lat="43.8186167" lon="11.546095"><ele>533.0</ele><time>2026-04-18T11:55:07.924Z</time></trkpt><trkpt lat="43.8185433" lon="11.5459033"><ele>533.0</ele><time>2026-04-18T11:55:08.924Z</time></trkpt><trkpt lat="43.8184733" lon="11.5456933"><ele>533.0</ele><time>2026-04-18T11:55:09.925Z</time></trkpt><trkpt lat="43.8184133" lon="11.5454967"><ele>534.8</ele><time>2026-04-18T11:55:10.924Z</time></trkpt><trkpt lat="43.81836" lon="11.5453117"><ele>536.5999999999999</ele><time>2026-04-18T11:55:11.925Z</time></trkpt><trkpt lat="43.8183233" lon="11.5451583"><ele>538.4000000000001</ele><time>2026-04-18T11:55:12.924Z</time></trkpt><trkpt lat="43.8182767" lon="11.5450317"><ele>540.2</ele><time>2026-04-18T11:55:13.924Z</time></trkpt><trkpt lat="43.8182233" lon="11.5449417"><ele>542.0</ele><time>2026-04-18T11:55:14.924Z</time></trkpt><trkpt lat="43.8181533" lon="11.5449"><ele>542.0</ele><time>2026-04-18T11:55:15.924Z</time></trkpt><trkpt lat="43.8180333" lon="11.54498"><ele>542.0</ele><time>2026-04-18T11:55:17.924Z</time></trkpt><trkpt lat="43.8179883" lon="11.5451"><ele>542.0</ele><time>2026-04-18T11:55:18.924Z</time></trkpt><trkpt lat="43.817945" lon="11.54526"><ele>542.0</ele><time>2026-04-18T11:55:19.925Z</time></trkpt><trkpt lat="43.817905" lon="11.5454367"><ele>542.5</ele><time>2026-04-18T11:55:20.925Z</time></trkpt><trkpt lat="43.8178783" lon="11.5456117"><ele>543.0</ele><time>2026-04-18T11:55:21.924Z</time></trkpt><trkpt lat="43.8178767" lon="11.5457917"><ele>543.5</ele><time>2026-04-18T11:55:22.924Z</time></trkpt><trkpt lat="43.817905" lon="11.5459783"><ele>544.0</ele><time>2026-04-18T11:55:23.924Z</time></trkpt><trkpt lat="43.8179617" lon="11.5461583"><ele>546.6666666666667</ele><time>2026-04-18T11:55:24.924Z</time></trkpt><trkpt lat="43.8180417" lon="11.5463517"><ele>549.3333333333334</ele><time>2026-04-18T11:55:25.924Z</time></trkpt><trkpt lat="43.81812" lon="11.5465483"><ele>552.0</ele><time>2026-04-18T11:55:26.924Z</time></trkpt><trkpt lat="43.81819" lon="11.54674"><ele>552.0</ele><time>2026-04-18T11:55:27.925Z</time></trkpt><trkpt lat="43.8182517" lon="11.546925"><ele>552.0</ele><time>2026-04-18T11:55:28.925Z</time></trkpt><trkpt lat="43.8182933" lon="11.5470883"><ele>552.0</ele><time>2026-04-18T11:55:29.924Z</time></trkpt><trkpt lat="43.8182967" lon="11.5472467"><ele>552.0</ele><time>2026-04-18T11:55:30.925Z</time></trkpt><trkpt lat="43.81826" lon="11.5473917"><ele>554.2</ele><time>2026-04-18T11:55:31.925Z</time></trkpt><trkpt lat="43.8182033" lon="11.54754"><ele>556.4000000000001</ele><time>2026-04-18T11:55:32.925Z</time></trkpt><trkpt lat="43.818135" lon="11.5476567"><ele>558.5999999999999</ele><time>2026-04-18T11:55:33.925Z</time></trkpt><trkpt lat="43.818045" lon="11.5477483"><ele>560.8</ele><time>2026-04-18T11:55:34.924Z</time></trkpt><trkpt lat="43.8179433" lon="11.5477967"><ele>563.0</ele><time>2026-04-18T11:55:35.925Z</time></trkpt><trkpt lat="43.817845" lon="11.5477767"><ele>563.0</ele><time>2026-04-18T11:55:36.924Z</time></trkpt><trkpt lat="43.817755" lon="11.5477117"><ele>563.0</ele><time>2026-04-18T11:55:37.924Z</time></trkpt><trkpt lat="43.8176567" lon="11.5476167"><ele>563.0</ele><time>2026-04-18T11:55:38.924Z</time></trkpt><trkpt lat="43.8175533" lon="11.5475217"><ele>563.0</ele><time>2026-04-18T11:55:39.924Z</time></trkpt><trkpt lat="43.8174567" lon="11.547455"><ele>563.6</ele><time>2026-04-18T11:55:40.924Z</time></trkpt><trkpt lat="43.8173433" lon="11.5474183"><ele>564.1999999999999</ele><time>2026-04-18T11:55:41.924Z</time></trkpt><trkpt lat="43.8172317" lon="11.5474033"><ele>564.8</ele><time>2026-04-18T11:55:42.924Z</time></trkpt><trkpt lat="43.8171317" lon="11.547415"><ele>565.4</ele><time>2026-04-18T11:55:43.924Z</time></trkpt><trkpt lat="43.81704" lon="11.5474783"><ele>566.0</ele><time>2026-04-18T11:55:44.923Z</time></trkpt><trkpt lat="43.8169367" lon="11.5475667"><ele>566.0</ele><time>2026-04-18T11:55:45.925Z</time></trkpt><trkpt lat="43.81683" lon="11.547665"><ele>566.0</ele><time>2026-04-18T11:55:46.924Z</time></trkpt><trkpt lat="43.8167217" lon="11.5477633"><ele>566.0</ele><time>2026-04-18T11:55:47.924Z</time></trkpt><trkpt lat="43.8166267" lon="11.54787"><ele>566.0</ele><time>2026-04-18T11:55:48.924Z</time></trkpt><trkpt lat="43.816545" lon="11.5479833"><ele>569.25</ele><time>2026-04-18T11:55:49.924Z</time></trkpt><trkpt lat="43.81649" lon="11.5481183"><ele>572.5</ele><time>2026-04-18T11:55:50.924Z</time></trkpt><trkpt lat="43.8164433" lon="11.5482767"><ele>575.75</ele><time>2026-04-18T11:55:51.924Z</time></trkpt><trkpt lat="43.8163933" lon="11.5484267"><ele>579.0</ele><time>2026-04-18T11:55:52.924Z</time></trkpt><trkpt lat="43.81632" lon="11.5485467"><ele>579.0</ele><time>2026-04-18T11:55:53.925Z</time></trkpt><trkpt lat="43.8162267" lon="11.5486267"><ele>579.0</ele><time>2026-04-18T11:55:54.924Z</time></trkpt><trkpt lat="43.81614" lon="11.5486933"><ele>579.0</ele><time>2026-04-18T11:55:55.924Z</time></trkpt><trkpt lat="43.816065" lon="11.548785"><ele>579.0</ele><time>2026-04-18T11:55:56.924Z</time></trkpt><trkpt lat="43.8159883" lon="11.5489033"><ele>579.0</ele><time>2026-04-18T11:55:57.924Z</time></trkpt><trkpt lat="43.8159117" lon="11.5490483"><ele>579.3333333333334</ele><time>2026-04-18T11:55:58.924Z</time></trkpt><trkpt lat="43.8158217" lon="11.5492083"><ele>579.6666666666667</ele><time>2026-04-18T11:55:59.924Z</time></trkpt><trkpt lat="43.8157067" lon="11.549385"><ele>580.0</ele><time>2026-04-18T11:56:00.924Z</time></trkpt><trkpt lat="43.815585" lon="11.5495733"><ele>583.6666666666667</ele><time>2026-04-18T11:56:01.924Z</time></trkpt><trkpt lat="43.8154583" lon="11.5497733"><ele>587.3333333333334</ele><time>2026-04-18T11:56:02.924Z</time></trkpt><trkpt lat="43.81534" lon="11.5499617"><ele>591.0</ele><time>2026-04-18T11:56:03.924Z</time></trkpt><trkpt lat="43.8152317" lon="11.55013"><ele>590.25</ele><time>2026-04-18T11:56:04.925Z</time></trkpt><trkpt lat="43.815125" lon="11.550275"><ele>589.5</ele><time>2026-04-18T11:56:05.925Z</time></trkpt><trkpt lat="43.8150333" lon="11.5504033"><ele>588.75</ele><time>2026-04-18T11:56:06.925Z</time></trkpt><trkpt lat="43.8149667" lon="11.5505383"><ele>588.0</ele><time>2026-04-18T11:56:07.924Z</time></trkpt><trkpt lat="43.8149233" lon="11.5506733"><ele>588.0</ele><time>2026-04-18T11:56:08.925Z</time></trkpt><trkpt lat="43.8149067" lon="11.550775"><ele>588.0</ele><time>2026-04-18T11:56:09.924Z</time></trkpt><trkpt lat="43.8149083" lon="11.5508867"><ele>588.0</ele><time>2026-04-18T11:56:12.925Z</time></trkpt><trkpt lat="43.8149717" lon="11.5508533"><ele>588.0</ele><time>2026-04-18T11:56:20.924Z</time></trkpt><trkpt lat="43.8150467" lon="11.550815"><ele>588.0</ele><time>2026-04-18T11:56:22.924Z</time></trkpt><trkpt lat="43.81512" lon="11.5508"><ele>588.0</ele><time>2026-04-18T11:56:23.925Z</time></trkpt><trkpt lat="43.8152183" lon="11.55079"><ele>589.5</ele><time>2026-04-18T11:56:24.925Z</time></trkpt><trkpt lat="43.8153533" lon="11.550785"><ele>591.0</ele><time>2026-04-18T11:56:25.924Z</time></trkpt><trkpt lat="43.8154883" lon="11.5507817"><ele>592.5</ele><time>2026-04-18T11:56:26.925Z</time></trkpt><trkpt lat="43.81561" lon="11.5507633"><ele>594.0</ele><time>2026-04-18T11:56:27.924Z</time></trkpt><trkpt lat="43.8156983" lon="11.5507533"><ele>594.0</ele><time>2026-04-18T11:56:28.924Z</time></trkpt><trkpt lat="43.8158017" lon="11.55082"><ele>594.0</ele><time>2026-04-18T11:56:30.924Z</time></trkpt><trkpt lat="43.8158233" lon="11.5509983"><ele>594.0</ele><time>2026-04-18T11:56:32.925Z</time></trkpt><trkpt lat="43.81583" lon="11.5511283"><ele>594.0</ele><time>2026-04-18T11:56:33.924Z</time></trkpt><trkpt lat="43.81583" lon="11.5512867"><ele>594.6</ele><time>2026-04-18T11:56:34.924Z</time></trkpt><trkpt lat="43.81584" lon="11.55144"><ele>595.2</ele><time>2026-04-18T11:56:35.925Z</time></trkpt><trkpt lat="43.81584" lon="11.551575"><ele>595.8000000000001</ele><time>2026-04-18T11:56:36.924Z</time></trkpt><trkpt lat="43.81585" lon="11.551695"><ele>596.4</ele><time>2026-04-18T11:56:37.924Z</time></trkpt><trkpt lat="43.8158567" lon="11.5518217"><ele>597.0</ele><time>2026-04-18T11:56:38.924Z</time></trkpt><trkpt lat="43.815865" lon="11.5519533"><ele>598.0</ele><time>2026-04-18T11:56:39.924Z</time></trkpt><trkpt lat="43.815885" lon="11.5521133"><ele>599.0</ele><time>2026-04-18T11:56:40.924Z</time></trkpt><trkpt lat="43.815925" lon="11.5522867"><ele>600.0</ele><time>2026-04-18T11:56:41.924Z</time></trkpt><trkpt lat="43.8159733" lon="11.5524567"><ele>601.0</ele><time>2026-04-18T11:56:42.924Z</time></trkpt><trkpt lat="43.8160317" lon="11.5526017"><ele>602.2</ele><time>2026-04-18T11:56:43.925Z</time></trkpt><trkpt lat="43.8160883" lon="11.5527233"><ele>603.4000000000001</ele><time>2026-04-18T11:56:44.924Z</time></trkpt><trkpt lat="43.8161533" lon="11.552815"><ele>604.6</ele><time>2026-04-18T11:56:45.924Z</time></trkpt><trkpt lat="43.8162217" lon="11.5529017"><ele>605.8000000000001</ele><time>2026-04-18T11:56:46.924Z</time></trkpt><trkpt lat="43.816285" lon="11.55299"><ele>607.0</ele><time>2026-04-18T11:56:47.924Z</time></trkpt><trkpt lat="43.8163367" lon="11.5530783"><ele>608.5</ele><time>2026-04-18T11:56:48.925Z</time></trkpt><trkpt lat="43.8163783" lon="11.5531783"><ele>610.0</ele><time>2026-04-18T11:56:49.924Z</time></trkpt><trkpt lat="43.8164083" lon="11.5532767"><ele>611.5</ele><time>2026-04-18T11:56:50.925Z</time></trkpt><trkpt lat="43.8164267" lon="11.5533667"><ele>613.0</ele><time>2026-04-18T11:56:51.925Z</time></trkpt><trkpt lat="43.816405" lon="11.5535317"><ele>614.5</ele><time>2026-04-18T11:56:53.924Z</time></trkpt><trkpt lat="43.8163583" lon="11.553605"><ele>616.0</ele><time>2026-04-18T11:56:54.924Z</time></trkpt><trkpt lat="43.81629" lon="11.55368"><ele>619.3333333333334</ele><time>2026-04-18T11:56:55.925Z</time></trkpt><trkpt lat="43.8162233" lon="11.5537583"><ele>622.6666666666667</ele><time>2026-04-18T11:56:56.924Z</time></trkpt><trkpt lat="43.8161667" lon="11.55384"><ele>626.0</ele><time>2026-04-18T11:56:57.924Z</time></trkpt><trkpt lat="43.81613" lon="11.5539267"><ele>629.3333333333334</ele><time>2026-04-18T11:56:58.924Z</time></trkpt><trkpt lat="43.8161167" lon="11.5540233"><ele>632.6666666666666</ele><time>2026-04-18T11:56:59.925Z</time></trkpt><trkpt lat="43.816115" lon="11.55412"><ele>636.0</ele><time>2026-04-18T11:57:00.925Z</time></trkpt><trkpt lat="43.816115" lon="11.5542467"><ele>636.0</ele><time>2026-04-18T11:57:02.925Z</time></trkpt><trkpt lat="43.81604" lon="11.5543067"><ele>636.0</ele><time>2026-04-18T11:57:04.924Z</time></trkpt><trkpt lat="43.8159833" lon="11.5543467"><ele>636.0</ele><time>2026-04-18T11:57:05.925Z</time></trkpt><trkpt lat="43.8159167" lon="11.5544017"><ele>636.0</ele><time>2026-04-18T11:57:06.924Z</time></trkpt><trkpt lat="43.8158483" lon="11.5544783"><ele>636.0</ele><time>2026-04-18T11:57:07.924Z</time></trkpt><trkpt lat="43.815765" lon="11.5545917"><ele>636.0</ele><time>2026-04-18T11:57:08.924Z</time></trkpt><trkpt lat="43.8156833" lon="11.5546883"><ele>637.1666666666666</ele><time>2026-04-18T11:57:09.924Z</time></trkpt><trkpt lat="43.81561" lon="11.554775"><ele>638.3333333333334</ele><time>2026-04-18T11:57:10.924Z</time></trkpt><trkpt lat="43.8155467" lon="11.5548567"><ele>639.5</ele><time>2026-04-18T11:57:11.924Z</time></trkpt><trkpt lat="43.8154967" lon="11.55494"><ele>640.6666666666667</ele><time>2026-04-18T11:57:12.924Z</time></trkpt><trkpt lat="43.815445" lon="11.555035"><ele>641.8333333333334</ele><time>2026-04-18T11:57:13.924Z</time></trkpt><trkpt lat="43.815395" lon="11.555145"><ele>643.0</ele><time>2026-04-18T11:57:14.925Z</time></trkpt><trkpt lat="43.8153433" lon="11.5552783"><ele>645.25</ele><time>2026-04-18T11:57:15.925Z</time></trkpt><trkpt lat="43.8152867" lon="11.5554283"><ele>647.5</ele><time>2026-04-18T11:57:16.925Z</time></trkpt><trkpt lat="43.8152317" lon="11.5555867"><ele>649.75</ele><time>2026-04-18T11:57:17.924Z</time></trkpt><trkpt lat="43.8151733" lon="11.5557483"><ele>652.0</ele><time>2026-04-18T11:57:18.924Z</time></trkpt><trkpt lat="43.8151267" lon="11.5558933"><ele>652.0</ele><time>2026-04-18T11:57:19.925Z</time></trkpt><trkpt lat="43.8150833" lon="11.5560067"><ele>652.0</ele><time>2026-04-18T11:57:20.924Z</time></trkpt><trkpt lat="43.8150433" lon="11.5560917"><ele>652.0</ele><time>2026-04-18T11:57:21.924Z</time></trkpt><trkpt lat="43.81498" lon="11.5562167"><ele>652.0</ele><time>2026-04-18T11:57:23.925Z</time></trkpt><trkpt lat="43.81496" lon="11.5563017"><ele>652.0</ele><time>2026-04-18T11:57:24.925Z</time></trkpt><trkpt lat="43.81494" lon="11.5564067"><ele>652.0</ele><time>2026-04-18T11:57:25.924Z</time></trkpt><trkpt lat="43.8149267" lon="11.5565167"><ele>653.0</ele><time>2026-04-18T11:57:26.924Z</time></trkpt><trkpt lat="43.814915" lon="11.5566217"><ele>654.0</ele><time>2026-04-18T11:57:27.925Z</time></trkpt><trkpt lat="43.814915" lon="11.55672"><ele>655.0</ele><time>2026-04-18T11:57:28.924Z</time></trkpt><trkpt lat="43.8149783" lon="11.5568967"><ele>656.0</ele><time>2026-04-18T11:57:30.924Z</time></trkpt><trkpt lat="43.8150483" lon="11.55698"><ele>657.0</ele><time>2026-04-18T11:57:31.924Z</time></trkpt><trkpt lat="43.8151217" lon="11.5570517"><ele>660.6</ele><time>2026-04-18T11:57:32.924Z</time></trkpt><trkpt lat="43.8152" lon="11.5570983"><ele>664.2</ele><time>2026-04-18T11:57:33.924Z</time></trkpt><trkpt lat="43.8152883" lon="11.557115"><ele>667.8</ele><time>2026-04-18T11:57:34.925Z</time></trkpt><trkpt lat="43.8153817" lon="11.5571033"><ele>671.4</ele><time>2026-04-18T11:57:35.925Z</time></trkpt><trkpt lat="43.81548" lon="11.5570783"><ele>675.0</ele><time>2026-04-18T11:57:36.924Z</time></trkpt><trkpt lat="43.8155767" lon="11.5570567"><ele>673.8</ele><time>2026-04-18T11:57:37.925Z</time></trkpt><trkpt lat="43.815665" lon="11.5570067"><ele>672.6</ele><time>2026-04-18T11:57:38.925Z</time></trkpt><trkpt lat="43.8157333" lon="11.55693"><ele>671.4000000000001</ele><time>2026-04-18T11:57:39.925Z</time></trkpt><trkpt lat="43.81579" lon="11.55683"><ele>670.2</ele><time>2026-04-18T11:57:40.924Z</time></trkpt><trkpt lat="43.81583" lon="11.5567167"><ele>669.0</ele><time>2026-04-18T11:57:41.924Z</time></trkpt><trkpt lat="43.81586" lon="11.556595"><ele>669.0</ele><time>2026-04-18T11:57:42.925Z</time></trkpt><trkpt lat="43.8158933" lon="11.5564667"><ele>669.0</ele><time>2026-04-18T11:57:43.924Z</time></trkpt><trkpt lat="43.8159333" lon="11.5563583"><ele>669.0</ele><time>2026-04-18T11:57:44.924Z</time></trkpt><trkpt lat="43.815985" lon="11.5562717"><ele>669.0</ele><time>2026-04-18T11:57:45.925Z</time></trkpt><trkpt lat="43.81605" lon="11.55621"><ele>669.0</ele><time>2026-04-18T11:57:46.924Z</time></trkpt><trkpt lat="43.81612" lon="11.5561683"><ele>669.0</ele><time>2026-04-18T11:57:47.925Z</time></trkpt><trkpt lat="43.8161967" lon="11.556145"><ele>669.0</ele><time>2026-04-18T11:57:48.924Z</time></trkpt><trkpt lat="43.81627" lon="11.5561517"><ele>669.0</ele><time>2026-04-18T11:57:49.924Z</time></trkpt><trkpt lat="43.8163433" lon="11.5561333"><ele>669.0</ele><time>2026-04-18T11:57:50.924Z</time></trkpt><trkpt lat="43.8164067" lon="11.556135"><ele>669.0</ele><time>2026-04-18T11:57:51.924Z</time></trkpt><trkpt lat="43.816495" lon="11.5561867"><ele>669.0</ele><time>2026-04-18T11:57:53.924Z</time></trkpt><trkpt lat="43.8164617" lon="11.5562983"><ele>669.0</ele><time>2026-04-18T11:57:56.924Z</time></trkpt><trkpt lat="43.8163567" lon="11.556395"><ele>671.0</ele><time>2026-04-18T11:57:58.925Z</time></trkpt><trkpt lat="43.8162983" lon="11.556475"><ele>673.0</ele><time>2026-04-18T11:57:59.924Z</time></trkpt><trkpt lat="43.8162483" lon="11.5565633"><ele>675.0</ele><time>2026-04-18T11:58:00.924Z</time></trkpt><trkpt lat="43.8162133" lon="11.5566583"><ele>677.0</ele><time>2026-04-18T11:58:01.924Z</time></trkpt><trkpt lat="43.8161917" lon="11.55675"><ele>679.0</ele><time>2026-04-18T11:58:02.925Z</time></trkpt><trkpt lat="43.8161833" lon="11.5568417"><ele>681.0</ele><time>2026-04-18T11:58:03.924Z</time></trkpt><trkpt lat="43.8161933" lon="11.5569367"><ele>683.0</ele><time>2026-04-18T11:58:04.925Z</time></trkpt><trkpt lat="43.8162083" lon="11.5570417"><ele>685.0</ele><time>2026-04-18T11:58:05.924Z</time></trkpt><trkpt lat="43.816235" lon="11.55718"><ele>687.0</ele><time>2026-04-18T11:58:06.925Z</time></trkpt><trkpt lat="43.8162517" lon="11.5573217"><ele>689.0</ele><time>2026-04-18T11:58:07.925Z</time></trkpt><trkpt lat="43.81625" lon="11.5574717"><ele>691.0</ele><time>2026-04-18T11:58:08.924Z</time></trkpt><trkpt lat="43.81623" lon="11.557625"><ele>693.0</ele><time>2026-04-18T11:58:09.924Z</time></trkpt><trkpt lat="43.81619" lon="11.5577467"><ele>693.0</ele><time>2026-04-18T11:58:10.924Z</time></trkpt><trkpt lat="43.8161417" lon="11.5578567"><ele>693.0</ele><time>2026-04-18T11:58:11.924Z</time></trkpt><trkpt lat="43.81608" lon="11.5579533"><ele>693.0</ele><time>2026-04-18T11:58:12.924Z</time></trkpt><trkpt lat="43.8159933" lon="11.5580383"><ele>693.0</ele><time>2026-04-18T11:58:13.924Z</time></trkpt><trkpt lat="43.8158967" lon="11.558115"><ele>693.0</ele><time>2026-04-18T11:58:14.924Z</time></trkpt><trkpt lat="43.8158" lon="11.5581983"><ele>693.75</ele><time>2026-04-18T11:58:15.924Z</time></trkpt><trkpt lat="43.8157167" lon="11.5582983"><ele>694.5</ele><time>2026-04-18T11:58:16.924Z</time></trkpt><trkpt lat="43.8156467" lon="11.5584183"><ele>695.25</ele><time>2026-04-18T11:58:17.924Z</time></trkpt><trkpt lat="43.81558" lon="11.5585533"><ele>696.0</ele><time>2026-04-18T11:58:18.924Z</time></trkpt><trkpt lat="43.8155217" lon="11.5586967"><ele>700.4</ele><time>2026-04-18T11:58:19.925Z</time></trkpt><trkpt lat="43.8154733" lon="11.5588417"><ele>704.8</ele><time>2026-04-18T11:58:20.924Z</time></trkpt><trkpt lat="43.8154317" lon="11.5589817"><ele>709.1999999999999</ele><time>2026-04-18T11:58:21.924Z</time></trkpt><trkpt lat="43.8153933" lon="11.5591083"><ele>713.5999999999999</ele><time>2026-04-18T11:58:22.924Z</time></trkpt><trkpt lat="43.8153417" lon="11.55921"><ele>718.0</ele><time>2026-04-18T11:58:23.924Z</time></trkpt><trkpt lat="43.8152683" lon="11.5592917"><ele>718.0</ele><time>2026-04-18T11:58:24.924Z</time></trkpt><trkpt lat="43.8151817" lon="11.5593617"><ele>718.0</ele><time>2026-04-18T11:58:25.924Z</time></trkpt><trkpt lat="43.8150933" lon="11.559445"><ele>718.0</ele><time>2026-04-18T11:58:26.924Z</time></trkpt><trkpt lat="43.815" lon="11.559515"><ele>718.0</ele><time>2026-04-18T11:58:27.924Z</time></trkpt><trkpt lat="43.8149017" lon="11.5595567"><ele>718.0</ele><time>2026-04-18T11:58:28.924Z</time></trkpt><trkpt lat="43.8148033" lon="11.55958"><ele>717.3333333333334</ele><time>2026-04-18T11:58:29.925Z</time></trkpt><trkpt lat="43.8147117" lon="11.5596067"><ele>716.6666666666667</ele><time>2026-04-18T11:58:30.924Z</time></trkpt><trkpt lat="43.8146367" lon="11.5596333"><ele>716.0</ele><time>2026-04-18T11:58:31.925Z</time></trkpt><trkpt lat="43.8145817" lon="11.559685"><ele>715.3333333333334</ele><time>2026-04-18T11:58:32.925Z</time></trkpt><trkpt lat="43.8145383" lon="11.5597983"><ele>714.6666666666666</ele><time>2026-04-18T11:58:34.924Z</time></trkpt><trkpt lat="43.8145717" lon="11.5599217"><ele>714.0</ele><time>2026-04-18T11:58:46.924Z</time></trkpt><trkpt lat="43.8145767" lon="11.5600117"><ele>714.0</ele><time>2026-04-18T11:58:47.925Z</time></trkpt><trkpt lat="43.814585" lon="11.560115"><ele>714.0</ele><time>2026-04-18T11:58:48.924Z</time></trkpt><trkpt lat="43.8145817" lon="11.5602083"><ele>714.0</ele><time>2026-04-18T11:58:49.924Z</time></trkpt><trkpt lat="43.81457" lon="11.5602983"><ele>714.0</ele><time>2026-04-18T11:58:50.924Z</time></trkpt><trkpt lat="43.8145433" lon="11.56039"><ele>714.0</ele><time>2026-04-18T11:58:51.924Z</time></trkpt><trkpt lat="43.8145083" lon="11.5604767"><ele>714.0</ele><time>2026-04-18T11:58:52.924Z</time></trkpt><trkpt lat="43.81447" lon="11.5605633"><ele>714.0</ele><time>2026-04-18T11:58:53.924Z</time></trkpt><trkpt lat="43.8144317" lon="11.5606483"><ele>713.5</ele><time>2026-04-18T11:58:54.924Z</time></trkpt><trkpt lat="43.8143867" lon="11.5607367"><ele>713.0</ele><time>2026-04-18T11:58:55.925Z</time></trkpt><trkpt lat="43.8143567" lon="11.5608233"><ele>712.5</ele><time>2026-04-18T11:58:56.925Z</time></trkpt><trkpt lat="43.8143317" lon="11.56092"><ele>712.0</ele><time>2026-04-18T11:58:57.924Z</time></trkpt><trkpt lat="43.8143117" lon="11.5610267"><ele>711.5</ele><time>2026-04-18T11:58:58.924Z</time></trkpt><trkpt lat="43.8142917" lon="11.561135"><ele>711.0</ele><time>2026-04-18T11:58:59.925Z</time></trkpt><trkpt lat="43.8142767" lon="11.56123"><ele>713.0</ele><time>2026-04-18T11:59:00.924Z</time></trkpt><trkpt lat="43.8142433" lon="11.561315"><ele>715.0</ele><time>2026-04-18T11:59:01.924Z</time></trkpt><trkpt lat="43.8141917" lon="11.5613933"><ele>717.0</ele><time>2026-04-18T11:59:02.924Z</time></trkpt><trkpt lat="43.814135" lon="11.5614767"><ele>719.0</ele><time>2026-04-18T11:59:03.925Z</time></trkpt><trkpt lat="43.8140733" lon="11.5615683"><ele>721.0</ele><time>2026-04-18T11:59:04.924Z</time></trkpt><trkpt lat="43.814015" lon="11.5616633"><ele>723.0</ele><time>2026-04-18T11:59:05.924Z</time></trkpt><trkpt lat="43.8139633" lon="11.5617467"><ele>723.0</ele><time>2026-04-18T11:59:06.924Z</time></trkpt><trkpt lat="43.8139067" lon="11.56183"><ele>723.0</ele><time>2026-04-18T11:59:07.925Z</time></trkpt><trkpt lat="43.8138433" lon="11.5619133"><ele>723.0</ele><time>2026-04-18T11:59:08.924Z</time></trkpt><trkpt lat="43.81378" lon="11.561995"><ele>723.0</ele><time>2026-04-18T11:59:09.924Z</time></trkpt><trkpt lat="43.8137167" lon="11.5620683"><ele>723.0</ele><time>2026-04-18T11:59:10.924Z</time></trkpt><trkpt lat="43.8136567" lon="11.5621333"><ele>723.0</ele><time>2026-04-18T11:59:11.924Z</time></trkpt><trkpt lat="43.813555" lon="11.56221"><ele>725.8</ele><time>2026-04-18T11:59:13.924Z</time></trkpt><trkpt lat="43.8134667" lon="11.56223"><ele>728.5999999999999</ele><time>2026-04-18T11:59:15.924Z</time></trkpt><trkpt lat="43.81338" lon="11.562175"><ele>731.4000000000001</ele><time>2026-04-18T11:59:17.924Z</time></trkpt><trkpt lat="43.8132783" lon="11.56212"><ele>734.2</ele><time>2026-04-18T11:59:19.925Z</time></trkpt><trkpt lat="43.8131733" lon="11.562115"><ele>737.0</ele><time>2026-04-18T11:59:21.924Z</time></trkpt><trkpt lat="43.8131083" lon="11.5621433"><ele>737.0</ele><time>2026-04-18T11:59:22.924Z</time></trkpt><trkpt lat="43.812995" lon="11.5622067"><ele>737.0</ele><time>2026-04-18T11:59:24.924Z</time></trkpt><trkpt lat="43.812935" lon="11.5622483"><ele>737.0</ele><time>2026-04-18T11:59:25.925Z</time></trkpt><trkpt lat="43.8128433" lon="11.562325"><ele>737.0</ele><time>2026-04-18T11:59:27.924Z</time></trkpt><trkpt lat="43.812785" lon="11.562395"><ele>737.0</ele><time>2026-04-18T11:59:29.924Z</time></trkpt><trkpt lat="43.8127283" lon="11.56248"><ele>736.5714285714287</ele><time>2026-04-18T11:59:31.925Z</time></trkpt><trkpt lat="43.812655" lon="11.5625917"><ele>736.1428571428571</ele><time>2026-04-18T11:59:33.924Z</time></trkpt><trkpt lat="43.81261" lon="11.56266"><ele>735.7142857142858</ele><time>2026-04-18T11:59:34.925Z</time></trkpt><trkpt lat="43.8125683" lon="11.5627317"><ele>735.2857142857143</ele><time>2026-04-18T11:59:35.925Z</time></trkpt><trkpt lat="43.812525" lon="11.5628117"><ele>734.8571428571429</ele><time>2026-04-18T11:59:36.925Z</time></trkpt><trkpt lat="43.8124867" lon="11.5628867"><ele>734.4285714285714</ele><time>2026-04-18T11:59:37.924Z</time></trkpt><trkpt lat="43.8124517" lon="11.5629683"><ele>734.0</ele><time>2026-04-18T11:59:38.924Z</time></trkpt><trkpt lat="43.8124217" lon="11.5630583"><ele>736.2857142857142</ele><time>2026-04-18T11:59:39.925Z</time></trkpt><trkpt lat="43.8123917" lon="11.5631417"><ele>738.5714285714287</ele><time>2026-04-18T11:59:40.924Z</time></trkpt><trkpt lat="43.8123633" lon="11.56322"><ele>740.8571428571429</ele><time>2026-04-18T11:59:41.924Z</time></trkpt><trkpt lat="43.8123283" lon="11.5632933"><ele>743.1428571428571</ele><time>2026-04-18T11:59:42.925Z</time></trkpt><trkpt lat="43.8122867" lon="11.5633633"><ele>745.4285714285713</ele><time>2026-04-18T11:59:43.924Z</time></trkpt><trkpt lat="43.812235" lon="11.5634483"><ele>747.7142857142858</ele><time>2026-04-18T11:59:44.924Z</time></trkpt><trkpt lat="43.812195" lon="11.56353"><ele>750.0</ele><time>2026-04-18T11:59:45.924Z</time></trkpt><trkpt lat="43.81216" lon="11.5636083"><ele>750.0</ele><time>2026-04-18T11:59:46.924Z</time></trkpt><trkpt lat="43.8121317" lon="11.56369"><ele>750.0</ele><time>2026-04-18T11:59:47.925Z</time></trkpt><trkpt lat="43.8120917" lon="11.5638517"><ele>750.0</ele><time>2026-04-18T11:59:49.925Z</time></trkpt><trkpt lat="43.8120617" lon="11.5640217"><ele>750.0</ele><time>2026-04-18T11:59:51.925Z</time></trkpt><trkpt lat="43.8120267" lon="11.56411"><ele>750.0</ele><time>2026-04-18T11:59:52.925Z</time></trkpt><trkpt lat="43.8119783" lon="11.5641917"><ele>750.8333333333334</ele><time>2026-04-18T11:59:53.924Z</time></trkpt><trkpt lat="43.8119267" lon="11.5642967"><ele>751.6666666666666</ele><time>2026-04-18T11:59:54.925Z</time></trkpt><trkpt lat="43.811875" lon="11.56439"><ele>752.5</ele><time>2026-04-18T11:59:55.924Z</time></trkpt><trkpt lat="43.8118167" lon="11.5644733"><ele>753.3333333333333</ele><time>2026-04-18T11:59:56.924Z</time></trkpt><trkpt lat="43.8117633" lon="11.5645467"><ele>754.1666666666666</ele><time>2026-04-18T11:59:57.925Z</time></trkpt><trkpt lat="43.8117183" lon="11.56462"><ele>755.0</ele><time>2026-04-18T11:59:58.924Z</time></trkpt><trkpt lat="43.8116717" lon="11.5647133"><ele>755.0</ele><time>2026-04-18T11:59:59.924Z</time></trkpt><trkpt lat="43.8116283" lon="11.5647983"><ele>755.0</ele><time>2026-04-18T12:00:00.924Z</time></trkpt><trkpt lat="43.81159" lon="11.5648817"><ele>755.0</ele><time>2026-04-18T12:00:01.925Z</time></trkpt><trkpt lat="43.8115417" lon="11.5649733"><ele>755.0</ele><time>2026-04-18T12:00:02.925Z</time></trkpt><trkpt lat="43.8114867" lon="11.5650533"><ele>755.0</ele><time>2026-04-18T12:00:03.924Z</time></trkpt><trkpt lat="43.8114283" lon="11.5651217"><ele>755.0</ele><time>2026-04-18T12:00:04.924Z</time></trkpt><trkpt lat="43.8113867" lon="11.56519"><ele>755.0</ele><time>2026-04-18T12:00:05.925Z</time></trkpt><trkpt lat="43.8113333" lon="11.5653183"><ele>757.6</ele><time>2026-04-18T12:00:07.924Z</time></trkpt><trkpt lat="43.811325" lon="11.5654817"><ele>760.2</ele><time>2026-04-18T12:00:09.925Z</time></trkpt><trkpt lat="43.811335" lon="11.56565"><ele>762.8</ele><time>2026-04-18T12:00:11.924Z</time></trkpt><trkpt lat="43.8113417" lon="11.5657383"><ele>765.4</ele><time>2026-04-18T12:00:12.924Z</time></trkpt><trkpt lat="43.8113474" lon="11.5658336"><ele>768.0</ele><time>2026-04-18T12:00:13.925Z</time></trkpt><trkpt lat="43.8113238" lon="11.566005"><ele>768.0</ele><time>2026-04-18T12:00:15.925Z</time></trkpt><trkpt lat="43.8112335" lon="11.566138"><ele>768.0</ele><time>2026-04-18T12:00:17.924Z</time></trkpt><trkpt lat="43.8111681" lon="11.5661908"><ele>768.0</ele><time>2026-04-18T12:00:18.924Z</time></trkpt><trkpt lat="43.8111023" lon="11.5662386"><ele>768.0</ele><time>2026-04-18T12:00:19.924Z</time></trkpt><trkpt lat="43.8110382" lon="11.5662835"><ele>768.0</ele><time>2026-04-18T12:00:20.924Z</time></trkpt><trkpt lat="43.8109768" lon="11.5663272"><ele>768.0</ele><time>2026-04-18T12:00:21.924Z</time></trkpt><trkpt lat="43.8109217" lon="11.5663743"><ele>767.6666666666666</ele><time>2026-04-18T12:00:22.924Z</time></trkpt><trkpt lat="43.810829" lon="11.5664679"><ele>767.3333333333334</ele><time>2026-04-18T12:00:24.924Z</time></trkpt><trkpt lat="43.8107792" lon="11.5665266"><ele>767.0</ele><time>2026-04-18T12:00:25.924Z</time></trkpt><trkpt lat="43.8107296" lon="11.5665932"><ele>766.6666666666667</ele><time>2026-04-18T12:00:26.924Z</time></trkpt><trkpt lat="43.8106784" lon="11.5666624"><ele>766.3333333333334</ele><time>2026-04-18T12:00:27.925Z</time></trkpt><trkpt lat="43.8106253" lon="11.566739"><ele>766.0</ele><time>2026-04-18T12:00:28.925Z</time></trkpt><trkpt lat="43.8105704" lon="11.5668237"><ele>766.0</ele><time>2026-04-18T12:00:29.925Z</time></trkpt><trkpt lat="43.8105162" lon="11.5669126"><ele>766.0</ele><time>2026-04-18T12:00:30.924Z</time></trkpt><trkpt lat="43.8104565" lon="11.5669969"><ele>766.0</ele><time>2026-04-18T12:00:31.925Z</time></trkpt><trkpt lat="43.8103835" lon="11.5670809"><ele>766.0</ele><time>2026-04-18T12:00:32.924Z</time></trkpt><trkpt lat="43.810306" lon="11.5671567"><ele>766.0</ele><time>2026-04-18T12:00:33.924Z</time></trkpt><trkpt lat="43.8102228" lon="11.5672188"><ele>768.0</ele><time>2026-04-18T12:00:34.924Z</time></trkpt><trkpt lat="43.8101353" lon="11.5672727"><ele>770.0</ele><time>2026-04-18T12:00:35.924Z</time></trkpt><trkpt lat="43.810047" lon="11.567319"><ele>772.0</ele><time>2026-04-18T12:00:36.925Z</time></trkpt><trkpt lat="43.8099621" lon="11.567354"><ele>774.0</ele><time>2026-04-18T12:00:37.924Z</time></trkpt><trkpt lat="43.8098777" lon="11.5673688"><ele>776.0</ele><time>2026-04-18T12:00:38.925Z</time></trkpt><trkpt lat="43.8097909" lon="11.5673719"><ele>776.0</ele><time>2026-04-18T12:00:39.924Z</time></trkpt><trkpt lat="43.8097088" lon="11.5673678"><ele>776.0</ele><time>2026-04-18T12:00:40.924Z</time></trkpt><trkpt lat="43.8096359" lon="11.5673605"><ele>776.0</ele><time>2026-04-18T12:00:41.925Z</time></trkpt><trkpt lat="43.8095707" lon="11.5673672"><ele>776.0</ele><time>2026-04-18T12:00:42.924Z</time></trkpt><trkpt lat="43.8095082" lon="11.5673825"><ele>776.0</ele><time>2026-04-18T12:00:43.924Z</time></trkpt><trkpt lat="43.8094458" lon="11.5674139"><ele>776.0</ele><time>2026-04-18T12:00:44.925Z</time></trkpt><trkpt lat="43.8093832" lon="11.5674549"><ele>776.0</ele><time>2026-04-18T12:00:45.924Z</time></trkpt><trkpt lat="43.8093254" lon="11.5674961"><ele>774.4</ele><time>2026-04-18T12:00:46.924Z</time></trkpt><trkpt lat="43.8092283" lon="11.567576"><ele>772.8</ele><time>2026-04-18T12:00:48.924Z</time></trkpt><trkpt lat="43.8091527" lon="11.5676798"><ele>771.1999999999999</ele><time>2026-04-18T12:00:50.924Z</time></trkpt><trkpt lat="43.8090665" lon="11.5677724"><ele>769.5999999999999</ele><time>2026-04-18T12:00:52.924Z</time></trkpt><trkpt lat="43.809008" lon="11.5678111"><ele>768.0</ele><time>2026-04-18T12:00:53.924Z</time></trkpt><trkpt lat="43.8089452" lon="11.5678435"><ele>770.9999999999999</ele><time>2026-04-18T12:00:54.925Z</time></trkpt><trkpt lat="43.8088764" lon="11.5678661"><ele>774.0</ele><time>2026-04-18T12:00:55.924Z</time></trkpt><trkpt lat="43.8088073" lon="11.5678825"><ele>777.0</ele><time>2026-04-18T12:00:56.924Z</time></trkpt><trkpt lat="43.8087394" lon="11.5679108"><ele>780.0</ele><time>2026-04-18T12:00:57.925Z</time></trkpt><trkpt lat="43.8086672" lon="11.5679501"><ele>783.0</ele><time>2026-04-18T12:00:58.924Z</time></trkpt><trkpt lat="43.8085979" lon="11.5680007"><ele>785.9999999999999</ele><time>2026-04-18T12:00:59.924Z</time></trkpt><trkpt lat="43.8085361" lon="11.5680637"><ele>789.0</ele><time>2026-04-18T12:01:00.925Z</time></trkpt><trkpt lat="43.8084733" lon="11.5681326"><ele>789.0</ele><time>2026-04-18T12:01:01.924Z</time></trkpt><trkpt lat="43.8084038" lon="11.5681893"><ele>789.0</ele><time>2026-04-18T12:01:02.924Z</time></trkpt><trkpt lat="43.8083288" lon="11.5682212"><ele>789.0</ele><time>2026-04-18T12:01:03.925Z</time></trkpt><trkpt lat="43.8082537" lon="11.5682265"><ele>789.0</ele><time>2026-04-18T12:01:04.924Z</time></trkpt><trkpt lat="43.8081795" lon="11.568217"><ele>789.0</ele><time>2026-04-18T12:01:05.924Z</time></trkpt><trkpt lat="43.8081147" lon="11.5682083"><ele>789.0</ele><time>2026-04-18T12:01:06.924Z</time></trkpt><trkpt lat="43.8080048" lon="11.5682345"><ele>789.0</ele><time>2026-04-18T12:01:08.924Z</time></trkpt><trkpt lat="43.8078954" lon="11.5683282"><ele>789.0</ele><time>2026-04-18T12:01:10.925Z</time></trkpt><trkpt lat="43.8078404" lon="11.5683989"><ele>789.0</ele><time>2026-04-18T12:01:11.924Z</time></trkpt><trkpt lat="43.8077819" lon="11.5684779"><ele>789.0</ele><time>2026-04-18T12:01:12.925Z</time></trkpt><trkpt lat="43.807722" lon="11.5685588"><ele>789.0</ele><time>2026-04-18T12:01:13.924Z</time></trkpt><trkpt lat="43.8076599" lon="11.5686328"><ele>789.8333333333334</ele><time>2026-04-18T12:01:14.925Z</time></trkpt><trkpt lat="43.8075987" lon="11.5687083"><ele>790.6666666666667</ele><time>2026-04-18T12:01:15.924Z</time></trkpt><trkpt lat="43.8075373" lon="11.5687834"><ele>791.5</ele><time>2026-04-18T12:01:16.925Z</time></trkpt><trkpt lat="43.8074744" lon="11.5688597"><ele>792.3333333333334</ele><time>2026-04-18T12:01:17.925Z</time></trkpt><trkpt lat="43.8074119" lon="11.568937"><ele>793.1666666666667</ele><time>2026-04-18T12:01:18.925Z</time></trkpt><trkpt lat="43.8073535" lon="11.5690122"><ele>794.0</ele><time>2026-04-18T12:01:19.925Z</time></trkpt><trkpt lat="43.8072916" lon="11.5690864"><ele>794.0</ele><time>2026-04-18T12:01:20.924Z</time></trkpt><trkpt lat="43.8072288" lon="11.5691575"><ele>794.0</ele><time>2026-04-18T12:01:21.924Z</time></trkpt><trkpt lat="43.8071649" lon="11.5692269"><ele>794.0</ele><time>2026-04-18T12:01:22.924Z</time></trkpt><trkpt lat="43.8071028" lon="11.5692755"><ele>794.0</ele><time>2026-04-18T12:01:23.924Z</time></trkpt><trkpt lat="43.807037" lon="11.5693073"><ele>794.0</ele><time>2026-04-18T12:01:24.924Z</time></trkpt><trkpt lat="43.8069707" lon="11.5693221"><ele>794.0</ele><time>2026-04-18T12:01:25.924Z</time></trkpt><trkpt lat="43.8069049" lon="11.5693247"><ele>794.0</ele><time>2026-04-18T12:01:26.924Z</time></trkpt><trkpt lat="43.8068374" lon="11.5693111"><ele>794.1666666666667</ele><time>2026-04-18T12:01:27.925Z</time></trkpt><trkpt lat="43.8067693" lon="11.5692787"><ele>794.3333333333334</ele><time>2026-04-18T12:01:28.925Z</time></trkpt><trkpt lat="43.80671" lon="11.5692392"><ele>794.5</ele><time>2026-04-18T12:01:29.924Z</time></trkpt><trkpt lat="43.8066174" lon="11.5691171"><ele>794.6666666666667</ele><time>2026-04-18T12:01:31.924Z</time></trkpt><trkpt lat="43.8065679" lon="11.5690576"><ele>794.8333333333334</ele><time>2026-04-18T12:01:32.925Z</time></trkpt><trkpt lat="43.8065142" lon="11.5689969"><ele>795.0</ele><time>2026-04-18T12:01:33.924Z</time></trkpt><trkpt lat="43.8064594" lon="11.5689433"><ele>795.0</ele><time>2026-04-18T12:01:34.924Z</time></trkpt><trkpt lat="43.8063975" lon="11.5688963"><ele>795.0</ele><time>2026-04-18T12:01:35.925Z</time></trkpt><trkpt lat="43.8063301" lon="11.5688513"><ele>795.0</ele><time>2026-04-18T12:01:36.924Z</time></trkpt><trkpt lat="43.8062571" lon="11.5688037"><ele>795.0</ele><time>2026-04-18T12:01:37.925Z</time></trkpt><trkpt lat="43.806189" lon="11.5687618"><ele>795.0</ele><time>2026-04-18T12:01:38.924Z</time></trkpt><trkpt lat="43.80613" lon="11.5687276"><ele>795.0</ele><time>2026-04-18T12:01:39.924Z</time></trkpt><trkpt lat="43.8060387" lon="11.5686555"><ele>796.8</ele><time>2026-04-18T12:01:41.924Z</time></trkpt><trkpt lat="43.8059741" lon="11.5685953"><ele>798.6</ele><time>2026-04-18T12:01:43.924Z</time></trkpt><trkpt lat="43.8059008" lon="11.5685805"><ele>800.4000000000001</ele><time>2026-04-18T12:01:45.925Z</time></trkpt><trkpt lat="43.805822" lon="11.5686108"><ele>802.2</ele><time>2026-04-18T12:01:47.925Z</time></trkpt><trkpt lat="43.8057247" lon="11.5686636"><ele>804.0</ele><time>2026-04-18T12:01:49.924Z</time></trkpt><trkpt lat="43.8056221" lon="11.5687467"><ele>804.0</ele><time>2026-04-18T12:01:51.924Z</time></trkpt><trkpt lat="43.805539" lon="11.5688661"><ele>804.0</ele><time>2026-04-18T12:01:53.924Z</time></trkpt><trkpt lat="43.8054783" lon="11.5690197"><ele>804.0</ele><time>2026-04-18T12:01:55.924Z</time></trkpt><trkpt lat="43.8054468" lon="11.5691056"><ele>804.0</ele><time>2026-04-18T12:01:56.924Z</time></trkpt><trkpt lat="43.8054125" lon="11.5691937"><ele>804.0</ele><time>2026-04-18T12:01:57.925Z</time></trkpt><trkpt lat="43.8053787" lon="11.569281"><ele>804.0</ele><time>2026-04-18T12:01:58.924Z</time></trkpt><trkpt lat="43.8053453" lon="11.569371"><ele>804.0</ele><time>2026-04-18T12:01:59.924Z</time></trkpt><trkpt lat="43.8053139" lon="11.5694691"><ele>804.0</ele><time>2026-04-18T12:02:00.924Z</time></trkpt><trkpt lat="43.8052866" lon="11.5695684"><ele>804.0</ele><time>2026-04-18T12:02:01.924Z</time></trkpt><trkpt lat="43.805267" lon="11.5696681"><ele>804.0</ele><time>2026-04-18T12:02:02.925Z</time></trkpt><trkpt lat="43.8052516" lon="11.5697715"><ele>804.0</ele><time>2026-04-18T12:02:03.924Z</time></trkpt><trkpt lat="43.8052382" lon="11.5698788"><ele>807.5</ele><time>2026-04-18T12:02:04.925Z</time></trkpt><trkpt lat="43.8052278" lon="11.5699825"><ele>811.0</ele><time>2026-04-18T12:02:05.925Z</time></trkpt><trkpt lat="43.8052191" lon="11.570088"><ele>814.5</ele><time>2026-04-18T12:02:06.924Z</time></trkpt><trkpt lat="43.8052131" lon="11.5702"><ele>818.0</ele><time>2026-04-18T12:02:07.925Z</time></trkpt><trkpt lat="43.805204" lon="11.5703125"><ele>821.5</ele><time>2026-04-18T12:02:08.924Z</time></trkpt><trkpt lat="43.8051905" lon="11.5704248"><ele>825.0</ele><time>2026-04-18T12:02:09.925Z</time></trkpt><trkpt lat="43.805177" lon="11.5705368"><ele>827.0</ele><time>2026-04-18T12:02:10.924Z</time></trkpt><trkpt lat="43.8051644" lon="11.5706455"><ele>829.0</ele><time>2026-04-18T12:02:11.924Z</time></trkpt><trkpt lat="43.8051489" lon="11.5707599"><ele>831.0</ele><time>2026-04-18T12:02:12.925Z</time></trkpt><trkpt lat="43.8051392" lon="11.5708681"><ele>833.0</ele><time>2026-04-18T12:02:13.925Z</time></trkpt><trkpt lat="43.8051235" lon="11.5709795"><ele>835.0</ele><time>2026-04-18T12:02:14.924Z</time></trkpt><trkpt lat="43.8051086" lon="11.5710911"><ele>837.0</ele><time>2026-04-18T12:02:15.924Z</time></trkpt><trkpt lat="43.8050968" lon="11.5712027"><ele>831.0</ele><time>2026-04-18T12:02:16.924Z</time></trkpt><trkpt lat="43.8050967" lon="11.5713143"><ele>825.0</ele><time>2026-04-18T12:02:17.924Z</time></trkpt><trkpt lat="43.8051079" lon="11.5714279"><ele>819.0</ele><time>2026-04-18T12:02:18.924Z</time></trkpt><trkpt lat="43.8051179" lon="11.5715365"><ele>813.0</ele><time>2026-04-18T12:02:19.925Z</time></trkpt><trkpt lat="43.8051268" lon="11.5716355"><ele>807.0</ele><time>2026-04-18T12:02:20.925Z</time></trkpt><trkpt lat="43.8051322" lon="11.5717295"><ele>801.0</ele><time>2026-04-18T12:02:21.924Z</time></trkpt><trkpt lat="43.8051262" lon="11.5718299"><ele>801.0</ele><time>2026-04-18T12:02:22.924Z</time></trkpt><trkpt lat="43.8051136" lon="11.5719244"><ele>801.0</ele><time>2026-04-18T12:02:23.924Z</time></trkpt><trkpt lat="43.8051011" lon="11.5720162"><ele>801.0</ele><time>2026-04-18T12:02:24.924Z</time></trkpt><trkpt lat="43.8050955" lon="11.5721074"><ele>801.0</ele><time>2026-04-18T12:02:25.924Z</time></trkpt><trkpt lat="43.8050948" lon="11.5721989"><ele>801.0</ele><time>2026-04-18T12:02:26.924Z</time></trkpt><trkpt lat="43.8051035" lon="11.5722876"><ele>801.0</ele><time>2026-04-18T12:02:27.924Z</time></trkpt><trkpt lat="43.8051159" lon="11.5724485"><ele>803.0</ele><time>2026-04-18T12:02:29.924Z</time></trkpt><trkpt lat="43.80509" lon="11.5725617"><ele>805.0</ele><time>2026-04-18T12:02:31.924Z</time></trkpt><trkpt lat="43.8050277" lon="11.5726284"><ele>807.0</ele><time>2026-04-18T12:02:33.924Z</time></trkpt><trkpt lat="43.8049304" lon="11.5726694"><ele>809.0</ele><time>2026-04-18T12:02:35.924Z</time></trkpt><trkpt lat="43.8048689" lon="11.5726919"><ele>811.0</ele><time>2026-04-18T12:02:36.924Z</time></trkpt><trkpt lat="43.8048072" lon="11.5727249"><ele>813.0</ele><time>2026-04-18T12:02:37.924Z</time></trkpt><trkpt lat="43.8047473" lon="11.5727861"><ele>815.3333333333334</ele><time>2026-04-18T12:02:38.924Z</time></trkpt><trkpt lat="43.8046971" lon="11.5728698"><ele>817.6666666666667</ele><time>2026-04-18T12:02:39.924Z</time></trkpt><trkpt lat="43.8046581" lon="11.5729686"><ele>820.0</ele><time>2026-04-18T12:02:40.924Z</time></trkpt><trkpt lat="43.8046265" lon="11.5730696"><ele>822.3333333333334</ele><time>2026-04-18T12:02:41.925Z</time></trkpt><trkpt lat="43.8046027" lon="11.5731729"><ele>824.6666666666667</ele><time>2026-04-18T12:02:42.924Z</time></trkpt><trkpt lat="43.8045859" lon="11.5732802"><ele>827.0</ele><time>2026-04-18T12:02:43.924Z</time></trkpt><trkpt lat="43.8045728" lon="11.5733934"><ele>827.0000000000001</ele><time>2026-04-18T12:02:44.924Z</time></trkpt><trkpt lat="43.8045591" lon="11.5735049"><ele>827.0</ele><time>2026-04-18T12:02:45.924Z</time></trkpt><trkpt lat="43.8045415" lon="11.5736071"><ele>827.0</ele><time>2026-04-18T12:02:46.924Z</time></trkpt><trkpt lat="43.8045364" lon="11.5737124"><ele>827.0</ele><time>2026-04-18T12:02:47.924Z</time></trkpt><trkpt lat="43.8045302" lon="11.5738147"><ele>827.0000000000001</ele><time>2026-04-18T12:02:48.924Z</time></trkpt><trkpt lat="43.8045189" lon="11.573912"><ele>827.0</ele><time>2026-04-18T12:02:49.924Z</time></trkpt><trkpt lat="43.8045008" lon="11.5740097"><ele>828.2857142857143</ele><time>2026-04-18T12:02:50.925Z</time></trkpt><trkpt lat="43.8044866" lon="11.5741038"><ele>829.5714285714286</ele><time>2026-04-18T12:02:51.925Z</time></trkpt><trkpt lat="43.8044802" lon="11.5742034"><ele>830.8571428571429</ele><time>2026-04-18T12:02:52.924Z</time></trkpt><trkpt lat="43.8044879" lon="11.5742962"><ele>832.1428571428571</ele><time>2026-04-18T12:02:53.924Z</time></trkpt><trkpt lat="43.8044997" lon="11.5743904"><ele>833.4285714285713</ele><time>2026-04-18T12:02:54.925Z</time></trkpt><trkpt lat="43.8045192" lon="11.5744804"><ele>834.7142857142857</ele><time>2026-04-18T12:02:55.924Z</time></trkpt><trkpt lat="43.8045304" lon="11.5745739"><ele>836.0</ele><time>2026-04-18T12:02:56.925Z</time></trkpt><trkpt lat="43.8045276" lon="11.5746753"><ele>836.5714285714286</ele><time>2026-04-18T12:02:57.924Z</time></trkpt><trkpt lat="43.804512" lon="11.5747724"><ele>837.1428571428571</ele><time>2026-04-18T12:02:58.924Z</time></trkpt><trkpt lat="43.8044964" lon="11.5748637"><ele>837.7142857142858</ele><time>2026-04-18T12:02:59.925Z</time></trkpt><trkpt lat="43.8044866" lon="11.5749551"><ele>838.2857142857142</ele><time>2026-04-18T12:03:00.924Z</time></trkpt><trkpt lat="43.804492" lon="11.5750492"><ele>838.8571428571429</ele><time>2026-04-18T12:03:01.924Z</time></trkpt><trkpt lat="43.8045144" lon="11.5751353"><ele>839.4285714285714</ele><time>2026-04-18T12:03:02.925Z</time></trkpt><trkpt lat="43.8045456" lon="11.5752169"><ele>840.0</ele><time>2026-04-18T12:03:03.924Z</time></trkpt><trkpt lat="43.8046119" lon="11.5753515"><ele>840.8333333333334</ele><time>2026-04-18T12:03:05.924Z</time></trkpt><trkpt lat="43.8046507" lon="11.5754655"><ele>841.6666666666667</ele><time>2026-04-18T12:03:07.924Z</time></trkpt><trkpt lat="43.8046317" lon="11.5755741"><ele>842.5</ele><time>2026-04-18T12:03:09.924Z</time></trkpt><trkpt lat="43.8045683" lon="11.5757116"><ele>843.3333333333334</ele><time>2026-04-18T12:03:11.925Z</time></trkpt><trkpt lat="43.8045278" lon="11.5757986"><ele>844.1666666666667</ele><time>2026-04-18T12:03:12.924Z</time></trkpt><trkpt lat="43.8044947" lon="11.5759042"><ele>845.0</ele><time>2026-04-18T12:03:13.924Z</time></trkpt><trkpt lat="43.804472" lon="11.5760241"><ele>845.0</ele><time>2026-04-18T12:03:14.925Z</time></trkpt><trkpt lat="43.8044512" lon="11.5761602"><ele>845.0</ele><time>2026-04-18T12:03:15.924Z</time></trkpt><trkpt lat="43.804424" lon="11.5762919"><ele>845.0</ele><time>2026-04-18T12:03:16.924Z</time></trkpt><trkpt lat="43.8043969" lon="11.5764134"><ele>845.0</ele><time>2026-04-18T12:03:17.925Z</time></trkpt><trkpt lat="43.8043637" lon="11.5765275"><ele>845.0</ele><time>2026-04-18T12:03:18.924Z</time></trkpt><trkpt lat="43.8043263" lon="11.5766295"><ele>843.8333333333334</ele><time>2026-04-18T12:03:19.924Z</time></trkpt><trkpt lat="43.8042786" lon="11.5767175"><ele>842.6666666666667</ele><time>2026-04-18T12:03:20.925Z</time></trkpt><trkpt lat="43.8042303" lon="11.5767966"><ele>841.5</ele><time>2026-04-18T12:03:21.924Z</time></trkpt><trkpt lat="43.8041846" lon="11.5768741"><ele>840.3333333333333</ele><time>2026-04-18T12:03:22.925Z</time></trkpt><trkpt lat="43.8041421" lon="11.5769626"><ele>839.1666666666666</ele><time>2026-04-18T12:03:23.925Z</time></trkpt><trkpt lat="43.8041128" lon="11.5770446"><ele>838.0</ele><time>2026-04-18T12:03:24.925Z</time></trkpt><trkpt lat="43.80407" lon="11.5771863"><ele>837.9999999999999</ele><time>2026-04-18T12:03:26.925Z</time></trkpt><trkpt lat="43.8040405" lon="11.5773136"><ele>838.0</ele><time>2026-04-18T12:03:28.924Z</time></trkpt><trkpt lat="43.804013" lon="11.5774287"><ele>838.0</ele><time>2026-04-18T12:03:30.924Z</time></trkpt><trkpt lat="43.803967" lon="11.5775315"><ele>838.0</ele><time>2026-04-18T12:03:32.925Z</time></trkpt><trkpt lat="43.8039224" lon="11.577623"><ele>837.9999999999999</ele><time>2026-04-18T12:03:34.925Z</time></trkpt><trkpt lat="43.8038695" lon="11.5777021"><ele>838.0</ele><time>2026-04-18T12:03:36.924Z</time></trkpt><trkpt lat="43.8038099" lon="11.5777673"><ele>837.9999999999999</ele><time>2026-04-18T12:03:38.924Z</time></trkpt><trkpt lat="43.8037573" lon="11.5778194"><ele>838.0</ele><time>2026-04-18T12:03:40.924Z</time></trkpt><trkpt lat="43.8036969" lon="11.5779035"><ele>838.0</ele><time>2026-04-18T12:03:43.924Z</time></trkpt><trkpt lat="43.8036605" lon="11.5779826"><ele>838.0</ele><time>2026-04-18T12:03:45.924Z</time></trkpt><trkpt lat="43.8036041" lon="11.5780977"><ele>837.9999999999999</ele><time>2026-04-18T12:03:47.924Z</time></trkpt><trkpt lat="43.8035561" lon="11.5781574"><ele>838.0</ele><time>2026-04-18T12:03:48.924Z</time></trkpt><trkpt lat="43.8035078" lon="11.5782231"><ele>837.1428571428571</ele><time>2026-04-18T12:03:49.924Z</time></trkpt><trkpt lat="43.8034597" lon="11.5782943"><ele>836.2857142857142</ele><time>2026-04-18T12:03:50.924Z</time></trkpt><trkpt lat="43.8034095" lon="11.5783656"><ele>835.4285714285713</ele><time>2026-04-18T12:03:51.924Z</time></trkpt><trkpt lat="43.8033583" lon="11.5784367"><ele>834.5714285714286</ele><time>2026-04-18T12:03:52.924Z</time></trkpt><trkpt lat="43.8033133" lon="11.5784983"><ele>833.7142857142858</ele><time>2026-04-18T12:03:53.924Z</time></trkpt><trkpt lat="43.80327" lon="11.578565"><ele>832.8571428571428</ele><time>2026-04-18T12:03:54.924Z</time></trkpt><trkpt lat="43.8032267" lon="11.5786383"><ele>832.0</ele><time>2026-04-18T12:03:55.925Z</time></trkpt><trkpt lat="43.8031867" lon="11.5787133"><ele>828.4000000000001</ele><time>2026-04-18T12:03:56.925Z</time></trkpt><trkpt lat="43.803145" lon="11.57878"><ele>824.8000000000001</ele><time>2026-04-18T12:03:57.924Z</time></trkpt><trkpt lat="43.8030583" lon="11.5788883"><ele>821.2</ele><time>2026-04-18T12:03:59.924Z</time></trkpt><trkpt lat="43.8029617" lon="11.5789717"><ele>817.6</ele><time>2026-04-18T12:04:01.924Z</time></trkpt><trkpt lat="43.8028533" lon="11.5790117"><ele>814.0</ele><time>2026-04-18T12:04:03.925Z</time></trkpt><trkpt lat="43.8027567" lon="11.5789933"><ele>814.0</ele><time>2026-04-18T12:04:05.924Z</time></trkpt><trkpt lat="43.8026767" lon="11.5788783"><ele>814.0</ele><time>2026-04-18T12:04:07.924Z</time></trkpt><trkpt lat="43.8026033" lon="11.5787417"><ele>814.0</ele><time>2026-04-18T12:04:09.924Z</time></trkpt><trkpt lat="43.8025667" lon="11.5786683"><ele>814.0</ele><time>2026-04-18T12:04:10.924Z</time></trkpt><trkpt lat="43.8024867" lon="11.5785667"><ele>814.0</ele><time>2026-04-18T12:04:12.925Z</time></trkpt><trkpt lat="43.8024083" lon="11.578525"><ele>814.6666666666666</ele><time>2026-04-18T12:04:14.924Z</time></trkpt><trkpt lat="43.8023333" lon="11.57857"><ele>815.3333333333333</ele><time>2026-04-18T12:04:16.924Z</time></trkpt><trkpt lat="43.8023" lon="11.578655"><ele>816.0</ele><time>2026-04-18T12:04:18.925Z</time></trkpt><trkpt lat="43.8022767" lon="11.5787583"><ele>816.6666666666667</ele><time>2026-04-18T12:04:20.924Z</time></trkpt><trkpt lat="43.8022583" lon="11.578865"><ele>817.3333333333334</ele><time>2026-04-18T12:04:22.925Z</time></trkpt><trkpt lat="43.8022283" lon="11.5789783"><ele>818.0</ele><time>2026-04-18T12:04:24.924Z</time></trkpt><trkpt lat="43.80218" lon="11.5790883"><ele>818.0000000000001</ele><time>2026-04-18T12:04:26.924Z</time></trkpt><trkpt lat="43.8021133" lon="11.5791667"><ele>818.0</ele><time>2026-04-18T12:04:28.924Z</time></trkpt><trkpt lat="43.802015" lon="11.5792167"><ele>818.0</ele><time>2026-04-18T12:04:30.924Z</time></trkpt><trkpt lat="43.801915" lon="11.5792383"><ele>818.0</ele><time>2026-04-18T12:04:32.924Z</time></trkpt><trkpt lat="43.8018567" lon="11.5792733"><ele>818.0000000000001</ele><time>2026-04-18T12:04:34.925Z</time></trkpt><trkpt lat="43.8018133" lon="11.5793517"><ele>818.0</ele><time>2026-04-18T12:04:36.924Z</time></trkpt><trkpt lat="43.8017867" lon="11.5794733"><ele>819.2</ele><time>2026-04-18T12:04:38.925Z</time></trkpt><trkpt lat="43.80178" lon="11.579605"><ele>820.4</ele><time>2026-04-18T12:04:40.925Z</time></trkpt><trkpt lat="43.8017767" lon="11.5797333"><ele>821.6</ele><time>2026-04-18T12:04:42.924Z</time></trkpt><trkpt lat="43.801735" lon="11.57983"><ele>822.8000000000001</ele><time>2026-04-18T12:04:44.925Z</time></trkpt><trkpt lat="43.8016533" lon="11.5798967"><ele>824.0</ele><time>2026-04-18T12:04:46.924Z</time></trkpt><trkpt lat="43.801535" lon="11.57996"><ele>824.0</ele><time>2026-04-18T12:04:48.924Z</time></trkpt><trkpt lat="43.8014767" lon="11.5799983"><ele>824.0</ele><time>2026-04-18T12:04:49.924Z</time></trkpt><trkpt lat="43.8013867" lon="11.5800767"><ele>824.0</ele><time>2026-04-18T12:04:51.924Z</time></trkpt><trkpt lat="43.8013267" lon="11.5801967"><ele>824.0</ele><time>2026-04-18T12:04:53.925Z</time></trkpt><trkpt lat="43.8012817" lon="11.5803533"><ele>824.0</ele><time>2026-04-18T12:04:55.925Z</time></trkpt><trkpt lat="43.8012667" lon="11.5804533"><ele>823.0</ele><time>2026-04-18T12:04:56.924Z</time></trkpt><trkpt lat="43.8012767" lon="11.5806217"><ele>822.0</ele><time>2026-04-18T12:04:58.925Z</time></trkpt><trkpt lat="43.801305" lon="11.58079"><ele>821.0</ele><time>2026-04-18T12:05:00.925Z</time></trkpt><trkpt lat="43.801325" lon="11.5809283"><ele>820.0</ele><time>2026-04-18T12:05:02.924Z</time></trkpt><trkpt lat="43.8013383" lon="11.5810617"><ele>819.0</ele><time>2026-04-18T12:05:04.924Z</time></trkpt><trkpt lat="43.8013067" lon="11.5811467"><ele>819.0</ele><time>2026-04-18T12:05:06.924Z</time></trkpt><trkpt lat="43.801235" lon="11.581135"><ele>819.0</ele><time>2026-04-18T12:05:09.924Z</time></trkpt><trkpt lat="43.8011833" lon="11.58104"><ele>819.0</ele><time>2026-04-18T12:05:11.924Z</time></trkpt><trkpt lat="43.80111" lon="11.5809033"><ele>819.0</ele><time>2026-04-18T12:05:13.924Z</time></trkpt><trkpt lat="43.8010667" lon="11.5808133"><ele>819.0</ele><time>2026-04-18T12:05:14.924Z</time></trkpt><trkpt lat="43.8010333" lon="11.58072"><ele>819.0</ele><time>2026-04-18T12:05:15.924Z</time></trkpt><trkpt lat="43.8009967" lon="11.58063"><ele>823.0</ele><time>2026-04-18T12:05:16.924Z</time></trkpt><trkpt lat="43.8009583" lon="11.580555"><ele>827.0</ele><time>2026-04-18T12:05:17.924Z</time></trkpt><trkpt lat="43.8008617" lon="11.5804783"><ele>831.0</ele><time>2026-04-18T12:05:19.924Z</time></trkpt><trkpt lat="43.80075" lon="11.5804633"><ele>835.0</ele><time>2026-04-18T12:05:21.924Z</time></trkpt><trkpt lat="43.800645" lon="11.5804917"><ele>839.0</ele><time>2026-04-18T12:05:23.925Z</time></trkpt><trkpt lat="43.8005633" lon="11.5805217"><ele>839.0</ele><time>2026-04-18T12:05:25.925Z</time></trkpt><trkpt lat="43.8004846" lon="11.5805327"><ele>839.0</ele><time>2026-04-18T12:05:27.925Z</time></trkpt><trkpt lat="43.8003525" lon="11.5805548"><ele>839.0</ele><time>2026-04-18T12:05:29.924Z</time></trkpt><trkpt lat="43.800285" lon="11.5805642"><ele>839.0</ele><time>2026-04-18T12:05:30.924Z</time></trkpt><trkpt lat="43.8001841" lon="11.5805457"><ele>839.0</ele><time>2026-04-18T12:05:32.924Z</time></trkpt><trkpt lat="43.8001095" lon="11.5804904"><ele>839.2</ele><time>2026-04-18T12:05:34.924Z</time></trkpt><trkpt lat="43.8000408" lon="11.5803722"><ele>839.4000000000001</ele><time>2026-04-18T12:05:36.924Z</time></trkpt><trkpt lat="43.8000014" lon="11.5802148"><ele>839.6</ele><time>2026-04-18T12:05:38.924Z</time></trkpt><trkpt lat="43.7999823" lon="11.5800437"><ele>839.8</ele><time>2026-04-18T12:05:40.924Z</time></trkpt><trkpt lat="43.7999688" lon="11.5799359"><ele>840.0</ele><time>2026-04-18T12:05:41.924Z</time></trkpt><trkpt lat="43.7999522" lon="11.5798205"><ele>841.8333333333334</ele><time>2026-04-18T12:05:42.924Z</time></trkpt><trkpt lat="43.7999307" lon="11.5797052"><ele>843.6666666666667</ele><time>2026-04-18T12:05:43.925Z</time></trkpt><trkpt lat="43.7999049" lon="11.5795911"><ele>845.5</ele><time>2026-04-18T12:05:44.924Z</time></trkpt><trkpt lat="43.7998751" lon="11.5794863"><ele>847.3333333333334</ele><time>2026-04-18T12:05:45.925Z</time></trkpt><trkpt lat="43.7998356" lon="11.5793857"><ele>849.1666666666667</ele><time>2026-04-18T12:05:46.924Z</time></trkpt><trkpt lat="43.7997921" lon="11.5792888"><ele>851.0</ele><time>2026-04-18T12:05:47.924Z</time></trkpt><trkpt lat="43.7997411" lon="11.5791912"><ele>852.8333333333334</ele><time>2026-04-18T12:05:48.924Z</time></trkpt><trkpt lat="43.7996941" lon="11.5790883"><ele>854.6666666666667</ele><time>2026-04-18T12:05:49.924Z</time></trkpt><trkpt lat="43.7996558" lon="11.5789781"><ele>856.5</ele><time>2026-04-18T12:05:50.925Z</time></trkpt><trkpt lat="43.7996131" lon="11.5788718"><ele>858.3333333333333</ele><time>2026-04-18T12:05:51.924Z</time></trkpt><trkpt lat="43.7995738" lon="11.5787661"><ele>860.1666666666666</ele><time>2026-04-18T12:05:52.924Z</time></trkpt><trkpt lat="43.7995401" lon="11.5786722"><ele>862.0</ele><time>2026-04-18T12:05:53.925Z</time></trkpt><trkpt lat="43.7995119" lon="11.578592"><ele>862.75</ele><time>2026-04-18T12:05:54.924Z</time></trkpt><trkpt lat="43.7994653" lon="11.5784501"><ele>863.5</ele><time>2026-04-18T12:05:56.924Z</time></trkpt><trkpt lat="43.7994009" lon="11.5783381"><ele>864.25</ele><time>2026-04-18T12:05:58.924Z</time></trkpt><trkpt lat="43.7992928" lon="11.5783158"><ele>865.0</ele><time>2026-04-18T12:06:00.924Z</time></trkpt><trkpt lat="43.7991694" lon="11.5783513"><ele>865.0</ele><time>2026-04-18T12:06:02.925Z</time></trkpt><trkpt lat="43.7990555" lon="11.5783798"><ele>865.0</ele><time>2026-04-18T12:06:04.924Z</time></trkpt><trkpt lat="43.798947" lon="11.5783902"><ele>865.0</ele><time>2026-04-18T12:06:06.925Z</time></trkpt><trkpt lat="43.7988501" lon="11.5784002"><ele>865.0</ele><time>2026-04-18T12:06:08.924Z</time></trkpt><trkpt lat="43.7987472" lon="11.5784301"><ele>865.0</ele><time>2026-04-18T12:06:10.924Z</time></trkpt><trkpt lat="43.7986561" lon="11.5784674"><ele>864.9999999999999</ele><time>2026-04-18T12:06:12.924Z</time></trkpt><trkpt lat="43.798601" lon="11.5785365"><ele>865.0</ele><time>2026-04-18T12:06:14.924Z</time></trkpt><trkpt lat="43.7985634" lon="11.5786393"><ele>865.0</ele><time>2026-04-18T12:06:16.924Z</time></trkpt><trkpt lat="43.7985469" lon="11.5787316"><ele>865.0</ele><time>2026-04-18T12:06:18.925Z</time></trkpt><trkpt lat="43.79848" lon="11.578835"><ele>864.9999999999999</ele><time>2026-04-18T12:06:28.925Z</time></trkpt><trkpt lat="43.79841" lon="11.57878"><ele>865.0</ele><time>2026-04-18T12:06:31.924Z</time></trkpt><trkpt lat="43.798355" lon="11.57871"><ele>866.8333333333333</ele><time>2026-04-18T12:06:34.924Z</time></trkpt><trkpt lat="43.7983267" lon="11.5786233"><ele>868.6666666666666</ele><time>2026-04-18T12:06:37.924Z</time></trkpt><trkpt lat="43.798295" lon="11.5785183"><ele>870.5</ele><time>2026-04-18T12:06:39.925Z</time></trkpt><trkpt lat="43.7982617" lon="11.578395"><ele>872.3333333333333</ele><time>2026-04-18T12:06:41.924Z</time></trkpt><trkpt lat="43.7982333" lon="11.5782617"><ele>874.1666666666666</ele><time>2026-04-18T12:06:43.925Z</time></trkpt><trkpt lat="43.7982167" lon="11.57813"><ele>876.0</ele><time>2026-04-18T12:06:45.925Z</time></trkpt><trkpt lat="43.7982117" lon="11.5779833"><ele>876.0</ele><time>2026-04-18T12:06:47.925Z</time></trkpt><trkpt lat="43.798205" lon="11.5778583"><ele>875.9999999999999</ele><time>2026-04-18T12:06:49.925Z</time></trkpt><trkpt lat="43.7982483" lon="11.577745"><ele>875.9999999999999</ele><time>2026-04-18T12:06:52.925Z</time></trkpt><trkpt lat="43.7983" lon="11.5776583"><ele>876.0</ele><time>2026-04-18T12:06:54.924Z</time></trkpt><trkpt lat="43.7983533" lon="11.57754"><ele>876.0</ele><time>2026-04-18T12:06:56.924Z</time></trkpt><trkpt lat="43.7984067" lon="11.577385"><ele>876.0</ele><time>2026-04-18T12:06:58.924Z</time></trkpt><trkpt lat="43.7984383" lon="11.5772883"><ele>875.9999999999999</ele><time>2026-04-18T12:06:59.924Z</time></trkpt><trkpt lat="43.798475" lon="11.5771883"><ele>875.9999999999999</ele><time>2026-04-18T12:07:01.924Z</time></trkpt><trkpt lat="43.79859" lon="11.57709"><ele>876.0</ele><time>2026-04-18T12:07:19.924Z</time></trkpt><trkpt lat="43.7986933" lon="11.5769983"><ele>876.0</ele><time>2026-04-18T12:07:31.925Z</time></trkpt><trkpt lat="43.798765" lon="11.5769483"><ele>878.0</ele><time>2026-04-18T12:07:34.925Z</time></trkpt><trkpt lat="43.7988233" lon="11.5769033"><ele>880.0</ele><time>2026-04-18T12:07:36.925Z</time></trkpt><trkpt lat="43.7989033" lon="11.5768367"><ele>882.0</ele><time>2026-04-18T12:07:38.924Z</time></trkpt><trkpt lat="43.79897" lon="11.5767633"><ele>884.0</ele><time>2026-04-18T12:07:40.925Z</time></trkpt><trkpt lat="43.7990433" lon="11.5766667"><ele>886.0</ele><time>2026-04-18T12:07:42.924Z</time></trkpt><trkpt lat="43.799095" lon="11.5766167"><ele>888.0</ele><time>2026-04-18T12:07:44.924Z</time></trkpt><trkpt lat="43.7991433" lon="11.57655"><ele>888.0</ele><time>2026-04-18T12:07:46.924Z</time></trkpt><trkpt lat="43.799205" lon="11.5764583"><ele>888.0</ele><time>2026-04-18T12:07:48.925Z</time></trkpt><trkpt lat="43.7992467" lon="11.576355"><ele>888.0</ele><time>2026-04-18T12:07:51.924Z</time></trkpt><trkpt lat="43.7991867" lon="11.57611"><ele>888.0</ele><time>2026-04-18T12:08:13.924Z</time></trkpt><trkpt lat="43.7990717" lon="11.576075"><ele>888.0</ele><time>2026-04-18T12:08:29.925Z</time></trkpt><trkpt lat="43.799" lon="11.5760733"><ele>888.0</ele><time>2026-04-18T12:08:32.924Z</time></trkpt><trkpt lat="43.7989083" lon="11.57607"><ele>888.0</ele><time>2026-04-18T12:08:34.924Z</time></trkpt><trkpt lat="43.7987933" lon="11.5760567"><ele>888.0</ele><time>2026-04-18T12:08:37.925Z</time></trkpt><trkpt lat="43.7986967" lon="11.5760183"><ele>888.0</ele><time>2026-04-18T12:08:39.925Z</time></trkpt><trkpt lat="43.7986367" lon="11.575965"><ele>888.0</ele><time>2026-04-18T12:08:41.924Z</time></trkpt><trkpt lat="43.7985817" lon="11.5759067"><ele>888.0</ele><time>2026-04-18T12:08:44.925Z</time></trkpt><trkpt lat="43.7985333" lon="11.5758483"><ele>888.0</ele><time>2026-04-18T12:08:47.924Z</time></trkpt><trkpt lat="43.7984683" lon="11.57578"><ele>888.0</ele><time>2026-04-18T12:08:49.924Z</time></trkpt><trkpt lat="43.7983933" lon="11.575695"><ele>888.0</ele><time>2026-04-18T12:08:51.925Z</time></trkpt><trkpt lat="43.7983317" lon="11.575635"><ele>888.0</ele><time>2026-04-18T12:08:53.925Z</time></trkpt><trkpt lat="43.7982717" lon="11.5755817"><ele>888.7142857142857</ele><time>2026-04-18T12:08:55.924Z</time></trkpt><trkpt lat="43.7982183" lon="11.5755267"><ele>889.4285714285714</ele><time>2026-04-18T12:08:57.925Z</time></trkpt><trkpt lat="43.7981633" lon="11.5754833"><ele>890.1428571428571</ele><time>2026-04-18T12:08:59.924Z</time></trkpt><trkpt lat="43.7980967" lon="11.5754333"><ele>890.8571428571429</ele><time>2026-04-18T12:09:02.924Z</time></trkpt><trkpt lat="43.79819" lon="11.575425"><ele>891.5714285714287</ele><time>2026-04-18T12:09:54.924Z</time></trkpt><trkpt lat="43.7982533" lon="11.5754817"><ele>892.2857142857143</ele><time>2026-04-18T12:09:56.924Z</time></trkpt><trkpt lat="43.7983096" lon="11.5755314"><ele>893.0</ele><time>2026-04-18T12:10:01.025Z</time></trkpt><trkpt lat="43.7983221" lon="11.5756288"><ele>893.0</ele><time>2026-04-18T12:10:03.949Z</time></trkpt><trkpt lat="43.7984317" lon="11.5756733"><ele>893.0</ele><time>2026-04-18T12:10:05.925Z</time></trkpt><trkpt lat="43.7985167" lon="11.57577"><ele>893.0</ele><time>2026-04-18T12:10:16.924Z</time></trkpt><trkpt lat="43.7985717" lon="11.5758533"><ele>893.0</ele><time>2026-04-18T12:10:20.925Z</time></trkpt><trkpt lat="43.798575" lon="11.5759567"><ele>893.0</ele><time>2026-04-18T12:10:25.925Z</time></trkpt><trkpt lat="43.798495" lon="11.5759767"><ele>893.0000000000001</ele><time>2026-04-18T12:10:28.924Z</time></trkpt><trkpt lat="43.7984283" lon="11.5759617"><ele>893.0</ele><time>2026-04-18T12:10:30.924Z</time></trkpt><trkpt lat="43.79835" lon="11.5759283"><ele>893.0</ele><time>2026-04-18T12:10:32.925Z</time></trkpt><trkpt lat="43.7982867" lon="11.57587"><ele>893.0</ele><time>2026-04-18T12:10:34.924Z</time></trkpt><trkpt lat="43.798195" lon="11.575825"><ele>893.0000000000001</ele><time>2026-04-18T12:10:36.924Z</time></trkpt><trkpt lat="43.7981033" lon="11.5758267"><ele>893.0</ele><time>2026-04-18T12:10:38.924Z</time></trkpt><trkpt lat="43.7980267" lon="11.5758917"><ele>893.0</ele><time>2026-04-18T12:10:40.924Z</time></trkpt><trkpt lat="43.7979567" lon="11.5760033"><ele>893.0</ele><time>2026-04-18T12:10:42.924Z</time></trkpt><trkpt lat="43.79788" lon="11.57611"><ele>893.0</ele><time>2026-04-18T12:10:44.925Z</time></trkpt><trkpt lat="43.7978067" lon="11.5762"><ele>893.0</ele><time>2026-04-18T12:10:46.924Z</time></trkpt><trkpt lat="43.797765" lon="11.5763067"><ele>893.0</ele><time>2026-04-18T12:10:48.924Z</time></trkpt><trkpt lat="43.7977217" lon="11.5764333"><ele>895.8</ele><time>2026-04-18T12:10:50.925Z</time></trkpt><trkpt lat="43.7976367" lon="11.5765433"><ele>898.5999999999999</ele><time>2026-04-18T12:10:52.925Z</time></trkpt><trkpt lat="43.79753" lon="11.5766117"><ele>901.4000000000001</ele><time>2026-04-18T12:10:54.924Z</time></trkpt><trkpt lat="43.79746" lon="11.5766817"><ele>904.2</ele><time>2026-04-18T12:10:56.924Z</time></trkpt><trkpt lat="43.7974117" lon="11.5767533"><ele>907.0</ele><time>2026-04-18T12:10:58.924Z</time></trkpt><trkpt lat="43.797385" lon="11.576835"><ele>906.9999999999999</ele><time>2026-04-18T12:11:00.924Z</time></trkpt><trkpt lat="43.7973383" lon="11.5769433"><ele>907.0</ele><time>2026-04-18T12:11:03.925Z</time></trkpt><trkpt lat="43.7972883" lon="11.5770333"><ele>907.0</ele><time>2026-04-18T12:11:05.924Z</time></trkpt><trkpt lat="43.7972433" lon="11.57711"><ele>907.0</ele><time>2026-04-18T12:11:07.924Z</time></trkpt><trkpt lat="43.7971867" lon="11.57721"><ele>906.9999999999999</ele><time>2026-04-18T12:11:10.925Z</time></trkpt><trkpt lat="43.7971367" lon="11.5772917"><ele>907.0</ele><time>2026-04-18T12:11:13.924Z</time></trkpt><trkpt lat="43.79711" lon="11.57738"><ele>906.6666666666666</ele><time>2026-04-18T12:11:16.925Z</time></trkpt><trkpt lat="43.7971067" lon="11.5775183"><ele>906.3333333333333</ele><time>2026-04-18T12:11:19.924Z</time></trkpt><trkpt lat="43.79709" lon="11.5776483"><ele>906.0</ele><time>2026-04-18T12:11:21.924Z</time></trkpt><trkpt lat="43.7970733" lon="11.57775"><ele>905.6666666666667</ele><time>2026-04-18T12:11:23.924Z</time></trkpt><trkpt lat="43.7970517" lon="11.5778683"><ele>905.3333333333334</ele><time>2026-04-18T12:11:30.924Z</time></trkpt><trkpt lat="43.7970233" lon="11.577985"><ele>905.0</ele><time>2026-04-18T12:11:33.924Z</time></trkpt><trkpt lat="43.7969817" lon="11.5780683"><ele>904.1666666666667</ele><time>2026-04-18T12:11:35.924Z</time></trkpt><trkpt lat="43.7969267" lon="11.5781483"><ele>903.3333333333334</ele><time>2026-04-18T12:11:37.924Z</time></trkpt><trkpt lat="43.7968633" lon="11.5782217"><ele>902.5</ele><time>2026-04-18T12:11:39.925Z</time></trkpt><trkpt lat="43.7967717" lon="11.5782967"><ele>901.6666666666667</ele><time>2026-04-18T12:11:51.924Z</time></trkpt><trkpt lat="43.7967" lon="11.5782983"><ele>900.8333333333334</ele><time>2026-04-18T12:11:53.924Z</time></trkpt><trkpt lat="43.79662" lon="11.5782483"><ele>900.0</ele><time>2026-04-18T12:11:55.925Z</time></trkpt><trkpt lat="43.7965333" lon="11.578195"><ele>907.0</ele><time>2026-04-18T12:11:57.924Z</time></trkpt><trkpt lat="43.7964483" lon="11.57818"><ele>914.0</ele><time>2026-04-18T12:11:59.925Z</time></trkpt><trkpt lat="43.7963567" lon="11.578185"><ele>921.0</ele><time>2026-04-18T12:12:01.924Z</time></trkpt><trkpt lat="43.7962633" lon="11.5781867"><ele>928.0</ele><time>2026-04-18T12:12:03.924Z</time></trkpt><trkpt lat="43.7961617" lon="11.5781933"><ele>935.0</ele><time>2026-04-18T12:12:05.924Z</time></trkpt><trkpt lat="43.7960767" lon="11.578215"><ele>939.0</ele><time>2026-04-18T12:12:07.924Z</time></trkpt><trkpt lat="43.7959767" lon="11.5782433"><ele>943.0</ele><time>2026-04-18T12:12:09.924Z</time></trkpt><trkpt lat="43.7958833" lon="11.578275"><ele>947.0</ele><time>2026-04-18T12:12:11.924Z</time></trkpt><trkpt lat="43.7958033" lon="11.5782967"><ele>951.0</ele><time>2026-04-18T12:12:13.925Z</time></trkpt><trkpt lat="43.7957117" lon="11.578325"><ele>955.0</ele><time>2026-04-18T12:12:15.924Z</time></trkpt><trkpt lat="43.7956117" lon="11.5783617"><ele>954.9999999999999</ele><time>2026-04-18T12:12:17.924Z</time></trkpt><trkpt lat="43.7955233" lon="11.5783883"><ele>955.0</ele><time>2026-04-18T12:12:19.924Z</time></trkpt><trkpt lat="43.7954317" lon="11.5784383"><ele>955.0</ele><time>2026-04-18T12:12:22.924Z</time></trkpt><trkpt lat="43.7953767" lon="11.5784967"><ele>955.0</ele><time>2026-04-18T12:12:24.924Z</time></trkpt><trkpt lat="43.79527" lon="11.5785567"><ele>954.9999999999999</ele><time>2026-04-18T12:12:30.924Z</time></trkpt><trkpt lat="43.7952133" lon="11.5786217"><ele>955.0</ele><time>2026-04-18T12:12:36.924Z</time></trkpt><trkpt lat="43.7951867" lon="11.5787083"><ele>958.1666666666666</ele><time>2026-04-18T12:12:39.924Z</time></trkpt><trkpt lat="43.7951683" lon="11.578825"><ele>961.3333333333333</ele><time>2026-04-18T12:12:42.924Z</time></trkpt><trkpt lat="43.79514" lon="11.5789283"><ele>964.5</ele><time>2026-04-18T12:12:45.924Z</time></trkpt><trkpt lat="43.7951117" lon="11.5790133"><ele>967.6666666666667</ele><time>2026-04-18T12:12:48.924Z</time></trkpt><trkpt lat="43.79507" lon="11.5790917"><ele>970.8333333333334</ele><time>2026-04-18T12:12:52.925Z</time></trkpt><trkpt lat="43.795025" lon="11.5791567"><ele>974.0</ele><time>2026-04-18T12:12:57.924Z</time></trkpt><trkpt lat="43.7949717" lon="11.57925"><ele>974.0</ele><time>2026-04-18T12:13:01.924Z</time></trkpt><trkpt lat="43.794915" lon="11.5793283"><ele>974.0</ele><time>2026-04-18T12:13:04.925Z</time></trkpt><trkpt lat="43.794855" lon="11.5793833"><ele>974.0</ele><time>2026-04-18T12:13:07.925Z</time></trkpt><trkpt lat="43.794805" lon="11.57946"><ele>974.0</ele><time>2026-04-18T12:13:14.925Z</time></trkpt><trkpt lat="43.7947383" lon="11.5795117"><ele>974.0</ele><time>2026-04-18T12:13:17.925Z</time></trkpt><trkpt lat="43.7946783" lon="11.5795467"><ele>974.0</ele><time>2026-04-18T12:13:19.924Z</time></trkpt><trkpt lat="43.79462" lon="11.5795917"><ele>974.0</ele><time>2026-04-18T12:13:23.924Z</time></trkpt><trkpt lat="43.7945683" lon="11.579645"><ele>972.5000000000001</ele><time>2026-04-18T12:13:29.925Z</time></trkpt><trkpt lat="43.7945" lon="11.5796867"><ele>971.0</ele><time>2026-04-18T12:13:36.925Z</time></trkpt><trkpt lat="43.7944283" lon="11.5797317"><ele>969.5</ele><time>2026-04-18T12:13:40.924Z</time></trkpt><trkpt lat="43.7943617" lon="11.57978"><ele>968.0</ele><time>2026-04-18T12:13:43.924Z</time></trkpt><trkpt lat="43.7943067" lon="11.5798317"><ele>966.5000000000001</ele><time>2026-04-18T12:13:50.925Z</time></trkpt><trkpt lat="43.7942467" lon="11.5798783"><ele>965.0</ele><time>2026-04-18T12:13:55.924Z</time></trkpt><trkpt lat="43.7941183" lon="11.57995"><ele>968.3333333333334</ele><time>2026-04-18T12:14:08.924Z</time></trkpt><trkpt lat="43.7940517" lon="11.580015"><ele>971.6666666666667</ele><time>2026-04-18T12:14:11.924Z</time></trkpt><trkpt lat="43.7939983" lon="11.5800717"><ele>975.0</ele><time>2026-04-18T12:14:13.925Z</time></trkpt><trkpt lat="43.7939417" lon="11.5801433"><ele>978.3333333333333</ele><time>2026-04-18T12:14:15.925Z</time></trkpt><trkpt lat="43.79388" lon="11.5802217"><ele>981.6666666666666</ele><time>2026-04-18T12:14:17.924Z</time></trkpt><trkpt lat="43.7938133" lon="11.5803067"><ele>985.0</ele><time>2026-04-18T12:14:19.924Z</time></trkpt><trkpt lat="43.7937433" lon="11.580395"><ele>985.0</ele><time>2026-04-18T12:14:21.924Z</time></trkpt><trkpt lat="43.7936533" lon="11.5804983"><ele>985.0</ele><time>2026-04-18T12:14:23.924Z</time></trkpt><trkpt lat="43.7935667" lon="11.5806"><ele>985.0</ele><time>2026-04-18T12:14:25.924Z</time></trkpt><trkpt lat="43.79349" lon="11.580675"><ele>985.0</ele><time>2026-04-18T12:14:27.925Z</time></trkpt><trkpt lat="43.7934383" lon="11.5807367"><ele>985.0</ele><time>2026-04-18T12:14:31.924Z</time></trkpt><trkpt lat="43.7933933" lon="11.580805"><ele>985.7142857142858</ele><time>2026-04-18T12:14:38.925Z</time></trkpt><trkpt lat="43.7933333" lon="11.5808933"><ele>986.4285714285716</ele><time>2026-04-18T12:14:42.924Z</time></trkpt><trkpt lat="43.79328" lon="11.5809433"><ele>987.1428571428571</ele><time>2026-04-18T12:14:45.924Z</time></trkpt><trkpt lat="43.7932317" lon="11.5810067"><ele>987.8571428571429</ele><time>2026-04-18T12:14:48.924Z</time></trkpt><trkpt lat="43.7931783" lon="11.581075"><ele>988.5714285714286</ele><time>2026-04-18T12:14:51.925Z</time></trkpt><trkpt lat="43.7931167" lon="11.581155"><ele>989.2857142857142</ele><time>2026-04-18T12:14:54.925Z</time></trkpt><trkpt lat="43.7930633" lon="11.5812217"><ele>989.9999999999999</ele><time>2026-04-18T12:14:56.925Z</time></trkpt><trkpt lat="43.79299" lon="11.5813033"><ele>990.0</ele><time>2026-04-18T12:14:58.924Z</time></trkpt><trkpt lat="43.7929233" lon="11.5813767"><ele>990.0</ele><time>2026-04-18T12:15:00.925Z</time></trkpt><trkpt lat="43.7928567" lon="11.5814283"><ele>990.0</ele><time>2026-04-18T12:15:01.924Z</time></trkpt><trkpt lat="43.7927917" lon="11.5814683"><ele>990.0</ele><time>2026-04-18T12:15:02.924Z</time></trkpt><trkpt lat="43.7927267" lon="11.58151"><ele>990.0</ele><time>2026-04-18T12:15:03.924Z</time></trkpt><trkpt lat="43.7926667" lon="11.5815433"><ele>990.0</ele><time>2026-04-18T12:15:04.925Z</time></trkpt><trkpt lat="43.7925517" lon="11.581625"><ele>990.6666666666666</ele><time>2026-04-18T12:15:06.925Z</time></trkpt><trkpt lat="43.7924883" lon="11.58166"><ele>991.3333333333333</ele><time>2026-04-18T12:15:07.924Z</time></trkpt><trkpt lat="43.7924317" lon="11.5817017"><ele>992.0</ele><time>2026-04-18T12:15:08.924Z</time></trkpt><trkpt lat="43.79237" lon="11.5817467"><ele>992.6666666666666</ele><time>2026-04-18T12:15:09.925Z</time></trkpt><trkpt lat="43.7922683" lon="11.5818117"><ele>993.3333333333333</ele><time>2026-04-18T12:15:11.924Z</time></trkpt><trkpt lat="43.7922117" lon="11.5818517"><ele>994.0</ele><time>2026-04-18T12:15:13.925Z</time></trkpt><trkpt lat="43.792125" lon="11.5818833"><ele>993.9999999999999</ele><time>2026-04-18T12:15:16.925Z</time></trkpt><trkpt lat="43.7920367" lon="11.5819167"><ele>994.0</ele><time>2026-04-18T12:15:18.925Z</time></trkpt><trkpt lat="43.791955" lon="11.5819633"><ele>994.0</ele><time>2026-04-18T12:15:20.925Z</time></trkpt><trkpt lat="43.791885" lon="11.581985"><ele>994.0</ele><time>2026-04-18T12:15:22.924Z</time></trkpt><trkpt lat="43.791795" lon="11.5820183"><ele>993.9999999999999</ele><time>2026-04-18T12:15:25.924Z</time></trkpt><trkpt lat="43.791715" lon="11.5820317"><ele>994.0</ele><time>2026-04-18T12:15:28.925Z</time></trkpt><trkpt lat="43.7916367" lon="11.582045"><ele>992.3333333333333</ele><time>2026-04-18T12:15:30.925Z</time></trkpt><trkpt lat="43.79157" lon="11.5820667"><ele>990.6666666666666</ele><time>2026-04-18T12:15:32.924Z</time></trkpt><trkpt lat="43.7915" lon="11.58208"><ele>989.0</ele><time>2026-04-18T12:15:34.924Z</time></trkpt><trkpt lat="43.7914067" lon="11.58209"><ele>987.3333333333333</ele><time>2026-04-18T12:15:36.924Z</time></trkpt><trkpt lat="43.7913" lon="11.5820917"><ele>985.6666666666666</ele><time>2026-04-18T12:15:38.925Z</time></trkpt><trkpt lat="43.7912083" lon="11.5820967"><ele>984.0</ele><time>2026-04-18T12:15:40.924Z</time></trkpt><trkpt lat="43.791125" lon="11.5820983"><ele>984.0</ele><time>2026-04-18T12:15:42.925Z</time></trkpt><trkpt lat="43.7910517" lon="11.5821283"><ele>984.0</ele><time>2026-04-18T12:15:44.925Z</time></trkpt><trkpt lat="43.7909783" lon="11.5821533"><ele>984.0</ele><time>2026-04-18T12:15:46.924Z</time></trkpt><trkpt lat="43.790895" lon="11.5821667"><ele>984.0</ele><time>2026-04-18T12:15:48.924Z</time></trkpt><trkpt lat="43.790795" lon="11.5821783"><ele>984.0</ele><time>2026-04-18T12:15:50.925Z</time></trkpt><trkpt lat="43.79073" lon="11.5821833"><ele>984.0</ele><time>2026-04-18T12:15:51.925Z</time></trkpt><trkpt lat="43.7906067" lon="11.5821983"><ele>983.6</ele><time>2026-04-18T12:15:53.924Z</time></trkpt><trkpt lat="43.7904767" lon="11.582205"><ele>983.2</ele><time>2026-04-18T12:15:55.924Z</time></trkpt><trkpt lat="43.7903733" lon="11.5822267"><ele>982.8000000000001</ele><time>2026-04-18T12:15:57.924Z</time></trkpt><trkpt lat="43.7902933" lon="11.58225"><ele>982.4000000000001</ele><time>2026-04-18T12:15:59.924Z</time></trkpt><trkpt lat="43.79023" lon="11.5822717"><ele>982.0</ele><time>2026-04-18T12:16:01.924Z</time></trkpt><trkpt lat="43.790145" lon="11.5823267"><ele>981.9999999999999</ele><time>2026-04-18T12:16:04.924Z</time></trkpt><trkpt lat="43.79008" lon="11.5823817"><ele>982.0</ele><time>2026-04-18T12:16:06.925Z</time></trkpt><trkpt lat="43.7900067" lon="11.5824233"><ele>982.0</ele><time>2026-04-18T12:16:08.924Z</time></trkpt><trkpt lat="43.789925" lon="11.58244"><ele>982.0</ele><time>2026-04-18T12:16:10.924Z</time></trkpt><trkpt lat="43.78985" lon="11.5824633"><ele>981.9999999999999</ele><time>2026-04-18T12:16:12.924Z</time></trkpt><trkpt lat="43.78977" lon="11.5824783"><ele>982.0</ele><time>2026-04-18T12:16:15.924Z</time></trkpt><trkpt lat="43.7897067" lon="11.582465"><ele>982.0</ele><time>2026-04-18T12:16:17.925Z</time></trkpt><trkpt lat="43.789625" lon="11.5824317"><ele>982.0</ele><time>2026-04-18T12:16:19.925Z</time></trkpt><trkpt lat="43.78954" lon="11.5824033"><ele>982.0</ele><time>2026-04-18T12:16:21.925Z</time></trkpt><trkpt lat="43.78946" lon="11.5823683"><ele>982.0</ele><time>2026-04-18T12:16:23.925Z</time></trkpt><trkpt lat="43.789355" lon="11.5823333"><ele>982.0</ele><time>2026-04-18T12:16:25.924Z</time></trkpt><trkpt lat="43.7892483" lon="11.5823017"><ele>980.4999999999999</ele><time>2026-04-18T12:16:27.925Z</time></trkpt><trkpt lat="43.78914" lon="11.5822617"><ele>979.0</ele><time>2026-04-18T12:16:29.925Z</time></trkpt><trkpt lat="43.7890767" lon="11.5822417"><ele>977.5</ele><time>2026-04-18T12:16:30.925Z</time></trkpt><trkpt lat="43.7890083" lon="11.58222"><ele>976.0</ele><time>2026-04-18T12:16:31.924Z</time></trkpt><trkpt lat="43.7889217" lon="11.5821783"><ele>974.4999999999999</ele><time>2026-04-18T12:16:33.924Z</time></trkpt><trkpt lat="43.7888367" lon="11.5821383"><ele>973.0</ele><time>2026-04-18T12:16:36.924Z</time></trkpt><trkpt lat="43.78877" lon="11.5821067"><ele>972.9999999999999</ele><time>2026-04-18T12:16:38.925Z</time></trkpt><trkpt lat="43.7886917" lon="11.582085"><ele>973.0</ele><time>2026-04-18T12:16:41.924Z</time></trkpt><trkpt lat="43.7886117" lon="11.5821433"><ele>973.0</ele><time>2026-04-18T12:16:45.924Z</time></trkpt><trkpt lat="43.7885683" lon="11.5822567"><ele>973.0</ele><time>2026-04-18T12:16:47.924Z</time></trkpt><trkpt lat="43.7885467" lon="11.582365"><ele>972.9999999999999</ele><time>2026-04-18T12:16:49.924Z</time></trkpt><trkpt lat="43.7884783" lon="11.5823417"><ele>973.0</ele><time>2026-04-18T12:17:03.924Z</time></trkpt><trkpt lat="43.7884083" lon="11.5823067"><ele>972.6666666666666</ele><time>2026-04-18T12:17:05.924Z</time></trkpt><trkpt lat="43.7883333" lon="11.5823083"><ele>972.3333333333333</ele><time>2026-04-18T12:17:07.924Z</time></trkpt><trkpt lat="43.7882683" lon="11.5823383"><ele>972.0</ele><time>2026-04-18T12:17:09.924Z</time></trkpt><trkpt lat="43.788205" lon="11.582375"><ele>971.6666666666667</ele><time>2026-04-18T12:17:11.924Z</time></trkpt><trkpt lat="43.7881183" lon="11.5824183"><ele>971.3333333333334</ele><time>2026-04-18T12:17:14.925Z</time></trkpt><trkpt lat="43.7880433" lon="11.5824567"><ele>971.0</ele><time>2026-04-18T12:17:18.924Z</time></trkpt><trkpt lat="43.7879633" lon="11.5824733"><ele>971.0000000000001</ele><time>2026-04-18T12:17:21.924Z</time></trkpt><trkpt lat="43.7878683" lon="11.5824667"><ele>971.0</ele><time>2026-04-18T12:17:24.924Z</time></trkpt><trkpt lat="43.7877817" lon="11.5824617"><ele>971.0</ele><time>2026-04-18T12:17:26.924Z</time></trkpt><trkpt lat="43.7877033" lon="11.58246"><ele>971.0</ele><time>2026-04-18T12:17:28.924Z</time></trkpt><trkpt lat="43.7876399" lon="11.5824578"><ele>971.0000000000001</ele><time>2026-04-18T12:17:31.002Z</time></trkpt><trkpt lat="43.7875654" lon="11.582428"><ele>971.0</ele><time>2026-04-18T12:17:33.005Z</time></trkpt><trkpt lat="43.787481" lon="11.5823798"><ele>970.0000000000001</ele><time>2026-04-18T12:17:34.963Z</time></trkpt><trkpt lat="43.7874137" lon="11.5823233"><ele>969.0</ele><time>2026-04-18T12:17:37.012Z</time></trkpt><trkpt lat="43.7873381" lon="11.5822598"><ele>968.0</ele><time>2026-04-18T12:17:40.018Z</time></trkpt><trkpt lat="43.7872875" lon="11.5822066"><ele>967.0</ele><time>2026-04-18T12:17:42.988Z</time></trkpt><trkpt lat="43.7872205" lon="11.5821838"><ele>966.0000000000001</ele><time>2026-04-18T12:17:47.931Z</time></trkpt><trkpt lat="43.7871688" lon="11.5821274"><ele>965.0</ele><time>2026-04-18T12:17:51.939Z</time></trkpt><trkpt lat="43.7871265" lon="11.5819951"><ele>964.8</ele><time>2026-04-18T12:17:54.943Z</time></trkpt><trkpt lat="43.7870912" lon="11.5818852"><ele>964.6</ele><time>2026-04-18T12:17:56.946Z</time></trkpt><trkpt lat="43.7870259" lon="11.5818039"><ele>964.4000000000001</ele><time>2026-04-18T12:17:58.95Z</time></trkpt><trkpt lat="43.7869551" lon="11.5817429"><ele>964.2</ele><time>2026-04-18T12:18:00.953Z</time></trkpt><trkpt lat="43.7868782" lon="11.5816674"><ele>964.0</ele><time>2026-04-18T12:18:02.957Z</time></trkpt><trkpt lat="43.786796" lon="11.5815921"><ele>962.8333333333333</ele><time>2026-04-18T12:18:04.96Z</time></trkpt><trkpt lat="43.7867119" lon="11.58154"><ele>961.6666666666666</ele><time>2026-04-18T12:18:07.001Z</time></trkpt><trkpt lat="43.7866406" lon="11.5815317"><ele>960.5</ele><time>2026-04-18T12:18:08.967Z</time></trkpt><trkpt lat="43.78657" lon="11.5815133"><ele>959.3333333333333</ele><time>2026-04-18T12:18:14.925Z</time></trkpt><trkpt lat="43.7865" lon="11.581485"><ele>958.1666666666666</ele><time>2026-04-18T12:18:18.925Z</time></trkpt><trkpt lat="43.7864083" lon="11.5814833"><ele>957.0</ele><time>2026-04-18T12:18:21.925Z</time></trkpt><trkpt lat="43.78634" lon="11.5815"><ele>957.0</ele><time>2026-04-18T12:18:23.924Z</time></trkpt><trkpt lat="43.7862767" lon="11.5814933"><ele>957.0</ele><time>2026-04-18T12:18:24.924Z</time></trkpt><trkpt lat="43.7861533" lon="11.5814983"><ele>957.0</ele><time>2026-04-18T12:18:26.924Z</time></trkpt><trkpt lat="43.7860867" lon="11.5815083"><ele>957.0</ele><time>2026-04-18T12:18:27.925Z</time></trkpt><trkpt lat="43.7860083" lon="11.5815133"><ele>957.0</ele><time>2026-04-18T12:18:28.925Z</time></trkpt><trkpt lat="43.785925" lon="11.5815233"><ele>957.0</ele><time>2026-04-18T12:18:29.925Z</time></trkpt><trkpt lat="43.7858417" lon="11.5815267"><ele>956.5714285714287</ele><time>2026-04-18T12:18:30.924Z</time></trkpt><trkpt lat="43.785755" lon="11.581545"><ele>956.1428571428572</ele><time>2026-04-18T12:18:31.925Z</time></trkpt><trkpt lat="43.7856883" lon="11.5815733"><ele>955.7142857142858</ele><time>2026-04-18T12:18:32.924Z</time></trkpt><trkpt lat="43.7856267" lon="11.5816217"><ele>955.2857142857142</ele><time>2026-04-18T12:18:33.924Z</time></trkpt><trkpt lat="43.7855743" lon="11.581678"><ele>954.8571428571428</ele><time>2026-04-18T12:18:34.924Z</time></trkpt><trkpt lat="43.7855251" lon="11.5817464"><ele>954.4285714285713</ele><time>2026-04-18T12:18:35.924Z</time></trkpt><trkpt lat="43.7854741" lon="11.5818253"><ele>954.0</ele><time>2026-04-18T12:18:36.924Z</time></trkpt><trkpt lat="43.7854267" lon="11.5819141"><ele>954.0</ele><time>2026-04-18T12:18:37.925Z</time></trkpt><trkpt lat="43.7853779" lon="11.5820101"><ele>954.0</ele><time>2026-04-18T12:18:38.924Z</time></trkpt><trkpt lat="43.7853299" lon="11.5821081"><ele>954.0</ele><time>2026-04-18T12:18:39.924Z</time></trkpt><trkpt lat="43.7852936" lon="11.5822141"><ele>954.0</ele><time>2026-04-18T12:18:40.924Z</time></trkpt><trkpt lat="43.7852566" lon="11.5823191"><ele>954.0</ele><time>2026-04-18T12:18:41.925Z</time></trkpt><trkpt lat="43.7852203" lon="11.5824168"><ele>954.0</ele><time>2026-04-18T12:18:42.924Z</time></trkpt><trkpt lat="43.7851745" lon="11.5825105"><ele>953.6666666666666</ele><time>2026-04-18T12:18:43.925Z</time></trkpt><trkpt lat="43.7851315" lon="11.5826065"><ele>953.3333333333333</ele><time>2026-04-18T12:18:44.925Z</time></trkpt><trkpt lat="43.7850801" lon="11.5826963"><ele>953.0</ele><time>2026-04-18T12:18:45.924Z</time></trkpt><trkpt lat="43.7850186" lon="11.582781"><ele>952.6666666666666</ele><time>2026-04-18T12:18:46.925Z</time></trkpt><trkpt lat="43.7849459" lon="11.582849"><ele>952.3333333333333</ele><time>2026-04-18T12:18:47.925Z</time></trkpt><trkpt lat="43.7848699" lon="11.5828993"><ele>952.0</ele><time>2026-04-18T12:18:48.924Z</time></trkpt><trkpt lat="43.784798" lon="11.5829367"><ele>952.0</ele><time>2026-04-18T12:18:49.924Z</time></trkpt><trkpt lat="43.7847329" lon="11.5829646"><ele>952.0</ele><time>2026-04-18T12:18:50.925Z</time></trkpt><trkpt lat="43.784645" lon="11.583027"><ele>952.0</ele><time>2026-04-18T12:18:52.924Z</time></trkpt><trkpt lat="43.7846006" lon="11.5831274"><ele>952.0</ele><time>2026-04-18T12:18:54.925Z</time></trkpt><trkpt lat="43.784614" lon="11.583258"><ele>952.0</ele><time>2026-04-18T12:18:56.924Z</time></trkpt><trkpt lat="43.784598" lon="11.5834216"><ele>951.9999999999999</ele><time>2026-04-18T12:18:58.924Z</time></trkpt><trkpt lat="43.7845889" lon="11.5835645"><ele>952.0</ele><time>2026-04-18T12:19:00.924Z</time></trkpt><trkpt lat="43.7846076" lon="11.5836749"><ele>952.0</ele><time>2026-04-18T12:19:02.924Z</time></trkpt><trkpt lat="43.7846708" lon="11.583753"><ele>952.0</ele><time>2026-04-18T12:19:04.925Z</time></trkpt><trkpt lat="43.7847451" lon="11.583823"><ele>951.9999999999999</ele><time>2026-04-18T12:19:06.924Z</time></trkpt><trkpt lat="43.7848081" lon="11.5839008"><ele>952.0</ele><time>2026-04-18T12:19:08.925Z</time></trkpt><trkpt lat="43.7848949" lon="11.5840224"><ele>953.0</ele><time>2026-04-18T12:19:10.924Z</time></trkpt><trkpt lat="43.7849383" lon="11.584087"><ele>954.0</ele><time>2026-04-18T12:19:11.924Z</time></trkpt><trkpt lat="43.785009" lon="11.5842158"><ele>955.0</ele><time>2026-04-18T12:19:13.924Z</time></trkpt><trkpt lat="43.7850451" lon="11.5843623"><ele>956.0</ele><time>2026-04-18T12:19:15.924Z</time></trkpt><trkpt lat="43.7850354" lon="11.5845142"><ele>957.0</ele><time>2026-04-18T12:19:17.925Z</time></trkpt><trkpt lat="43.7850183" lon="11.5846089"><ele>957.1666666666666</ele><time>2026-04-18T12:19:19.86Z</time></trkpt><trkpt lat="43.7850112" lon="11.5847388"><ele>957.3333333333333</ele><time>2026-04-18T12:19:22.018Z</time></trkpt><trkpt lat="43.7849181" lon="11.5847623"><ele>957.5</ele><time>2026-04-18T12:19:24.021Z</time></trkpt><trkpt lat="43.7848499" lon="11.5847475"><ele>957.6666666666666</ele><time>2026-04-18T12:19:25.958Z</time></trkpt><trkpt lat="43.7847571" lon="11.5847733"><ele>957.8333333333333</ele><time>2026-04-18T12:19:27.928Z</time></trkpt><trkpt lat="43.7846637" lon="11.5847908"><ele>958.0</ele><time>2026-04-18T12:19:29.932Z</time></trkpt><trkpt lat="43.7845689" lon="11.5847858"><ele>957.9999999999999</ele><time>2026-04-18T12:19:31.935Z</time></trkpt><trkpt lat="43.7844311" lon="11.584792"><ele>958.0</ele><time>2026-04-18T12:19:33.925Z</time></trkpt><trkpt lat="43.7843496" lon="11.5847969"><ele>958.0</ele><time>2026-04-18T12:19:34.924Z</time></trkpt><trkpt lat="43.7842817" lon="11.5848116"><ele>958.0</ele><time>2026-04-18T12:19:35.925Z</time></trkpt><trkpt lat="43.7842091" lon="11.5848229"><ele>957.9999999999999</ele><time>2026-04-18T12:19:36.924Z</time></trkpt><trkpt lat="43.7841388" lon="11.5848412"><ele>958.0</ele><time>2026-04-18T12:19:37.924Z</time></trkpt><trkpt lat="43.7840776" lon="11.5848638"><ele>958.9999999999999</ele><time>2026-04-18T12:19:38.925Z</time></trkpt><trkpt lat="43.7840177" lon="11.5849007"><ele>960.0</ele><time>2026-04-18T12:19:39.924Z</time></trkpt><trkpt lat="43.7839619" lon="11.5849476"><ele>961.0</ele><time>2026-04-18T12:19:40.925Z</time></trkpt><trkpt lat="43.7838738" lon="11.58503"><ele>962.0</ele><time>2026-04-18T12:19:42.925Z</time></trkpt><trkpt lat="43.7837884" lon="11.5851555"><ele>962.9999999999999</ele><time>2026-04-18T12:19:44.924Z</time></trkpt><trkpt lat="43.7837474" lon="11.5852345"><ele>964.0</ele><time>2026-04-18T12:19:45.924Z</time></trkpt><trkpt lat="43.7837108" lon="11.585315"><ele>963.4999999999999</ele><time>2026-04-18T12:19:46.924Z</time></trkpt><trkpt lat="43.7836723" lon="11.5854016"><ele>963.0</ele><time>2026-04-18T12:19:47.925Z</time></trkpt><trkpt lat="43.783631" lon="11.5854926"><ele>962.5</ele><time>2026-04-18T12:19:48.924Z</time></trkpt><trkpt lat="43.7835877" lon="11.5855796"><ele>962.0</ele><time>2026-04-18T12:19:49.925Z</time></trkpt><trkpt lat="43.7835475" lon="11.5856795"><ele>961.4999999999999</ele><time>2026-04-18T12:19:50.925Z</time></trkpt><trkpt lat="43.7835125" lon="11.5857654"><ele>961.0</ele><time>2026-04-18T12:19:51.924Z</time></trkpt><trkpt lat="43.7834756" lon="11.585869"><ele>962.8333333333333</ele><time>2026-04-18T12:19:52.924Z</time></trkpt><trkpt lat="43.7834415" lon="11.5859566"><ele>964.6666666666666</ele><time>2026-04-18T12:19:53.924Z</time></trkpt><trkpt lat="43.7834039" lon="11.5860469"><ele>966.5</ele><time>2026-04-18T12:19:54.924Z</time></trkpt><trkpt lat="43.7833551" lon="11.5861447"><ele>968.3333333333333</ele><time>2026-04-18T12:19:55.924Z</time></trkpt><trkpt lat="43.7833028" lon="11.5862476"><ele>970.1666666666666</ele><time>2026-04-18T12:19:56.925Z</time></trkpt><trkpt lat="43.7832527" lon="11.5863497"><ele>972.0</ele><time>2026-04-18T12:19:57.925Z</time></trkpt><trkpt lat="43.7832066" lon="11.5864491"><ele>972.0</ele><time>2026-04-18T12:19:58.924Z</time></trkpt><trkpt lat="43.7831683" lon="11.5865531"><ele>972.0</ele><time>2026-04-18T12:19:59.925Z</time></trkpt><trkpt lat="43.7831388" lon="11.5866574"><ele>972.0</ele><time>2026-04-18T12:20:00.924Z</time></trkpt><trkpt lat="43.7831128" lon="11.5867671"><ele>972.0</ele><time>2026-04-18T12:20:01.924Z</time></trkpt><trkpt lat="43.7830832" lon="11.5868818"><ele>972.0</ele><time>2026-04-18T12:20:02.924Z</time></trkpt><trkpt lat="43.7830541" lon="11.5870049"><ele>972.0</ele><time>2026-04-18T12:20:03.924Z</time></trkpt><trkpt lat="43.7830191" lon="11.587129"><ele>971.5714285714286</ele><time>2026-04-18T12:20:04.924Z</time></trkpt><trkpt lat="43.7829928" lon="11.5872371"><ele>971.1428571428571</ele><time>2026-04-18T12:20:05.924Z</time></trkpt><trkpt lat="43.7829708" lon="11.5873358"><ele>970.7142857142857</ele><time>2026-04-18T12:20:06.924Z</time></trkpt><trkpt lat="43.7829423" lon="11.5874258"><ele>970.2857142857142</ele><time>2026-04-18T12:20:07.925Z</time></trkpt><trkpt lat="43.782903" lon="11.5874946"><ele>969.8571428571429</ele><time>2026-04-18T12:20:08.924Z</time></trkpt><trkpt lat="43.7828517" lon="11.5875566"><ele>969.4285714285713</ele><time>2026-04-18T12:20:09.924Z</time></trkpt><trkpt lat="43.782795" lon="11.5876027"><ele>968.9999999999999</ele><time>2026-04-18T12:20:10.924Z</time></trkpt><trkpt lat="43.7826899" lon="11.5876228"><ele>970.6</ele><time>2026-04-18T12:20:12.925Z</time></trkpt><trkpt lat="43.7825725" lon="11.5876338"><ele>972.2</ele><time>2026-04-18T12:20:14.924Z</time></trkpt><trkpt lat="43.7824799" lon="11.5877028"><ele>973.8000000000001</ele><time>2026-04-18T12:20:16.924Z</time></trkpt><trkpt lat="43.7824091" lon="11.5878287"><ele>975.4000000000001</ele><time>2026-04-18T12:20:18.924Z</time></trkpt><trkpt lat="43.7823716" lon="11.5879036"><ele>977.0</ele><time>2026-04-18T12:20:19.924Z</time></trkpt><trkpt lat="43.782335" lon="11.5879832"><ele>977.0000000000001</ele><time>2026-04-18T12:20:20.924Z</time></trkpt><trkpt lat="43.782296" lon="11.5880617"><ele>977.0</ele><time>2026-04-18T12:20:21.924Z</time></trkpt><trkpt lat="43.7822574" lon="11.5881306"><ele>977.0</ele><time>2026-04-18T12:20:22.925Z</time></trkpt><trkpt lat="43.7821751" lon="11.5882558"><ele>977.0</ele><time>2026-04-18T12:20:24.924Z</time></trkpt><trkpt lat="43.7820667" lon="11.5883431"><ele>977.0000000000001</ele><time>2026-04-18T12:20:26.925Z</time></trkpt><trkpt lat="43.782" lon="11.5883569"><ele>977.0</ele><time>2026-04-18T12:20:27.925Z</time></trkpt><trkpt lat="43.7819225" lon="11.5883495"><ele>978.3333333333334</ele><time>2026-04-18T12:20:28.924Z</time></trkpt><trkpt lat="43.7818418" lon="11.5883318"><ele>979.6666666666667</ele><time>2026-04-18T12:20:29.925Z</time></trkpt><trkpt lat="43.7817669" lon="11.588319"><ele>981.0</ele><time>2026-04-18T12:20:30.925Z</time></trkpt><trkpt lat="43.7816917" lon="11.5883098"><ele>982.3333333333333</ele><time>2026-04-18T12:20:31.925Z</time></trkpt><trkpt lat="43.7816141" lon="11.588298"><ele>983.6666666666666</ele><time>2026-04-18T12:20:32.925Z</time></trkpt><trkpt lat="43.7815399" lon="11.5882901"><ele>985.0</ele><time>2026-04-18T12:20:33.925Z</time></trkpt><trkpt lat="43.7814745" lon="11.5882809"><ele>985.0</ele><time>2026-04-18T12:20:34.925Z</time></trkpt><trkpt lat="43.7813631" lon="11.5882393"><ele>985.0</ele><time>2026-04-18T12:20:36.924Z</time></trkpt><trkpt lat="43.7812612" lon="11.5882087"><ele>985.0</ele><time>2026-04-18T12:20:38.924Z</time></trkpt><trkpt lat="43.7811696" lon="11.5882602"><ele>985.0</ele><time>2026-04-18T12:20:40.925Z</time></trkpt><trkpt lat="43.7811058" lon="11.5883536"><ele>985.0</ele><time>2026-04-18T12:20:42.924Z</time></trkpt><trkpt lat="43.781034" lon="11.588444"><ele>985.0</ele><time>2026-04-18T12:20:44.924Z</time></trkpt><trkpt lat="43.7809355" lon="11.5884915"><ele>985.0</ele><time>2026-04-18T12:20:46.924Z</time></trkpt><trkpt lat="43.7808241" lon="11.5884926"><ele>985.0</ele><time>2026-04-18T12:20:48.926Z</time></trkpt><trkpt lat="43.7807139" lon="11.5884633"><ele>985.0</ele><time>2026-04-18T12:20:50.925Z</time></trkpt><trkpt lat="43.7806449" lon="11.5884622"><ele>985.0</ele><time>2026-04-18T12:20:51.925Z</time></trkpt><trkpt lat="43.7805756" lon="11.5884669"><ele>985.0</ele><time>2026-04-18T12:20:52.926Z</time></trkpt><trkpt lat="43.7805076" lon="11.5884736"><ele>985.0</ele><time>2026-04-18T12:20:53.925Z</time></trkpt><trkpt lat="43.7803939" lon="11.5884795"><ele>985.0</ele><time>2026-04-18T12:20:55.926Z</time></trkpt><trkpt lat="43.7802779" lon="11.588449"><ele>985.0</ele><time>2026-04-18T12:20:57.926Z</time></trkpt><trkpt lat="43.7801593" lon="11.5884299"><ele>985.0</ele><time>2026-04-18T12:20:59.926Z</time></trkpt><trkpt lat="43.7800927" lon="11.5884249"><ele>985.3333333333333</ele><time>2026-04-18T12:21:00.926Z</time></trkpt><trkpt lat="43.7799873" lon="11.5884172"><ele>985.6666666666666</ele><time>2026-04-18T12:21:02.925Z</time></trkpt><trkpt lat="43.7799239" lon="11.5884273"><ele>986.0</ele><time>2026-04-18T12:21:04.925Z</time></trkpt><trkpt lat="43.7798479" lon="11.5885072"><ele>986.3333333333333</ele><time>2026-04-18T12:21:07.925Z</time></trkpt><trkpt lat="43.7798191" lon="11.5886151"><ele>986.6666666666666</ele><time>2026-04-18T12:21:09.926Z</time></trkpt><trkpt lat="43.7798193" lon="11.5887214"><ele>987.0</ele><time>2026-04-18T12:21:11.926Z</time></trkpt><trkpt lat="43.7798244" lon="11.5888117"><ele>985.6666666666666</ele><time>2026-04-18T12:21:13.926Z</time></trkpt><trkpt lat="43.7798122" lon="11.5889021"><ele>984.3333333333333</ele><time>2026-04-18T12:21:15.925Z</time></trkpt><trkpt lat="43.7797884" lon="11.5890259"><ele>983.0</ele><time>2026-04-18T12:21:17.925Z</time></trkpt><trkpt lat="43.7797298" lon="11.5891621"><ele>981.6666666666666</ele><time>2026-04-18T12:21:19.925Z</time></trkpt><trkpt lat="43.7797083" lon="11.58926"><ele>980.3333333333333</ele><time>2026-04-18T12:21:20.925Z</time></trkpt><trkpt lat="43.7797033" lon="11.5893483"><ele>979.0</ele><time>2026-04-18T12:21:21.925Z</time></trkpt><trkpt lat="43.7796917" lon="11.5894433"><ele>980.2</ele><time>2026-04-18T12:21:22.925Z</time></trkpt><trkpt lat="43.7796933" lon="11.589535"><ele>981.4000000000001</ele><time>2026-04-18T12:21:23.925Z</time></trkpt><trkpt lat="43.77971" lon="11.58963"><ele>982.6</ele><time>2026-04-18T12:21:24.926Z</time></trkpt><trkpt lat="43.779705" lon="11.589795"><ele>983.8</ele><time>2026-04-18T12:21:26.926Z</time></trkpt><trkpt lat="43.779665" lon="11.5899517"><ele>985.0</ele><time>2026-04-18T12:21:28.926Z</time></trkpt><trkpt lat="43.7795633" lon="11.59006"><ele>984.9999999999999</ele><time>2026-04-18T12:21:30.925Z</time></trkpt><trkpt lat="43.779485" lon="11.5901"><ele>985.0</ele><time>2026-04-18T12:21:31.925Z</time></trkpt><trkpt lat="43.7794067" lon="11.59013"><ele>985.0</ele><time>2026-04-18T12:21:32.925Z</time></trkpt><trkpt lat="43.7793367" lon="11.5901617"><ele>985.0</ele><time>2026-04-18T12:21:33.925Z</time></trkpt><trkpt lat="43.7792667" lon="11.590225"><ele>984.9999999999999</ele><time>2026-04-18T12:21:35.925Z</time></trkpt><trkpt lat="43.7792533" lon="11.590325"><ele>985.0</ele><time>2026-04-18T12:21:37.925Z</time></trkpt><trkpt lat="43.779265" lon="11.590465"><ele>987.8333333333333</ele><time>2026-04-18T12:21:39.925Z</time></trkpt><trkpt lat="43.77929" lon="11.5906267"><ele>990.6666666666666</ele><time>2026-04-18T12:21:41.925Z</time></trkpt><trkpt lat="43.7793" lon="11.5907267"><ele>993.5</ele><time>2026-04-18T12:21:42.926Z</time></trkpt><trkpt lat="43.77929" lon="11.5908167"><ele>996.3333333333333</ele><time>2026-04-18T12:21:43.926Z</time></trkpt><trkpt lat="43.7792617" lon="11.5909"><ele>999.1666666666666</ele><time>2026-04-18T12:21:44.925Z</time></trkpt><trkpt lat="43.7792317" lon="11.5909817"><ele>1002.0</ele><time>2026-04-18T12:21:45.925Z</time></trkpt><trkpt lat="43.77919" lon="11.5910633"><ele>1002.0</ele><time>2026-04-18T12:21:46.926Z</time></trkpt><trkpt lat="43.77913" lon="11.59115"><ele>1002.0</ele><time>2026-04-18T12:21:47.926Z</time></trkpt><trkpt lat="43.7790717" lon="11.59123"><ele>1002.0</ele><time>2026-04-18T12:21:48.925Z</time></trkpt><trkpt lat="43.7790067" lon="11.591305"><ele>1002.0</ele><time>2026-04-18T12:21:49.925Z</time></trkpt><trkpt lat="43.77895" lon="11.591385"><ele>1002.0</ele><time>2026-04-18T12:21:50.925Z</time></trkpt><trkpt lat="43.7789067" lon="11.5914633"><ele>1002.0</ele><time>2026-04-18T12:21:51.925Z</time></trkpt><trkpt lat="43.7788667" lon="11.5915417"><ele>1003.0</ele><time>2026-04-18T12:21:52.926Z</time></trkpt><trkpt lat="43.7788283" lon="11.5916217"><ele>1004.0</ele><time>2026-04-18T12:21:53.926Z</time></trkpt><trkpt lat="43.778785" lon="11.5916917"><ele>1005.0</ele><time>2026-04-18T12:21:54.925Z</time></trkpt><trkpt lat="43.778745" lon="11.591785"><ele>1006.0</ele><time>2026-04-18T12:21:56.926Z</time></trkpt><trkpt lat="43.77876" lon="11.5918717"><ele>1007.0</ele><time>2026-04-18T12:21:58.925Z</time></trkpt><trkpt lat="43.7788233" lon="11.5919383"><ele>1008.0</ele><time>2026-04-18T12:22:01.925Z</time></trkpt><trkpt lat="43.778885" lon="11.5918767"><ele>1009.0</ele><time>2026-04-18T12:22:04.926Z</time></trkpt><trkpt lat="43.7789722" lon="11.5918078"><ele>1009.0</ele><time>2026-04-18T12:22:07.985Z</time></trkpt><trkpt lat="43.7790455" lon="11.5917444"><ele>1009.0000000000001</ele><time>2026-04-18T12:22:09.987Z</time></trkpt><trkpt lat="43.7791177" lon="11.5916658"><ele>1009.0000000000001</ele><time>2026-04-18T12:22:11.991Z</time></trkpt><trkpt lat="43.7792123" lon="11.591618"><ele>1009.0</ele><time>2026-04-18T12:22:13.994Z</time></trkpt><trkpt lat="43.7793037" lon="11.5916279"><ele>1009.0</ele><time>2026-04-18T12:22:15.997Z</time></trkpt><trkpt lat="43.7793837" lon="11.5917029"><ele>1009.8000000000001</ele><time>2026-04-18T12:22:18.001Z</time></trkpt><trkpt lat="43.7794276" lon="11.5918299"><ele>1010.6000000000001</ele><time>2026-04-18T12:22:20.004Z</time></trkpt><trkpt lat="43.7795061" lon="11.5919811"><ele>1011.4</ele><time>2026-04-18T12:22:21.925Z</time></trkpt><trkpt lat="43.7795451" lon="11.5920728"><ele>1012.2</ele><time>2026-04-18T12:22:22.925Z</time></trkpt><trkpt lat="43.7795834" lon="11.5921563"><ele>1013.0</ele><time>2026-04-18T12:22:23.926Z</time></trkpt><trkpt lat="43.7796227" lon="11.5922321"><ele>1013.7142857142858</ele><time>2026-04-18T12:22:24.925Z</time></trkpt><trkpt lat="43.7796616" lon="11.5923087"><ele>1014.4285714285716</ele><time>2026-04-18T12:22:25.925Z</time></trkpt><trkpt lat="43.7796963" lon="11.5923897"><ele>1015.1428571428571</ele><time>2026-04-18T12:22:26.926Z</time></trkpt><trkpt lat="43.779723" lon="11.5924774"><ele>1015.8571428571429</ele><time>2026-04-18T12:22:27.926Z</time></trkpt><trkpt lat="43.7797424" lon="11.5925773"><ele>1016.5714285714286</ele><time>2026-04-18T12:22:28.925Z</time></trkpt><trkpt lat="43.7797571" lon="11.5926866"><ele>1017.2857142857142</ele><time>2026-04-18T12:22:29.925Z</time></trkpt><trkpt lat="43.7797692" lon="11.5928054"><ele>1017.9999999999999</ele><time>2026-04-18T12:22:30.925Z</time></trkpt><trkpt lat="43.7797772" lon="11.5929239"><ele>1018.1666666666666</ele><time>2026-04-18T12:22:31.925Z</time></trkpt><trkpt lat="43.7797769" lon="11.5930365"><ele>1018.3333333333333</ele><time>2026-04-18T12:22:32.926Z</time></trkpt><trkpt lat="43.7797684" lon="11.5931404"><ele>1018.5</ele><time>2026-04-18T12:22:33.925Z</time></trkpt><trkpt lat="43.7797577" lon="11.5932274"><ele>1018.6666666666667</ele><time>2026-04-18T12:22:34.925Z</time></trkpt><trkpt lat="43.7797322" lon="11.5933492"><ele>1018.8333333333334</ele><time>2026-04-18T12:22:36.925Z</time></trkpt><trkpt lat="43.7796838" lon="11.5934455"><ele>1019.0</ele><time>2026-04-18T12:22:39.926Z</time></trkpt><trkpt lat="43.7796259" lon="11.5935747"><ele>1018.4000000000001</ele><time>2026-04-18T12:22:42.925Z</time></trkpt><trkpt lat="43.7796015" lon="11.5936735"><ele>1017.8000000000001</ele><time>2026-04-18T12:22:43.926Z</time></trkpt><trkpt lat="43.7795904" lon="11.5938088"><ele>1017.1999999999999</ele><time>2026-04-18T12:22:44.926Z</time></trkpt><trkpt lat="43.7796021" lon="11.5939756"><ele>1016.5999999999999</ele><time>2026-04-18T12:22:45.926Z</time></trkpt><trkpt lat="43.7796202" lon="11.5941478"><ele>1016.0</ele><time>2026-04-18T12:22:46.925Z</time></trkpt><trkpt lat="43.7796442" lon="11.5943158"><ele>1016.0</ele><time>2026-04-18T12:22:47.925Z</time></trkpt><trkpt lat="43.7796622" lon="11.5944874"><ele>1016.0</ele><time>2026-04-18T12:22:48.926Z</time></trkpt><trkpt lat="43.7796801" lon="11.5946615"><ele>1016.0</ele><time>2026-04-18T12:22:49.925Z</time></trkpt><trkpt lat="43.7796927" lon="11.5948218"><ele>1016.0</ele><time>2026-04-18T12:22:50.925Z</time></trkpt><trkpt lat="43.7797286" lon="11.5949722"><ele>1016.5</ele><time>2026-04-18T12:22:51.925Z</time></trkpt><trkpt lat="43.7797858" lon="11.5951213"><ele>1017.0</ele><time>2026-04-18T12:22:52.926Z</time></trkpt><trkpt lat="43.7798469" lon="11.595256"><ele>1017.5</ele><time>2026-04-18T12:22:53.925Z</time></trkpt><trkpt lat="43.7799217" lon="11.5953724"><ele>1018.0</ele><time>2026-04-18T12:22:54.926Z</time></trkpt><trkpt lat="43.7800183" lon="11.5954683"><ele>1017.8</ele><time>2026-04-18T12:22:55.925Z</time></trkpt><trkpt lat="43.7801183" lon="11.5955617"><ele>1017.5999999999999</ele><time>2026-04-18T12:22:56.925Z</time></trkpt><trkpt lat="43.7802067" lon="11.5956517"><ele>1017.4000000000001</ele><time>2026-04-18T12:22:57.926Z</time></trkpt><trkpt lat="43.7802883" lon="11.59573"><ele>1017.2</ele><time>2026-04-18T12:22:58.926Z</time></trkpt><trkpt lat="43.7803567" lon="11.595805"><ele>1017.0</ele><time>2026-04-18T12:22:59.925Z</time></trkpt><trkpt lat="43.7804217" lon="11.595865"><ele>1017.0</ele><time>2026-04-18T12:23:00.925Z</time></trkpt><trkpt lat="43.78048" lon="11.5959333"><ele>1017.0</ele><time>2026-04-18T12:23:01.926Z</time></trkpt><trkpt lat="43.7805317" lon="11.5960067"><ele>1017.0</ele><time>2026-04-18T12:23:02.925Z</time></trkpt><trkpt lat="43.7805967" lon="11.596075"><ele>1017.0</ele><time>2026-04-18T12:23:03.926Z</time></trkpt><trkpt lat="43.7806683" lon="11.5961467"><ele>1017.0</ele><time>2026-04-18T12:23:04.925Z</time></trkpt><trkpt lat="43.7807417" lon="11.59622"><ele>1017.0</ele><time>2026-04-18T12:23:05.926Z</time></trkpt><trkpt lat="43.7808133" lon="11.5962933"><ele>1018.0</ele><time>2026-04-18T12:23:06.925Z</time></trkpt><trkpt lat="43.7808967" lon="11.5963733"><ele>1019.0</ele><time>2026-04-18T12:23:07.925Z</time></trkpt><trkpt lat="43.7809783" lon="11.596455"><ele>1020.0</ele><time>2026-04-18T12:23:08.925Z</time></trkpt><trkpt lat="43.781055" lon="11.596555"><ele>1021.0</ele><time>2026-04-18T12:23:09.926Z</time></trkpt><trkpt lat="43.7811333" lon="11.5966817"><ele>1022.0</ele><time>2026-04-18T12:23:10.925Z</time></trkpt><trkpt lat="43.7812033" lon="11.5968333"><ele>1022.0</ele><time>2026-04-18T12:23:11.926Z</time></trkpt><trkpt lat="43.7812667" lon="11.5969867"><ele>1022.0</ele><time>2026-04-18T12:23:12.925Z</time></trkpt><trkpt lat="43.7813367" lon="11.5971283"><ele>1022.0</ele><time>2026-04-18T12:23:13.925Z</time></trkpt><trkpt lat="43.78143" lon="11.5972617"><ele>1022.0</ele><time>2026-04-18T12:23:14.925Z</time></trkpt><trkpt lat="43.78154" lon="11.5973717"><ele>1022.75</ele><time>2026-04-18T12:23:15.925Z</time></trkpt><trkpt lat="43.7816733" lon="11.5974817"><ele>1023.5</ele><time>2026-04-18T12:23:16.925Z</time></trkpt><trkpt lat="43.7818033" lon="11.5975833"><ele>1024.25</ele><time>2026-04-18T12:23:17.925Z</time></trkpt><trkpt lat="43.78192" lon="11.5976767"><ele>1025.0</ele><time>2026-04-18T12:23:18.926Z</time></trkpt><trkpt lat="43.7820267" lon="11.5977583"><ele>1028.25</ele><time>2026-04-18T12:23:19.925Z</time></trkpt><trkpt lat="43.78214" lon="11.5978233"><ele>1031.5</ele><time>2026-04-18T12:23:20.925Z</time></trkpt><trkpt lat="43.7822467" lon="11.5978883"><ele>1034.75</ele><time>2026-04-18T12:23:21.926Z</time></trkpt><trkpt lat="43.7823383" lon="11.5979633"><ele>1038.0</ele><time>2026-04-18T12:23:22.925Z</time></trkpt><trkpt lat="43.7824417" lon="11.5980517"><ele>1038.0</ele><time>2026-04-18T12:23:23.926Z</time></trkpt><trkpt lat="43.7825417" lon="11.59816"><ele>1038.0</ele><time>2026-04-18T12:23:24.926Z</time></trkpt><trkpt lat="43.7826183" lon="11.5982917"><ele>1038.0</ele><time>2026-04-18T12:23:25.925Z</time></trkpt><trkpt lat="43.7826867" lon="11.598445"><ele>1038.0</ele><time>2026-04-18T12:23:26.926Z</time></trkpt><trkpt lat="43.782735" lon="11.59859"><ele>1040.6</ele><time>2026-04-18T12:23:27.925Z</time></trkpt><trkpt lat="43.7827883" lon="11.59873"><ele>1043.1999999999998</ele><time>2026-04-18T12:23:28.926Z</time></trkpt><trkpt lat="43.7828317" lon="11.5988667"><ele>1045.8</ele><time>2026-04-18T12:23:29.925Z</time></trkpt><trkpt lat="43.7828717" lon="11.5990167"><ele>1048.3999999999999</ele><time>2026-04-18T12:23:30.926Z</time></trkpt><trkpt lat="43.78289" lon="11.5991567"><ele>1051.0</ele><time>2026-04-18T12:23:31.926Z</time></trkpt><trkpt lat="43.7828983" lon="11.5992733"><ele>1051.0</ele><time>2026-04-18T12:23:32.925Z</time></trkpt><trkpt lat="43.78291" lon="11.5993833"><ele>1051.0</ele><time>2026-04-18T12:23:33.925Z</time></trkpt><trkpt lat="43.7829133" lon="11.5994883"><ele>1051.0</ele><time>2026-04-18T12:23:34.925Z</time></trkpt><trkpt lat="43.7829167" lon="11.59958"><ele>1051.0</ele><time>2026-04-18T12:23:35.925Z</time></trkpt><trkpt lat="43.7829483" lon="11.59969"><ele>1051.0</ele><time>2026-04-18T12:23:37.925Z</time></trkpt><trkpt lat="43.7830333" lon="11.5996667"><ele>1051.0</ele><time>2026-04-18T12:23:39.926Z</time></trkpt><trkpt lat="43.7831033" lon="11.59962"><ele>1051.0</ele><time>2026-04-18T12:23:40.926Z</time></trkpt><trkpt lat="43.7831933" lon="11.5995767"><ele>1051.0</ele><time>2026-04-18T12:23:41.926Z</time></trkpt><trkpt lat="43.783295" lon="11.5995217"><ele>1051.0</ele><time>2026-04-18T12:23:42.925Z</time></trkpt><trkpt lat="43.7833967" lon="11.5994533"><ele>1051.0</ele><time>2026-04-18T12:23:43.926Z</time></trkpt><trkpt lat="43.7834867" lon="11.5993867"><ele>1051.0</ele><time>2026-04-18T12:23:44.926Z</time></trkpt><trkpt lat="43.7835567" lon="11.5993333"><ele>1051.5</ele><time>2026-04-18T12:23:45.925Z</time></trkpt><trkpt lat="43.783625" lon="11.599275"><ele>1052.0</ele><time>2026-04-18T12:23:47.926Z</time></trkpt><trkpt lat="43.783705" lon="11.5992667"><ele>1052.5</ele><time>2026-04-18T12:24:13.925Z</time></trkpt><trkpt lat="43.7837267" lon="11.5993817"><ele>1053.0</ele><time>2026-04-18T12:24:16.925Z</time></trkpt><trkpt lat="43.7837367" lon="11.599555"><ele>1053.5</ele><time>2026-04-18T12:24:18.925Z</time></trkpt><trkpt lat="43.7837417" lon="11.599655"><ele>1054.0</ele><time>2026-04-18T12:24:19.926Z</time></trkpt><trkpt lat="43.7837417" lon="11.5997683"><ele>1054.5</ele><time>2026-04-18T12:24:20.925Z</time></trkpt><trkpt lat="43.783745" lon="11.5998767"><ele>1055.0</ele><time>2026-04-18T12:24:21.925Z</time></trkpt><trkpt lat="43.783755" lon="11.5999667"><ele>1055.5</ele><time>2026-04-18T12:24:22.925Z</time></trkpt><trkpt lat="43.7837833" lon="11.6001117"><ele>1056.0</ele><time>2026-04-18T12:24:24.925Z</time></trkpt><trkpt lat="43.7838017" lon="11.6001967"><ele>1056.5</ele><time>2026-04-18T12:24:26.926Z</time></trkpt><trkpt lat="43.7838367" lon="11.600295"><ele>1057.0</ele><time>2026-04-18T12:24:30.925Z</time></trkpt><trkpt lat="43.783875" lon="11.6003883"><ele>1059.0</ele><time>2026-04-18T12:24:32.925Z</time></trkpt><trkpt lat="43.7839017" lon="11.60047"><ele>1061.0</ele><time>2026-04-18T12:24:34.925Z</time></trkpt><trkpt lat="43.78393" lon="11.60055"><ele>1063.0</ele><time>2026-04-18T12:24:36.925Z</time></trkpt><trkpt lat="43.7839667" lon="11.60063"><ele>1065.0</ele><time>2026-04-18T12:24:38.925Z</time></trkpt><trkpt lat="43.784025" lon="11.60067"><ele>1067.0</ele><time>2026-04-18T12:24:40.925Z</time></trkpt><trkpt lat="43.7840883" lon="11.6006783"><ele>1069.0</ele><time>2026-04-18T12:24:42.926Z</time></trkpt><trkpt lat="43.7841533" lon="11.600645"><ele>1071.0</ele><time>2026-04-18T12:24:44.926Z</time></trkpt><trkpt lat="43.7842167" lon="11.60061"><ele>1071.0</ele><time>2026-04-18T12:24:46.925Z</time></trkpt><trkpt lat="43.784285" lon="11.6005717"><ele>1071.0</ele><time>2026-04-18T12:24:49.925Z</time></trkpt><trkpt lat="43.7843617" lon="11.6005567"><ele>1071.0</ele><time>2026-04-18T12:24:53.926Z</time></trkpt><trkpt lat="43.7844417" lon="11.6005383"><ele>1071.0</ele><time>2026-04-18T12:24:55.925Z</time></trkpt><trkpt lat="43.78455" lon="11.6005517"><ele>1071.0</ele><time>2026-04-18T12:24:57.926Z</time></trkpt><trkpt lat="43.7846383" lon="11.600615"><ele>1071.0</ele><time>2026-04-18T12:24:59.926Z</time></trkpt><trkpt lat="43.78473" lon="11.6007283"><ele>1071.2857142857142</ele><time>2026-04-18T12:25:01.925Z</time></trkpt><trkpt lat="43.784775" lon="11.600805"><ele>1071.5714285714284</ele><time>2026-04-18T12:25:02.926Z</time></trkpt><trkpt lat="43.78481" lon="11.6008833"><ele>1071.857142857143</ele><time>2026-04-18T12:25:03.926Z</time></trkpt><trkpt lat="43.7848417" lon="11.60096"><ele>1072.142857142857</ele><time>2026-04-18T12:25:04.925Z</time></trkpt><trkpt lat="43.78487" lon="11.6010517"><ele>1072.4285714285713</ele><time>2026-04-18T12:25:05.925Z</time></trkpt><trkpt lat="43.7849017" lon="11.6011433"><ele>1072.7142857142858</ele><time>2026-04-18T12:25:06.925Z</time></trkpt><trkpt lat="43.78493" lon="11.601245"><ele>1073.0</ele><time>2026-04-18T12:25:07.925Z</time></trkpt><trkpt lat="43.7849633" lon="11.6013417"><ele>1073.0</ele><time>2026-04-18T12:25:08.926Z</time></trkpt><trkpt lat="43.7849967" lon="11.6014333"><ele>1073.0</ele><time>2026-04-18T12:25:09.925Z</time></trkpt><trkpt lat="43.78502" lon="11.6015217"><ele>1073.0</ele><time>2026-04-18T12:25:10.925Z</time></trkpt><trkpt lat="43.7850433" lon="11.6016083"><ele>1073.0</ele><time>2026-04-18T12:25:11.926Z</time></trkpt><trkpt lat="43.7850583" lon="11.601695"><ele>1073.0</ele><time>2026-04-18T12:25:12.926Z</time></trkpt><trkpt lat="43.7850667" lon="11.6017817"><ele>1073.0</ele><time>2026-04-18T12:25:13.926Z</time></trkpt><trkpt lat="43.7850617" lon="11.60187"><ele>1073.0</ele><time>2026-04-18T12:25:14.925Z</time></trkpt><trkpt lat="43.7850467" lon="11.60202"><ele>1073.4</ele><time>2026-04-18T12:25:16.925Z</time></trkpt><trkpt lat="43.7850733" lon="11.6021283"><ele>1073.8</ele><time>2026-04-18T12:25:18.926Z</time></trkpt><trkpt lat="43.7851233" lon="11.602195"><ele>1074.2</ele><time>2026-04-18T12:25:20.926Z</time></trkpt><trkpt lat="43.785205" lon="11.6022233"><ele>1074.6</ele><time>2026-04-18T12:25:22.925Z</time></trkpt><trkpt lat="43.7853017" lon="11.6022317"><ele>1075.0</ele><time>2026-04-18T12:25:24.925Z</time></trkpt><trkpt lat="43.7854233" lon="11.6022783"><ele>1074.0</ele><time>2026-04-18T12:25:26.925Z</time></trkpt><trkpt lat="43.785485" lon="11.6023133"><ele>1073.0</ele><time>2026-04-18T12:25:27.925Z</time></trkpt><trkpt lat="43.7855433" lon="11.6023467"><ele>1072.0</ele><time>2026-04-18T12:25:28.926Z</time></trkpt><trkpt lat="43.7856233" lon="11.6023867"><ele>1071.0</ele><time>2026-04-18T12:25:30.926Z</time></trkpt><trkpt lat="43.7857167" lon="11.60241"><ele>1070.0</ele><time>2026-04-18T12:25:32.925Z</time></trkpt><trkpt lat="43.7858367" lon="11.6024883"><ele>1069.0</ele><time>2026-04-18T12:25:34.925Z</time></trkpt><trkpt lat="43.7859017" lon="11.602545"><ele>1069.0</ele><time>2026-04-18T12:25:35.925Z</time></trkpt><trkpt lat="43.785965" lon="11.602605"><ele>1069.0</ele><time>2026-04-18T12:25:36.925Z</time></trkpt><trkpt lat="43.7860183" lon="11.6026717"><ele>1069.0</ele><time>2026-04-18T12:25:37.925Z</time></trkpt><trkpt lat="43.7860617" lon="11.60274"><ele>1069.0</ele><time>2026-04-18T12:25:38.925Z</time></trkpt><trkpt lat="43.7861167" lon="11.6028233"><ele>1069.0</ele><time>2026-04-18T12:25:39.925Z</time></trkpt><trkpt lat="43.78617" lon="11.6029383"><ele>1069.0</ele><time>2026-04-18T12:25:40.926Z</time></trkpt><trkpt lat="43.7862283" lon="11.6030383"><ele>1070.4</ele><time>2026-04-18T12:25:41.926Z</time></trkpt><trkpt lat="43.7862733" lon="11.6031133"><ele>1071.8000000000002</ele><time>2026-04-18T12:25:42.926Z</time></trkpt><trkpt lat="43.786335" lon="11.6032233"><ele>1073.1999999999998</ele><time>2026-04-18T12:25:44.925Z</time></trkpt><trkpt lat="43.786425" lon="11.6033"><ele>1074.6</ele><time>2026-04-18T12:25:55.925Z</time></trkpt><trkpt lat="43.7865183" lon="11.6033267"><ele>1076.0</ele><time>2026-04-18T12:25:57.925Z</time></trkpt><trkpt lat="43.7866367" lon="11.60335"><ele>1076.0</ele><time>2026-04-18T12:25:59.925Z</time></trkpt><trkpt lat="43.7867533" lon="11.603385"><ele>1076.0</ele><time>2026-04-18T12:26:01.925Z</time></trkpt><trkpt lat="43.7868783" lon="11.6034183"><ele>1076.0</ele><time>2026-04-18T12:26:03.925Z</time></trkpt><trkpt lat="43.7869467" lon="11.6034367"><ele>1076.0</ele><time>2026-04-18T12:26:04.926Z</time></trkpt><trkpt lat="43.78701" lon="11.603455"><ele>1076.0</ele><time>2026-04-18T12:26:05.925Z</time></trkpt><trkpt lat="43.7870783" lon="11.6034717"><ele>1077.5</ele><time>2026-04-18T12:26:06.925Z</time></trkpt><trkpt lat="43.7871417" lon="11.6034817"><ele>1079.0</ele><time>2026-04-18T12:26:07.925Z</time></trkpt><trkpt lat="43.7872683" lon="11.6034983"><ele>1080.5</ele><time>2026-04-18T12:26:09.926Z</time></trkpt><trkpt lat="43.7873367" lon="11.6035117"><ele>1082.0</ele><time>2026-04-18T12:26:10.925Z</time></trkpt><trkpt lat="43.7874083" lon="11.6035267"><ele>1083.5</ele><time>2026-04-18T12:26:11.926Z</time></trkpt><trkpt lat="43.7874783" lon="11.6035417"><ele>1085.0</ele><time>2026-04-18T12:26:12.925Z</time></trkpt><trkpt lat="43.787545" lon="11.6035533"><ele>1085.0</ele><time>2026-04-18T12:26:13.925Z</time></trkpt><trkpt lat="43.7876083" lon="11.6035683"><ele>1085.0</ele><time>2026-04-18T12:26:14.926Z</time></trkpt><trkpt lat="43.7876733" lon="11.60358"><ele>1085.0</ele><time>2026-04-18T12:26:15.926Z</time></trkpt><trkpt lat="43.7877817" lon="11.6036133"><ele>1085.0</ele><time>2026-04-18T12:26:17.925Z</time></trkpt><trkpt lat="43.7878717" lon="11.6036417"><ele>1085.0</ele><time>2026-04-18T12:26:19.925Z</time></trkpt><trkpt lat="43.78795" lon="11.6036633"><ele>1085.0</ele><time>2026-04-18T12:26:21.925Z</time></trkpt><trkpt lat="43.78803" lon="11.6036867"><ele>1084.4</ele><time>2026-04-18T12:26:23.926Z</time></trkpt><trkpt lat="43.7881067" lon="11.6037117"><ele>1083.8</ele><time>2026-04-18T12:26:25.925Z</time></trkpt><trkpt lat="43.7881817" lon="11.6037333"><ele>1083.2</ele><time>2026-04-18T12:26:27.925Z</time></trkpt><trkpt lat="43.7882683" lon="11.6037567"><ele>1082.6</ele><time>2026-04-18T12:26:30.925Z</time></trkpt><trkpt lat="43.7883367" lon="11.6037733"><ele>1082.0</ele><time>2026-04-18T12:26:33.926Z</time></trkpt><trkpt lat="43.7884983" lon="11.6037833"><ele>1081.6</ele><time>2026-04-18T12:26:49.926Z</time></trkpt><trkpt lat="43.7885867" lon="11.6038017"><ele>1081.2</ele><time>2026-04-18T12:26:52.926Z</time></trkpt><trkpt lat="43.78868" lon="11.6038083"><ele>1080.8</ele><time>2026-04-18T12:26:55.926Z</time></trkpt><trkpt lat="43.7887517" lon="11.6038217"><ele>1080.4</ele><time>2026-04-18T12:26:57.925Z</time></trkpt><trkpt lat="43.7888383" lon="11.6038367"><ele>1080.0</ele><time>2026-04-18T12:27:00.925Z</time></trkpt><trkpt lat="43.7889483" lon="11.6038383"><ele>1080.0</ele><time>2026-04-18T12:27:06.925Z</time></trkpt><trkpt lat="43.7890367" lon="11.60381"><ele>1080.0</ele><time>2026-04-18T12:27:09.926Z</time></trkpt><trkpt lat="43.7891117" lon="11.60375"><ele>1080.0</ele><time>2026-04-18T12:27:12.925Z</time></trkpt><trkpt lat="43.7891883" lon="11.60369"><ele>1080.0</ele><time>2026-04-18T12:27:15.925Z</time></trkpt><trkpt lat="43.7892417" lon="11.60364"><ele>1080.0</ele><time>2026-04-18T12:27:17.925Z</time></trkpt><trkpt lat="43.7893033" lon="11.6036083"><ele>1080.0</ele><time>2026-04-18T12:27:19.925Z</time></trkpt><trkpt lat="43.7893733" lon="11.6035767"><ele>1081.0</ele><time>2026-04-18T12:27:21.925Z</time></trkpt><trkpt lat="43.7894567" lon="11.60353"><ele>1082.0</ele><time>2026-04-18T12:27:23.926Z</time></trkpt><trkpt lat="43.78956" lon="11.603475"><ele>1083.0</ele><time>2026-04-18T12:27:25.925Z</time></trkpt><trkpt lat="43.789665" lon="11.60342"><ele>1084.0</ele><time>2026-04-18T12:27:27.925Z</time></trkpt><trkpt lat="43.7897467" lon="11.6033783"><ele>1085.0</ele><time>2026-04-18T12:27:29.925Z</time></trkpt><trkpt lat="43.78981" lon="11.6033333"><ele>1085.0</ele><time>2026-04-18T12:27:31.925Z</time></trkpt><trkpt lat="43.7898783" lon="11.6032967"><ele>1085.0</ele><time>2026-04-18T12:27:33.925Z</time></trkpt><trkpt lat="43.7899383" lon="11.6032567"><ele>1085.0</ele><time>2026-04-18T12:27:35.925Z</time></trkpt><trkpt lat="43.790015" lon="11.60321"><ele>1085.0</ele><time>2026-04-18T12:27:38.925Z</time></trkpt><trkpt lat="43.7901017" lon="11.6031367"><ele>1085.0</ele><time>2026-04-18T12:27:44.925Z</time></trkpt><trkpt lat="43.7901683" lon="11.6030683"><ele>1085.0</ele><time>2026-04-18T12:27:47.925Z</time></trkpt><trkpt lat="43.790255" lon="11.6029217"><ele>1084.0</ele><time>2026-04-18T12:28:08.925Z</time></trkpt><trkpt lat="43.790315" lon="11.6028033"><ele>1083.0</ele><time>2026-04-18T12:28:30.925Z</time></trkpt><trkpt lat="43.790395" lon="11.60273"><ele>1082.0</ele><time>2026-04-18T12:28:51.925Z</time></trkpt><trkpt lat="43.79049" lon="11.60266"><ele>1081.0</ele><time>2026-04-18T12:28:58.925Z</time></trkpt><trkpt lat="43.7906117" lon="11.6025583"><ele>1081.0</ele><time>2026-04-18T12:29:07.925Z</time></trkpt><trkpt lat="43.7906783" lon="11.6025017"><ele>1081.0</ele><time>2026-04-18T12:29:10.925Z</time></trkpt><trkpt lat="43.79073" lon="11.6024517"><ele>1081.0</ele><time>2026-04-18T12:29:12.926Z</time></trkpt><trkpt lat="43.79081" lon="11.6023917"><ele>1081.0</ele><time>2026-04-18T12:29:15.925Z</time></trkpt><trkpt lat="43.7908833" lon="11.6023267"><ele>1081.0</ele><time>2026-04-18T12:29:18.925Z</time></trkpt><trkpt lat="43.7909417" lon="11.6022833"><ele>1081.0</ele><time>2026-04-18T12:29:20.926Z</time></trkpt><trkpt lat="43.7910183" lon="11.6022033"><ele>1079.8571428571427</ele><time>2026-04-18T12:29:22.925Z</time></trkpt><trkpt lat="43.791085" lon="11.60218"><ele>1078.7142857142858</ele><time>2026-04-18T12:29:24.925Z</time></trkpt><trkpt lat="43.7911533" lon="11.6021683"><ele>1077.5714285714284</ele><time>2026-04-18T12:29:26.925Z</time></trkpt><trkpt lat="43.7912217" lon="11.60216"><ele>1076.4285714285713</ele><time>2026-04-18T12:29:28.925Z</time></trkpt><trkpt lat="43.7912983" lon="11.60215"><ele>1075.2857142857142</ele><time>2026-04-18T12:29:30.925Z</time></trkpt><trkpt lat="43.7913817" lon="11.6021517"><ele>1074.142857142857</ele><time>2026-04-18T12:29:32.925Z</time></trkpt><trkpt lat="43.7914517" lon="11.6021533"><ele>1073.0</ele><time>2026-04-18T12:29:34.925Z</time></trkpt><trkpt lat="43.7915233" lon="11.602155"><ele>1073.0</ele><time>2026-04-18T12:29:37.925Z</time></trkpt><trkpt lat="43.7916683" lon="11.6021767"><ele>1073.0</ele><time>2026-04-18T12:29:46.925Z</time></trkpt><trkpt lat="43.791795" lon="11.6022033"><ele>1073.0</ele><time>2026-04-18T12:29:51.925Z</time></trkpt><trkpt lat="43.7918667" lon="11.6022267"><ele>1073.0</ele><time>2026-04-18T12:29:54.925Z</time></trkpt><trkpt lat="43.79193" lon="11.6022167"><ele>1073.0</ele><time>2026-04-18T12:29:58.925Z</time></trkpt><trkpt lat="43.7920017" lon="11.6022467"><ele>1071.5</ele><time>2026-04-18T12:30:03.925Z</time></trkpt><trkpt lat="43.7920667" lon="11.602255"><ele>1070.0</ele><time>2026-04-18T12:30:06.925Z</time></trkpt><trkpt lat="43.7921317" lon="11.602265"><ele>1068.5</ele><time>2026-04-18T12:30:10.925Z</time></trkpt><trkpt lat="43.79224" lon="11.6022717"><ele>1067.0</ele><time>2026-04-18T12:30:16.925Z</time></trkpt><trkpt lat="43.7923283" lon="11.6022583"><ele>1065.5</ele><time>2026-04-18T12:30:19.925Z</time></trkpt><trkpt lat="43.7924133" lon="11.60224"><ele>1064.0</ele><time>2026-04-18T12:30:22.926Z</time></trkpt><trkpt lat="43.7924883" lon="11.6022383"><ele>1064.0</ele><time>2026-04-18T12:30:26.925Z</time></trkpt><trkpt lat="43.79259" lon="11.6022367"><ele>1064.0</ele><time>2026-04-18T12:30:32.925Z</time></trkpt><trkpt lat="43.7926533" lon="11.6022583"><ele>1064.0</ele><time>2026-04-18T12:30:34.925Z</time></trkpt><trkpt lat="43.792725" lon="11.6022617"><ele>1064.0</ele><time>2026-04-18T12:30:36.925Z</time></trkpt><trkpt lat="43.7927883" lon="11.6022633"><ele>1064.0</ele><time>2026-04-18T12:30:38.925Z</time></trkpt><trkpt lat="43.7929217" lon="11.602295"><ele>1064.0</ele><time>2026-04-18T12:31:05.926Z</time></trkpt><trkpt lat="43.792835" lon="11.60233"><ele>1064.0</ele><time>2026-04-18T12:32:36.926Z</time></trkpt><trkpt lat="43.79275" lon="11.6023133"><ele>1064.0</ele><time>2026-04-18T12:32:38.926Z</time></trkpt><trkpt lat="43.792615" lon="11.6023017"><ele>1064.0</ele><time>2026-04-18T12:32:48.927Z</time></trkpt><trkpt lat="43.7925617" lon="11.60219"><ele>1064.0</ele><time>2026-04-18T12:33:00.926Z</time></trkpt><trkpt lat="43.7925417" lon="11.6020767"><ele>1064.0</ele><time>2026-04-18T12:33:03.926Z</time></trkpt><trkpt lat="43.792695" lon="11.6022517"><ele>1064.0</ele><time>2026-04-18T12:34:30.926Z</time></trkpt><trkpt lat="43.7925333" lon="11.602165"><ele>1064.0</ele><time>2026-04-18T12:35:20.926Z</time></trkpt><trkpt lat="43.7925144" lon="11.6019916"><ele>1064.0</ele><time>2026-04-18T12:35:46.01Z</time></trkpt><trkpt lat="43.792549" lon="11.6021517"><ele>1064.0</ele><time>2026-04-18T12:37:37Z</time></trkpt><trkpt lat="43.7925169" lon="11.6022407"><ele>1064.0</ele><time>2026-04-18T12:37:41.007Z</time></trkpt><trkpt lat="43.79243" lon="11.6022733"><ele>1064.0</ele><time>2026-04-18T12:37:43.926Z</time></trkpt><trkpt lat="43.792365" lon="11.60228"><ele>1064.0</ele><time>2026-04-18T12:37:47.927Z</time></trkpt><trkpt lat="43.792305" lon="11.6022517"><ele>1064.0</ele><time>2026-04-18T12:37:59.927Z</time></trkpt><trkpt lat="43.79221" lon="11.6022567"><ele>1064.0</ele><time>2026-04-18T12:38:03.927Z</time></trkpt><trkpt lat="43.792145" lon="11.6022533"><ele>1064.0</ele><time>2026-04-18T12:38:05.926Z</time></trkpt><trkpt lat="43.792065" lon="11.6022567"><ele>1064.0</ele><time>2026-04-18T12:38:07.926Z</time></trkpt><trkpt lat="43.7919733" lon="11.6022567"><ele>1064.0</ele><time>2026-04-18T12:38:09.926Z</time></trkpt><trkpt lat="43.7918767" lon="11.6022383"><ele>1064.0</ele><time>2026-04-18T12:38:11.926Z</time></trkpt><trkpt lat="43.7917933" lon="11.602235"><ele>1064.0</ele><time>2026-04-18T12:38:13.926Z</time></trkpt><trkpt lat="43.79171" lon="11.6022233"><ele>1064.0</ele><time>2026-04-18T12:38:15.927Z</time></trkpt><trkpt lat="43.79164" lon="11.60221"><ele>1064.0</ele><time>2026-04-18T12:38:17.926Z</time></trkpt><trkpt lat="43.7915583" lon="11.6022133"><ele>1065.5</ele><time>2026-04-18T12:38:19.926Z</time></trkpt><trkpt lat="43.7914783" lon="11.6022117"><ele>1067.0</ele><time>2026-04-18T12:38:21.927Z</time></trkpt><trkpt lat="43.7913983" lon="11.602215"><ele>1068.5</ele><time>2026-04-18T12:38:23.926Z</time></trkpt><trkpt lat="43.7912867" lon="11.60223"><ele>1070.0</ele><time>2026-04-18T12:38:25.926Z</time></trkpt><trkpt lat="43.7912233" lon="11.6022367"><ele>1071.5</ele><time>2026-04-18T12:38:26.926Z</time></trkpt><trkpt lat="43.7911417" lon="11.6022617"><ele>1073.0</ele><time>2026-04-18T12:38:28.926Z</time></trkpt><trkpt lat="43.7910583" lon="11.6023"><ele>1074.142857142857</ele><time>2026-04-18T12:38:30.927Z</time></trkpt><trkpt lat="43.7909967" lon="11.602335"><ele>1075.2857142857142</ele><time>2026-04-18T12:38:31.926Z</time></trkpt><trkpt lat="43.7909367" lon="11.6023783"><ele>1076.4285714285713</ele><time>2026-04-18T12:38:32.927Z</time></trkpt><trkpt lat="43.79085" lon="11.6024267"><ele>1077.5714285714284</ele><time>2026-04-18T12:38:34.927Z</time></trkpt><trkpt lat="43.7907867" lon="11.6024667"><ele>1078.7142857142858</ele><time>2026-04-18T12:38:36.926Z</time></trkpt><trkpt lat="43.7907283" lon="11.6025067"><ele>1079.8571428571427</ele><time>2026-04-18T12:38:38.926Z</time></trkpt><trkpt lat="43.790675" lon="11.6025533"><ele>1081.0</ele><time>2026-04-18T12:38:40.927Z</time></trkpt><trkpt lat="43.7906183" lon="11.6026067"><ele>1081.0</ele><time>2026-04-18T12:38:43.926Z</time></trkpt><trkpt lat="43.7905133" lon="11.6026383"><ele>1081.0</ele><time>2026-04-18T12:39:09.926Z</time></trkpt><trkpt lat="43.7904" lon="11.6027567"><ele>1081.0</ele><time>2026-04-18T12:39:46.927Z</time></trkpt><trkpt lat="43.7903383" lon="11.6028767"><ele>1081.0</ele><time>2026-04-18T12:40:07.927Z</time></trkpt><trkpt lat="43.7902967" lon="11.60297"><ele>1081.0</ele><time>2026-04-18T12:40:10.926Z</time></trkpt><trkpt lat="43.7902433" lon="11.60306"><ele>1081.5714285714284</ele><time>2026-04-18T12:40:13.927Z</time></trkpt><trkpt lat="43.790195" lon="11.6031167"><ele>1082.142857142857</ele><time>2026-04-18T12:40:15.926Z</time></trkpt><trkpt lat="43.7901417" lon="11.6031717"><ele>1082.7142857142858</ele><time>2026-04-18T12:40:17.927Z</time></trkpt><trkpt lat="43.790065" lon="11.6032233"><ele>1083.2857142857142</ele><time>2026-04-18T12:40:19.927Z</time></trkpt><trkpt lat="43.7899983" lon="11.6032667"><ele>1083.857142857143</ele><time>2026-04-18T12:40:21.926Z</time></trkpt><trkpt lat="43.7899383" lon="11.6033083"><ele>1084.4285714285713</ele><time>2026-04-18T12:40:23.927Z</time></trkpt><trkpt lat="43.7898667" lon="11.6033567"><ele>1085.0</ele><time>2026-04-18T12:40:26.926Z</time></trkpt><trkpt lat="43.7897933" lon="11.6034033"><ele>1085.0</ele><time>2026-04-18T12:40:29.927Z</time></trkpt><trkpt lat="43.7897267" lon="11.6034567"><ele>1085.0</ele><time>2026-04-18T12:40:34.926Z</time></trkpt><trkpt lat="43.789665" lon="11.6034883"><ele>1085.0</ele><time>2026-04-18T12:40:36.926Z</time></trkpt><trkpt lat="43.7895967" lon="11.6035217"><ele>1085.0</ele><time>2026-04-18T12:40:38.927Z</time></trkpt><trkpt lat="43.7895217" lon="11.6035667"><ele>1085.0</ele><time>2026-04-18T12:40:41.927Z</time></trkpt><trkpt lat="43.789465" lon="11.6036133"><ele>1085.0</ele><time>2026-04-18T12:40:45.926Z</time></trkpt><trkpt lat="43.789405" lon="11.60365"><ele>1085.0</ele><time>2026-04-18T12:40:48.926Z</time></trkpt><trkpt lat="43.7893483" lon="11.603705"><ele>1084.1666666666667</ele><time>2026-04-18T12:40:51.927Z</time></trkpt><trkpt lat="43.789275" lon="11.60377"><ele>1083.3333333333335</ele><time>2026-04-18T12:40:54.927Z</time></trkpt><trkpt lat="43.7892183" lon="11.6038133"><ele>1082.5</ele><time>2026-04-18T12:40:56.926Z</time></trkpt><trkpt lat="43.789155" lon="11.6038567"><ele>1081.6666666666667</ele><time>2026-04-18T12:40:59.927Z</time></trkpt><trkpt lat="43.789035" lon="11.6038967"><ele>1080.8333333333333</ele><time>2026-04-18T12:41:05.926Z</time></trkpt><trkpt lat="43.7889633" lon="11.6038917"><ele>1080.0</ele><time>2026-04-18T12:41:07.926Z</time></trkpt><trkpt lat="43.7888617" lon="11.60387"><ele>1080.0</ele><time>2026-04-18T12:41:09.926Z</time></trkpt><trkpt lat="43.7887667" lon="11.6038517"><ele>1080.0</ele><time>2026-04-18T12:41:11.926Z</time></trkpt><trkpt lat="43.7887017" lon="11.60384"><ele>1080.0</ele><time>2026-04-18T12:41:12.926Z</time></trkpt><trkpt lat="43.7885983" lon="11.60382"><ele>1080.0</ele><time>2026-04-18T12:41:14.927Z</time></trkpt><trkpt lat="43.7885017" lon="11.6038"><ele>1080.0</ele><time>2026-04-18T12:41:16.926Z</time></trkpt><trkpt lat="43.7883767" lon="11.6037683"><ele>1079.857142857143</ele><time>2026-04-18T12:41:18.926Z</time></trkpt><trkpt lat="43.78831" lon="11.6037567"><ele>1079.7142857142856</ele><time>2026-04-18T12:41:19.926Z</time></trkpt><trkpt lat="43.78822" lon="11.6037417"><ele>1079.5714285714284</ele><time>2026-04-18T12:41:20.926Z</time></trkpt><trkpt lat="43.7881517" lon="11.6037183"><ele>1079.4285714285713</ele><time>2026-04-18T12:41:21.926Z</time></trkpt><trkpt lat="43.7880833" lon="11.603705"><ele>1079.2857142857142</ele><time>2026-04-18T12:41:22.926Z</time></trkpt><trkpt lat="43.788015" lon="11.6036817"><ele>1079.142857142857</ele><time>2026-04-18T12:41:23.926Z</time></trkpt><trkpt lat="43.7879517" lon="11.6036633"><ele>1079.0</ele><time>2026-04-18T12:41:24.927Z</time></trkpt><trkpt lat="43.7878317" lon="11.60363"><ele>1079.0</ele><time>2026-04-18T12:41:26.926Z</time></trkpt><trkpt lat="43.7877333" lon="11.603605"><ele>1079.0</ele><time>2026-04-18T12:41:28.926Z</time></trkpt><trkpt lat="43.7876233" lon="11.6035983"><ele>1079.0</ele><time>2026-04-18T12:41:30.926Z</time></trkpt><trkpt lat="43.78751" lon="11.6035717"><ele>1079.0</ele><time>2026-04-18T12:41:32.926Z</time></trkpt><trkpt lat="43.7874083" lon="11.6035583"><ele>1079.0</ele><time>2026-04-18T12:41:34.926Z</time></trkpt><trkpt lat="43.7873117" lon="11.6035367"><ele>1078.5</ele><time>2026-04-18T12:41:36.926Z</time></trkpt><trkpt lat="43.7872283" lon="11.6035133"><ele>1078.0</ele><time>2026-04-18T12:41:38.926Z</time></trkpt><trkpt lat="43.7871483" lon="11.6034917"><ele>1077.5</ele><time>2026-04-18T12:41:40.926Z</time></trkpt><trkpt lat="43.7870583" lon="11.603475"><ele>1077.0</ele><time>2026-04-18T12:41:42.926Z</time></trkpt><trkpt lat="43.7869733" lon="11.6034583"><ele>1076.5</ele><time>2026-04-18T12:41:44.926Z</time></trkpt><trkpt lat="43.7868883" lon="11.6034517"><ele>1076.0</ele><time>2026-04-18T12:41:46.926Z</time></trkpt><trkpt lat="43.78681" lon="11.60343"><ele>1076.0</ele><time>2026-04-18T12:41:48.926Z</time></trkpt><trkpt lat="43.7867233" lon="11.6034"><ele>1076.0</ele><time>2026-04-18T12:41:50.926Z</time></trkpt><trkpt lat="43.786645" lon="11.6033867"><ele>1076.0</ele><time>2026-04-18T12:41:52.926Z</time></trkpt><trkpt lat="43.7865817" lon="11.60336"><ele>1076.0</ele><time>2026-04-18T12:41:54.927Z</time></trkpt><trkpt lat="43.7865067" lon="11.60334"><ele>1076.0</ele><time>2026-04-18T12:41:56.926Z</time></trkpt><trkpt lat="43.7864318" lon="11.6033207"><ele>1076.0</ele><time>2026-04-18T12:41:59.056Z</time></trkpt><trkpt lat="43.7862278" lon="11.6033448"><ele>1075.0</ele><time>2026-04-18T12:42:17.987Z</time></trkpt><trkpt lat="43.7860067" lon="11.603515"><ele>1074.0</ele><time>2026-04-18T12:42:19.926Z</time></trkpt><trkpt lat="43.7859183" lon="11.60352"><ele>1073.0</ele><time>2026-04-18T12:42:21.927Z</time></trkpt><trkpt lat="43.7858617" lon="11.6035583"><ele>1072.0</ele><time>2026-04-18T12:42:22.926Z</time></trkpt><trkpt lat="43.7859417" lon="11.6035583"><ele>1072.0</ele><time>2026-04-18T12:42:30.926Z</time></trkpt><trkpt lat="43.78588" lon="11.6035283"><ele>1072.0</ele><time>2026-04-18T12:42:36.926Z</time></trkpt><trkpt lat="43.7858417" lon="11.603425"><ele>1072.0</ele><time>2026-04-18T12:42:42.927Z</time></trkpt><trkpt lat="43.7857783" lon="11.6033617"><ele>1072.0</ele><time>2026-04-18T12:42:44.926Z</time></trkpt><trkpt lat="43.785725" lon="11.6032717"><ele>1072.0</ele><time>2026-04-18T12:42:46.926Z</time></trkpt><trkpt lat="43.7856683" lon="11.6031783"><ele>1072.0</ele><time>2026-04-18T12:42:48.926Z</time></trkpt><trkpt lat="43.7856067" lon="11.603095"><ele>1072.0</ele><time>2026-04-18T12:42:50.926Z</time></trkpt><trkpt lat="43.7855283" lon="11.6030467"><ele>1072.0</ele><time>2026-04-18T12:42:52.927Z</time></trkpt><trkpt lat="43.78542" lon="11.6029933"><ele>1072.0</ele><time>2026-04-18T12:42:54.927Z</time></trkpt><trkpt lat="43.7853133" lon="11.6029317"><ele>1072.0</ele><time>2026-04-18T12:42:56.926Z</time></trkpt><trkpt lat="43.785205" lon="11.602875"><ele>1072.0</ele><time>2026-04-18T12:42:58.927Z</time></trkpt><trkpt lat="43.7851083" lon="11.602825"><ele>1072.6</ele><time>2026-04-18T12:43:00.927Z</time></trkpt><trkpt lat="43.7850467" lon="11.6028033"><ele>1073.2</ele><time>2026-04-18T12:43:02.926Z</time></trkpt><trkpt lat="43.7849317" lon="11.6027767"><ele>1073.8</ele><time>2026-04-18T12:43:08.926Z</time></trkpt><trkpt lat="43.784855" lon="11.6027017"><ele>1074.4</ele><time>2026-04-18T12:43:11.927Z</time></trkpt><trkpt lat="43.7847983" lon="11.602605"><ele>1075.0</ele><time>2026-04-18T12:43:13.926Z</time></trkpt><trkpt lat="43.784745" lon="11.6025117"><ele>1075.0</ele><time>2026-04-18T12:43:15.927Z</time></trkpt><trkpt lat="43.7846933" lon="11.60242"><ele>1075.0</ele><time>2026-04-18T12:43:17.926Z</time></trkpt><trkpt lat="43.784645" lon="11.602345"><ele>1075.0</ele><time>2026-04-18T12:43:19.926Z</time></trkpt><trkpt lat="43.7846067" lon="11.6022533"><ele>1075.0</ele><time>2026-04-18T12:43:21.927Z</time></trkpt><trkpt lat="43.7845417" lon="11.6021467"><ele>1075.0</ele><time>2026-04-18T12:43:23.926Z</time></trkpt><trkpt lat="43.7844583" lon="11.6020133"><ele>1074.6</ele><time>2026-04-18T12:43:25.926Z</time></trkpt><trkpt lat="43.7844033" lon="11.6018817"><ele>1074.2</ele><time>2026-04-18T12:43:27.926Z</time></trkpt><trkpt lat="43.7843383" lon="11.60174"><ele>1073.8</ele><time>2026-04-18T12:43:29.927Z</time></trkpt><trkpt lat="43.7843033" lon="11.6016667"><ele>1073.4</ele><time>2026-04-18T12:43:30.926Z</time></trkpt><trkpt lat="43.78423" lon="11.6015817"><ele>1073.0</ele><time>2026-04-18T12:43:32.926Z</time></trkpt><trkpt lat="43.7841583" lon="11.6015117"><ele>1074.0</ele><time>2026-04-18T12:43:35.927Z</time></trkpt><trkpt lat="43.7840883" lon="11.6014583"><ele>1075.0</ele><time>2026-04-18T12:43:38.927Z</time></trkpt><trkpt lat="43.784" lon="11.6013933"><ele>1076.0</ele><time>2026-04-18T12:43:44.926Z</time></trkpt><trkpt lat="43.7839283" lon="11.6013367"><ele>1077.0</ele><time>2026-04-18T12:43:46.926Z</time></trkpt><trkpt lat="43.78384" lon="11.6012633"><ele>1078.0</ele><time>2026-04-18T12:43:48.927Z</time></trkpt><trkpt lat="43.7837667" lon="11.60118"><ele>1076.8333333333333</ele><time>2026-04-18T12:43:50.928Z</time></trkpt><trkpt lat="43.78369" lon="11.6011283"><ele>1075.6666666666665</ele><time>2026-04-18T12:43:52.927Z</time></trkpt><trkpt lat="43.7836083" lon="11.601105"><ele>1074.5</ele><time>2026-04-18T12:43:54.927Z</time></trkpt><trkpt lat="43.7835283" lon="11.6011"><ele>1073.3333333333333</ele><time>2026-04-18T12:43:57.928Z</time></trkpt><trkpt lat="43.78346" lon="11.601055"><ele>1072.1666666666667</ele><time>2026-04-18T12:44:07.927Z</time></trkpt><trkpt lat="43.7834133" lon="11.6009683"><ele>1071.0</ele><time>2026-04-18T12:44:11.927Z</time></trkpt><trkpt lat="43.783355" lon="11.6009283"><ele>1070.2857142857142</ele><time>2026-04-18T12:44:15.927Z</time></trkpt><trkpt lat="43.7832917" lon="11.6009217"><ele>1069.5714285714284</ele><time>2026-04-18T12:44:18.927Z</time></trkpt><trkpt lat="43.7832133" lon="11.6009033"><ele>1068.857142857143</ele><time>2026-04-18T12:44:30.927Z</time></trkpt><trkpt lat="43.7831467" lon="11.6009333"><ele>1068.142857142857</ele><time>2026-04-18T12:44:33.927Z</time></trkpt><trkpt lat="43.7830767" lon="11.6009717"><ele>1067.4285714285713</ele><time>2026-04-18T12:44:35.928Z</time></trkpt><trkpt lat="43.78302" lon="11.6010167"><ele>1066.7142857142858</ele><time>2026-04-18T12:44:38.928Z</time></trkpt><trkpt lat="43.7829433" lon="11.60104"><ele>1066.0</ele><time>2026-04-18T12:45:05.927Z</time></trkpt><trkpt lat="43.78294" lon="11.6009217"><ele>1066.0</ele><time>2026-04-18T12:45:07.928Z</time></trkpt><trkpt lat="43.7829783" lon="11.6007367"><ele>1066.0</ele><time>2026-04-18T12:45:09.927Z</time></trkpt><trkpt lat="43.7829833" lon="11.6006183"><ele>1066.0</ele><time>2026-04-18T12:45:10.927Z</time></trkpt><trkpt lat="43.7829817" lon="11.600495"><ele>1066.0</ele><time>2026-04-18T12:45:11.928Z</time></trkpt><trkpt lat="43.78298" lon="11.6003633"><ele>1066.0</ele><time>2026-04-18T12:45:12.927Z</time></trkpt><trkpt lat="43.7829733" lon="11.6002267"><ele>1064.0</ele><time>2026-04-18T12:45:13.927Z</time></trkpt><trkpt lat="43.7829633" lon="11.6000883"><ele>1062.0</ele><time>2026-04-18T12:45:14.927Z</time></trkpt><trkpt lat="43.7829567" lon="11.599945"><ele>1060.0</ele><time>2026-04-18T12:45:15.927Z</time></trkpt><trkpt lat="43.78294" lon="11.5998033"><ele>1058.0</ele><time>2026-04-18T12:45:16.928Z</time></trkpt><trkpt lat="43.78293" lon="11.5996617"><ele>1056.0</ele><time>2026-04-18T12:45:17.927Z</time></trkpt><trkpt lat="43.7829233" lon="11.5995267"><ele>1055.0</ele><time>2026-04-18T12:45:18.927Z</time></trkpt><trkpt lat="43.78292" lon="11.5993867"><ele>1054.0</ele><time>2026-04-18T12:45:19.927Z</time></trkpt><trkpt lat="43.7829117" lon="11.5992383"><ele>1053.0</ele><time>2026-04-18T12:45:20.927Z</time></trkpt><trkpt lat="43.7828933" lon="11.599085"><ele>1052.0</ele><time>2026-04-18T12:45:21.928Z</time></trkpt><trkpt lat="43.782865" lon="11.5989217"><ele>1051.0</ele><time>2026-04-18T12:45:22.927Z</time></trkpt><trkpt lat="43.782815" lon="11.5987717"><ele>1052.75</ele><time>2026-04-18T12:45:23.928Z</time></trkpt><trkpt lat="43.78277" lon="11.598615"><ele>1054.5</ele><time>2026-04-18T12:45:24.927Z</time></trkpt><trkpt lat="43.7827217" lon="11.598465"><ele>1056.25</ele><time>2026-04-18T12:45:25.928Z</time></trkpt><trkpt lat="43.78265" lon="11.5983167"><ele>1058.0</ele><time>2026-04-18T12:45:26.927Z</time></trkpt><trkpt lat="43.7825683" lon="11.5981817"><ele>1053.5</ele><time>2026-04-18T12:45:27.927Z</time></trkpt><trkpt lat="43.7824817" lon="11.5980717"><ele>1049.0</ele><time>2026-04-18T12:45:28.928Z</time></trkpt><trkpt lat="43.782395" lon="11.5979767"><ele>1044.5</ele><time>2026-04-18T12:45:29.927Z</time></trkpt><trkpt lat="43.78229" lon="11.5979033"><ele>1040.0</ele><time>2026-04-18T12:45:30.928Z</time></trkpt><trkpt lat="43.78219" lon="11.597835"><ele>1040.0</ele><time>2026-04-18T12:45:31.928Z</time></trkpt><trkpt lat="43.7820917" lon="11.597775"><ele>1040.0</ele><time>2026-04-18T12:45:32.927Z</time></trkpt><trkpt lat="43.7819983" lon="11.5977267"><ele>1040.0</ele><time>2026-04-18T12:45:33.928Z</time></trkpt><trkpt lat="43.7819033" lon="11.59767"><ele>1040.0</ele><time>2026-04-18T12:45:34.928Z</time></trkpt><trkpt lat="43.7818117" lon="11.597605"><ele>1040.0</ele><time>2026-04-18T12:45:35.928Z</time></trkpt><trkpt lat="43.7817267" lon="11.59753"><ele>1037.0</ele><time>2026-04-18T12:45:36.927Z</time></trkpt><trkpt lat="43.781635" lon="11.597465"><ele>1034.0</ele><time>2026-04-18T12:45:37.927Z</time></trkpt><trkpt lat="43.7815583" lon="11.5973967"><ele>1031.0</ele><time>2026-04-18T12:45:38.927Z</time></trkpt><trkpt lat="43.7814733" lon="11.59735"><ele>1028.0</ele><time>2026-04-18T12:45:39.927Z</time></trkpt><trkpt lat="43.7813967" lon="11.59728"><ele>1025.0</ele><time>2026-04-18T12:45:40.927Z</time></trkpt><trkpt lat="43.781335" lon="11.597205"><ele>1024.9999999999998</ele><time>2026-04-18T12:45:41.927Z</time></trkpt><trkpt lat="43.7812783" lon="11.59713"><ele>1025.0</ele><time>2026-04-18T12:45:42.927Z</time></trkpt><trkpt lat="43.78123" lon="11.5970667"><ele>1025.0</ele><time>2026-04-18T12:45:43.928Z</time></trkpt><trkpt lat="43.78117" lon="11.5970183"><ele>1025.0</ele><time>2026-04-18T12:45:44.927Z</time></trkpt><trkpt lat="43.7811367" lon="11.5969317"><ele>1025.0</ele><time>2026-04-18T12:45:45.927Z</time></trkpt><trkpt lat="43.781105" lon="11.5968417"><ele>1024.9999999999998</ele><time>2026-04-18T12:45:46.928Z</time></trkpt><trkpt lat="43.7810833" lon="11.5967417"><ele>1025.0</ele><time>2026-04-18T12:45:47.927Z</time></trkpt><trkpt lat="43.78105" lon="11.5966483"><ele>1024.5</ele><time>2026-04-18T12:45:48.927Z</time></trkpt><trkpt lat="43.7810117" lon="11.5965467"><ele>1024.0</ele><time>2026-04-18T12:45:49.927Z</time></trkpt><trkpt lat="43.7809583" lon="11.5964717"><ele>1023.5</ele><time>2026-04-18T12:45:50.928Z</time></trkpt><trkpt lat="43.7809" lon="11.59642"><ele>1023.0</ele><time>2026-04-18T12:45:51.927Z</time></trkpt><trkpt lat="43.780845" lon="11.59637"><ele>1022.5000000000001</ele><time>2026-04-18T12:45:52.928Z</time></trkpt><trkpt lat="43.78076" lon="11.596295"><ele>1022.0</ele><time>2026-04-18T12:45:54.928Z</time></trkpt><trkpt lat="43.7807167" lon="11.5962083"><ele>1021.0</ele><time>2026-04-18T12:46:01.927Z</time></trkpt><trkpt lat="43.7806433" lon="11.5961067"><ele>1020.0</ele><time>2026-04-18T12:46:08.928Z</time></trkpt><trkpt lat="43.78059" lon="11.596035"><ele>1019.0</ele><time>2026-04-18T12:46:11.927Z</time></trkpt><trkpt lat="43.7804617" lon="11.5959183"><ele>1018.0</ele><time>2026-04-18T12:46:13.927Z</time></trkpt><trkpt lat="43.78037" lon="11.5958333"><ele>1017.0</ele><time>2026-04-18T12:46:14.927Z</time></trkpt><trkpt lat="43.7802867" lon="11.5957483"><ele>1017.0</ele><time>2026-04-18T12:46:15.927Z</time></trkpt><trkpt lat="43.7801983" lon="11.5956533"><ele>1017.0</ele><time>2026-04-18T12:46:16.927Z</time></trkpt><trkpt lat="43.7801083" lon="11.5955617"><ele>1017.0</ele><time>2026-04-18T12:46:17.928Z</time></trkpt><trkpt lat="43.7800117" lon="11.59545"><ele>1017.0</ele><time>2026-04-18T12:46:18.927Z</time></trkpt><trkpt lat="43.7799283" lon="11.5953567"><ele>1017.2</ele><time>2026-04-18T12:46:19.927Z</time></trkpt><trkpt lat="43.779855" lon="11.5952517"><ele>1017.4000000000001</ele><time>2026-04-18T12:46:20.928Z</time></trkpt><trkpt lat="43.7797817" lon="11.5951383"><ele>1017.5999999999999</ele><time>2026-04-18T12:46:21.928Z</time></trkpt><trkpt lat="43.7797217" lon="11.5949967"><ele>1017.8</ele><time>2026-04-18T12:46:22.927Z</time></trkpt><trkpt lat="43.7796767" lon="11.5948533"><ele>1018.0</ele><time>2026-04-18T12:46:23.927Z</time></trkpt><trkpt lat="43.77966" lon="11.594725"><ele>1018.0</ele><time>2026-04-18T12:46:24.928Z</time></trkpt><trkpt lat="43.779665" lon="11.5946167"><ele>1018.0</ele><time>2026-04-18T12:46:25.928Z</time></trkpt><trkpt lat="43.779685" lon="11.59451"><ele>1018.0</ele><time>2026-04-18T12:46:26.927Z</time></trkpt><trkpt lat="43.7797117" lon="11.5943633"><ele>1018.0</ele><time>2026-04-18T12:46:28.927Z</time></trkpt><trkpt lat="43.7796217" lon="11.5942683"><ele>1018.0</ele><time>2026-04-18T12:47:53.927Z</time></trkpt><trkpt lat="43.7796133" lon="11.5941117"><ele>1018.2</ele><time>2026-04-18T12:49:07.927Z</time></trkpt><trkpt lat="43.7795983" lon="11.5940067"><ele>1018.4</ele><time>2026-04-18T12:49:08.927Z</time></trkpt><trkpt lat="43.7795917" lon="11.5938633"><ele>1018.6000000000001</ele><time>2026-04-18T12:49:09.927Z</time></trkpt><trkpt lat="43.7795967" lon="11.5937183"><ele>1018.8000000000001</ele><time>2026-04-18T12:49:10.928Z</time></trkpt><trkpt lat="43.7796017" lon="11.5935867"><ele>1019.0</ele><time>2026-04-18T12:49:11.927Z</time></trkpt><trkpt lat="43.7796283" lon="11.5934417"><ele>1019.0</ele><time>2026-04-18T12:49:12.928Z</time></trkpt><trkpt lat="43.77965" lon="11.5933"><ele>1019.0000000000001</ele><time>2026-04-18T12:49:13.928Z</time></trkpt><trkpt lat="43.77967" lon="11.5931867"><ele>1019.0000000000001</ele><time>2026-04-18T12:49:14.927Z</time></trkpt><trkpt lat="43.7796867" lon="11.5930867"><ele>1019.0</ele><time>2026-04-18T12:49:15.928Z</time></trkpt><trkpt lat="43.7796883" lon="11.5929467"><ele>1019.0</ele><time>2026-04-18T12:49:17.928Z</time></trkpt><trkpt lat="43.7796133" lon="11.59285"><ele>1018.8000000000001</ele><time>2026-04-18T12:49:35.927Z</time></trkpt><trkpt lat="43.7795333" lon="11.5926967"><ele>1018.6000000000001</ele><time>2026-04-18T12:49:37.927Z</time></trkpt><trkpt lat="43.7794483" lon="11.59261"><ele>1018.4</ele><time>2026-04-18T12:49:38.927Z</time></trkpt><trkpt lat="43.779385" lon="11.592565"><ele>1018.2</ele><time>2026-04-18T12:49:39.927Z</time></trkpt><trkpt lat="43.7792983" lon="11.5925167"><ele>1018.0</ele><time>2026-04-18T12:49:40.927Z</time></trkpt><trkpt lat="43.7792083" lon="11.5924683"><ele>1019.0</ele><time>2026-04-18T12:49:41.927Z</time></trkpt><trkpt lat="43.779095" lon="11.5924467"><ele>1020.0</ele><time>2026-04-18T12:49:42.927Z</time></trkpt><trkpt lat="43.7789833" lon="11.5924367"><ele>1021.0</ele><time>2026-04-18T12:49:43.928Z</time></trkpt><trkpt lat="43.7788583" lon="11.59246"><ele>1022.0</ele><time>2026-04-18T12:49:44.928Z</time></trkpt><trkpt lat="43.7787483" lon="11.5925133"><ele>1022.0</ele><time>2026-04-18T12:49:45.928Z</time></trkpt><trkpt lat="43.7786367" lon="11.592565"><ele>1022.0</ele><time>2026-04-18T12:49:46.928Z</time></trkpt><trkpt lat="43.778535" lon="11.592605"><ele>1022.0</ele><time>2026-04-18T12:49:47.927Z</time></trkpt><trkpt lat="43.7784283" lon="11.5926417"><ele>1022.0</ele><time>2026-04-18T12:49:48.927Z</time></trkpt><trkpt lat="43.7783283" lon="11.5926517"><ele>1022.0</ele><time>2026-04-18T12:49:49.927Z</time></trkpt><trkpt lat="43.7782483" lon="11.59261"><ele>1021.8</ele><time>2026-04-18T12:49:50.927Z</time></trkpt><trkpt lat="43.7782117" lon="11.5925"><ele>1021.6</ele><time>2026-04-18T12:49:51.928Z</time></trkpt><trkpt lat="43.7781983" lon="11.5923767"><ele>1021.3999999999999</ele><time>2026-04-18T12:49:52.928Z</time></trkpt><trkpt lat="43.7781967" lon="11.59224"><ele>1021.1999999999999</ele><time>2026-04-18T12:49:53.927Z</time></trkpt><trkpt lat="43.7782183" lon="11.5921067"><ele>1021.0</ele><time>2026-04-18T12:49:54.928Z</time></trkpt><trkpt lat="43.7782533" lon="11.5919617"><ele>1021.0</ele><time>2026-04-18T12:49:55.927Z</time></trkpt><trkpt lat="43.7782817" lon="11.5918233"><ele>1020.9999999999999</ele><time>2026-04-18T12:49:56.928Z</time></trkpt><trkpt lat="43.7783067" lon="11.5916783"><ele>1020.9999999999999</ele><time>2026-04-18T12:49:57.927Z</time></trkpt><trkpt lat="43.778325" lon="11.5915217"><ele>1021.0</ele><time>2026-04-18T12:49:58.927Z</time></trkpt><trkpt lat="43.7783383" lon="11.59138"><ele>1021.0</ele><time>2026-04-18T12:49:59.928Z</time></trkpt><trkpt lat="43.7783267" lon="11.5912383"><ele>1021.0</ele><time>2026-04-18T12:50:00.928Z</time></trkpt><trkpt lat="43.778315" lon="11.5910967"><ele>1020.9999999999999</ele><time>2026-04-18T12:50:01.927Z</time></trkpt><trkpt lat="43.77831" lon="11.5909467"><ele>1020.9999999999999</ele><time>2026-04-18T12:50:02.927Z</time></trkpt><trkpt lat="43.7782967" lon="11.5907983"><ele>1021.0</ele><time>2026-04-18T12:50:03.927Z</time></trkpt><trkpt lat="43.7782833" lon="11.5906433"><ele>1021.0</ele><time>2026-04-18T12:50:04.927Z</time></trkpt><trkpt lat="43.778275" lon="11.59049"><ele>1021.5</ele><time>2026-04-18T12:50:05.928Z</time></trkpt><trkpt lat="43.7782683" lon="11.5903333"><ele>1022.0</ele><time>2026-04-18T12:50:06.927Z</time></trkpt><trkpt lat="43.7782683" lon="11.590185"><ele>1022.5</ele><time>2026-04-18T12:50:07.927Z</time></trkpt><trkpt lat="43.7782883" lon="11.59003"><ele>1023.0</ele><time>2026-04-18T12:50:08.927Z</time></trkpt><trkpt lat="43.7783383" lon="11.5898783"><ele>1023.0</ele><time>2026-04-18T12:50:09.927Z</time></trkpt><trkpt lat="43.7784167" lon="11.589745"><ele>1023.0</ele><time>2026-04-18T12:50:10.928Z</time></trkpt><trkpt lat="43.77849" lon="11.5896267"><ele>1023.0</ele><time>2026-04-18T12:50:11.927Z</time></trkpt><trkpt lat="43.7785683" lon="11.5895267"><ele>1023.0</ele><time>2026-04-18T12:50:12.928Z</time></trkpt><trkpt lat="43.7786533" lon="11.5894183"><ele>1018.5</ele><time>2026-04-18T12:50:13.928Z</time></trkpt><trkpt lat="43.7787283" lon="11.58929"><ele>1014.0</ele><time>2026-04-18T12:50:14.927Z</time></trkpt><trkpt lat="43.77879" lon="11.5891467"><ele>1009.5</ele><time>2026-04-18T12:50:15.928Z</time></trkpt><trkpt lat="43.7788367" lon="11.58899"><ele>1005.0</ele><time>2026-04-18T12:50:16.927Z</time></trkpt><trkpt lat="43.7788917" lon="11.5888383"><ele>1005.0</ele><time>2026-04-18T12:50:17.927Z</time></trkpt><trkpt lat="43.7789333" lon="11.5886917"><ele>1005.0</ele><time>2026-04-18T12:50:18.927Z</time></trkpt><trkpt lat="43.7789517" lon="11.58852"><ele>1005.0</ele><time>2026-04-18T12:50:19.927Z</time></trkpt><trkpt lat="43.7789517" lon="11.5883367"><ele>1005.0</ele><time>2026-04-18T12:50:20.927Z</time></trkpt><trkpt lat="43.7789483" lon="11.5881433"><ele>1006.25</ele><time>2026-04-18T12:50:21.927Z</time></trkpt><trkpt lat="43.7789467" lon="11.5879367"><ele>1007.5</ele><time>2026-04-18T12:50:22.927Z</time></trkpt><trkpt lat="43.7789517" lon="11.5877383"><ele>1008.75</ele><time>2026-04-18T12:50:23.927Z</time></trkpt><trkpt lat="43.7789717" lon="11.5875567"><ele>1010.0</ele><time>2026-04-18T12:50:24.927Z</time></trkpt><trkpt lat="43.7789983" lon="11.5873833"><ele>1011.0</ele><time>2026-04-18T12:50:25.927Z</time></trkpt><trkpt lat="43.7790283" lon="11.58722"><ele>1012.0</ele><time>2026-04-18T12:50:26.927Z</time></trkpt><trkpt lat="43.779055" lon="11.5870633"><ele>1013.0</ele><time>2026-04-18T12:50:27.928Z</time></trkpt><trkpt lat="43.7791017" lon="11.5869133"><ele>1014.0</ele><time>2026-04-18T12:50:28.927Z</time></trkpt><trkpt lat="43.7791617" lon="11.586775"><ele>1014.6</ele><time>2026-04-18T12:50:29.928Z</time></trkpt><trkpt lat="43.7792417" lon="11.5866583"><ele>1015.2</ele><time>2026-04-18T12:50:30.927Z</time></trkpt><trkpt lat="43.7793267" lon="11.5865567"><ele>1015.8000000000001</ele><time>2026-04-18T12:50:31.927Z</time></trkpt><trkpt lat="43.779405" lon="11.58646"><ele>1016.4000000000001</ele><time>2026-04-18T12:50:32.927Z</time></trkpt><trkpt lat="43.7794767" lon="11.5863667"><ele>1017.0</ele><time>2026-04-18T12:50:33.927Z</time></trkpt><trkpt lat="43.7795433" lon="11.5862767"><ele>1017.2</ele><time>2026-04-18T12:50:34.928Z</time></trkpt><trkpt lat="43.779595" lon="11.586175"><ele>1017.4000000000001</ele><time>2026-04-18T12:50:35.928Z</time></trkpt><trkpt lat="43.7796267" lon="11.586065"><ele>1017.5999999999999</ele><time>2026-04-18T12:50:36.927Z</time></trkpt><trkpt lat="43.7796383" lon="11.5859417"><ele>1017.8</ele><time>2026-04-18T12:50:37.927Z</time></trkpt><trkpt lat="43.7796383" lon="11.5858"><ele>1018.0</ele><time>2026-04-18T12:50:38.927Z</time></trkpt><trkpt lat="43.779645" lon="11.5856683"><ele>1018.0</ele><time>2026-04-18T12:50:39.927Z</time></trkpt><trkpt lat="43.7797117" lon="11.5855583"><ele>1018.0</ele><time>2026-04-18T12:50:40.927Z</time></trkpt><trkpt lat="43.7798133" lon="11.5854683"><ele>1018.0</ele><time>2026-04-18T12:50:41.927Z</time></trkpt><trkpt lat="43.7799217" lon="11.5853933"><ele>1018.0</ele><time>2026-04-18T12:50:42.927Z</time></trkpt><trkpt lat="43.780015" lon="11.58531"><ele>1016.0</ele><time>2026-04-18T12:50:43.927Z</time></trkpt><trkpt lat="43.7801183" lon="11.5852033"><ele>1014.0</ele><time>2026-04-18T12:50:44.927Z</time></trkpt><trkpt lat="43.7802233" lon="11.5850717"><ele>1012.0</ele><time>2026-04-18T12:50:45.927Z</time></trkpt><trkpt lat="43.780325" lon="11.5849233"><ele>1010.0</ele><time>2026-04-18T12:50:46.927Z</time></trkpt><trkpt lat="43.780425" lon="11.584765"><ele>1009.5</ele><time>2026-04-18T12:50:47.928Z</time></trkpt><trkpt lat="43.7805267" lon="11.5846233"><ele>1009.0</ele><time>2026-04-18T12:50:48.927Z</time></trkpt><trkpt lat="43.7806233" lon="11.584505"><ele>1008.5</ele><time>2026-04-18T12:50:49.927Z</time></trkpt><trkpt lat="43.7807117" lon="11.5843867"><ele>1008.0</ele><time>2026-04-18T12:50:50.927Z</time></trkpt><trkpt lat="43.7807867" lon="11.5842667"><ele>1005.4</ele><time>2026-04-18T12:50:51.927Z</time></trkpt><trkpt lat="43.780835" lon="11.5841317"><ele>1002.8</ele><time>2026-04-18T12:50:52.927Z</time></trkpt><trkpt lat="43.7808433" lon="11.5839783"><ele>1000.2</ele><time>2026-04-18T12:50:53.928Z</time></trkpt><trkpt lat="43.78085" lon="11.5838283"><ele>997.6</ele><time>2026-04-18T12:50:54.927Z</time></trkpt><trkpt lat="43.7808833" lon="11.583695"><ele>995.0</ele><time>2026-04-18T12:50:55.927Z</time></trkpt><trkpt lat="43.78095" lon="11.5836"><ele>995.8333333333334</ele><time>2026-04-18T12:50:56.928Z</time></trkpt><trkpt lat="43.7810217" lon="11.583535"><ele>996.6666666666667</ele><time>2026-04-18T12:50:57.928Z</time></trkpt><trkpt lat="43.781105" lon="11.5834817"><ele>997.5</ele><time>2026-04-18T12:50:58.927Z</time></trkpt><trkpt lat="43.7811833" lon="11.5834233"><ele>998.3333333333333</ele><time>2026-04-18T12:50:59.927Z</time></trkpt><trkpt lat="43.781235" lon="11.5833433"><ele>999.1666666666666</ele><time>2026-04-18T12:51:00.927Z</time></trkpt><trkpt lat="43.7812817" lon="11.5832317"><ele>1000.0</ele><time>2026-04-18T12:51:01.928Z</time></trkpt><trkpt lat="43.7813083" lon="11.5830633"><ele>1000.0</ele><time>2026-04-18T12:51:02.928Z</time></trkpt><trkpt lat="43.78132" lon="11.5828833"><ele>1000.0</ele><time>2026-04-18T12:51:03.928Z</time></trkpt><trkpt lat="43.7813367" lon="11.58269"><ele>1000.0</ele><time>2026-04-18T12:51:04.928Z</time></trkpt><trkpt lat="43.7813517" lon="11.5825067"><ele>1000.0</ele><time>2026-04-18T12:51:05.928Z</time></trkpt><trkpt lat="43.7813617" lon="11.582345"><ele>997.25</ele><time>2026-04-18T12:51:06.927Z</time></trkpt><trkpt lat="43.7813933" lon="11.5822"><ele>994.5</ele><time>2026-04-18T12:51:07.928Z</time></trkpt><trkpt lat="43.7814667" lon="11.5820767"><ele>991.75</ele><time>2026-04-18T12:51:08.927Z</time></trkpt><trkpt lat="43.781555" lon="11.58198"><ele>989.0</ele><time>2026-04-18T12:51:09.927Z</time></trkpt><trkpt lat="43.7816633" lon="11.5819183"><ele>986.5</ele><time>2026-04-18T12:51:10.927Z</time></trkpt><trkpt lat="43.7817933" lon="11.5818667"><ele>984.0</ele><time>2026-04-18T12:51:11.927Z</time></trkpt><trkpt lat="43.781925" lon="11.5818133"><ele>981.5</ele><time>2026-04-18T12:51:12.927Z</time></trkpt><trkpt lat="43.7820433" lon="11.58174"><ele>979.0</ele><time>2026-04-18T12:51:13.928Z</time></trkpt><trkpt lat="43.7821583" lon="11.5816583"><ele>979.0</ele><time>2026-04-18T12:51:14.927Z</time></trkpt><trkpt lat="43.78227" lon="11.58156"><ele>979.0</ele><time>2026-04-18T12:51:15.927Z</time></trkpt><trkpt lat="43.78236" lon="11.5814367"><ele>979.0</ele><time>2026-04-18T12:51:16.927Z</time></trkpt><trkpt lat="43.7824517" lon="11.5812917"><ele>979.0</ele><time>2026-04-18T12:51:17.928Z</time></trkpt><trkpt lat="43.78255" lon="11.58115"><ele>977.75</ele><time>2026-04-18T12:51:18.927Z</time></trkpt><trkpt lat="43.7826417" lon="11.5809983"><ele>976.5</ele><time>2026-04-18T12:51:19.927Z</time></trkpt><trkpt lat="43.782725" lon="11.5808533"><ele>975.25</ele><time>2026-04-18T12:51:20.928Z</time></trkpt><trkpt lat="43.7827967" lon="11.5807183"><ele>974.0</ele><time>2026-04-18T12:51:21.927Z</time></trkpt><trkpt lat="43.7828517" lon="11.5805683"><ele>974.0</ele><time>2026-04-18T12:51:22.927Z</time></trkpt><trkpt lat="43.7828917" lon="11.5804133"><ele>974.0</ele><time>2026-04-18T12:51:23.927Z</time></trkpt><trkpt lat="43.7829383" lon="11.580255"><ele>974.0</ele><time>2026-04-18T12:51:24.928Z</time></trkpt><trkpt lat="43.7829967" lon="11.5801117"><ele>974.0</ele><time>2026-04-18T12:51:25.928Z</time></trkpt><trkpt lat="43.783075" lon="11.57999"><ele>973.25</ele><time>2026-04-18T12:51:26.927Z</time></trkpt><trkpt lat="43.78319" lon="11.5798917"><ele>972.5</ele><time>2026-04-18T12:51:27.927Z</time></trkpt><trkpt lat="43.78331" lon="11.5798117"><ele>971.75</ele><time>2026-04-18T12:51:28.928Z</time></trkpt><trkpt lat="43.7834267" lon="11.5797333"><ele>971.0</ele><time>2026-04-18T12:51:29.927Z</time></trkpt><trkpt lat="43.7835367" lon="11.5796683"><ele>971.0</ele><time>2026-04-18T12:51:30.927Z</time></trkpt><trkpt lat="43.7836367" lon="11.5796067"><ele>970.9999999999999</ele><time>2026-04-18T12:51:31.928Z</time></trkpt><trkpt lat="43.7837383" lon="11.5795333"><ele>970.9999999999999</ele><time>2026-04-18T12:51:32.927Z</time></trkpt><trkpt lat="43.78381" lon="11.579425"><ele>971.0</ele><time>2026-04-18T12:51:33.928Z</time></trkpt><trkpt lat="43.78386" lon="11.5792833"><ele>971.0</ele><time>2026-04-18T12:51:34.928Z</time></trkpt><trkpt lat="43.7839167" lon="11.5791267"><ele>965.75</ele><time>2026-04-18T12:51:35.927Z</time></trkpt><trkpt lat="43.78401" lon="11.5789717"><ele>960.5</ele><time>2026-04-18T12:51:36.927Z</time></trkpt><trkpt lat="43.7841117" lon="11.5788217"><ele>955.25</ele><time>2026-04-18T12:51:37.927Z</time></trkpt><trkpt lat="43.784225" lon="11.5787033"><ele>950.0</ele><time>2026-04-18T12:51:38.927Z</time></trkpt><trkpt lat="43.7843517" lon="11.5786217"><ele>947.75</ele><time>2026-04-18T12:51:39.927Z</time></trkpt><trkpt lat="43.7844683" lon="11.57857"><ele>945.5</ele><time>2026-04-18T12:51:40.928Z</time></trkpt><trkpt lat="43.7845917" lon="11.5785383"><ele>943.25</ele><time>2026-04-18T12:51:41.927Z</time></trkpt><trkpt lat="43.7847133" lon="11.5784983"><ele>941.0</ele><time>2026-04-18T12:51:42.927Z</time></trkpt><trkpt lat="43.7848317" lon="11.5784233"><ele>941.0</ele><time>2026-04-18T12:51:43.928Z</time></trkpt><trkpt lat="43.7849367" lon="11.57833"><ele>941.0</ele><time>2026-04-18T12:51:44.928Z</time></trkpt><trkpt lat="43.7850167" lon="11.57819"><ele>941.0</ele><time>2026-04-18T12:51:45.928Z</time></trkpt><trkpt lat="43.7850767" lon="11.5780133"><ele>941.0</ele><time>2026-04-18T12:51:46.927Z</time></trkpt><trkpt lat="43.785115" lon="11.577795"><ele>939.0</ele><time>2026-04-18T12:51:47.927Z</time></trkpt><trkpt lat="43.7851567" lon="11.5775467"><ele>937.0</ele><time>2026-04-18T12:51:48.927Z</time></trkpt><trkpt lat="43.7852133" lon="11.5773183"><ele>935.0</ele><time>2026-04-18T12:51:49.927Z</time></trkpt><trkpt lat="43.7852717" lon="11.5770867"><ele>932.0</ele><time>2026-04-18T12:51:50.927Z</time></trkpt><trkpt lat="43.7853267" lon="11.57687"><ele>929.0</ele><time>2026-04-18T12:51:51.928Z</time></trkpt><trkpt lat="43.78537" lon="11.5766617"><ele>926.0</ele><time>2026-04-18T12:51:52.927Z</time></trkpt><trkpt lat="43.785415" lon="11.5764483"><ele>926.0</ele><time>2026-04-18T12:51:53.927Z</time></trkpt><trkpt lat="43.7854433" lon="11.5762333"><ele>926.0</ele><time>2026-04-18T12:51:54.928Z</time></trkpt><trkpt lat="43.7854533" lon="11.5760433"><ele>926.0</ele><time>2026-04-18T12:51:55.928Z</time></trkpt><trkpt lat="43.78547" lon="11.5758567"><ele>926.0</ele><time>2026-04-18T12:51:56.928Z</time></trkpt><trkpt lat="43.7855233" lon="11.5756517"><ele>923.3333333333334</ele><time>2026-04-18T12:51:57.927Z</time></trkpt><trkpt lat="43.7856017" lon="11.5754533"><ele>920.6666666666667</ele><time>2026-04-18T12:51:58.928Z</time></trkpt><trkpt lat="43.7856883" lon="11.57527"><ele>918.0</ele><time>2026-04-18T12:51:59.927Z</time></trkpt><trkpt lat="43.7857767" lon="11.5751017"><ele>915.3333333333333</ele><time>2026-04-18T12:52:00.927Z</time></trkpt><trkpt lat="43.7858867" lon="11.5749617"><ele>912.6666666666666</ele><time>2026-04-18T12:52:01.927Z</time></trkpt><trkpt lat="43.7860117" lon="11.5748283"><ele>910.0</ele><time>2026-04-18T12:52:02.927Z</time></trkpt><trkpt lat="43.7861417" lon="11.5747033"><ele>910.0</ele><time>2026-04-18T12:52:03.928Z</time></trkpt><trkpt lat="43.7862533" lon="11.5745683"><ele>910.0</ele><time>2026-04-18T12:52:04.927Z</time></trkpt><trkpt lat="43.7863567" lon="11.574375"><ele>910.0</ele><time>2026-04-18T12:52:05.927Z</time></trkpt><trkpt lat="43.7864517" lon="11.5741667"><ele>907.0</ele><time>2026-04-18T12:52:06.928Z</time></trkpt><trkpt lat="43.7865417" lon="11.573965"><ele>904.0</ele><time>2026-04-18T12:52:07.928Z</time></trkpt><trkpt lat="43.78663" lon="11.5737733"><ele>901.0</ele><time>2026-04-18T12:52:08.928Z</time></trkpt><trkpt lat="43.7867283" lon="11.5736083"><ele>899.5</ele><time>2026-04-18T12:52:09.928Z</time></trkpt><trkpt lat="43.78683" lon="11.57346"><ele>898.0</ele><time>2026-04-18T12:52:10.928Z</time></trkpt><trkpt lat="43.7869333" lon="11.5733183"><ele>896.5</ele><time>2026-04-18T12:52:11.927Z</time></trkpt><trkpt lat="43.7870267" lon="11.57318"><ele>895.0</ele><time>2026-04-18T12:52:12.928Z</time></trkpt><trkpt lat="43.7871033" lon="11.573055"><ele>894.9999999999999</ele><time>2026-04-18T12:52:13.928Z</time></trkpt><trkpt lat="43.7871583" lon="11.57293"><ele>895.0</ele><time>2026-04-18T12:52:14.927Z</time></trkpt><trkpt lat="43.787185" lon="11.5728133"><ele>895.0</ele><time>2026-04-18T12:52:15.927Z</time></trkpt><trkpt lat="43.7872" lon="11.5727117"><ele>895.0</ele><time>2026-04-18T12:52:17.927Z</time></trkpt><trkpt lat="43.7872" lon="11.5725817"><ele>894.9999999999999</ele><time>2026-04-18T12:52:20.927Z</time></trkpt><trkpt lat="43.7872083" lon="11.5724933"><ele>895.0</ele><time>2026-04-18T12:52:21.928Z</time></trkpt><trkpt lat="43.7872183" lon="11.5724067"><ele>893.9999999999999</ele><time>2026-04-18T12:52:22.927Z</time></trkpt><trkpt lat="43.7872333" lon="11.57228"><ele>893.0</ele><time>2026-04-18T12:52:24.928Z</time></trkpt><trkpt lat="43.78721" lon="11.5724133"><ele>892.0</ele><time>2026-04-18T12:52:31.927Z</time></trkpt><trkpt lat="43.787205" lon="11.5725283"><ele>891.0</ele><time>2026-04-18T12:52:32.927Z</time></trkpt><trkpt lat="43.7871967" lon="11.5726233"><ele>889.9999999999999</ele><time>2026-04-18T12:52:33.927Z</time></trkpt><trkpt lat="43.7872067" lon="11.57276"><ele>889.0</ele><time>2026-04-18T12:52:35.927Z</time></trkpt><trkpt lat="43.7871867" lon="11.5726217"><ele>889.0</ele><time>2026-04-18T12:52:55.927Z</time></trkpt><trkpt lat="43.7872017" lon="11.5724967"><ele>889.0</ele><time>2026-04-18T12:52:56.927Z</time></trkpt><trkpt lat="43.7872267" lon="11.5723417"><ele>889.0</ele><time>2026-04-18T12:52:57.927Z</time></trkpt><trkpt lat="43.7872533" lon="11.5721717"><ele>889.0</ele><time>2026-04-18T12:52:58.927Z</time></trkpt><trkpt lat="43.787275" lon="11.571995"><ele>887.5</ele><time>2026-04-18T12:52:59.927Z</time></trkpt><trkpt lat="43.7873067" lon="11.5718367"><ele>886.0</ele><time>2026-04-18T12:53:00.928Z</time></trkpt><trkpt lat="43.7873283" lon="11.5716833"><ele>884.5</ele><time>2026-04-18T12:53:01.928Z</time></trkpt><trkpt lat="43.7873583" lon="11.5715383"><ele>883.0</ele><time>2026-04-18T12:53:02.929Z</time></trkpt><trkpt lat="43.787395" lon="11.571395"><ele>883.0</ele><time>2026-04-18T12:53:03.928Z</time></trkpt><trkpt lat="43.78743" lon="11.5712517"><ele>883.0</ele><time>2026-04-18T12:53:04.929Z</time></trkpt><trkpt lat="43.787465" lon="11.5711133"><ele>883.0</ele><time>2026-04-18T12:53:05.928Z</time></trkpt><trkpt lat="43.7875117" lon="11.5709767"><ele>883.0</ele><time>2026-04-18T12:53:06.929Z</time></trkpt><trkpt lat="43.787555" lon="11.570855"><ele>883.0</ele><time>2026-04-18T12:53:07.928Z</time></trkpt><trkpt lat="43.7876" lon="11.5707317"><ele>884.0</ele><time>2026-04-18T12:53:08.928Z</time></trkpt><trkpt lat="43.7876667" lon="11.5706267"><ele>885.0</ele><time>2026-04-18T12:53:09.928Z</time></trkpt><trkpt lat="43.7877383" lon="11.570515"><ele>886.0</ele><time>2026-04-18T12:53:10.928Z</time></trkpt><trkpt lat="43.7878183" lon="11.5704067"><ele>887.0</ele><time>2026-04-18T12:53:11.929Z</time></trkpt><trkpt lat="43.787905" lon="11.570295"><ele>888.0</ele><time>2026-04-18T12:53:12.928Z</time></trkpt><trkpt lat="43.7879783" lon="11.5701717"><ele>888.0</ele><time>2026-04-18T12:53:13.929Z</time></trkpt><trkpt lat="43.7880283" lon="11.5700333"><ele>888.0</ele><time>2026-04-18T12:53:14.928Z</time></trkpt><trkpt lat="43.7880567" lon="11.5698967"><ele>888.0</ele><time>2026-04-18T12:53:15.928Z</time></trkpt><trkpt lat="43.7880767" lon="11.5697683"><ele>888.0</ele><time>2026-04-18T12:53:16.929Z</time></trkpt><trkpt lat="43.7880867" lon="11.5696467"><ele>888.0</ele><time>2026-04-18T12:53:17.928Z</time></trkpt><trkpt lat="43.7881" lon="11.5695467"><ele>888.0</ele><time>2026-04-18T12:53:18.928Z</time></trkpt><trkpt lat="43.78812" lon="11.5694233"><ele>888.0</ele><time>2026-04-18T12:53:20.928Z</time></trkpt><trkpt lat="43.788105" lon="11.5695683"><ele>888.0</ele><time>2026-04-18T12:53:27.928Z</time></trkpt><trkpt lat="43.788105" lon="11.5696883"><ele>888.0</ele><time>2026-04-18T12:53:28.929Z</time></trkpt><trkpt lat="43.7881" lon="11.56986"><ele>888.0</ele><time>2026-04-18T12:53:29.929Z</time></trkpt><trkpt lat="43.7880617" lon="11.57004"><ele>888.0</ele><time>2026-04-18T12:53:30.928Z</time></trkpt><trkpt lat="43.787995" lon="11.5702117"><ele>888.0</ele><time>2026-04-18T12:53:31.928Z</time></trkpt><trkpt lat="43.7879083" lon="11.5703733"><ele>888.0</ele><time>2026-04-18T12:53:32.929Z</time></trkpt><trkpt lat="43.7878033" lon="11.5705283"><ele>888.0</ele><time>2026-04-18T12:53:33.928Z</time></trkpt><trkpt lat="43.7877" lon="11.5707017"><ele>886.3333333333333</ele><time>2026-04-18T12:53:34.928Z</time></trkpt><trkpt lat="43.7876067" lon="11.570895"><ele>884.6666666666666</ele><time>2026-04-18T12:53:35.928Z</time></trkpt><trkpt lat="43.787535" lon="11.57111"><ele>883.0</ele><time>2026-04-18T12:53:36.928Z</time></trkpt><trkpt lat="43.7874567" lon="11.5713367"><ele>883.0</ele><time>2026-04-18T12:53:37.928Z</time></trkpt><trkpt lat="43.7874067" lon="11.5715633"><ele>883.0</ele><time>2026-04-18T12:53:38.928Z</time></trkpt><trkpt lat="43.7873533" lon="11.5717983"><ele>883.0</ele><time>2026-04-18T12:53:39.928Z</time></trkpt><trkpt lat="43.7873" lon="11.5720383"><ele>885.0</ele><time>2026-04-18T12:53:40.928Z</time></trkpt><trkpt lat="43.7872483" lon="11.5722683"><ele>887.0</ele><time>2026-04-18T12:53:41.928Z</time></trkpt><trkpt lat="43.7872033" lon="11.57248"><ele>889.0</ele><time>2026-04-18T12:53:42.928Z</time></trkpt><trkpt lat="43.7871683" lon="11.5726667"><ele>889.0</ele><time>2026-04-18T12:53:43.928Z</time></trkpt><trkpt lat="43.7871383" lon="11.57285"><ele>889.0</ele><time>2026-04-18T12:53:44.928Z</time></trkpt><trkpt lat="43.78709" lon="11.5730167"><ele>889.0</ele><time>2026-04-18T12:53:45.929Z</time></trkpt><trkpt lat="43.7870117" lon="11.57316"><ele>889.0</ele><time>2026-04-18T12:53:46.928Z</time></trkpt><trkpt lat="43.7869233" lon="11.5732983"><ele>889.3333333333333</ele><time>2026-04-18T12:53:47.929Z</time></trkpt><trkpt lat="43.7868167" lon="11.5734367"><ele>889.6666666666667</ele><time>2026-04-18T12:53:48.928Z</time></trkpt><trkpt lat="43.7867083" lon="11.5736"><ele>890.0</ele><time>2026-04-18T12:53:49.929Z</time></trkpt><trkpt lat="43.786605" lon="11.5737917"><ele>893.6666666666667</ele><time>2026-04-18T12:53:50.928Z</time></trkpt><trkpt lat="43.786505" lon="11.5740033"><ele>897.3333333333333</ele><time>2026-04-18T12:53:51.928Z</time></trkpt><trkpt lat="43.7864033" lon="11.5742233"><ele>901.0</ele><time>2026-04-18T12:53:52.928Z</time></trkpt><trkpt lat="43.7863117" lon="11.574435"><ele>902.3333333333333</ele><time>2026-04-18T12:53:53.929Z</time></trkpt><trkpt lat="43.7862" lon="11.5746183"><ele>903.6666666666667</ele><time>2026-04-18T12:53:54.929Z</time></trkpt><trkpt lat="43.7860733" lon="11.5747717"><ele>905.0</ele><time>2026-04-18T12:53:55.928Z</time></trkpt><trkpt lat="43.7859367" lon="11.5748983"><ele>905.0</ele><time>2026-04-18T12:53:56.928Z</time></trkpt><trkpt lat="43.78581" lon="11.5750483"><ele>905.0</ele><time>2026-04-18T12:53:57.928Z</time></trkpt><trkpt lat="43.785695" lon="11.5752317"><ele>905.0</ele><time>2026-04-18T12:53:58.929Z</time></trkpt><trkpt lat="43.7855983" lon="11.57543"><ele>909.3333333333334</ele><time>2026-04-18T12:53:59.929Z</time></trkpt><trkpt lat="43.78552" lon="11.5756267"><ele>913.6666666666667</ele><time>2026-04-18T12:54:00.929Z</time></trkpt><trkpt lat="43.7854567" lon="11.5758283"><ele>918.0</ele><time>2026-04-18T12:54:01.928Z</time></trkpt><trkpt lat="43.7854283" lon="11.576035"><ele>920.6666666666667</ele><time>2026-04-18T12:54:02.928Z</time></trkpt><trkpt lat="43.7854383" lon="11.5762583"><ele>923.3333333333334</ele><time>2026-04-18T12:54:03.929Z</time></trkpt><trkpt lat="43.7854083" lon="11.5765033"><ele>926.0</ele><time>2026-04-18T12:54:04.928Z</time></trkpt><trkpt lat="43.785365" lon="11.5767533"><ele>926.0</ele><time>2026-04-18T12:54:05.929Z</time></trkpt><trkpt lat="43.7853" lon="11.5769917"><ele>926.0</ele><time>2026-04-18T12:54:06.929Z</time></trkpt><trkpt lat="43.7852333" lon="11.5772217"><ele>926.0</ele><time>2026-04-18T12:54:07.929Z</time></trkpt><trkpt lat="43.7851783" lon="11.57746"><ele>925.3333333333334</ele><time>2026-04-18T12:54:08.928Z</time></trkpt><trkpt lat="43.785135" lon="11.5776883"><ele>924.6666666666667</ele><time>2026-04-18T12:54:09.928Z</time></trkpt><trkpt lat="43.7850983" lon="11.5779"><ele>924.0</ele><time>2026-04-18T12:54:10.928Z</time></trkpt><trkpt lat="43.7850517" lon="11.578085"><ele>928.25</ele><time>2026-04-18T12:54:11.928Z</time></trkpt><trkpt lat="43.784985" lon="11.5782367"><ele>932.5</ele><time>2026-04-18T12:54:12.928Z</time></trkpt><trkpt lat="43.7848817" lon="11.5783667"><ele>936.75</ele><time>2026-04-18T12:54:13.928Z</time></trkpt><trkpt lat="43.7847583" lon="11.5784483"><ele>941.0</ele><time>2026-04-18T12:54:14.928Z</time></trkpt><trkpt lat="43.7846117" lon="11.578495"><ele>941.0</ele><time>2026-04-18T12:54:15.928Z</time></trkpt><trkpt lat="43.7844717" lon="11.5785267"><ele>941.0</ele><time>2026-04-18T12:54:16.929Z</time></trkpt><trkpt lat="43.7843233" lon="11.578575"><ele>941.0</ele><time>2026-04-18T12:54:17.929Z</time></trkpt><trkpt lat="43.7841783" lon="11.5786767"><ele>943.25</ele><time>2026-04-18T12:54:18.929Z</time></trkpt><trkpt lat="43.7840567" lon="11.5788167"><ele>945.5</ele><time>2026-04-18T12:54:19.928Z</time></trkpt><trkpt lat="43.7839633" lon="11.5789717"><ele>947.75</ele><time>2026-04-18T12:54:20.928Z</time></trkpt><trkpt lat="43.7839017" lon="11.5791317"><ele>950.0</ele><time>2026-04-18T12:54:21.928Z</time></trkpt><trkpt lat="43.7838533" lon="11.5792733"><ele>950.0</ele><time>2026-04-18T12:54:22.928Z</time></trkpt><trkpt lat="43.7837817" lon="11.5793883"><ele>950.0</ele><time>2026-04-18T12:54:23.928Z</time></trkpt><trkpt lat="43.7837017" lon="11.5794817"><ele>950.0</ele><time>2026-04-18T12:54:24.928Z</time></trkpt><trkpt lat="43.7836067" lon="11.5795533"><ele>950.0</ele><time>2026-04-18T12:54:25.928Z</time></trkpt><trkpt lat="43.783485" lon="11.5796183"><ele>952.25</ele><time>2026-04-18T12:54:26.929Z</time></trkpt><trkpt lat="43.783355" lon="11.5796983"><ele>954.5</ele><time>2026-04-18T12:54:27.928Z</time></trkpt><trkpt lat="43.7832217" lon="11.5797967"><ele>956.75</ele><time>2026-04-18T12:54:28.928Z</time></trkpt><trkpt lat="43.783105" lon="11.5799067"><ele>959.0</ele><time>2026-04-18T12:54:29.929Z</time></trkpt><trkpt lat="43.7829967" lon="11.5800333"><ele>959.0</ele><time>2026-04-18T12:54:30.928Z</time></trkpt><trkpt lat="43.782905" lon="11.5801783"><ele>959.0</ele><time>2026-04-18T12:54:31.928Z</time></trkpt><trkpt lat="43.78286" lon="11.58037"><ele>959.0</ele><time>2026-04-18T12:54:32.928Z</time></trkpt><trkpt lat="43.78281" lon="11.580565"><ele>959.0</ele><time>2026-04-18T12:54:33.928Z</time></trkpt><trkpt lat="43.782735" lon="11.5807583"><ele>958.3333333333334</ele><time>2026-04-18T12:54:34.928Z</time></trkpt><trkpt lat="43.782635" lon="11.58095"><ele>957.6666666666667</ele><time>2026-04-18T12:54:35.928Z</time></trkpt><trkpt lat="43.7825267" lon="11.5811433"><ele>957.0</ele><time>2026-04-18T12:54:36.929Z</time></trkpt><trkpt lat="43.782415" lon="11.5813367"><ele>964.3333333333333</ele><time>2026-04-18T12:54:37.928Z</time></trkpt><trkpt lat="43.782305" lon="11.5815017"><ele>971.6666666666666</ele><time>2026-04-18T12:54:38.928Z</time></trkpt><trkpt lat="43.7821683" lon="11.5816333"><ele>979.0</ele><time>2026-04-18T12:54:39.928Z</time></trkpt><trkpt lat="43.7820117" lon="11.5817383"><ele>975.75</ele><time>2026-04-18T12:54:40.928Z</time></trkpt><trkpt lat="43.7818417" lon="11.5818167"><ele>972.5</ele><time>2026-04-18T12:54:41.929Z</time></trkpt><trkpt lat="43.7817" lon="11.5818767"><ele>969.25</ele><time>2026-04-18T12:54:42.928Z</time></trkpt><trkpt lat="43.781585" lon="11.5819233"><ele>966.0</ele><time>2026-04-18T12:54:43.928Z</time></trkpt><trkpt lat="43.781485" lon="11.5819917"><ele>971.75</ele><time>2026-04-18T12:54:44.928Z</time></trkpt><trkpt lat="43.781405" lon="11.5821083"><ele>977.5</ele><time>2026-04-18T12:54:45.928Z</time></trkpt><trkpt lat="43.78135" lon="11.5822617"><ele>983.25</ele><time>2026-04-18T12:54:46.929Z</time></trkpt><trkpt lat="43.7813183" lon="11.582445"><ele>989.0</ele><time>2026-04-18T12:54:47.928Z</time></trkpt><trkpt lat="43.7813017" lon="11.58265"><ele>991.75</ele><time>2026-04-18T12:54:48.928Z</time></trkpt><trkpt lat="43.7812733" lon="11.5828583"><ele>994.5</ele><time>2026-04-18T12:54:49.929Z</time></trkpt><trkpt lat="43.78126" lon="11.5830533"><ele>997.25</ele><time>2026-04-18T12:54:50.928Z</time></trkpt><trkpt lat="43.78126" lon="11.583215"><ele>1000.0</ele><time>2026-04-18T12:54:51.928Z</time></trkpt><trkpt lat="43.7812333" lon="11.5833433"><ele>999.9999999999999</ele><time>2026-04-18T12:54:52.929Z</time></trkpt><trkpt lat="43.781195" lon="11.5834417"><ele>1000.0</ele><time>2026-04-18T12:54:53.928Z</time></trkpt><trkpt lat="43.7811383" lon="11.5834983"><ele>1000.0</ele><time>2026-04-18T12:54:54.928Z</time></trkpt><trkpt lat="43.781075" lon="11.5835517"><ele>1000.0</ele><time>2026-04-18T12:54:55.928Z</time></trkpt><trkpt lat="43.7809883" lon="11.5835983"><ele>999.9999999999999</ele><time>2026-04-18T12:54:56.928Z</time></trkpt><trkpt lat="43.780915" lon="11.58367"><ele>1000.0</ele><time>2026-04-18T12:54:57.928Z</time></trkpt><trkpt lat="43.7808633" lon="11.58379"><ele>998.75</ele><time>2026-04-18T12:54:58.929Z</time></trkpt><trkpt lat="43.7808283" lon="11.583915"><ele>997.5</ele><time>2026-04-18T12:54:59.929Z</time></trkpt><trkpt lat="43.7808067" lon="11.584075"><ele>996.25</ele><time>2026-04-18T12:55:00.929Z</time></trkpt><trkpt lat="43.7807783" lon="11.5842483"><ele>995.0</ele><time>2026-04-18T12:55:01.928Z</time></trkpt><trkpt lat="43.7807033" lon="11.5843983"><ele>998.25</ele><time>2026-04-18T12:55:02.929Z</time></trkpt><trkpt lat="43.7806117" lon="11.5845383"><ele>1001.5</ele><time>2026-04-18T12:55:03.928Z</time></trkpt><trkpt lat="43.780515" lon="11.5846733"><ele>1004.75</ele><time>2026-04-18T12:55:04.929Z</time></trkpt><trkpt lat="43.78042" lon="11.5848083"><ele>1008.0</ele><time>2026-04-18T12:55:05.928Z</time></trkpt><trkpt lat="43.7803183" lon="11.584945"><ele>1008.0</ele><time>2026-04-18T12:55:06.929Z</time></trkpt><trkpt lat="43.7802167" lon="11.5850817"><ele>1008.0</ele><time>2026-04-18T12:55:07.929Z</time></trkpt><trkpt lat="43.7801067" lon="11.5852033"><ele>1008.0</ele><time>2026-04-18T12:55:08.928Z</time></trkpt><trkpt lat="43.77999" lon="11.5853083"><ele>1008.0</ele><time>2026-04-18T12:55:09.929Z</time></trkpt><trkpt lat="43.779875" lon="11.585395"><ele>1010.0</ele><time>2026-04-18T12:55:10.928Z</time></trkpt><trkpt lat="43.77978" lon="11.5854683"><ele>1012.0</ele><time>2026-04-18T12:55:11.928Z</time></trkpt><trkpt lat="43.779695" lon="11.5855467"><ele>1014.0</ele><time>2026-04-18T12:55:12.929Z</time></trkpt><trkpt lat="43.779635" lon="11.58565"><ele>1016.0</ele><time>2026-04-18T12:55:13.928Z</time></trkpt><trkpt lat="43.7795933" lon="11.5857717"><ele>1018.0</ele><time>2026-04-18T12:55:14.929Z</time></trkpt><trkpt lat="43.77957" lon="11.5858983"><ele>1018.0</ele><time>2026-04-18T12:55:15.928Z</time></trkpt><trkpt lat="43.7795533" lon="11.5860233"><ele>1018.0</ele><time>2026-04-18T12:55:16.928Z</time></trkpt><trkpt lat="43.7795333" lon="11.5861533"><ele>1018.0</ele><time>2026-04-18T12:55:17.928Z</time></trkpt><trkpt lat="43.7794883" lon="11.5862617"><ele>1018.0</ele><time>2026-04-18T12:55:18.929Z</time></trkpt><trkpt lat="43.7794333" lon="11.5863583"><ele>1018.0</ele><time>2026-04-18T12:55:19.928Z</time></trkpt><trkpt lat="43.7793633" lon="11.5864517"><ele>1017.2</ele><time>2026-04-18T12:55:20.928Z</time></trkpt><trkpt lat="43.7792867" lon="11.5865517"><ele>1016.4</ele><time>2026-04-18T12:55:21.928Z</time></trkpt><trkpt lat="43.7792067" lon="11.5866483"><ele>1015.6000000000001</ele><time>2026-04-18T12:55:22.928Z</time></trkpt><trkpt lat="43.7791283" lon="11.5867633"><ele>1014.8000000000001</ele><time>2026-04-18T12:55:23.928Z</time></trkpt><trkpt lat="43.779055" lon="11.586895"><ele>1014.0</ele><time>2026-04-18T12:55:24.928Z</time></trkpt><trkpt lat="43.779" lon="11.5870417"><ele>1014.0</ele><time>2026-04-18T12:55:25.928Z</time></trkpt><trkpt lat="43.7789617" lon="11.5871933"><ele>1014.0</ele><time>2026-04-18T12:55:26.929Z</time></trkpt><trkpt lat="43.7789433" lon="11.5873417"><ele>1014.0</ele><time>2026-04-18T12:55:27.928Z</time></trkpt><trkpt lat="43.7789383" lon="11.58752"><ele>1014.0</ele><time>2026-04-18T12:55:28.928Z</time></trkpt><trkpt lat="43.77893" lon="11.5877033"><ele>1013.0</ele><time>2026-04-18T12:55:29.929Z</time></trkpt><trkpt lat="43.778925" lon="11.587885"><ele>1012.0</ele><time>2026-04-18T12:55:30.929Z</time></trkpt><trkpt lat="43.7789333" lon="11.58806"><ele>1011.0</ele><time>2026-04-18T12:55:31.928Z</time></trkpt><trkpt lat="43.7789483" lon="11.58824"><ele>1010.0</ele><time>2026-04-18T12:55:32.928Z</time></trkpt><trkpt lat="43.7789883" lon="11.5884467"><ele>1008.75</ele><time>2026-04-18T12:55:33.929Z</time></trkpt><trkpt lat="43.7789833" lon="11.5887417"><ele>1007.5</ele><time>2026-04-18T12:55:34.929Z</time></trkpt><trkpt lat="43.7789367" lon="11.5888533"><ele>1006.25</ele><time>2026-04-18T12:55:35.928Z</time></trkpt><trkpt lat="43.7788817" lon="11.5890283"><ele>1005.0</ele><time>2026-04-18T12:55:36.929Z</time></trkpt><trkpt lat="43.778815" lon="11.58921"><ele>1005.0</ele><time>2026-04-18T12:55:37.928Z</time></trkpt><trkpt lat="43.7787367" lon="11.5893667"><ele>1005.0</ele><time>2026-04-18T12:55:38.928Z</time></trkpt><trkpt lat="43.7786417" lon="11.5894967"><ele>1005.0</ele><time>2026-04-18T12:55:39.929Z</time></trkpt><trkpt lat="43.77853" lon="11.589595"><ele>1005.0</ele><time>2026-04-18T12:55:40.928Z</time></trkpt><trkpt lat="43.7784017" lon="11.5896783"><ele>1009.5</ele><time>2026-04-18T12:55:41.928Z</time></trkpt><trkpt lat="43.7783017" lon="11.5897933"><ele>1014.0</ele><time>2026-04-18T12:55:42.928Z</time></trkpt><trkpt lat="43.778235" lon="11.5899417"><ele>1018.5</ele><time>2026-04-18T12:55:43.928Z</time></trkpt><trkpt lat="43.7781983" lon="11.5901317"><ele>1023.0</ele><time>2026-04-18T12:55:44.929Z</time></trkpt><trkpt lat="43.7781983" lon="11.5903317"><ele>1022.5</ele><time>2026-04-18T12:55:45.928Z</time></trkpt><trkpt lat="43.7782183" lon="11.59054"><ele>1022.0</ele><time>2026-04-18T12:55:46.928Z</time></trkpt><trkpt lat="43.77825" lon="11.5907417"><ele>1021.5</ele><time>2026-04-18T12:55:47.929Z</time></trkpt><trkpt lat="43.7782817" lon="11.5909383"><ele>1021.0</ele><time>2026-04-18T12:55:48.929Z</time></trkpt><trkpt lat="43.778305" lon="11.5911333"><ele>1021.0</ele><time>2026-04-18T12:55:49.928Z</time></trkpt><trkpt lat="43.7783217" lon="11.591335"><ele>1021.0</ele><time>2026-04-18T12:55:50.928Z</time></trkpt><trkpt lat="43.77832" lon="11.59156"><ele>1021.0</ele><time>2026-04-18T12:55:51.928Z</time></trkpt><trkpt lat="43.7782933" lon="11.591765"><ele>1021.0</ele><time>2026-04-18T12:55:52.928Z</time></trkpt><trkpt lat="43.7782567" lon="11.5919417"><ele>1021.0</ele><time>2026-04-18T12:55:53.929Z</time></trkpt><trkpt lat="43.778205" lon="11.5920883"><ele>1021.0</ele><time>2026-04-18T12:55:54.928Z</time></trkpt><trkpt lat="43.7781717" lon="11.5922283"><ele>1021.0</ele><time>2026-04-18T12:55:55.928Z</time></trkpt><trkpt lat="43.7781917" lon="11.5923767"><ele>1021.1999999999999</ele><time>2026-04-18T12:55:56.928Z</time></trkpt><trkpt lat="43.7782117" lon="11.5924933"><ele>1021.3999999999999</ele><time>2026-04-18T12:55:57.928Z</time></trkpt><trkpt lat="43.7782533" lon="11.592605"><ele>1021.6</ele><time>2026-04-18T12:55:58.929Z</time></trkpt><trkpt lat="43.7783333" lon="11.5926883"><ele>1021.8</ele><time>2026-04-18T12:55:59.929Z</time></trkpt><trkpt lat="43.7784317" lon="11.5926983"><ele>1022.0</ele><time>2026-04-18T12:56:00.929Z</time></trkpt><trkpt lat="43.7785633" lon="11.5926233"><ele>1022.0</ele><time>2026-04-18T12:56:01.929Z</time></trkpt><trkpt lat="43.7786883" lon="11.5925267"><ele>1022.0</ele><time>2026-04-18T12:56:02.929Z</time></trkpt><trkpt lat="43.7788033" lon="11.5924583"><ele>1022.0</ele><time>2026-04-18T12:56:03.928Z</time></trkpt><trkpt lat="43.7789383" lon="11.59239"><ele>1022.0</ele><time>2026-04-18T12:56:04.928Z</time></trkpt><trkpt lat="43.77907" lon="11.5923467"><ele>1022.0</ele><time>2026-04-18T12:56:05.929Z</time></trkpt><trkpt lat="43.779215" lon="11.5923633"><ele>1022.0</ele><time>2026-04-18T12:56:06.928Z</time></trkpt><trkpt lat="43.7793617" lon="11.59242"><ele>1022.0</ele><time>2026-04-18T12:56:07.928Z</time></trkpt><trkpt lat="43.7794933" lon="11.5925267"><ele>1021.25</ele><time>2026-04-18T12:56:08.928Z</time></trkpt><trkpt lat="43.7796" lon="11.5926567"><ele>1020.5</ele><time>2026-04-18T12:56:09.928Z</time></trkpt><trkpt lat="43.7796683" lon="11.592805"><ele>1019.75</ele><time>2026-04-18T12:56:10.928Z</time></trkpt><trkpt lat="43.7797067" lon="11.5929767"><ele>1019.0</ele><time>2026-04-18T12:56:11.928Z</time></trkpt><trkpt lat="43.7797033" lon="11.59315"><ele>1019.0</ele><time>2026-04-18T12:56:12.929Z</time></trkpt><trkpt lat="43.77967" lon="11.5933217"><ele>1019.0</ele><time>2026-04-18T12:56:13.928Z</time></trkpt><trkpt lat="43.779625" lon="11.5934933"><ele>1019.0</ele><time>2026-04-18T12:56:14.929Z</time></trkpt><trkpt lat="43.7795917" lon="11.5936467"><ele>1019.0</ele><time>2026-04-18T12:56:15.929Z</time></trkpt><trkpt lat="43.77958" lon="11.59379"><ele>1018.4000000000001</ele><time>2026-04-18T12:56:16.928Z</time></trkpt><trkpt lat="43.7795867" lon="11.5939333"><ele>1017.8000000000001</ele><time>2026-04-18T12:56:17.928Z</time></trkpt><trkpt lat="43.779595" lon="11.5940667"><ele>1017.1999999999999</ele><time>2026-04-18T12:56:18.929Z</time></trkpt><trkpt lat="43.7796067" lon="11.594195"><ele>1016.5999999999999</ele><time>2026-04-18T12:56:19.928Z</time></trkpt><trkpt lat="43.7796183" lon="11.5943267"><ele>1016.0</ele><time>2026-04-18T12:56:20.928Z</time></trkpt><trkpt lat="43.7796367" lon="11.594465"><ele>1016.4</ele><time>2026-04-18T12:56:21.928Z</time></trkpt><trkpt lat="43.7796533" lon="11.5946017"><ele>1016.8</ele><time>2026-04-18T12:56:22.929Z</time></trkpt><trkpt lat="43.779665" lon="11.5947367"><ele>1017.1999999999999</ele><time>2026-04-18T12:56:23.928Z</time></trkpt><trkpt lat="43.7796867" lon="11.5948683"><ele>1017.5999999999999</ele><time>2026-04-18T12:56:24.928Z</time></trkpt><trkpt lat="43.779715" lon="11.594975"><ele>1018.0</ele><time>2026-04-18T12:56:25.928Z</time></trkpt><trkpt lat="43.77975" lon="11.5950667"><ele>1017.9999999999999</ele><time>2026-04-18T12:56:26.929Z</time></trkpt><trkpt lat="43.779785" lon="11.5951467"><ele>1018.0</ele><time>2026-04-18T12:56:27.928Z</time></trkpt><trkpt lat="43.7798283" lon="11.5952233"><ele>1018.0</ele><time>2026-04-18T12:56:28.928Z</time></trkpt><trkpt lat="43.779885" lon="11.5952983"><ele>1018.0</ele><time>2026-04-18T12:56:29.928Z</time></trkpt><trkpt lat="43.7799383" lon="11.595375"><ele>1017.9999999999999</ele><time>2026-04-18T12:56:30.928Z</time></trkpt><trkpt lat="43.7800033" lon="11.595445"><ele>1018.0</ele><time>2026-04-18T12:56:31.928Z</time></trkpt><trkpt lat="43.7800683" lon="11.5955083"><ele>1017.8333333333333</ele><time>2026-04-18T12:56:32.929Z</time></trkpt><trkpt lat="43.780135" lon="11.595565"><ele>1017.6666666666666</ele><time>2026-04-18T12:56:33.928Z</time></trkpt><trkpt lat="43.7802017" lon="11.5956267"><ele>1017.5</ele><time>2026-04-18T12:56:34.928Z</time></trkpt><trkpt lat="43.7802717" lon="11.5956917"><ele>1017.3333333333333</ele><time>2026-04-18T12:56:35.928Z</time></trkpt><trkpt lat="43.7803383" lon="11.5957617"><ele>1017.1666666666666</ele><time>2026-04-18T12:56:36.929Z</time></trkpt><trkpt lat="43.780405" lon="11.5958283"><ele>1017.0</ele><time>2026-04-18T12:56:37.928Z</time></trkpt><trkpt lat="43.780475" lon="11.5959067"><ele>1017.0</ele><time>2026-04-18T12:56:38.928Z</time></trkpt><trkpt lat="43.7805567" lon="11.595995"><ele>1017.0</ele><time>2026-04-18T12:56:39.929Z</time></trkpt><trkpt lat="43.7806367" lon="11.5960917"><ele>1017.0</ele><time>2026-04-18T12:56:40.928Z</time></trkpt><trkpt lat="43.780715" lon="11.5961867"><ele>1017.0</ele><time>2026-04-18T12:56:41.928Z</time></trkpt><trkpt lat="43.780795" lon="11.5962767"><ele>1017.0</ele><time>2026-04-18T12:56:42.928Z</time></trkpt><trkpt lat="43.780885" lon="11.5963683"><ele>1018.25</ele><time>2026-04-18T12:56:43.928Z</time></trkpt><trkpt lat="43.7809783" lon="11.59647"><ele>1019.5</ele><time>2026-04-18T12:56:44.928Z</time></trkpt><trkpt lat="43.781075" lon="11.5966"><ele>1020.75</ele><time>2026-04-18T12:56:45.929Z</time></trkpt><trkpt lat="43.7811683" lon="11.596765"><ele>1022.0</ele><time>2026-04-18T12:56:46.928Z</time></trkpt><trkpt lat="43.7812417" lon="11.5969483"><ele>1023.0</ele><time>2026-04-18T12:56:47.929Z</time></trkpt><trkpt lat="43.7813367" lon="11.5971067"><ele>1024.0</ele><time>2026-04-18T12:56:48.928Z</time></trkpt><trkpt lat="43.7814517" lon="11.597255"><ele>1025.0</ele><time>2026-04-18T12:56:49.928Z</time></trkpt><trkpt lat="43.781575" lon="11.5973967"><ele>1025.0</ele><time>2026-04-18T12:56:50.928Z</time></trkpt><trkpt lat="43.7817083" lon="11.5975217"><ele>1025.0</ele><time>2026-04-18T12:56:51.928Z</time></trkpt><trkpt lat="43.7818483" lon="11.5976217"><ele>1025.0</ele><time>2026-04-18T12:56:52.928Z</time></trkpt><trkpt lat="43.782" lon="11.5977333"><ele>1029.3333333333335</ele><time>2026-04-18T12:56:53.928Z</time></trkpt><trkpt lat="43.782165" lon="11.5978383"><ele>1033.6666666666667</ele><time>2026-04-18T12:56:54.928Z</time></trkpt><trkpt lat="43.782315" lon="11.5979683"><ele>1038.0</ele><time>2026-04-18T12:56:55.928Z</time></trkpt><trkpt lat="43.7824533" lon="11.5981117"><ele>1038.0</ele><time>2026-04-18T12:56:56.928Z</time></trkpt><trkpt lat="43.7825717" lon="11.5982783"><ele>1038.0</ele><time>2026-04-18T12:56:57.928Z</time></trkpt><trkpt lat="43.7826767" lon="11.5984733"><ele>1038.0</ele><time>2026-04-18T12:56:58.928Z</time></trkpt><trkpt lat="43.7827617" lon="11.5986917"><ele>1042.3333333333333</ele><time>2026-04-18T12:56:59.929Z</time></trkpt><trkpt lat="43.7828333" lon="11.5989167"><ele>1046.6666666666665</ele><time>2026-04-18T12:57:00.928Z</time></trkpt><trkpt lat="43.78288" lon="11.59915"><ele>1051.0</ele><time>2026-04-18T12:57:01.929Z</time></trkpt><trkpt lat="43.7829067" lon="11.5994"><ele>1052.6666666666665</ele><time>2026-04-18T12:57:02.929Z</time></trkpt><trkpt lat="43.7829283" lon="11.59967"><ele>1054.3333333333333</ele><time>2026-04-18T12:57:03.929Z</time></trkpt><trkpt lat="43.782945" lon="11.59994"><ele>1056.0</ele><time>2026-04-18T12:57:04.928Z</time></trkpt><trkpt lat="43.78296" lon="11.6002133"><ele>1059.3333333333333</ele><time>2026-04-18T12:57:05.928Z</time></trkpt><trkpt lat="43.78297" lon="11.6004767"><ele>1062.6666666666665</ele><time>2026-04-18T12:57:06.928Z</time></trkpt><trkpt lat="43.7829717" lon="11.60073"><ele>1066.0</ele><time>2026-04-18T12:57:07.928Z</time></trkpt><trkpt lat="43.7829583" lon="11.6009633"><ele>1066.5</ele><time>2026-04-18T12:57:08.928Z</time></trkpt><trkpt lat="43.7829333" lon="11.6011717"><ele>1067.0</ele><time>2026-04-18T12:57:09.929Z</time></trkpt><trkpt lat="43.7829117" lon="11.60135"><ele>1067.5</ele><time>2026-04-18T12:57:10.928Z</time></trkpt><trkpt lat="43.7829117" lon="11.60152"><ele>1068.0</ele><time>2026-04-18T12:57:11.929Z</time></trkpt><trkpt lat="43.7829283" lon="11.601685"><ele>1068.0</ele><time>2026-04-18T12:57:12.928Z</time></trkpt><trkpt lat="43.7829883" lon="11.60184"><ele>1068.0</ele><time>2026-04-18T12:57:13.928Z</time></trkpt><trkpt lat="43.783085" lon="11.6019733"><ele>1068.0</ele><time>2026-04-18T12:57:14.929Z</time></trkpt><trkpt lat="43.7831983" lon="11.6020667"><ele>1068.0</ele><time>2026-04-18T12:57:15.928Z</time></trkpt><trkpt lat="43.7833233" lon="11.6021383"><ele>1070.0</ele><time>2026-04-18T12:57:16.929Z</time></trkpt><trkpt lat="43.783445" lon="11.6022317"><ele>1072.0</ele><time>2026-04-18T12:57:17.928Z</time></trkpt><trkpt lat="43.783555" lon="11.6023667"><ele>1074.0</ele><time>2026-04-18T12:57:18.928Z</time></trkpt><trkpt lat="43.78366" lon="11.602535"><ele>1076.0</ele><time>2026-04-18T12:57:19.928Z</time></trkpt><trkpt lat="43.7837567" lon="11.6027233"><ele>1071.3333333333335</ele><time>2026-04-18T12:57:20.928Z</time></trkpt><trkpt lat="43.7838533" lon="11.6029067"><ele>1066.6666666666667</ele><time>2026-04-18T12:57:21.928Z</time></trkpt><trkpt lat="43.7839467" lon="11.6030833"><ele>1062.0</ele><time>2026-04-18T12:57:22.928Z</time></trkpt><trkpt lat="43.7840317" lon="11.6032483"><ele>1062.0</ele><time>2026-04-18T12:57:23.929Z</time></trkpt><trkpt lat="43.7841117" lon="11.6034133"><ele>1062.0</ele><time>2026-04-18T12:57:24.929Z</time></trkpt><trkpt lat="43.7841833" lon="11.603565"><ele>1062.0</ele><time>2026-04-18T12:57:25.929Z</time></trkpt><trkpt lat="43.7842533" lon="11.603715"><ele>1062.0</ele><time>2026-04-18T12:57:26.928Z</time></trkpt><trkpt lat="43.78433" lon="11.6038383"><ele>1060.25</ele><time>2026-04-18T12:57:27.929Z</time></trkpt><trkpt lat="43.784425" lon="11.603945"><ele>1058.5</ele><time>2026-04-18T12:57:28.928Z</time></trkpt><trkpt lat="43.7845483" lon="11.6040017"><ele>1056.75</ele><time>2026-04-18T12:57:29.928Z</time></trkpt><trkpt lat="43.7846867" lon="11.6040317"><ele>1055.0</ele><time>2026-04-18T12:57:30.929Z</time></trkpt><trkpt lat="43.7848333" lon="11.604045"><ele>1055.0</ele><time>2026-04-18T12:57:31.928Z</time></trkpt><trkpt lat="43.7849833" lon="11.60408"><ele>1055.0</ele><time>2026-04-18T12:57:32.929Z</time></trkpt><trkpt lat="43.7851317" lon="11.60412"><ele>1055.0</ele><time>2026-04-18T12:57:33.929Z</time></trkpt><trkpt lat="43.7852717" lon="11.6041933"><ele>1055.0</ele><time>2026-04-18T12:57:34.928Z</time></trkpt><trkpt lat="43.7853933" lon="11.6042533"><ele>1055.0</ele><time>2026-04-18T12:57:35.928Z</time></trkpt><trkpt lat="43.78548" lon="11.6043217"><ele>1055.0</ele><time>2026-04-18T12:57:36.928Z</time></trkpt><trkpt lat="43.78554" lon="11.6044317"><ele>1055.0</ele><time>2026-04-18T12:57:37.928Z</time></trkpt><trkpt lat="43.7855667" lon="11.6045767"><ele>1055.0</ele><time>2026-04-18T12:57:38.928Z</time></trkpt><trkpt lat="43.785535" lon="11.60476"><ele>1055.0</ele><time>2026-04-18T12:57:39.929Z</time></trkpt><trkpt lat="43.7854683" lon="11.604935"><ele>1055.0</ele><time>2026-04-18T12:57:40.929Z</time></trkpt><trkpt lat="43.785365" lon="11.6050917"><ele>1055.0</ele><time>2026-04-18T12:57:41.928Z</time></trkpt><trkpt lat="43.7852783" lon="11.6052617"><ele>1055.0</ele><time>2026-04-18T12:57:42.929Z</time></trkpt><trkpt lat="43.7851983" lon="11.6054283"><ele>1050.6666666666667</ele><time>2026-04-18T12:57:43.928Z</time></trkpt><trkpt lat="43.7851233" lon="11.6056067"><ele>1046.3333333333333</ele><time>2026-04-18T12:57:44.928Z</time></trkpt><trkpt lat="43.7850383" lon="11.6057783"><ele>1042.0</ele><time>2026-04-18T12:57:45.929Z</time></trkpt><trkpt lat="43.7849517" lon="11.6059633"><ele>1042.0</ele><time>2026-04-18T12:57:46.928Z</time></trkpt><trkpt lat="43.784855" lon="11.6061417"><ele>1042.0</ele><time>2026-04-18T12:57:47.929Z</time></trkpt><trkpt lat="43.7848017" lon="11.60635"><ele>1042.0</ele><time>2026-04-18T12:57:48.928Z</time></trkpt><trkpt lat="43.7847717" lon="11.6065683"><ele>1042.0</ele><time>2026-04-18T12:57:49.928Z</time></trkpt><trkpt lat="43.7847617" lon="11.6068017"><ele>1042.0</ele><time>2026-04-18T12:57:50.929Z</time></trkpt><trkpt lat="43.7847683" lon="11.607035"><ele>1042.0</ele><time>2026-04-18T12:57:51.928Z</time></trkpt><trkpt lat="43.7847967" lon="11.6072683"><ele>1040.0</ele><time>2026-04-18T12:57:52.928Z</time></trkpt><trkpt lat="43.7848517" lon="11.6075017"><ele>1038.0</ele><time>2026-04-18T12:57:53.929Z</time></trkpt><trkpt lat="43.7848917" lon="11.607735"><ele>1036.0</ele><time>2026-04-18T12:57:54.929Z</time></trkpt><trkpt lat="43.78493" lon="11.6079817"><ele>1035.3333333333333</ele><time>2026-04-18T12:57:55.928Z</time></trkpt><trkpt lat="43.7849833" lon="11.60824"><ele>1034.6666666666667</ele><time>2026-04-18T12:57:56.928Z</time></trkpt><trkpt lat="43.7850317" lon="11.608505"><ele>1034.0</ele><time>2026-04-18T12:57:57.928Z</time></trkpt><trkpt lat="43.7850683" lon="11.60875"><ele>1034.0</ele><time>2026-04-18T12:57:58.928Z</time></trkpt><trkpt lat="43.7851083" lon="11.6090083"><ele>1034.0</ele><time>2026-04-18T12:57:59.928Z</time></trkpt><trkpt lat="43.78515" lon="11.6092617"><ele>1034.0</ele><time>2026-04-18T12:58:00.929Z</time></trkpt><trkpt lat="43.7851867" lon="11.6095067"><ele>1030.3333333333335</ele><time>2026-04-18T12:58:01.928Z</time></trkpt><trkpt lat="43.7852217" lon="11.609735"><ele>1026.6666666666667</ele><time>2026-04-18T12:58:02.929Z</time></trkpt><trkpt lat="43.78526" lon="11.60995"><ele>1023.0</ele><time>2026-04-18T12:58:03.928Z</time></trkpt><trkpt lat="43.7852967" lon="11.6101567"><ele>1022.75</ele><time>2026-04-18T12:58:04.929Z</time></trkpt><trkpt lat="43.785335" lon="11.6103483"><ele>1022.5</ele><time>2026-04-18T12:58:05.928Z</time></trkpt><trkpt lat="43.7853817" lon="11.6105433"><ele>1022.25</ele><time>2026-04-18T12:58:06.929Z</time></trkpt><trkpt lat="43.7854417" lon="11.6107383"><ele>1022.0</ele><time>2026-04-18T12:58:07.928Z</time></trkpt><trkpt lat="43.785525" lon="11.610935"><ele>1022.0</ele><time>2026-04-18T12:58:08.928Z</time></trkpt><trkpt lat="43.78562" lon="11.6111217"><ele>1022.0</ele><time>2026-04-18T12:58:09.929Z</time></trkpt><trkpt lat="43.7857" lon="11.6112917"><ele>1022.0</ele><time>2026-04-18T12:58:10.929Z</time></trkpt><trkpt lat="43.78578" lon="11.6114583"><ele>1021.6666666666667</ele><time>2026-04-18T12:58:11.929Z</time></trkpt><trkpt lat="43.7858417" lon="11.6116433"><ele>1021.3333333333333</ele><time>2026-04-18T12:58:12.928Z</time></trkpt><trkpt lat="43.785885" lon="11.6118433"><ele>1021.0</ele><time>2026-04-18T12:58:13.928Z</time></trkpt><trkpt lat="43.7859117" lon="11.6120617"><ele>1021.0</ele><time>2026-04-18T12:58:14.928Z</time></trkpt><trkpt lat="43.7859283" lon="11.6122817"><ele>1021.0</ele><time>2026-04-18T12:58:15.928Z</time></trkpt><trkpt lat="43.7859617" lon="11.612485"><ele>1021.0</ele><time>2026-04-18T12:58:16.929Z</time></trkpt><trkpt lat="43.7859917" lon="11.612675"><ele>1018.5</ele><time>2026-04-18T12:58:17.928Z</time></trkpt><trkpt lat="43.78602" lon="11.612845"><ele>1016.0</ele><time>2026-04-18T12:58:18.929Z</time></trkpt><trkpt lat="43.7860283" lon="11.6129967"><ele>1013.5</ele><time>2026-04-18T12:58:19.928Z</time></trkpt><trkpt lat="43.7860083" lon="11.613145"><ele>1011.0</ele><time>2026-04-18T12:58:20.929Z</time></trkpt><trkpt lat="43.78591" lon="11.6132367"><ele>1011.0</ele><time>2026-04-18T12:58:21.928Z</time></trkpt><trkpt lat="43.7857817" lon="11.6132917"><ele>1011.0</ele><time>2026-04-18T12:58:22.929Z</time></trkpt><trkpt lat="43.7856517" lon="11.6133417"><ele>1011.0</ele><time>2026-04-18T12:58:23.929Z</time></trkpt><trkpt lat="43.7855217" lon="11.6133817"><ele>1011.0</ele><time>2026-04-18T12:58:24.928Z</time></trkpt><trkpt lat="43.7854067" lon="11.6134267"><ele>1011.0</ele><time>2026-04-18T12:58:25.929Z</time></trkpt><trkpt lat="43.7853067" lon="11.6134833"><ele>1010.9999999999999</ele><time>2026-04-18T12:58:26.928Z</time></trkpt><trkpt lat="43.785225" lon="11.6135733"><ele>1010.9999999999999</ele><time>2026-04-18T12:58:27.928Z</time></trkpt><trkpt lat="43.78517" lon="11.6136733"><ele>1011.0</ele><time>2026-04-18T12:58:28.929Z</time></trkpt><trkpt lat="43.7851267" lon="11.613795"><ele>1011.0</ele><time>2026-04-18T12:58:29.928Z</time></trkpt><trkpt lat="43.785095" lon="11.6139333"><ele>1007.0</ele><time>2026-04-18T12:58:30.928Z</time></trkpt><trkpt lat="43.7850733" lon="11.6140967"><ele>1003.0</ele><time>2026-04-18T12:58:31.928Z</time></trkpt><trkpt lat="43.7850533" lon="11.6142783"><ele>999.0</ele><time>2026-04-18T12:58:32.929Z</time></trkpt><trkpt lat="43.7850317" lon="11.6144717"><ele>995.0</ele><time>2026-04-18T12:58:33.928Z</time></trkpt><trkpt lat="43.785" lon="11.6146667"><ele>994.25</ele><time>2026-04-18T12:58:34.928Z</time></trkpt><trkpt lat="43.784965" lon="11.61486"><ele>993.5</ele><time>2026-04-18T12:58:35.928Z</time></trkpt><trkpt lat="43.7849233" lon="11.61506"><ele>992.75</ele><time>2026-04-18T12:58:36.928Z</time></trkpt><trkpt lat="43.784875" lon="11.6152567"><ele>992.0</ele><time>2026-04-18T12:58:37.928Z</time></trkpt><trkpt lat="43.78481" lon="11.6154333"><ele>992.0</ele><time>2026-04-18T12:58:38.928Z</time></trkpt><trkpt lat="43.7847333" lon="11.6155883"><ele>992.0</ele><time>2026-04-18T12:58:39.929Z</time></trkpt><trkpt lat="43.784635" lon="11.6157233"><ele>992.0</ele><time>2026-04-18T12:58:40.928Z</time></trkpt><trkpt lat="43.7845383" lon="11.6158433"><ele>992.0</ele><time>2026-04-18T12:58:41.928Z</time></trkpt><trkpt lat="43.7844467" lon="11.6159717"><ele>992.0</ele><time>2026-04-18T12:58:42.928Z</time></trkpt><trkpt lat="43.7843717" lon="11.616115"><ele>992.0</ele><time>2026-04-18T12:58:43.928Z</time></trkpt><trkpt lat="43.78431" lon="11.6162767"><ele>992.0</ele><time>2026-04-18T12:58:44.928Z</time></trkpt><trkpt lat="43.784275" lon="11.61646"><ele>992.0</ele><time>2026-04-18T12:58:45.929Z</time></trkpt><trkpt lat="43.7842633" lon="11.6166583"><ele>988.6666666666667</ele><time>2026-04-18T12:58:46.928Z</time></trkpt><trkpt lat="43.78427" lon="11.61687"><ele>985.3333333333333</ele><time>2026-04-18T12:58:47.928Z</time></trkpt><trkpt lat="43.78429" lon="11.6170917"><ele>982.0</ele><time>2026-04-18T12:58:48.928Z</time></trkpt><trkpt lat="43.7843017" lon="11.6173217"><ele>979.6666666666666</ele><time>2026-04-18T12:58:49.928Z</time></trkpt><trkpt lat="43.7843" lon="11.6175483"><ele>977.3333333333333</ele><time>2026-04-18T12:58:50.928Z</time></trkpt><trkpt lat="43.784305" lon="11.61778"><ele>975.0</ele><time>2026-04-18T12:58:51.928Z</time></trkpt><trkpt lat="43.7843" lon="11.6180033"><ele>973.5</ele><time>2026-04-18T12:58:52.929Z</time></trkpt><trkpt lat="43.7842983" lon="11.61822"><ele>972.0</ele><time>2026-04-18T12:58:53.928Z</time></trkpt><trkpt lat="43.7842817" lon="11.6184233"><ele>970.5</ele><time>2026-04-18T12:58:54.929Z</time></trkpt><trkpt lat="43.78427" lon="11.6186183"><ele>969.0</ele><time>2026-04-18T12:58:55.928Z</time></trkpt><trkpt lat="43.7842483" lon="11.618795"><ele>968.5</ele><time>2026-04-18T12:58:56.928Z</time></trkpt><trkpt lat="43.78424" lon="11.6189533"><ele>968.0</ele><time>2026-04-18T12:58:57.928Z</time></trkpt><trkpt lat="43.7842483" lon="11.6191283"><ele>967.5</ele><time>2026-04-18T12:58:58.928Z</time></trkpt><trkpt lat="43.78429" lon="11.6192933"><ele>967.0</ele><time>2026-04-18T12:58:59.928Z</time></trkpt><trkpt lat="43.7843817" lon="11.61942"><ele>963.0</ele><time>2026-04-18T12:59:00.928Z</time></trkpt><trkpt lat="43.7844917" lon="11.6195333"><ele>959.0</ele><time>2026-04-18T12:59:01.928Z</time></trkpt><trkpt lat="43.7846183" lon="11.619635"><ele>955.0</ele><time>2026-04-18T12:59:02.928Z</time></trkpt><trkpt lat="43.784745" lon="11.619705"><ele>951.0</ele><time>2026-04-18T12:59:03.929Z</time></trkpt><trkpt lat="43.7848733" lon="11.6197267"><ele>951.0</ele><time>2026-04-18T12:59:04.928Z</time></trkpt><trkpt lat="43.7850017" lon="11.6197133"><ele>951.0</ele><time>2026-04-18T12:59:05.929Z</time></trkpt><trkpt lat="43.785125" lon="11.61966"><ele>951.0</ele><time>2026-04-18T12:59:06.929Z</time></trkpt><trkpt lat="43.78523" lon="11.619595"><ele>951.0</ele><time>2026-04-18T12:59:07.928Z</time></trkpt><trkpt lat="43.7853317" lon="11.6195567"><ele>950.0</ele><time>2026-04-18T12:59:08.928Z</time></trkpt><trkpt lat="43.78545" lon="11.6195533"><ele>949.0</ele><time>2026-04-18T12:59:09.928Z</time></trkpt><trkpt lat="43.7855717" lon="11.6196033"><ele>948.0</ele><time>2026-04-18T12:59:10.928Z</time></trkpt><trkpt lat="43.7856983" lon="11.6196867"><ele>947.0</ele><time>2026-04-18T12:59:11.929Z</time></trkpt><trkpt lat="43.7858217" lon="11.6197733"><ele>947.0</ele><time>2026-04-18T12:59:12.928Z</time></trkpt><trkpt lat="43.7859217" lon="11.6198483"><ele>947.0</ele><time>2026-04-18T12:59:13.928Z</time></trkpt><trkpt lat="43.786025" lon="11.6199183"><ele>947.0</ele><time>2026-04-18T12:59:14.928Z</time></trkpt><trkpt lat="43.7861233" lon="11.6199917"><ele>947.0</ele><time>2026-04-18T12:59:15.928Z</time></trkpt><trkpt lat="43.78622" lon="11.6200667"><ele>946.75</ele><time>2026-04-18T12:59:16.928Z</time></trkpt><trkpt lat="43.7863167" lon="11.62014"><ele>946.5</ele><time>2026-04-18T12:59:17.929Z</time></trkpt><trkpt lat="43.7864217" lon="11.620235"><ele>946.25</ele><time>2026-04-18T12:59:18.928Z</time></trkpt><trkpt lat="43.7865367" lon="11.6203567"><ele>946.0</ele><time>2026-04-18T12:59:19.929Z</time></trkpt><trkpt lat="43.7866583" lon="11.62051"><ele>944.6666666666666</ele><time>2026-04-18T12:59:20.928Z</time></trkpt><trkpt lat="43.7867933" lon="11.6206883"><ele>943.3333333333333</ele><time>2026-04-18T12:59:21.928Z</time></trkpt><trkpt lat="43.78693" lon="11.6208817"><ele>942.0</ele><time>2026-04-18T12:59:22.929Z</time></trkpt><trkpt lat="43.78707" lon="11.6210683"><ele>940.0</ele><time>2026-04-18T12:59:23.929Z</time></trkpt><trkpt lat="43.7872033" lon="11.6212517"><ele>938.0</ele><time>2026-04-18T12:59:24.929Z</time></trkpt><trkpt lat="43.787325" lon="11.6214217"><ele>936.0</ele><time>2026-04-18T12:59:25.928Z</time></trkpt><trkpt lat="43.787445" lon="11.6215767"><ele>936.0</ele><time>2026-04-18T12:59:26.928Z</time></trkpt><trkpt lat="43.7875517" lon="11.621725"><ele>936.0</ele><time>2026-04-18T12:59:27.928Z</time></trkpt><trkpt lat="43.7876517" lon="11.6218717"><ele>936.0</ele><time>2026-04-18T12:59:28.929Z</time></trkpt><trkpt lat="43.7877433" lon="11.6219967"><ele>936.0</ele><time>2026-04-18T12:59:29.929Z</time></trkpt><trkpt lat="43.7878233" lon="11.622105"><ele>934.5999999999999</ele><time>2026-04-18T12:59:30.929Z</time></trkpt><trkpt lat="43.7878783" lon="11.622195"><ele>933.1999999999999</ele><time>2026-04-18T12:59:31.928Z</time></trkpt><trkpt lat="43.7879317" lon="11.622265"><ele>931.8000000000001</ele><time>2026-04-18T12:59:32.928Z</time></trkpt><trkpt lat="43.7880367" lon="11.622325"><ele>930.4000000000001</ele><time>2026-04-18T12:59:34.928Z</time></trkpt><trkpt lat="43.788165" lon="11.6222333"><ele>929.0</ele><time>2026-04-18T12:59:36.928Z</time></trkpt><trkpt lat="43.78824" lon="11.62214"><ele>929.0</ele><time>2026-04-18T12:59:37.928Z</time></trkpt><trkpt lat="43.788315" lon="11.62204"><ele>929.0000000000001</ele><time>2026-04-18T12:59:38.928Z</time></trkpt><trkpt lat="43.7883967" lon="11.6219367"><ele>929.0000000000001</ele><time>2026-04-18T12:59:39.928Z</time></trkpt><trkpt lat="43.7884767" lon="11.6218417"><ele>929.0</ele><time>2026-04-18T12:59:40.928Z</time></trkpt><trkpt lat="43.7885733" lon="11.6217417"><ele>929.0</ele><time>2026-04-18T12:59:41.929Z</time></trkpt><trkpt lat="43.78867" lon="11.621645"><ele>927.75</ele><time>2026-04-18T12:59:42.929Z</time></trkpt><trkpt lat="43.788745" lon="11.6215567"><ele>926.5</ele><time>2026-04-18T12:59:43.928Z</time></trkpt><trkpt lat="43.7888183" lon="11.621445"><ele>925.25</ele><time>2026-04-18T12:59:44.928Z</time></trkpt><trkpt lat="43.7888733" lon="11.6212983"><ele>924.0</ele><time>2026-04-18T12:59:45.929Z</time></trkpt><trkpt lat="43.7889167" lon="11.62111"><ele>924.0</ele><time>2026-04-18T12:59:46.929Z</time></trkpt><trkpt lat="43.78896" lon="11.620925"><ele>924.0</ele><time>2026-04-18T12:59:47.928Z</time></trkpt><trkpt lat="43.7890167" lon="11.6207517"><ele>924.0</ele><time>2026-04-18T12:59:48.928Z</time></trkpt><trkpt lat="43.7890867" lon="11.6205933"><ele>924.0</ele><time>2026-04-18T12:59:49.929Z</time></trkpt><trkpt lat="43.7891883" lon="11.62045"><ele>924.0</ele><time>2026-04-18T12:59:50.929Z</time></trkpt><trkpt lat="43.78931" lon="11.6203167"><ele>924.0</ele><time>2026-04-18T12:59:51.929Z</time></trkpt><trkpt lat="43.78943" lon="11.62019"><ele>924.0</ele><time>2026-04-18T12:59:52.928Z</time></trkpt><trkpt lat="43.789545" lon="11.6200717"><ele>924.0</ele><time>2026-04-18T12:59:53.929Z</time></trkpt><trkpt lat="43.7896433" lon="11.61993"><ele>925.0</ele><time>2026-04-18T12:59:54.928Z</time></trkpt><trkpt lat="43.7897433" lon="11.61975"><ele>926.0</ele><time>2026-04-18T12:59:55.928Z</time></trkpt><trkpt lat="43.7898333" lon="11.61955"><ele>927.0</ele><time>2026-04-18T12:59:56.928Z</time></trkpt><trkpt lat="43.7899267" lon="11.61936"><ele>927.0</ele><time>2026-04-18T12:59:57.928Z</time></trkpt><trkpt lat="43.7900167" lon="11.6192133"><ele>927.0</ele><time>2026-04-18T12:59:58.928Z</time></trkpt><trkpt lat="43.7901183" lon="11.619095"><ele>927.0</ele><time>2026-04-18T12:59:59.928Z</time></trkpt><trkpt lat="43.7902333" lon="11.6189983"><ele>927.0</ele><time>2026-04-18T13:00:00.928Z</time></trkpt><trkpt lat="43.7903367" lon="11.6189183"><ele>924.5</ele><time>2026-04-18T13:00:01.928Z</time></trkpt><trkpt lat="43.7904267" lon="11.6188267"><ele>922.0</ele><time>2026-04-18T13:00:02.929Z</time></trkpt><trkpt lat="43.790495" lon="11.6186917"><ele>919.5</ele><time>2026-04-18T13:00:03.929Z</time></trkpt><trkpt lat="43.79054" lon="11.6184933"><ele>917.0</ele><time>2026-04-18T13:00:04.928Z</time></trkpt><trkpt lat="43.790585" lon="11.6182483"><ele>917.0</ele><time>2026-04-18T13:00:05.928Z</time></trkpt><trkpt lat="43.7906267" lon="11.6179917"><ele>917.0</ele><time>2026-04-18T13:00:06.929Z</time></trkpt><trkpt lat="43.7906683" lon="11.6177467"><ele>917.0</ele><time>2026-04-18T13:00:07.928Z</time></trkpt><trkpt lat="43.7907167" lon="11.6174917"><ele>919.0</ele><time>2026-04-18T13:00:08.929Z</time></trkpt><trkpt lat="43.7907617" lon="11.6172483"><ele>921.0</ele><time>2026-04-18T13:00:09.928Z</time></trkpt><trkpt lat="43.7908033" lon="11.6170083"><ele>923.0</ele><time>2026-04-18T13:00:10.928Z</time></trkpt><trkpt lat="43.7908317" lon="11.6167867"><ele>924.25</ele><time>2026-04-18T13:00:11.928Z</time></trkpt><trkpt lat="43.7908783" lon="11.6165717"><ele>925.5</ele><time>2026-04-18T13:00:12.928Z</time></trkpt><trkpt lat="43.7909167" lon="11.6163733"><ele>926.75</ele><time>2026-04-18T13:00:13.928Z</time></trkpt><trkpt lat="43.7909633" lon="11.6162083"><ele>928.0</ele><time>2026-04-18T13:00:14.928Z</time></trkpt><trkpt lat="43.7910333" lon="11.616055"><ele>928.0</ele><time>2026-04-18T13:00:15.928Z</time></trkpt><trkpt lat="43.7911317" lon="11.6159217"><ele>928.0</ele><time>2026-04-18T13:00:16.928Z</time></trkpt><trkpt lat="43.7912367" lon="11.6158133"><ele>928.0</ele><time>2026-04-18T13:00:17.928Z</time></trkpt><trkpt lat="43.7913267" lon="11.6157017"><ele>928.0</ele><time>2026-04-18T13:00:18.929Z</time></trkpt><trkpt lat="43.7914" lon="11.6155483"><ele>928.0</ele><time>2026-04-18T13:00:19.928Z</time></trkpt><trkpt lat="43.791455" lon="11.6153683"><ele>928.0</ele><time>2026-04-18T13:00:20.928Z</time></trkpt><trkpt lat="43.7914867" lon="11.61516"><ele>928.0</ele><time>2026-04-18T13:00:21.928Z</time></trkpt><trkpt lat="43.791505" lon="11.6149617"><ele>928.0</ele><time>2026-04-18T13:00:22.928Z</time></trkpt><trkpt lat="43.7915183" lon="11.61478"><ele>928.25</ele><time>2026-04-18T13:00:23.929Z</time></trkpt><trkpt lat="43.7915567" lon="11.6146133"><ele>928.5</ele><time>2026-04-18T13:00:24.929Z</time></trkpt><trkpt lat="43.7916267" lon="11.6144533"><ele>928.75</ele><time>2026-04-18T13:00:25.928Z</time></trkpt><trkpt lat="43.7917267" lon="11.6142983"><ele>929.0</ele><time>2026-04-18T13:00:26.928Z</time></trkpt><trkpt lat="43.7918417" lon="11.614155"><ele>926.3333333333334</ele><time>2026-04-18T13:00:27.928Z</time></trkpt><trkpt lat="43.7919617" lon="11.6140133"><ele>923.6666666666667</ele><time>2026-04-18T13:00:28.928Z</time></trkpt><trkpt lat="43.7920867" lon="11.6138667"><ele>921.0</ele><time>2026-04-18T13:00:29.928Z</time></trkpt><trkpt lat="43.7922117" lon="11.6137133"><ele>924.6666666666667</ele><time>2026-04-18T13:00:30.93Z</time></trkpt><trkpt lat="43.7923467" lon="11.61356"><ele>928.3333333333334</ele><time>2026-04-18T13:00:31.929Z</time></trkpt><trkpt lat="43.7924783" lon="11.613405"><ele>932.0</ele><time>2026-04-18T13:00:32.93Z</time></trkpt><trkpt lat="43.7926033" lon="11.613255"><ele>928.75</ele><time>2026-04-18T13:00:33.929Z</time></trkpt><trkpt lat="43.7927167" lon="11.6131167"><ele>925.5</ele><time>2026-04-18T13:00:34.93Z</time></trkpt><trkpt lat="43.792815" lon="11.6129867"><ele>922.25</ele><time>2026-04-18T13:00:35.93Z</time></trkpt><trkpt lat="43.7929017" lon="11.6128617"><ele>919.0</ele><time>2026-04-18T13:00:36.93Z</time></trkpt><trkpt lat="43.7929783" lon="11.61274"><ele>919.0</ele><time>2026-04-18T13:00:37.929Z</time></trkpt><trkpt lat="43.793045" lon="11.6125983"><ele>919.0000000000001</ele><time>2026-04-18T13:00:38.929Z</time></trkpt><trkpt lat="43.7931083" lon="11.61248"><ele>919.0000000000001</ele><time>2026-04-18T13:00:39.93Z</time></trkpt><trkpt lat="43.7931817" lon="11.61239"><ele>919.0</ele><time>2026-04-18T13:00:40.929Z</time></trkpt><trkpt lat="43.793255" lon="11.6123367"><ele>919.0</ele><time>2026-04-18T13:00:41.93Z</time></trkpt><trkpt lat="43.7933267" lon="11.6123167"><ele>919.0</ele><time>2026-04-18T13:00:42.929Z</time></trkpt><trkpt lat="43.7934233" lon="11.6123033"><ele>919.0000000000001</ele><time>2026-04-18T13:00:44.93Z</time></trkpt><trkpt lat="43.7935617" lon="11.612325"><ele>919.0000000000001</ele><time>2026-04-18T13:00:46.93Z</time></trkpt><trkpt lat="43.7936567" lon="11.6123367"><ele>919.0</ele><time>2026-04-18T13:00:47.93Z</time></trkpt><trkpt lat="43.7937717" lon="11.6123433"><ele>919.0</ele><time>2026-04-18T13:00:48.93Z</time></trkpt><trkpt lat="43.7938933" lon="11.61231"><ele>917.25</ele><time>2026-04-18T13:00:49.929Z</time></trkpt><trkpt lat="43.794025" lon="11.6122467"><ele>915.5</ele><time>2026-04-18T13:00:50.929Z</time></trkpt><trkpt lat="43.7941517" lon="11.6121617"><ele>913.75</ele><time>2026-04-18T13:00:51.929Z</time></trkpt><trkpt lat="43.7942783" lon="11.6120567"><ele>912.0</ele><time>2026-04-18T13:00:52.929Z</time></trkpt><trkpt lat="43.7944083" lon="11.6119517"><ele>909.75</ele><time>2026-04-18T13:00:53.929Z</time></trkpt><trkpt lat="43.7945367" lon="11.6118383"><ele>907.5</ele><time>2026-04-18T13:00:54.93Z</time></trkpt><trkpt lat="43.7946583" lon="11.61173"><ele>905.25</ele><time>2026-04-18T13:00:55.929Z</time></trkpt><trkpt lat="43.7947833" lon="11.61161"><ele>903.0</ele><time>2026-04-18T13:00:56.929Z</time></trkpt><trkpt lat="43.7949217" lon="11.6114917"><ele>903.0</ele><time>2026-04-18T13:00:57.929Z</time></trkpt><trkpt lat="43.7950567" lon="11.6113817"><ele>903.0</ele><time>2026-04-18T13:00:58.929Z</time></trkpt><trkpt lat="43.7951733" lon="11.6112733"><ele>903.0</ele><time>2026-04-18T13:00:59.93Z</time></trkpt><trkpt lat="43.7952667" lon="11.61116"><ele>903.0</ele><time>2026-04-18T13:01:00.929Z</time></trkpt><trkpt lat="43.79536" lon="11.61103"><ele>900.3333333333333</ele><time>2026-04-18T13:01:01.929Z</time></trkpt><trkpt lat="43.7954617" lon="11.610855"><ele>897.6666666666666</ele><time>2026-04-18T13:01:02.93Z</time></trkpt><trkpt lat="43.79555" lon="11.61067"><ele>895.0</ele><time>2026-04-18T13:01:03.929Z</time></trkpt><trkpt lat="43.795635" lon="11.6104833"><ele>896.0</ele><time>2026-04-18T13:01:04.93Z</time></trkpt><trkpt lat="43.7957067" lon="11.610315"><ele>897.0</ele><time>2026-04-18T13:01:05.929Z</time></trkpt><trkpt lat="43.79578" lon="11.6101633"><ele>898.0</ele><time>2026-04-18T13:01:06.93Z</time></trkpt><trkpt lat="43.7959" lon="11.61004"><ele>899.0</ele><time>2026-04-18T13:01:07.93Z</time></trkpt><trkpt lat="43.7960533" lon="11.60994"><ele>899.0</ele><time>2026-04-18T13:01:08.929Z</time></trkpt><trkpt lat="43.79623" lon="11.6098483"><ele>899.0</ele><time>2026-04-18T13:01:09.93Z</time></trkpt><trkpt lat="43.796415" lon="11.6097683"><ele>899.0</ele><time>2026-04-18T13:01:10.929Z</time></trkpt><trkpt lat="43.7966" lon="11.6096867"><ele>899.0</ele><time>2026-04-18T13:01:11.929Z</time></trkpt><trkpt lat="43.7967917" lon="11.60963"><ele>899.0</ele><time>2026-04-18T13:01:12.929Z</time></trkpt><trkpt lat="43.7969767" lon="11.60955"><ele>899.0</ele><time>2026-04-18T13:01:13.929Z</time></trkpt><trkpt lat="43.7971717" lon="11.6094817"><ele>900.6666666666667</ele><time>2026-04-18T13:01:14.93Z</time></trkpt><trkpt lat="43.7973667" lon="11.6094417"><ele>902.3333333333333</ele><time>2026-04-18T13:01:15.929Z</time></trkpt><trkpt lat="43.7975567" lon="11.60939"><ele>904.0</ele><time>2026-04-18T13:01:16.929Z</time></trkpt><trkpt lat="43.7977417" lon="11.6093533"><ele>904.0</ele><time>2026-04-18T13:01:17.929Z</time></trkpt><trkpt lat="43.797925" lon="11.6093217"><ele>904.0</ele><time>2026-04-18T13:01:18.929Z</time></trkpt><trkpt lat="43.7981067" lon="11.6092983"><ele>904.0</ele><time>2026-04-18T13:01:19.929Z</time></trkpt><trkpt lat="43.79846" lon="11.6092267"><ele>903.0</ele><time>2026-04-18T13:01:21.93Z</time></trkpt><trkpt lat="43.7986417" lon="11.609195"><ele>902.0</ele><time>2026-04-18T13:01:22.929Z</time></trkpt><trkpt lat="43.7988033" lon="11.609165"><ele>901.0</ele><time>2026-04-18T13:01:23.929Z</time></trkpt><trkpt lat="43.7989617" lon="11.6091367"><ele>901.0</ele><time>2026-04-18T13:01:24.93Z</time></trkpt><trkpt lat="43.79911" lon="11.6091083"><ele>901.0</ele><time>2026-04-18T13:01:25.929Z</time></trkpt><trkpt lat="43.7992417" lon="11.6090833"><ele>901.0</ele><time>2026-04-18T13:01:26.929Z</time></trkpt><trkpt lat="43.7993783" lon="11.6090567"><ele>901.0</ele><time>2026-04-18T13:01:27.93Z</time></trkpt><trkpt lat="43.7995183" lon="11.6090467"><ele>900.6666666666666</ele><time>2026-04-18T13:01:28.929Z</time></trkpt><trkpt lat="43.7996683" lon="11.6090567"><ele>900.3333333333333</ele><time>2026-04-18T13:01:29.93Z</time></trkpt><trkpt lat="43.79983" lon="11.6090933"><ele>900.0</ele><time>2026-04-18T13:01:30.929Z</time></trkpt><trkpt lat="43.7999833" lon="11.609145"><ele>900.0</ele><time>2026-04-18T13:01:31.93Z</time></trkpt><trkpt lat="43.8001183" lon="11.60919"><ele>900.0</ele><time>2026-04-18T13:01:32.929Z</time></trkpt><trkpt lat="43.800245" lon="11.6092333"><ele>900.0</ele><time>2026-04-18T13:01:33.93Z</time></trkpt><trkpt lat="43.8003767" lon="11.609285"><ele>900.0</ele><time>2026-04-18T13:01:34.929Z</time></trkpt><trkpt lat="43.8005033" lon="11.60935"><ele>901.5</ele><time>2026-04-18T13:01:35.93Z</time></trkpt><trkpt lat="43.8006167" lon="11.6094383"><ele>903.0</ele><time>2026-04-18T13:01:36.93Z</time></trkpt><trkpt lat="43.80073" lon="11.60955"><ele>904.5</ele><time>2026-04-18T13:01:37.93Z</time></trkpt><trkpt lat="43.800835" lon="11.6096633"><ele>906.0</ele><time>2026-04-18T13:01:38.929Z</time></trkpt><trkpt lat="43.8009183" lon="11.609785"><ele>908.75</ele><time>2026-04-18T13:01:39.93Z</time></trkpt><trkpt lat="43.8009917" lon="11.6098983"><ele>911.5</ele><time>2026-04-18T13:01:40.929Z</time></trkpt><trkpt lat="43.80106" lon="11.610025"><ele>914.25</ele><time>2026-04-18T13:01:41.929Z</time></trkpt><trkpt lat="43.8011317" lon="11.6101467"><ele>917.0</ele><time>2026-04-18T13:01:42.929Z</time></trkpt><trkpt lat="43.801215" lon="11.610275"><ele>912.0</ele><time>2026-04-18T13:01:43.929Z</time></trkpt><trkpt lat="43.8013" lon="11.610385"><ele>907.0</ele><time>2026-04-18T13:01:44.929Z</time></trkpt><trkpt lat="43.80139" lon="11.610485"><ele>902.0</ele><time>2026-04-18T13:01:45.93Z</time></trkpt><trkpt lat="43.8015033" lon="11.6105783"><ele>897.0</ele><time>2026-04-18T13:01:46.929Z</time></trkpt><trkpt lat="43.80163" lon="11.6106683"><ele>897.0</ele><time>2026-04-18T13:01:47.929Z</time></trkpt><trkpt lat="43.801755" lon="11.6107583"><ele>897.0</ele><time>2026-04-18T13:01:48.929Z</time></trkpt><trkpt lat="43.8018767" lon="11.610845"><ele>897.0</ele><time>2026-04-18T13:01:49.929Z</time></trkpt><trkpt lat="43.801985" lon="11.610925"><ele>897.0</ele><time>2026-04-18T13:01:50.929Z</time></trkpt><trkpt lat="43.8020783" lon="11.6110183"><ele>896.3333333333334</ele><time>2026-04-18T13:01:51.93Z</time></trkpt><trkpt lat="43.802155" lon="11.6111417"><ele>895.6666666666667</ele><time>2026-04-18T13:01:52.93Z</time></trkpt><trkpt lat="43.8021983" lon="11.6112567"><ele>895.0</ele><time>2026-04-18T13:01:53.929Z</time></trkpt><trkpt lat="43.802225" lon="11.61137"><ele>894.3333333333334</ele><time>2026-04-18T13:01:54.929Z</time></trkpt><trkpt lat="43.80224" lon="11.611465"><ele>893.6666666666667</ele><time>2026-04-18T13:01:55.93Z</time></trkpt><trkpt lat="43.80225" lon="11.6115667"><ele>893.0</ele><time>2026-04-18T13:01:57.929Z</time></trkpt><trkpt lat="43.8022983" lon="11.611645"><ele>893.0</ele><time>2026-04-18T13:02:03.929Z</time></trkpt><trkpt lat="43.8024117" lon="11.6117067"><ele>893.0</ele><time>2026-04-18T13:02:05.93Z</time></trkpt><trkpt lat="43.802475" lon="11.61175"><ele>893.0</ele><time>2026-04-18T13:02:06.929Z</time></trkpt><trkpt lat="43.80253" lon="11.611795"><ele>893.0</ele><time>2026-04-18T13:02:07.929Z</time></trkpt><trkpt lat="43.8026333" lon="11.6118433"><ele>893.0</ele><time>2026-04-18T13:02:09.93Z</time></trkpt><trkpt lat="43.8027367" lon="11.61185"><ele>895.5999999999999</ele><time>2026-04-18T13:02:11.929Z</time></trkpt><trkpt lat="43.8028417" lon="11.611825"><ele>898.1999999999999</ele><time>2026-04-18T13:02:13.929Z</time></trkpt><trkpt lat="43.8029417" lon="11.6117733"><ele>900.8</ele><time>2026-04-18T13:02:15.929Z</time></trkpt><trkpt lat="43.8030433" lon="11.611675"><ele>903.4</ele><time>2026-04-18T13:02:23.929Z</time></trkpt><trkpt lat="43.8031267" lon="11.6116167"><ele>906.0</ele><time>2026-04-18T13:02:25.929Z</time></trkpt><trkpt lat="43.803215" lon="11.611555"><ele>906.0</ele><time>2026-04-18T13:02:27.93Z</time></trkpt><trkpt lat="43.8033233" lon="11.6114883"><ele>905.9999999999999</ele><time>2026-04-18T13:02:29.929Z</time></trkpt><trkpt lat="43.80344" lon="11.6114233"><ele>905.9999999999999</ele><time>2026-04-18T13:02:31.929Z</time></trkpt><trkpt lat="43.803505" lon="11.6113817"><ele>906.0</ele><time>2026-04-18T13:02:32.929Z</time></trkpt><trkpt lat="43.8035733" lon="11.6113467"><ele>906.0</ele><time>2026-04-18T13:02:33.93Z</time></trkpt><trkpt lat="43.8036383" lon="11.611315"><ele>906.6666666666666</ele><time>2026-04-18T13:02:34.929Z</time></trkpt><trkpt lat="43.8037417" lon="11.6112683"><ele>907.3333333333333</ele><time>2026-04-18T13:02:36.929Z</time></trkpt><trkpt lat="43.8038233" lon="11.611245"><ele>908.0</ele><time>2026-04-18T13:02:38.93Z</time></trkpt><trkpt lat="43.803885" lon="11.6112017"><ele>908.6666666666666</ele><time>2026-04-18T13:02:41.93Z</time></trkpt><trkpt lat="43.8039467" lon="11.6111317"><ele>909.3333333333333</ele><time>2026-04-18T13:02:44.929Z</time></trkpt><trkpt lat="43.8039983" lon="11.6110667"><ele>910.0</ele><time>2026-04-18T13:02:47.929Z</time></trkpt><trkpt lat="43.8040533" lon="11.6110133"><ele>911.6</ele><time>2026-04-18T13:02:49.929Z</time></trkpt><trkpt lat="43.8041033" lon="11.610935"><ele>913.2</ele><time>2026-04-18T13:02:51.93Z</time></trkpt><trkpt lat="43.8041767" lon="11.6108167"><ele>914.8</ele><time>2026-04-18T13:02:53.93Z</time></trkpt><trkpt lat="43.804235" lon="11.6107067"><ele>916.4</ele><time>2026-04-18T13:02:55.929Z</time></trkpt><trkpt lat="43.8043233" lon="11.6105983"><ele>918.0</ele><time>2026-04-18T13:02:57.929Z</time></trkpt><trkpt lat="43.8044033" lon="11.6104917"><ele>918.0</ele><time>2026-04-18T13:02:59.929Z</time></trkpt><trkpt lat="43.804485" lon="11.6103817"><ele>918.0</ele><time>2026-04-18T13:03:01.929Z</time></trkpt><trkpt lat="43.8045233" lon="11.6103117"><ele>918.0</ele><time>2026-04-18T13:03:03.929Z</time></trkpt><trkpt lat="43.8045717" lon="11.610235"><ele>918.0</ele><time>2026-04-18T13:03:06.929Z</time></trkpt><trkpt lat="43.8046133" lon="11.6101483"><ele>918.0</ele><time>2026-04-18T13:03:17.929Z</time></trkpt><trkpt lat="43.8046767" lon="11.6100367"><ele>918.0</ele><time>2026-04-18T13:03:20.93Z</time></trkpt><trkpt lat="43.8047483" lon="11.6099183"><ele>921.0</ele><time>2026-04-18T13:03:22.929Z</time></trkpt><trkpt lat="43.8048133" lon="11.6098133"><ele>924.0</ele><time>2026-04-18T13:03:24.93Z</time></trkpt><trkpt lat="43.8048717" lon="11.609725"><ele>927.0</ele><time>2026-04-18T13:03:27.93Z</time></trkpt><trkpt lat="43.804925" lon="11.6096717"><ele>930.0</ele><time>2026-04-18T13:03:30.929Z</time></trkpt><trkpt lat="43.8049883" lon="11.6095867"><ele>933.0</ele><time>2026-04-18T13:03:34.929Z</time></trkpt><trkpt lat="43.8050282" lon="11.6095145"><ele>936.0</ele><time>2026-04-18T13:03:39.957Z</time></trkpt><trkpt lat="43.8051467" lon="11.6094785"><ele>940.1999999999999</ele><time>2026-04-18T13:04:35.947Z</time></trkpt><trkpt lat="43.8052263" lon="11.6094582"><ele>944.3999999999999</ele><time>2026-04-18T13:04:37.922Z</time></trkpt><trkpt lat="43.80539" lon="11.6093567"><ele>948.6</ele><time>2026-04-18T13:04:39.93Z</time></trkpt><trkpt lat="43.8055133" lon="11.6093517"><ele>952.8</ele><time>2026-04-18T13:04:41.929Z</time></trkpt><trkpt lat="43.8055783" lon="11.6093467"><ele>957.0</ele><time>2026-04-18T13:04:42.93Z</time></trkpt><trkpt lat="43.8056433" lon="11.6093433"><ele>957.0</ele><time>2026-04-18T13:04:43.929Z</time></trkpt><trkpt lat="43.8057067" lon="11.609325"><ele>957.0</ele><time>2026-04-18T13:04:44.929Z</time></trkpt><trkpt lat="43.8057683" lon="11.609285"><ele>957.0</ele><time>2026-04-18T13:04:45.929Z</time></trkpt><trkpt lat="43.8058267" lon="11.6092367"><ele>957.0</ele><time>2026-04-18T13:04:46.929Z</time></trkpt><trkpt lat="43.8058817" lon="11.60918"><ele>957.0</ele><time>2026-04-18T13:04:47.929Z</time></trkpt><trkpt lat="43.8059383" lon="11.60912"><ele>957.0</ele><time>2026-04-18T13:04:48.93Z</time></trkpt><trkpt lat="43.8060233" lon="11.6089983"><ele>956.2</ele><time>2026-04-18T13:04:50.929Z</time></trkpt><trkpt lat="43.8061033" lon="11.60889"><ele>955.4000000000001</ele><time>2026-04-18T13:04:52.929Z</time></trkpt><trkpt lat="43.80618" lon="11.6088"><ele>954.5999999999999</ele><time>2026-04-18T13:04:54.93Z</time></trkpt><trkpt lat="43.8062317" lon="11.6087217"><ele>953.8</ele><time>2026-04-18T13:04:56.929Z</time></trkpt><trkpt lat="43.8063167" lon="11.6086067"><ele>953.0</ele><time>2026-04-18T13:05:05.929Z</time></trkpt><trkpt lat="43.8063767" lon="11.6085467"><ele>955.2</ele><time>2026-04-18T13:05:08.93Z</time></trkpt><trkpt lat="43.8064767" lon="11.608535"><ele>957.4</ele><time>2026-04-18T13:05:10.929Z</time></trkpt><trkpt lat="43.80654" lon="11.6085333"><ele>959.6000000000001</ele><time>2026-04-18T13:05:11.93Z</time></trkpt><trkpt lat="43.8066583" lon="11.6085133"><ele>961.8000000000001</ele><time>2026-04-18T13:05:13.929Z</time></trkpt><trkpt lat="43.806785" lon="11.60848"><ele>964.0</ele><time>2026-04-18T13:05:15.929Z</time></trkpt><trkpt lat="43.8069117" lon="11.60846"><ele>965.6666666666666</ele><time>2026-04-18T13:05:17.93Z</time></trkpt><trkpt lat="43.8069783" lon="11.6084617"><ele>967.3333333333333</ele><time>2026-04-18T13:05:18.93Z</time></trkpt><trkpt lat="43.8070483" lon="11.60847"><ele>969.0</ele><time>2026-04-18T13:05:19.93Z</time></trkpt><trkpt lat="43.8071617" lon="11.6085017"><ele>970.6666666666667</ele><time>2026-04-18T13:05:21.929Z</time></trkpt><trkpt lat="43.8072483" lon="11.6085317"><ele>972.3333333333334</ele><time>2026-04-18T13:05:23.929Z</time></trkpt><trkpt lat="43.80734" lon="11.6085483"><ele>974.0</ele><time>2026-04-18T13:05:25.929Z</time></trkpt><trkpt lat="43.8074533" lon="11.6085883"><ele>974.0</ele><time>2026-04-18T13:05:27.93Z</time></trkpt><trkpt lat="43.80752" lon="11.6086133"><ele>974.0000000000001</ele><time>2026-04-18T13:05:28.929Z</time></trkpt><trkpt lat="43.80762" lon="11.6086383"><ele>974.0000000000001</ele><time>2026-04-18T13:05:30.929Z</time></trkpt><trkpt lat="43.8077317" lon="11.6086383"><ele>974.0</ele><time>2026-04-18T13:05:32.93Z</time></trkpt><trkpt lat="43.8078167" lon="11.6085867"><ele>974.0</ele><time>2026-04-18T13:05:34.93Z</time></trkpt><trkpt lat="43.8078783" lon="11.60851"><ele>978.0</ele><time>2026-04-18T13:05:36.929Z</time></trkpt><trkpt lat="43.807945" lon="11.6083883"><ele>978.0</ele><time>2026-04-18T13:05:38.929Z</time></trkpt><trkpt lat="43.8080283" lon="11.6083083"><ele>978.0</ele><time>2026-04-18T13:05:40.929Z</time></trkpt><trkpt lat="43.8081033" lon="11.6082533"><ele>978.0</ele><time>2026-04-18T13:05:42.929Z</time></trkpt></trkseg></trk></gpx>